<?xml version="1.0" encoding="UTF-8" standalone="no" ?>
<gpx xmlns="http://www.topografix.com/GPX/1/1" xmlns:xsi="http://www.w3.org/2001/XMLSchema-instance" xsi:schemaLocation="http://www.topografix.com/GPX/1/1 http://www.topografix.com/GPX/1/1/gpx.xsd" version="1.1" creator="VisuGPX - https://www.visugpx.com">
  <metadata>
    <name>Pré du four</name>
  </metadata>
  <trk>
    <name><![CDATA[260205-préDuFour]]></name>
    <extensions>
      <line xmlns="http://www.topografix.com/GPX/gpx_style/0/2">
        <color>0000FF</color>
        <width>4</width>
      </line>
    </extensions>
    <trkseg>
      <trkpt lat="45.07031" lon="5.64155">
        <ele>389.3</ele>
        <time>2026-02-05T10:27:34</time>
      </trkpt>
      <trkpt lat="45.07032" lon="5.64155">
        <ele>387.5</ele>
        <time>2026-02-05T10:27:49</time>
      </trkpt>
      <trkpt lat="45.07032" lon="5.64155">
        <ele>387.5</ele>
        <time>2026-02-05T10:27:50</time>
      </trkpt>
      <trkpt lat="45.07032" lon="5.64155">
        <ele>387.5</ele>
        <time>2026-02-05T10:27:51</time>
      </trkpt>
      <trkpt lat="45.07032" lon="5.64155">
        <ele>387.5</ele>
        <time>2026-02-05T10:27:51</time>
      </trkpt>
      <trkpt lat="45.07032" lon="5.64155">
        <ele>387.5</ele>
        <time>2026-02-05T10:27:52</time>
      </trkpt>
      <trkpt lat="45.07033" lon="5.64156">
        <ele>387.5</ele>
        <time>2026-02-05T10:27:52</time>
      </trkpt>
      <trkpt lat="45.07034" lon="5.6416">
        <ele>386.4</ele>
        <time>2026-02-05T10:27:54</time>
      </trkpt>
      <trkpt lat="45.07035" lon="5.64162">
        <ele>386.4</ele>
        <time>2026-02-05T10:27:55</time>
      </trkpt>
      <trkpt lat="45.07036" lon="5.64165">
        <ele>386.4</ele>
        <time>2026-02-05T10:27:57</time>
      </trkpt>
      <trkpt lat="45.07037" lon="5.64171">
        <ele>386.4</ele>
        <time>2026-02-05T10:28:01</time>
      </trkpt>
      <trkpt lat="45.07038" lon="5.64174">
        <ele>385.7</ele>
        <time>2026-02-05T10:28:03</time>
      </trkpt>
      <trkpt lat="45.0704" lon="5.64177">
        <ele>385.7</ele>
        <time>2026-02-05T10:28:05</time>
      </trkpt>
      <trkpt lat="45.0704" lon="5.64177">
        <ele>385.7</ele>
        <time>2026-02-05T10:28:05</time>
      </trkpt>
      <trkpt lat="45.07042" lon="5.6418">
        <ele>385.7</ele>
        <time>2026-02-05T10:28:07</time>
      </trkpt>
      <trkpt lat="45.07042" lon="5.64181">
        <ele>385.7</ele>
        <time>2026-02-05T10:28:07</time>
      </trkpt>
      <trkpt lat="45.07053" lon="5.64192">
        <ele>385.3</ele>
        <time>2026-02-05T10:28:17</time>
      </trkpt>
      <trkpt lat="45.07057" lon="5.64194">
        <ele>384.6</ele>
        <time>2026-02-05T10:28:20</time>
      </trkpt>
      <trkpt lat="45.07058" lon="5.64195">
        <ele>384.6</ele>
        <time>2026-02-05T10:28:22</time>
      </trkpt>
      <trkpt lat="45.07074" lon="5.64207">
        <ele>384.9</ele>
        <time>2026-02-05T10:28:35</time>
      </trkpt>
      <trkpt lat="45.07096" lon="5.64223">
        <ele>382.4</ele>
        <time>2026-02-05T10:28:54</time>
      </trkpt>
      <trkpt lat="45.07099" lon="5.64224">
        <ele>381</ele>
        <time>2026-02-05T10:28:58</time>
      </trkpt>
      <trkpt lat="45.07104" lon="5.64225">
        <ele>381</ele>
        <time>2026-02-05T10:29:02</time>
      </trkpt>
      <trkpt lat="45.07107" lon="5.64225">
        <ele>381.76666</ele>
        <time>2026-02-05T10:29:06</time>
      </trkpt>
      <trkpt lat="45.07116" lon="5.64223">
        <ele>383</ele>
        <time>2026-02-05T10:29:12</time>
      </trkpt>
      <trkpt lat="45.07125" lon="5.64222">
        <ele>383.3</ele>
        <time>2026-02-05T10:29:20</time>
      </trkpt>
      <trkpt lat="45.07132" lon="5.64221">
        <ele>383.73334</ele>
        <time>2026-02-05T10:29:25</time>
      </trkpt>
      <trkpt lat="45.07133" lon="5.64221">
        <ele>383.73334</ele>
        <time>2026-02-05T10:29:25</time>
      </trkpt>
      <trkpt lat="45.07134" lon="5.64221">
        <ele>383.73334</ele>
        <time>2026-02-05T10:29:26</time>
      </trkpt>
      <trkpt lat="45.07142" lon="5.64222">
        <ele>384.86667</ele>
        <time>2026-02-05T10:29:31</time>
      </trkpt>
      <trkpt lat="45.07149" lon="5.64223">
        <ele>386.2</ele>
        <time>2026-02-05T10:29:37</time>
      </trkpt>
      <trkpt lat="45.07151" lon="5.64223">
        <ele>386.2</ele>
        <time>2026-02-05T10:29:39</time>
      </trkpt>
      <trkpt lat="45.07156" lon="5.64224">
        <ele>388.5</ele>
        <time>2026-02-05T10:29:42</time>
      </trkpt>
      <trkpt lat="45.0716" lon="5.64225">
        <ele>388.5</ele>
        <time>2026-02-05T10:29:45</time>
      </trkpt>
      <trkpt lat="45.07163" lon="5.64225">
        <ele>388.1</ele>
        <time>2026-02-05T10:29:47</time>
      </trkpt>
      <trkpt lat="45.07163" lon="5.64224">
        <ele>388.1</ele>
        <time>2026-02-05T10:29:47</time>
      </trkpt>
      <trkpt lat="45.07164" lon="5.64224">
        <ele>388.1</ele>
        <time>2026-02-05T10:29:48</time>
      </trkpt>
      <trkpt lat="45.07165" lon="5.64223">
        <ele>388.1</ele>
        <time>2026-02-05T10:29:48</time>
      </trkpt>
      <trkpt lat="45.07166" lon="5.64221">
        <ele>388.1</ele>
        <time>2026-02-05T10:29:49</time>
      </trkpt>
      <trkpt lat="45.07167" lon="5.64218">
        <ele>388.1</ele>
        <time>2026-02-05T10:29:50</time>
      </trkpt>
      <trkpt lat="45.07168" lon="5.64213">
        <ele>387</ele>
        <time>2026-02-05T10:29:53</time>
      </trkpt>
      <trkpt lat="45.07168" lon="5.64211">
        <ele>387</ele>
        <time>2026-02-05T10:29:54</time>
      </trkpt>
      <trkpt lat="45.0717" lon="5.64201">
        <ele>387.5</ele>
        <time>2026-02-05T10:29:59</time>
      </trkpt>
      <trkpt lat="45.07171" lon="5.64196">
        <ele>387.5</ele>
        <time>2026-02-05T10:30:02</time>
      </trkpt>
      <trkpt lat="45.07172" lon="5.64194">
        <ele>387.5</ele>
        <time>2026-02-05T10:30:03</time>
      </trkpt>
      <trkpt lat="45.07173" lon="5.64192">
        <ele>387.7</ele>
        <time>2026-02-05T10:30:05</time>
      </trkpt>
      <trkpt lat="45.07174" lon="5.64191">
        <ele>387.7</ele>
        <time>2026-02-05T10:30:06</time>
      </trkpt>
      <trkpt lat="45.07175" lon="5.64187">
        <ele>387.7</ele>
        <time>2026-02-05T10:30:09</time>
      </trkpt>
      <trkpt lat="45.07175" lon="5.64186">
        <ele>387.7</ele>
        <time>2026-02-05T10:30:09</time>
      </trkpt>
      <trkpt lat="45.07177" lon="5.64174">
        <ele>388.8</ele>
        <time>2026-02-05T10:30:17</time>
      </trkpt>
      <trkpt lat="45.07177" lon="5.64154">
        <ele>391.7</ele>
        <time>2026-02-05T10:30:28</time>
      </trkpt>
      <trkpt lat="45.07177" lon="5.64152">
        <ele>391.3</ele>
        <time>2026-02-05T10:30:30</time>
      </trkpt>
      <trkpt lat="45.07177" lon="5.64149">
        <ele>391.3</ele>
        <time>2026-02-05T10:30:32</time>
      </trkpt>
      <trkpt lat="45.07174" lon="5.64142">
        <ele>391.9</ele>
        <time>2026-02-05T10:30:37</time>
      </trkpt>
      <trkpt lat="45.07172" lon="5.64136">
        <ele>392.56668</ele>
        <time>2026-02-05T10:30:42</time>
      </trkpt>
      <trkpt lat="45.07171" lon="5.64132">
        <ele>392.56668</ele>
        <time>2026-02-05T10:30:44</time>
      </trkpt>
      <trkpt lat="45.0717" lon="5.64131">
        <ele>392.56668</ele>
        <time>2026-02-05T10:30:44</time>
      </trkpt>
      <trkpt lat="45.0717" lon="5.64127">
        <ele>392.56668</ele>
        <time>2026-02-05T10:30:47</time>
      </trkpt>
      <trkpt lat="45.07168" lon="5.64122">
        <ele>393.43332</ele>
        <time>2026-02-05T10:30:50</time>
      </trkpt>
      <trkpt lat="45.07168" lon="5.64117">
        <ele>393.43332</ele>
        <time>2026-02-05T10:30:52</time>
      </trkpt>
      <trkpt lat="45.07167" lon="5.64106">
        <ele>394.1</ele>
        <time>2026-02-05T10:30:59</time>
      </trkpt>
      <trkpt lat="45.07167" lon="5.64102">
        <ele>395.4</ele>
        <time>2026-02-05T10:31:02</time>
      </trkpt>
      <trkpt lat="45.07169" lon="5.64096">
        <ele>397.8</ele>
        <time>2026-02-05T10:31:07</time>
      </trkpt>
      <trkpt lat="45.07169" lon="5.64086">
        <ele>398.03333</ele>
        <time>2026-02-05T10:31:13</time>
      </trkpt>
      <trkpt lat="45.07167" lon="5.6408">
        <ele>398.03333</ele>
        <time>2026-02-05T10:31:16</time>
      </trkpt>
      <trkpt lat="45.07168" lon="5.6407">
        <ele>399</ele>
        <time>2026-02-05T10:31:23</time>
      </trkpt>
      <trkpt lat="45.07171" lon="5.64065">
        <ele>402.8</ele>
        <time>2026-02-05T10:31:26</time>
      </trkpt>
      <trkpt lat="45.07174" lon="5.64051">
        <ele>402.2</ele>
        <time>2026-02-05T10:31:35</time>
      </trkpt>
      <trkpt lat="45.07175" lon="5.64046">
        <ele>402.5</ele>
        <time>2026-02-05T10:31:38</time>
      </trkpt>
      <trkpt lat="45.07175" lon="5.64045">
        <ele>402.5</ele>
        <time>2026-02-05T10:31:39</time>
      </trkpt>
      <trkpt lat="45.07173" lon="5.64041">
        <ele>402.5</ele>
        <time>2026-02-05T10:31:41</time>
      </trkpt>
      <trkpt lat="45.07166" lon="5.6403">
        <ele>403.9</ele>
        <time>2026-02-05T10:31:51</time>
      </trkpt>
      <trkpt lat="45.07158" lon="5.64016">
        <ele>404.5</ele>
        <time>2026-02-05T10:32:02</time>
      </trkpt>
      <trkpt lat="45.07157" lon="5.64013">
        <ele>404.5</ele>
        <time>2026-02-05T10:32:04</time>
      </trkpt>
      <trkpt lat="45.07153" lon="5.64005">
        <ele>404.83334</ele>
        <time>2026-02-05T10:32:10</time>
      </trkpt>
      <trkpt lat="45.07149" lon="5.63994">
        <ele>404.3</ele>
        <time>2026-02-05T10:32:18</time>
      </trkpt>
      <trkpt lat="45.07148" lon="5.63989">
        <ele>403.6</ele>
        <time>2026-02-05T10:32:21</time>
      </trkpt>
      <trkpt lat="45.07148" lon="5.63982">
        <ele>403.6</ele>
        <time>2026-02-05T10:32:26</time>
      </trkpt>
      <trkpt lat="45.07148" lon="5.6398">
        <ele>403.7</ele>
        <time>2026-02-05T10:32:27</time>
      </trkpt>
      <trkpt lat="45.07147" lon="5.63978">
        <ele>403.7</ele>
        <time>2026-02-05T10:32:28</time>
      </trkpt>
      <trkpt lat="45.07147" lon="5.63976">
        <ele>403.7</ele>
        <time>2026-02-05T10:32:30</time>
      </trkpt>
      <trkpt lat="45.07149" lon="5.63966">
        <ele>402.5</ele>
        <time>2026-02-05T10:32:37</time>
      </trkpt>
      <trkpt lat="45.07149" lon="5.6396">
        <ele>400.9</ele>
        <time>2026-02-05T10:32:41</time>
      </trkpt>
      <trkpt lat="45.07149" lon="5.63957">
        <ele>400.9</ele>
        <time>2026-02-05T10:32:42</time>
      </trkpt>
      <trkpt lat="45.07146" lon="5.63946">
        <ele>399.2</ele>
        <time>2026-02-05T10:32:50</time>
      </trkpt>
      <trkpt lat="45.07145" lon="5.63925">
        <ele>401.6</ele>
        <time>2026-02-05T10:33:02</time>
      </trkpt>
      <trkpt lat="45.07144" lon="5.63922">
        <ele>401.6</ele>
        <time>2026-02-05T10:33:05</time>
      </trkpt>
      <trkpt lat="45.07144" lon="5.63919">
        <ele>403.93332</ele>
        <time>2026-02-05T10:33:07</time>
      </trkpt>
      <trkpt lat="45.07143" lon="5.63914">
        <ele>403.93332</ele>
        <time>2026-02-05T10:33:11</time>
      </trkpt>
      <trkpt lat="45.07142" lon="5.63913">
        <ele>405.7</ele>
        <time>2026-02-05T10:33:13</time>
      </trkpt>
      <trkpt lat="45.0714" lon="5.63907">
        <ele>405.7</ele>
        <time>2026-02-05T10:33:18</time>
      </trkpt>
      <trkpt lat="45.07134" lon="5.63899">
        <ele>412.3</ele>
        <time>2026-02-05T10:33:25</time>
      </trkpt>
      <trkpt lat="45.07132" lon="5.63896">
        <ele>412.3</ele>
        <time>2026-02-05T10:33:27</time>
      </trkpt>
      <trkpt lat="45.07131" lon="5.63892">
        <ele>412.3</ele>
        <time>2026-02-05T10:33:29</time>
      </trkpt>
      <trkpt lat="45.07129" lon="5.6389">
        <ele>412.3</ele>
        <time>2026-02-05T10:33:30</time>
      </trkpt>
      <trkpt lat="45.07128" lon="5.63887">
        <ele>413.5</ele>
        <time>2026-02-05T10:33:32</time>
      </trkpt>
      <trkpt lat="45.07124" lon="5.63883">
        <ele>413.5</ele>
        <time>2026-02-05T10:33:36</time>
      </trkpt>
      <trkpt lat="45.0712" lon="5.63877">
        <ele>412.9</ele>
        <time>2026-02-05T10:33:42</time>
      </trkpt>
      <trkpt lat="45.07113" lon="5.63872">
        <ele>412.7</ele>
        <time>2026-02-05T10:33:49</time>
      </trkpt>
      <trkpt lat="45.07113" lon="5.63871">
        <ele>414.06668</ele>
        <time>2026-02-05T10:33:50</time>
      </trkpt>
      <trkpt lat="45.07112" lon="5.6387">
        <ele>414.06668</ele>
        <time>2026-02-05T10:33:51</time>
      </trkpt>
      <trkpt lat="45.07112" lon="5.63869">
        <ele>414.06668</ele>
        <time>2026-02-05T10:33:52</time>
      </trkpt>
      <trkpt lat="45.07112" lon="5.63869">
        <ele>414.06668</ele>
        <time>2026-02-05T10:33:53</time>
      </trkpt>
      <trkpt lat="45.07111" lon="5.63869">
        <ele>414.06668</ele>
        <time>2026-02-05T10:33:54</time>
      </trkpt>
      <trkpt lat="45.07111" lon="5.63868">
        <ele>414.06668</ele>
        <time>2026-02-05T10:33:55</time>
      </trkpt>
      <trkpt lat="45.07111" lon="5.63868">
        <ele>414.06668</ele>
        <time>2026-02-05T10:33:56</time>
      </trkpt>
      <trkpt lat="45.07111" lon="5.63869">
        <ele>415.43332</ele>
        <time>2026-02-05T10:33:57</time>
      </trkpt>
      <trkpt lat="45.07112" lon="5.6387">
        <ele>415.43332</ele>
        <time>2026-02-05T10:34:00</time>
      </trkpt>
      <trkpt lat="45.07112" lon="5.6387">
        <ele>415.43332</ele>
        <time>2026-02-05T10:34:01</time>
      </trkpt>
      <trkpt lat="45.07113" lon="5.63871">
        <ele>415.43332</ele>
        <time>2026-02-05T10:34:02</time>
      </trkpt>
      <trkpt lat="45.07113" lon="5.63871">
        <ele>415.43332</ele>
        <time>2026-02-05T10:34:02</time>
      </trkpt>
      <trkpt lat="45.07113" lon="5.63872">
        <ele>415.43332</ele>
        <time>2026-02-05T10:34:03</time>
      </trkpt>
      <trkpt lat="45.07114" lon="5.63872">
        <ele>415.53333</ele>
        <time>2026-02-05T10:34:05</time>
      </trkpt>
      <trkpt lat="45.07115" lon="5.63872">
        <ele>415.53333</ele>
        <time>2026-02-05T10:34:06</time>
      </trkpt>
      <trkpt lat="45.07114" lon="5.63872">
        <ele>415.53333</ele>
        <time>2026-02-05T10:34:07</time>
      </trkpt>
      <trkpt lat="45.07114" lon="5.63873">
        <ele>415.53333</ele>
        <time>2026-02-05T10:34:08</time>
      </trkpt>
      <trkpt lat="45.07114" lon="5.63873">
        <ele>415.53333</ele>
        <time>2026-02-05T10:34:08</time>
      </trkpt>
      <trkpt lat="45.07114" lon="5.63873">
        <ele>415.53333</ele>
        <time>2026-02-05T10:34:09</time>
      </trkpt>
      <trkpt lat="45.07114" lon="5.63872">
        <ele>415.53333</ele>
        <time>2026-02-05T10:34:10</time>
      </trkpt>
      <trkpt lat="45.07115" lon="5.63871">
        <ele>415.53333</ele>
        <time>2026-02-05T10:34:11</time>
      </trkpt>
      <trkpt lat="45.07115" lon="5.63869">
        <ele>417.56668</ele>
        <time>2026-02-05T10:34:11</time>
      </trkpt>
      <trkpt lat="45.07119" lon="5.63861">
        <ele>417.56668</ele>
        <time>2026-02-05T10:34:15</time>
      </trkpt>
      <trkpt lat="45.07121" lon="5.63858">
        <ele>417.56668</ele>
        <time>2026-02-05T10:34:17</time>
      </trkpt>
      <trkpt lat="45.07128" lon="5.63844">
        <ele>417</ele>
        <time>2026-02-05T10:34:27</time>
      </trkpt>
      <trkpt lat="45.07135" lon="5.63829">
        <ele>418.6</ele>
        <time>2026-02-05T10:34:40</time>
      </trkpt>
      <trkpt lat="45.07139" lon="5.63822">
        <ele>421</ele>
        <time>2026-02-05T10:34:45</time>
      </trkpt>
      <trkpt lat="45.0714" lon="5.63819">
        <ele>421.8</ele>
        <time>2026-02-05T10:34:48</time>
      </trkpt>
      <trkpt lat="45.07143" lon="5.63812">
        <ele>421.8</ele>
        <time>2026-02-05T10:34:53</time>
      </trkpt>
      <trkpt lat="45.07148" lon="5.63806">
        <ele>422.4</ele>
        <time>2026-02-05T10:34:58</time>
      </trkpt>
      <trkpt lat="45.07151" lon="5.63803">
        <ele>422.4</ele>
        <time>2026-02-05T10:35:01</time>
      </trkpt>
      <trkpt lat="45.07152" lon="5.63801">
        <ele>423</ele>
        <time>2026-02-05T10:35:04</time>
      </trkpt>
      <trkpt lat="45.07153" lon="5.638">
        <ele>423</ele>
        <time>2026-02-05T10:35:05</time>
      </trkpt>
      <trkpt lat="45.07156" lon="5.63798">
        <ele>426.1</ele>
        <time>2026-02-05T10:35:10</time>
      </trkpt>
      <trkpt lat="45.07157" lon="5.63798">
        <ele>426.1</ele>
        <time>2026-02-05T10:35:11</time>
      </trkpt>
      <trkpt lat="45.07158" lon="5.63798">
        <ele>426.1</ele>
        <time>2026-02-05T10:35:12</time>
      </trkpt>
      <trkpt lat="45.0716" lon="5.63798">
        <ele>426.1</ele>
        <time>2026-02-05T10:35:14</time>
      </trkpt>
      <trkpt lat="45.07163" lon="5.63797">
        <ele>428</ele>
        <time>2026-02-05T10:35:17</time>
      </trkpt>
      <trkpt lat="45.07166" lon="5.63797">
        <ele>428</ele>
        <time>2026-02-05T10:35:21</time>
      </trkpt>
      <trkpt lat="45.07166" lon="5.63797">
        <ele>428</ele>
        <time>2026-02-05T10:35:22</time>
      </trkpt>
      <trkpt lat="45.07168" lon="5.63797">
        <ele>427.6</ele>
        <time>2026-02-05T10:35:24</time>
      </trkpt>
      <trkpt lat="45.07172" lon="5.63795">
        <ele>427.6</ele>
        <time>2026-02-05T10:35:29</time>
      </trkpt>
      <trkpt lat="45.07185" lon="5.63791">
        <ele>427.8</ele>
        <time>2026-02-05T10:35:39</time>
      </trkpt>
      <trkpt lat="45.07186" lon="5.63791">
        <ele>427.8</ele>
        <time>2026-02-05T10:35:40</time>
      </trkpt>
      <trkpt lat="45.07187" lon="5.63789">
        <ele>427.8</ele>
        <time>2026-02-05T10:35:43</time>
      </trkpt>
      <trkpt lat="45.07188" lon="5.63788">
        <ele>429</ele>
        <time>2026-02-05T10:35:44</time>
      </trkpt>
      <trkpt lat="45.07188" lon="5.63787">
        <ele>429</ele>
        <time>2026-02-05T10:35:45</time>
      </trkpt>
      <trkpt lat="45.07188" lon="5.63786">
        <ele>429</ele>
        <time>2026-02-05T10:35:46</time>
      </trkpt>
      <trkpt lat="45.07189" lon="5.63782">
        <ele>429</ele>
        <time>2026-02-05T10:35:49</time>
      </trkpt>
      <trkpt lat="45.07191" lon="5.63778">
        <ele>430.1</ele>
        <time>2026-02-05T10:35:51</time>
      </trkpt>
      <trkpt lat="45.07191" lon="5.63776">
        <ele>430.1</ele>
        <time>2026-02-05T10:35:53</time>
      </trkpt>
      <trkpt lat="45.07191" lon="5.63775">
        <ele>430.1</ele>
        <time>2026-02-05T10:35:53</time>
      </trkpt>
      <trkpt lat="45.07192" lon="5.63773">
        <ele>430.1</ele>
        <time>2026-02-05T10:35:55</time>
      </trkpt>
      <trkpt lat="45.07192" lon="5.63772">
        <ele>430.1</ele>
        <time>2026-02-05T10:35:55</time>
      </trkpt>
      <trkpt lat="45.07192" lon="5.63772">
        <ele>430.1</ele>
        <time>2026-02-05T10:35:56</time>
      </trkpt>
      <trkpt lat="45.07192" lon="5.63769">
        <ele>431.6</ele>
        <time>2026-02-05T10:35:58</time>
      </trkpt>
      <trkpt lat="45.07192" lon="5.63764">
        <ele>431.6</ele>
        <time>2026-02-05T10:36:02</time>
      </trkpt>
      <trkpt lat="45.07193" lon="5.63763">
        <ele>431.6</ele>
        <time>2026-02-05T10:36:03</time>
      </trkpt>
      <trkpt lat="45.07193" lon="5.63754">
        <ele>432.3</ele>
        <time>2026-02-05T10:36:09</time>
      </trkpt>
      <trkpt lat="45.07191" lon="5.63748">
        <ele>434.2</ele>
        <time>2026-02-05T10:36:13</time>
      </trkpt>
      <trkpt lat="45.0719" lon="5.63743">
        <ele>434.2</ele>
        <time>2026-02-05T10:36:17</time>
      </trkpt>
      <trkpt lat="45.07188" lon="5.63733">
        <ele>423.4</ele>
        <time>2026-02-05T10:36:25</time>
      </trkpt>
      <trkpt lat="45.07189" lon="5.63729">
        <ele>420.7</ele>
        <time>2026-02-05T10:36:28</time>
      </trkpt>
      <trkpt lat="45.07189" lon="5.63727">
        <ele>420.7</ele>
        <time>2026-02-05T10:36:30</time>
      </trkpt>
      <trkpt lat="45.07191" lon="5.63722">
        <ele>420.7</ele>
        <time>2026-02-05T10:36:34</time>
      </trkpt>
      <trkpt lat="45.07192" lon="5.63719">
        <ele>425.83334</ele>
        <time>2026-02-05T10:36:38</time>
      </trkpt>
      <trkpt lat="45.07193" lon="5.63718">
        <ele>425.83334</ele>
        <time>2026-02-05T10:36:39</time>
      </trkpt>
      <trkpt lat="45.07194" lon="5.63718">
        <ele>425.83334</ele>
        <time>2026-02-05T10:36:40</time>
      </trkpt>
      <trkpt lat="45.07194" lon="5.63716">
        <ele>425.83334</ele>
        <time>2026-02-05T10:36:41</time>
      </trkpt>
      <trkpt lat="45.07194" lon="5.63716">
        <ele>425.83334</ele>
        <time>2026-02-05T10:36:42</time>
      </trkpt>
      <trkpt lat="45.07198" lon="5.6371">
        <ele>429.3</ele>
        <time>2026-02-05T10:36:49</time>
      </trkpt>
      <trkpt lat="45.07199" lon="5.63708">
        <ele>433.9</ele>
        <time>2026-02-05T10:36:52</time>
      </trkpt>
      <trkpt lat="45.07201" lon="5.63705">
        <ele>433.9</ele>
        <time>2026-02-05T10:36:55</time>
      </trkpt>
      <trkpt lat="45.07202" lon="5.63698">
        <ele>437.5</ele>
        <time>2026-02-05T10:37:01</time>
      </trkpt>
      <trkpt lat="45.07208" lon="5.63683">
        <ele>438.8</ele>
        <time>2026-02-05T10:37:15</time>
      </trkpt>
      <trkpt lat="45.0721" lon="5.63677">
        <ele>441</ele>
        <time>2026-02-05T10:37:20</time>
      </trkpt>
      <trkpt lat="45.07211" lon="5.63676">
        <ele>441</ele>
        <time>2026-02-05T10:37:20</time>
      </trkpt>
      <trkpt lat="45.07211" lon="5.63676">
        <ele>441</ele>
        <time>2026-02-05T10:37:21</time>
      </trkpt>
      <trkpt lat="45.07212" lon="5.63675">
        <ele>441</ele>
        <time>2026-02-05T10:37:22</time>
      </trkpt>
      <trkpt lat="45.07212" lon="5.63674">
        <ele>445.4</ele>
        <time>2026-02-05T10:37:23</time>
      </trkpt>
      <trkpt lat="45.07212" lon="5.63673">
        <ele>445.4</ele>
        <time>2026-02-05T10:37:24</time>
      </trkpt>
      <trkpt lat="45.07212" lon="5.63671">
        <ele>445.4</ele>
        <time>2026-02-05T10:37:24</time>
      </trkpt>
      <trkpt lat="45.07212" lon="5.63669">
        <ele>445.4</ele>
        <time>2026-02-05T10:37:26</time>
      </trkpt>
      <trkpt lat="45.07212" lon="5.63666">
        <ele>445.4</ele>
        <time>2026-02-05T10:37:27</time>
      </trkpt>
      <trkpt lat="45.07213" lon="5.63663">
        <ele>445.3</ele>
        <time>2026-02-05T10:37:30</time>
      </trkpt>
      <trkpt lat="45.07213" lon="5.63656">
        <ele>445.3</ele>
        <time>2026-02-05T10:37:35</time>
      </trkpt>
      <trkpt lat="45.07214" lon="5.63654">
        <ele>445.8</ele>
        <time>2026-02-05T10:37:36</time>
      </trkpt>
      <trkpt lat="45.07214" lon="5.63654">
        <ele>445.8</ele>
        <time>2026-02-05T10:37:37</time>
      </trkpt>
      <trkpt lat="45.07214" lon="5.63654">
        <ele>445.8</ele>
        <time>2026-02-05T10:37:38</time>
      </trkpt>
      <trkpt lat="45.07215" lon="5.63653">
        <ele>445.8</ele>
        <time>2026-02-05T10:37:41</time>
      </trkpt>
      <trkpt lat="45.07216" lon="5.63652">
        <ele>445.8</ele>
        <time>2026-02-05T10:37:41</time>
      </trkpt>
      <trkpt lat="45.07219" lon="5.63648">
        <ele>447</ele>
        <time>2026-02-05T10:37:45</time>
      </trkpt>
      <trkpt lat="45.07225" lon="5.63642">
        <ele>449.1</ele>
        <time>2026-02-05T10:37:52</time>
      </trkpt>
      <trkpt lat="45.0723" lon="5.63637">
        <ele>450.8</ele>
        <time>2026-02-05T10:38:01</time>
      </trkpt>
      <trkpt lat="45.07229" lon="5.63637">
        <ele>450.8</ele>
        <time>2026-02-05T10:38:01</time>
      </trkpt>
      <trkpt lat="45.07229" lon="5.63637">
        <ele>450.8</ele>
        <time>2026-02-05T10:38:03</time>
      </trkpt>
      <trkpt lat="45.07229" lon="5.63637">
        <ele>450.8</ele>
        <time>2026-02-05T10:38:03</time>
      </trkpt>
      <trkpt lat="45.07229" lon="5.63637">
        <ele>451</ele>
        <time>2026-02-05T10:38:05</time>
      </trkpt>
      <trkpt lat="45.07231" lon="5.63635">
        <ele>451</ele>
        <time>2026-02-05T10:38:07</time>
      </trkpt>
      <trkpt lat="45.07232" lon="5.63633">
        <ele>451</ele>
        <time>2026-02-05T10:38:08</time>
      </trkpt>
      <trkpt lat="45.07232" lon="5.63632">
        <ele>451</ele>
        <time>2026-02-05T10:38:09</time>
      </trkpt>
      <trkpt lat="45.07234" lon="5.63631">
        <ele>451</ele>
        <time>2026-02-05T10:38:10</time>
      </trkpt>
      <trkpt lat="45.07235" lon="5.63631">
        <ele>451</ele>
        <time>2026-02-05T10:38:11</time>
      </trkpt>
      <trkpt lat="45.07237" lon="5.63629">
        <ele>451.3</ele>
        <time>2026-02-05T10:38:13</time>
      </trkpt>
      <trkpt lat="45.07246" lon="5.63624">
        <ele>452.3</ele>
        <time>2026-02-05T10:38:24</time>
      </trkpt>
      <trkpt lat="45.07258" lon="5.63614">
        <ele>454.6</ele>
        <time>2026-02-05T10:38:45</time>
      </trkpt>
      <trkpt lat="45.07261" lon="5.63612">
        <ele>454.86667</ele>
        <time>2026-02-05T10:38:50</time>
      </trkpt>
      <trkpt lat="45.07262" lon="5.63612">
        <ele>454.86667</ele>
        <time>2026-02-05T10:38:52</time>
      </trkpt>
      <trkpt lat="45.07264" lon="5.63611">
        <ele>454.86667</ele>
        <time>2026-02-05T10:38:55</time>
      </trkpt>
      <trkpt lat="45.07264" lon="5.63611">
        <ele>455.8</ele>
        <time>2026-02-05T10:38:57</time>
      </trkpt>
      <trkpt lat="45.07268" lon="5.63609">
        <ele>456.5</ele>
        <time>2026-02-05T10:39:04</time>
      </trkpt>
      <trkpt lat="45.07277" lon="5.63607">
        <ele>457.2</ele>
        <time>2026-02-05T10:39:16</time>
      </trkpt>
      <trkpt lat="45.07279" lon="5.63606">
        <ele>459.03333</ele>
        <time>2026-02-05T10:39:20</time>
      </trkpt>
      <trkpt lat="45.0728" lon="5.63606">
        <ele>459.03333</ele>
        <time>2026-02-05T10:39:21</time>
      </trkpt>
      <trkpt lat="45.07281" lon="5.63605">
        <ele>459.03333</ele>
        <time>2026-02-05T10:39:22</time>
      </trkpt>
      <trkpt lat="45.07292" lon="5.63602">
        <ele>465.06668</ele>
        <time>2026-02-05T10:39:46</time>
      </trkpt>
      <trkpt lat="45.07293" lon="5.63602">
        <ele>465.06668</ele>
        <time>2026-02-05T10:39:47</time>
      </trkpt>
      <trkpt lat="45.07295" lon="5.63602">
        <ele>466.23334</ele>
        <time>2026-02-05T10:39:51</time>
      </trkpt>
      <trkpt lat="45.07295" lon="5.63602">
        <ele>466.23334</ele>
        <time>2026-02-05T10:39:52</time>
      </trkpt>
      <trkpt lat="45.07295" lon="5.63601">
        <ele>466.23334</ele>
        <time>2026-02-05T10:39:53</time>
      </trkpt>
      <trkpt lat="45.07297" lon="5.63601">
        <ele>466.23334</ele>
        <time>2026-02-05T10:39:55</time>
      </trkpt>
      <trkpt lat="45.07298" lon="5.63599">
        <ele>466.23334</ele>
        <time>2026-02-05T10:39:58</time>
      </trkpt>
      <trkpt lat="45.07307" lon="5.63591">
        <ele>467.9</ele>
        <time>2026-02-05T10:40:09</time>
      </trkpt>
      <trkpt lat="45.07308" lon="5.63588">
        <ele>467.9</ele>
        <time>2026-02-05T10:40:12</time>
      </trkpt>
      <trkpt lat="45.07309" lon="5.63586">
        <ele>467.9</ele>
        <time>2026-02-05T10:40:14</time>
      </trkpt>
      <trkpt lat="45.07311" lon="5.63585">
        <ele>455.83334</ele>
        <time>2026-02-05T10:40:16</time>
      </trkpt>
      <trkpt lat="45.07312" lon="5.63583">
        <ele>455.83334</ele>
        <time>2026-02-05T10:40:20</time>
      </trkpt>
      <trkpt lat="45.07312" lon="5.63582">
        <ele>454.1</ele>
        <time>2026-02-05T10:40:23</time>
      </trkpt>
      <trkpt lat="45.07312" lon="5.63581">
        <ele>454.1</ele>
        <time>2026-02-05T10:40:24</time>
      </trkpt>
      <trkpt lat="45.07313" lon="5.63581">
        <ele>454.1</ele>
        <time>2026-02-05T10:40:29</time>
      </trkpt>
      <trkpt lat="45.07314" lon="5.63581">
        <ele>453.6</ele>
        <time>2026-02-05T10:40:30</time>
      </trkpt>
      <trkpt lat="45.07314" lon="5.63581">
        <ele>453.6</ele>
        <time>2026-02-05T10:40:32</time>
      </trkpt>
      <trkpt lat="45.07314" lon="5.63581">
        <ele>453.6</ele>
        <time>2026-02-05T10:40:33</time>
      </trkpt>
      <trkpt lat="45.07318" lon="5.63581">
        <ele>453.6</ele>
        <time>2026-02-05T10:40:35</time>
      </trkpt>
      <trkpt lat="45.07319" lon="5.63581">
        <ele>453.6</ele>
        <time>2026-02-05T10:40:37</time>
      </trkpt>
      <trkpt lat="45.0732" lon="5.63581">
        <ele>453.6</ele>
        <time>2026-02-05T10:40:38</time>
      </trkpt>
      <trkpt lat="45.07321" lon="5.63581">
        <ele>453.3</ele>
        <time>2026-02-05T10:40:39</time>
      </trkpt>
      <trkpt lat="45.07323" lon="5.63582">
        <ele>453.3</ele>
        <time>2026-02-05T10:40:40</time>
      </trkpt>
      <trkpt lat="45.07325" lon="5.63583">
        <ele>453.3</ele>
        <time>2026-02-05T10:40:43</time>
      </trkpt>
      <trkpt lat="45.07327" lon="5.63583">
        <ele>453.3</ele>
        <time>2026-02-05T10:40:45</time>
      </trkpt>
      <trkpt lat="45.07327" lon="5.63583">
        <ele>455.2</ele>
        <time>2026-02-05T10:40:46</time>
      </trkpt>
      <trkpt lat="45.07328" lon="5.63583">
        <ele>455.2</ele>
        <time>2026-02-05T10:40:47</time>
      </trkpt>
      <trkpt lat="45.07328" lon="5.63584">
        <ele>455.2</ele>
        <time>2026-02-05T10:40:49</time>
      </trkpt>
      <trkpt lat="45.07328" lon="5.63585">
        <ele>455.2</ele>
        <time>2026-02-05T10:40:51</time>
      </trkpt>
      <trkpt lat="45.07327" lon="5.63586">
        <ele>455.2</ele>
        <time>2026-02-05T10:40:52</time>
      </trkpt>
      <trkpt lat="45.0733" lon="5.63596">
        <ele>470.3</ele>
        <time>2026-02-05T10:41:11</time>
      </trkpt>
      <trkpt lat="45.0733" lon="5.63597">
        <ele>470.3</ele>
        <time>2026-02-05T10:41:13</time>
      </trkpt>
      <trkpt lat="45.07333" lon="5.63603">
        <ele>473.7</ele>
        <time>2026-02-05T10:41:21</time>
      </trkpt>
      <trkpt lat="45.07333" lon="5.63603">
        <ele>473.7</ele>
        <time>2026-02-05T10:41:23</time>
      </trkpt>
      <trkpt lat="45.07333" lon="5.63604">
        <ele>473.7</ele>
        <time>2026-02-05T10:41:25</time>
      </trkpt>
      <trkpt lat="45.07334" lon="5.63606">
        <ele>477.9</ele>
        <time>2026-02-05T10:41:30</time>
      </trkpt>
      <trkpt lat="45.07335" lon="5.6361">
        <ele>483.2</ele>
        <time>2026-02-05T10:41:35</time>
      </trkpt>
      <trkpt lat="45.07336" lon="5.63613">
        <ele>483.2</ele>
        <time>2026-02-05T10:41:38</time>
      </trkpt>
      <trkpt lat="45.07337" lon="5.63615">
        <ele>483.2</ele>
        <time>2026-02-05T10:41:40</time>
      </trkpt>
      <trkpt lat="45.07338" lon="5.63616">
        <ele>483.2</ele>
        <time>2026-02-05T10:41:42</time>
      </trkpt>
      <trkpt lat="45.07338" lon="5.63618">
        <ele>483.7</ele>
        <time>2026-02-05T10:41:45</time>
      </trkpt>
      <trkpt lat="45.07343" lon="5.63625">
        <ele>487.2</ele>
        <time>2026-02-05T10:41:56</time>
      </trkpt>
      <trkpt lat="45.07343" lon="5.63626">
        <ele>489.4</ele>
        <time>2026-02-05T10:41:59</time>
      </trkpt>
      <trkpt lat="45.07344" lon="5.63627">
        <ele>489.4</ele>
        <time>2026-02-05T10:41:59</time>
      </trkpt>
      <trkpt lat="45.07344" lon="5.63628">
        <ele>489.4</ele>
        <time>2026-02-05T10:42:01</time>
      </trkpt>
      <trkpt lat="45.07344" lon="5.63629">
        <ele>489.4</ele>
        <time>2026-02-05T10:42:03</time>
      </trkpt>
      <trkpt lat="45.07345" lon="5.63633">
        <ele>490.7</ele>
        <time>2026-02-05T10:42:09</time>
      </trkpt>
      <trkpt lat="45.07348" lon="5.6364">
        <ele>492</ele>
        <time>2026-02-05T10:42:18</time>
      </trkpt>
      <trkpt lat="45.07348" lon="5.63641">
        <ele>492</ele>
        <time>2026-02-05T10:42:20</time>
      </trkpt>
      <trkpt lat="45.0735" lon="5.63643">
        <ele>492.8</ele>
        <time>2026-02-05T10:42:23</time>
      </trkpt>
      <trkpt lat="45.07351" lon="5.63647">
        <ele>492.8</ele>
        <time>2026-02-05T10:42:28</time>
      </trkpt>
      <trkpt lat="45.07352" lon="5.63652">
        <ele>493.4</ele>
        <time>2026-02-05T10:42:36</time>
      </trkpt>
      <trkpt lat="45.07354" lon="5.63655">
        <ele>494</ele>
        <time>2026-02-05T10:42:43</time>
      </trkpt>
      <trkpt lat="45.07354" lon="5.63656">
        <ele>494</ele>
        <time>2026-02-05T10:42:45</time>
      </trkpt>
      <trkpt lat="45.07356" lon="5.63659">
        <ele>494.5</ele>
        <time>2026-02-05T10:42:50</time>
      </trkpt>
      <trkpt lat="45.07357" lon="5.63662">
        <ele>494.5</ele>
        <time>2026-02-05T10:42:54</time>
      </trkpt>
      <trkpt lat="45.07358" lon="5.63664">
        <ele>494.3</ele>
        <time>2026-02-05T10:42:58</time>
      </trkpt>
      <trkpt lat="45.07359" lon="5.63665">
        <ele>494.3</ele>
        <time>2026-02-05T10:43:00</time>
      </trkpt>
      <trkpt lat="45.07361" lon="5.63666">
        <ele>494.3</ele>
        <time>2026-02-05T10:43:03</time>
      </trkpt>
      <trkpt lat="45.07361" lon="5.63666">
        <ele>494.3</ele>
        <time>2026-02-05T10:43:04</time>
      </trkpt>
      <trkpt lat="45.07364" lon="5.63669">
        <ele>494.3</ele>
        <time>2026-02-05T10:43:09</time>
      </trkpt>
      <trkpt lat="45.07365" lon="5.6367">
        <ele>494.3</ele>
        <time>2026-02-05T10:43:12</time>
      </trkpt>
      <trkpt lat="45.07366" lon="5.63672">
        <ele>494.33334</ele>
        <time>2026-02-05T10:43:15</time>
      </trkpt>
      <trkpt lat="45.07367" lon="5.63673">
        <ele>494.33334</ele>
        <time>2026-02-05T10:43:17</time>
      </trkpt>
      <trkpt lat="45.07368" lon="5.63675">
        <ele>495</ele>
        <time>2026-02-05T10:43:21</time>
      </trkpt>
      <trkpt lat="45.07369" lon="5.63676">
        <ele>495</ele>
        <time>2026-02-05T10:43:22</time>
      </trkpt>
      <trkpt lat="45.0737" lon="5.63676">
        <ele>495</ele>
        <time>2026-02-05T10:43:24</time>
      </trkpt>
      <trkpt lat="45.0737" lon="5.63676">
        <ele>495</ele>
        <time>2026-02-05T10:43:25</time>
      </trkpt>
      <trkpt lat="45.0737" lon="5.63676">
        <ele>495</ele>
        <time>2026-02-05T10:43:26</time>
      </trkpt>
      <trkpt lat="45.0737" lon="5.63676">
        <ele>495</ele>
        <time>2026-02-05T10:43:27</time>
      </trkpt>
      <trkpt lat="45.07374" lon="5.63677">
        <ele>495.86667</ele>
        <time>2026-02-05T10:43:33</time>
      </trkpt>
      <trkpt lat="45.07375" lon="5.63676">
        <ele>495.86667</ele>
        <time>2026-02-05T10:43:34</time>
      </trkpt>
      <trkpt lat="45.07376" lon="5.63676">
        <ele>495.86667</ele>
        <time>2026-02-05T10:43:34</time>
      </trkpt>
      <trkpt lat="45.07377" lon="5.63676">
        <ele>495.86667</ele>
        <time>2026-02-05T10:43:35</time>
      </trkpt>
      <trkpt lat="45.07378" lon="5.63676">
        <ele>495.86667</ele>
        <time>2026-02-05T10:43:37</time>
      </trkpt>
      <trkpt lat="45.07378" lon="5.63677">
        <ele>496.2</ele>
        <time>2026-02-05T10:43:39</time>
      </trkpt>
      <trkpt lat="45.07379" lon="5.63678">
        <ele>496.2</ele>
        <time>2026-02-05T10:43:41</time>
      </trkpt>
      <trkpt lat="45.0738" lon="5.63679">
        <ele>496.2</ele>
        <time>2026-02-05T10:43:43</time>
      </trkpt>
      <trkpt lat="45.0738" lon="5.6368">
        <ele>496.2</ele>
        <time>2026-02-05T10:43:44</time>
      </trkpt>
      <trkpt lat="45.07379" lon="5.63681">
        <ele>497.33334</ele>
        <time>2026-02-05T10:43:48</time>
      </trkpt>
      <trkpt lat="45.07379" lon="5.63681">
        <ele>497.33334</ele>
        <time>2026-02-05T10:43:49</time>
      </trkpt>
      <trkpt lat="45.07378" lon="5.63681">
        <ele>497.33334</ele>
        <time>2026-02-05T10:43:56</time>
      </trkpt>
      <trkpt lat="45.07378" lon="5.63681">
        <ele>497.9</ele>
        <time>2026-02-05T10:44:37</time>
      </trkpt>
      <trkpt lat="45.07379" lon="5.63681">
        <ele>497.9</ele>
        <time>2026-02-05T10:44:44</time>
      </trkpt>
      <trkpt lat="45.07379" lon="5.63681">
        <ele>497.9</ele>
        <time>2026-02-05T10:44:45</time>
      </trkpt>
      <trkpt lat="45.07378" lon="5.63681">
        <ele>497.9</ele>
        <time>2026-02-05T10:44:46</time>
      </trkpt>
      <trkpt lat="45.07378" lon="5.63681">
        <ele>497.9</ele>
        <time>2026-02-05T10:44:47</time>
      </trkpt>
      <trkpt lat="45.07378" lon="5.63681">
        <ele>497.9</ele>
        <time>2026-02-05T10:44:48</time>
      </trkpt>
      <trkpt lat="45.07378" lon="5.63681">
        <ele>497.9</ele>
        <time>2026-02-05T10:44:50</time>
      </trkpt>
      <trkpt lat="45.07378" lon="5.63681">
        <ele>497.9</ele>
        <time>2026-02-05T10:44:52</time>
      </trkpt>
      <trkpt lat="45.07378" lon="5.63681">
        <ele>497.9</ele>
        <time>2026-02-05T10:44:59</time>
      </trkpt>
      <trkpt lat="45.07378" lon="5.63681">
        <ele>497.9</ele>
        <time>2026-02-05T10:45:02</time>
      </trkpt>
      <trkpt lat="45.07378" lon="5.63681">
        <ele>497.9</ele>
        <time>2026-02-05T10:45:03</time>
      </trkpt>
      <trkpt lat="45.07378" lon="5.63681">
        <ele>497.9</ele>
        <time>2026-02-05T10:45:04</time>
      </trkpt>
      <trkpt lat="45.07377" lon="5.63682">
        <ele>497.9</ele>
        <time>2026-02-05T10:45:27</time>
      </trkpt>
      <trkpt lat="45.07377" lon="5.63682">
        <ele>497.9</ele>
        <time>2026-02-05T10:45:28</time>
      </trkpt>
      <trkpt lat="45.07379" lon="5.63683">
        <ele>497.9</ele>
        <time>2026-02-05T10:45:30</time>
      </trkpt>
      <trkpt lat="45.07381" lon="5.63683">
        <ele>504.6</ele>
        <time>2026-02-05T10:45:41</time>
      </trkpt>
      <trkpt lat="45.07382" lon="5.63682">
        <ele>504.6</ele>
        <time>2026-02-05T10:45:42</time>
      </trkpt>
      <trkpt lat="45.07382" lon="5.63682">
        <ele>507.5</ele>
        <time>2026-02-05T10:45:46</time>
      </trkpt>
      <trkpt lat="45.07383" lon="5.63683">
        <ele>507.5</ele>
        <time>2026-02-05T10:45:49</time>
      </trkpt>
      <trkpt lat="45.07384" lon="5.63684">
        <ele>507.5</ele>
        <time>2026-02-05T10:45:51</time>
      </trkpt>
      <trkpt lat="45.07385" lon="5.63685">
        <ele>507.5</ele>
        <time>2026-02-05T10:45:53</time>
      </trkpt>
      <trkpt lat="45.07386" lon="5.63686">
        <ele>506.9</ele>
        <time>2026-02-05T10:45:56</time>
      </trkpt>
      <trkpt lat="45.07388" lon="5.63687">
        <ele>506.9</ele>
        <time>2026-02-05T10:45:59</time>
      </trkpt>
      <trkpt lat="45.07389" lon="5.63687">
        <ele>507.5</ele>
        <time>2026-02-05T10:46:04</time>
      </trkpt>
      <trkpt lat="45.07393" lon="5.63689">
        <ele>509</ele>
        <time>2026-02-05T10:46:12</time>
      </trkpt>
      <trkpt lat="45.07395" lon="5.63689">
        <ele>509</ele>
        <time>2026-02-05T10:46:14</time>
      </trkpt>
      <trkpt lat="45.07395" lon="5.63689">
        <ele>509</ele>
        <time>2026-02-05T10:46:15</time>
      </trkpt>
      <trkpt lat="45.07395" lon="5.6369">
        <ele>509</ele>
        <time>2026-02-05T10:46:16</time>
      </trkpt>
      <trkpt lat="45.07396" lon="5.6369">
        <ele>509</ele>
        <time>2026-02-05T10:46:17</time>
      </trkpt>
      <trkpt lat="45.07397" lon="5.63691">
        <ele>511.8</ele>
        <time>2026-02-05T10:46:22</time>
      </trkpt>
      <trkpt lat="45.07397" lon="5.63691">
        <ele>511.8</ele>
        <time>2026-02-05T10:46:24</time>
      </trkpt>
      <trkpt lat="45.07399" lon="5.63691">
        <ele>511.8</ele>
        <time>2026-02-05T10:46:28</time>
      </trkpt>
      <trkpt lat="45.074" lon="5.63691">
        <ele>513.76666</ele>
        <time>2026-02-05T10:46:29</time>
      </trkpt>
      <trkpt lat="45.07402" lon="5.63691">
        <ele>513.76666</ele>
        <time>2026-02-05T10:46:31</time>
      </trkpt>
      <trkpt lat="45.07403" lon="5.63691">
        <ele>513.76666</ele>
        <time>2026-02-05T10:46:33</time>
      </trkpt>
      <trkpt lat="45.07404" lon="5.63691">
        <ele>513.76666</ele>
        <time>2026-02-05T10:46:34</time>
      </trkpt>
      <trkpt lat="45.07404" lon="5.63692">
        <ele>515.6</ele>
        <time>2026-02-05T10:46:35</time>
      </trkpt>
      <trkpt lat="45.07404" lon="5.63692">
        <ele>515.6</ele>
        <time>2026-02-05T10:46:36</time>
      </trkpt>
      <trkpt lat="45.07405" lon="5.63693">
        <ele>515.6</ele>
        <time>2026-02-05T10:46:38</time>
      </trkpt>
      <trkpt lat="45.07406" lon="5.63693">
        <ele>515.6</ele>
        <time>2026-02-05T10:46:40</time>
      </trkpt>
      <trkpt lat="45.07406" lon="5.63694">
        <ele>515.6</ele>
        <time>2026-02-05T10:46:41</time>
      </trkpt>
      <trkpt lat="45.07406" lon="5.63694">
        <ele>518.2</ele>
        <time>2026-02-05T10:46:47</time>
      </trkpt>
      <trkpt lat="45.07406" lon="5.63694">
        <ele>518.2</ele>
        <time>2026-02-05T10:46:49</time>
      </trkpt>
      <trkpt lat="45.07406" lon="5.63694">
        <ele>518.2</ele>
        <time>2026-02-05T10:46:50</time>
      </trkpt>
      <trkpt lat="45.07406" lon="5.63694">
        <ele>518.2</ele>
        <time>2026-02-05T10:46:50</time>
      </trkpt>
      <trkpt lat="45.07406" lon="5.63694">
        <ele>518.7</ele>
        <time>2026-02-05T10:46:51</time>
      </trkpt>
      <trkpt lat="45.07406" lon="5.63694">
        <ele>518.7</ele>
        <time>2026-02-05T10:46:52</time>
      </trkpt>
      <trkpt lat="45.07406" lon="5.63694">
        <ele>518.7</ele>
        <time>2026-02-05T10:46:53</time>
      </trkpt>
      <trkpt lat="45.07406" lon="5.63694">
        <ele>518.7</ele>
        <time>2026-02-05T10:46:55</time>
      </trkpt>
      <trkpt lat="45.07406" lon="5.63694">
        <ele>518.7</ele>
        <time>2026-02-05T10:46:57</time>
      </trkpt>
      <trkpt lat="45.07406" lon="5.63694">
        <ele>518.7</ele>
        <time>2026-02-05T10:46:58</time>
      </trkpt>
      <trkpt lat="45.07414" lon="5.63694">
        <ele>518.7</ele>
        <time>2026-02-05T10:47:07</time>
      </trkpt>
      <trkpt lat="45.07415" lon="5.63695">
        <ele>520.2</ele>
        <time>2026-02-05T10:47:09</time>
      </trkpt>
      <trkpt lat="45.07416" lon="5.63696">
        <ele>520.2</ele>
        <time>2026-02-05T10:47:13</time>
      </trkpt>
      <trkpt lat="45.07416" lon="5.63696">
        <ele>520.2</ele>
        <time>2026-02-05T10:47:15</time>
      </trkpt>
      <trkpt lat="45.07417" lon="5.63696">
        <ele>520.2</ele>
        <time>2026-02-05T10:47:17</time>
      </trkpt>
      <trkpt lat="45.07417" lon="5.63697">
        <ele>520.6</ele>
        <time>2026-02-05T10:47:18</time>
      </trkpt>
      <trkpt lat="45.07419" lon="5.63699">
        <ele>520.6</ele>
        <time>2026-02-05T10:47:20</time>
      </trkpt>
      <trkpt lat="45.0742" lon="5.637">
        <ele>520.6</ele>
        <time>2026-02-05T10:47:23</time>
      </trkpt>
      <trkpt lat="45.0742" lon="5.637">
        <ele>520.6</ele>
        <time>2026-02-05T10:47:25</time>
      </trkpt>
      <trkpt lat="45.0742" lon="5.637">
        <ele>521.5</ele>
        <time>2026-02-05T10:47:29</time>
      </trkpt>
      <trkpt lat="45.07423" lon="5.63703">
        <ele>521.5</ele>
        <time>2026-02-05T10:47:33</time>
      </trkpt>
      <trkpt lat="45.07425" lon="5.63704">
        <ele>521.9</ele>
        <time>2026-02-05T10:47:35</time>
      </trkpt>
      <trkpt lat="45.07426" lon="5.63706">
        <ele>521.9</ele>
        <time>2026-02-05T10:47:40</time>
      </trkpt>
      <trkpt lat="45.07426" lon="5.63707">
        <ele>521.9</ele>
        <time>2026-02-05T10:47:41</time>
      </trkpt>
      <trkpt lat="45.07426" lon="5.63709">
        <ele>522.2</ele>
        <time>2026-02-05T10:47:43</time>
      </trkpt>
      <trkpt lat="45.07427" lon="5.6371">
        <ele>522.2</ele>
        <time>2026-02-05T10:47:45</time>
      </trkpt>
      <trkpt lat="45.07427" lon="5.63711">
        <ele>522.2</ele>
        <time>2026-02-05T10:47:46</time>
      </trkpt>
      <trkpt lat="45.07427" lon="5.63711">
        <ele>522.2</ele>
        <time>2026-02-05T10:47:47</time>
      </trkpt>
      <trkpt lat="45.07427" lon="5.63712">
        <ele>522.2</ele>
        <time>2026-02-05T10:47:48</time>
      </trkpt>
      <trkpt lat="45.07427" lon="5.63713">
        <ele>522.2</ele>
        <time>2026-02-05T10:47:48</time>
      </trkpt>
      <trkpt lat="45.07428" lon="5.63715">
        <ele>523.9</ele>
        <time>2026-02-05T10:47:52</time>
      </trkpt>
      <trkpt lat="45.07429" lon="5.63716">
        <ele>523.9</ele>
        <time>2026-02-05T10:47:57</time>
      </trkpt>
      <trkpt lat="45.0743" lon="5.63717">
        <ele>523.9</ele>
        <time>2026-02-05T10:47:59</time>
      </trkpt>
      <trkpt lat="45.0743" lon="5.63717">
        <ele>527.13336</ele>
        <time>2026-02-05T10:48:02</time>
      </trkpt>
      <trkpt lat="45.0743" lon="5.63718">
        <ele>527.13336</ele>
        <time>2026-02-05T10:48:03</time>
      </trkpt>
      <trkpt lat="45.0743" lon="5.63717">
        <ele>527.13336</ele>
        <time>2026-02-05T10:48:03</time>
      </trkpt>
      <trkpt lat="45.07431" lon="5.63718">
        <ele>527.8</ele>
        <time>2026-02-05T10:48:08</time>
      </trkpt>
      <trkpt lat="45.07433" lon="5.6372">
        <ele>527.8</ele>
        <time>2026-02-05T10:48:11</time>
      </trkpt>
      <trkpt lat="45.07437" lon="5.63724">
        <ele>527.8</ele>
        <time>2026-02-05T10:48:15</time>
      </trkpt>
      <trkpt lat="45.07438" lon="5.63727">
        <ele>527.8</ele>
        <time>2026-02-05T10:48:20</time>
      </trkpt>
      <trkpt lat="45.07439" lon="5.63727">
        <ele>527.8</ele>
        <time>2026-02-05T10:48:21</time>
      </trkpt>
      <trkpt lat="45.0744" lon="5.63728">
        <ele>527.8</ele>
        <time>2026-02-05T10:48:24</time>
      </trkpt>
      <trkpt lat="45.0744" lon="5.63729">
        <ele>527.8</ele>
        <time>2026-02-05T10:48:25</time>
      </trkpt>
      <trkpt lat="45.07441" lon="5.63729">
        <ele>530.3</ele>
        <time>2026-02-05T10:48:27</time>
      </trkpt>
      <trkpt lat="45.07441" lon="5.63729">
        <ele>530.3</ele>
        <time>2026-02-05T10:48:28</time>
      </trkpt>
      <trkpt lat="45.07442" lon="5.63729">
        <ele>530.3</ele>
        <time>2026-02-05T10:48:29</time>
      </trkpt>
      <trkpt lat="45.07442" lon="5.63729">
        <ele>530.3</ele>
        <time>2026-02-05T10:48:30</time>
      </trkpt>
      <trkpt lat="45.07442" lon="5.63729">
        <ele>530.3</ele>
        <time>2026-02-05T10:48:32</time>
      </trkpt>
      <trkpt lat="45.07443" lon="5.63729">
        <ele>532.4</ele>
        <time>2026-02-05T10:48:34</time>
      </trkpt>
      <trkpt lat="45.07443" lon="5.6373">
        <ele>532.4</ele>
        <time>2026-02-05T10:48:36</time>
      </trkpt>
      <trkpt lat="45.07443" lon="5.6373">
        <ele>532.4</ele>
        <time>2026-02-05T10:48:37</time>
      </trkpt>
      <trkpt lat="45.07443" lon="5.6373">
        <ele>532.4</ele>
        <time>2026-02-05T10:48:38</time>
      </trkpt>
      <trkpt lat="45.07443" lon="5.6373">
        <ele>532.4</ele>
        <time>2026-02-05T10:48:38</time>
      </trkpt>
      <trkpt lat="45.07443" lon="5.6373">
        <ele>532.4</ele>
        <time>2026-02-05T10:48:40</time>
      </trkpt>
      <trkpt lat="45.07443" lon="5.6373">
        <ele>532.4</ele>
        <time>2026-02-05T10:48:42</time>
      </trkpt>
      <trkpt lat="45.07443" lon="5.6373">
        <ele>532.4</ele>
        <time>2026-02-05T10:48:43</time>
      </trkpt>
      <trkpt lat="45.07443" lon="5.6373">
        <ele>532.4</ele>
        <time>2026-02-05T10:48:45</time>
      </trkpt>
      <trkpt lat="45.07443" lon="5.6373">
        <ele>532.4</ele>
        <time>2026-02-05T10:48:50</time>
      </trkpt>
      <trkpt lat="45.07443" lon="5.6373">
        <ele>532.4</ele>
        <time>2026-02-05T10:48:51</time>
      </trkpt>
      <trkpt lat="45.07443" lon="5.6373">
        <ele>532.4</ele>
        <time>2026-02-05T10:48:54</time>
      </trkpt>
      <trkpt lat="45.07443" lon="5.6373">
        <ele>532.4</ele>
        <time>2026-02-05T10:48:55</time>
      </trkpt>
      <trkpt lat="45.0745" lon="5.63734">
        <ele>532.4</ele>
        <time>2026-02-05T10:48:56</time>
      </trkpt>
      <trkpt lat="45.07451" lon="5.63735">
        <ele>532.4</ele>
        <time>2026-02-05T10:48:57</time>
      </trkpt>
      <trkpt lat="45.07451" lon="5.63735">
        <ele>532.4</ele>
        <time>2026-02-05T10:48:58</time>
      </trkpt>
      <trkpt lat="45.07451" lon="5.63735">
        <ele>532.4</ele>
        <time>2026-02-05T10:48:59</time>
      </trkpt>
      <trkpt lat="45.07451" lon="5.63735">
        <ele>532.4</ele>
        <time>2026-02-05T10:48:59</time>
      </trkpt>
      <trkpt lat="45.07452" lon="5.63736">
        <ele>532.4</ele>
        <time>2026-02-05T10:49:00</time>
      </trkpt>
      <trkpt lat="45.07451" lon="5.63736">
        <ele>532.4</ele>
        <time>2026-02-05T10:49:03</time>
      </trkpt>
      <trkpt lat="45.07452" lon="5.63737">
        <ele>535.3</ele>
        <time>2026-02-05T10:49:06</time>
      </trkpt>
      <trkpt lat="45.07452" lon="5.63737">
        <ele>535.3</ele>
        <time>2026-02-05T10:49:07</time>
      </trkpt>
      <trkpt lat="45.07452" lon="5.63738">
        <ele>535.3</ele>
        <time>2026-02-05T10:49:08</time>
      </trkpt>
      <trkpt lat="45.07453" lon="5.63739">
        <ele>535.3</ele>
        <time>2026-02-05T10:49:10</time>
      </trkpt>
      <trkpt lat="45.07453" lon="5.63739">
        <ele>535.3</ele>
        <time>2026-02-05T10:49:14</time>
      </trkpt>
      <trkpt lat="45.07453" lon="5.63739">
        <ele>535.3</ele>
        <time>2026-02-05T10:49:15</time>
      </trkpt>
      <trkpt lat="45.07453" lon="5.63739">
        <ele>537.5</ele>
        <time>2026-02-05T10:49:16</time>
      </trkpt>
      <trkpt lat="45.07458" lon="5.63743">
        <ele>537.5</ele>
        <time>2026-02-05T10:49:22</time>
      </trkpt>
      <trkpt lat="45.0746" lon="5.63745">
        <ele>537.5</ele>
        <time>2026-02-05T10:49:25</time>
      </trkpt>
      <trkpt lat="45.07461" lon="5.63747">
        <ele>537.5</ele>
        <time>2026-02-05T10:49:28</time>
      </trkpt>
      <trkpt lat="45.07461" lon="5.63748">
        <ele>537.5</ele>
        <time>2026-02-05T10:49:30</time>
      </trkpt>
      <trkpt lat="45.07462" lon="5.63749">
        <ele>537.5</ele>
        <time>2026-02-05T10:49:32</time>
      </trkpt>
      <trkpt lat="45.07463" lon="5.63751">
        <ele>539.9</ele>
        <time>2026-02-05T10:49:33</time>
      </trkpt>
      <trkpt lat="45.07463" lon="5.63751">
        <ele>539.9</ele>
        <time>2026-02-05T10:49:34</time>
      </trkpt>
      <trkpt lat="45.07464" lon="5.63751">
        <ele>539.9</ele>
        <time>2026-02-05T10:49:34</time>
      </trkpt>
      <trkpt lat="45.07465" lon="5.63752">
        <ele>539.9</ele>
        <time>2026-02-05T10:49:35</time>
      </trkpt>
      <trkpt lat="45.07466" lon="5.63752">
        <ele>539.9</ele>
        <time>2026-02-05T10:49:36</time>
      </trkpt>
      <trkpt lat="45.07466" lon="5.63753">
        <ele>539.9</ele>
        <time>2026-02-05T10:49:37</time>
      </trkpt>
      <trkpt lat="45.07466" lon="5.63753">
        <ele>539.9</ele>
        <time>2026-02-05T10:49:38</time>
      </trkpt>
      <trkpt lat="45.07466" lon="5.63754">
        <ele>539.9</ele>
        <time>2026-02-05T10:49:39</time>
      </trkpt>
      <trkpt lat="45.07467" lon="5.63754">
        <ele>539.9</ele>
        <time>2026-02-05T10:49:40</time>
      </trkpt>
      <trkpt lat="45.07469" lon="5.63754">
        <ele>539.2</ele>
        <time>2026-02-05T10:49:47</time>
      </trkpt>
      <trkpt lat="45.07469" lon="5.63754">
        <ele>539.2</ele>
        <time>2026-02-05T10:49:47</time>
      </trkpt>
      <trkpt lat="45.07469" lon="5.63754">
        <ele>539.2</ele>
        <time>2026-02-05T10:49:49</time>
      </trkpt>
      <trkpt lat="45.07469" lon="5.63754">
        <ele>540</ele>
        <time>2026-02-05T10:49:49</time>
      </trkpt>
      <trkpt lat="45.07469" lon="5.63755">
        <ele>540</ele>
        <time>2026-02-05T10:49:50</time>
      </trkpt>
      <trkpt lat="45.0747" lon="5.63755">
        <ele>540</ele>
        <time>2026-02-05T10:49:51</time>
      </trkpt>
      <trkpt lat="45.0747" lon="5.63756">
        <ele>540</ele>
        <time>2026-02-05T10:49:52</time>
      </trkpt>
      <trkpt lat="45.0747" lon="5.63757">
        <ele>540</ele>
        <time>2026-02-05T10:49:52</time>
      </trkpt>
      <trkpt lat="45.07469" lon="5.63758">
        <ele>540</ele>
        <time>2026-02-05T10:49:53</time>
      </trkpt>
      <trkpt lat="45.07469" lon="5.63758">
        <ele>540</ele>
        <time>2026-02-05T10:49:54</time>
      </trkpt>
      <trkpt lat="45.0747" lon="5.63759">
        <ele>540</ele>
        <time>2026-02-05T10:49:54</time>
      </trkpt>
      <trkpt lat="45.0747" lon="5.63759">
        <ele>540</ele>
        <time>2026-02-05T10:49:55</time>
      </trkpt>
      <trkpt lat="45.0747" lon="5.6376">
        <ele>542.3333</ele>
        <time>2026-02-05T10:49:56</time>
      </trkpt>
      <trkpt lat="45.07471" lon="5.63762">
        <ele>542.3333</ele>
        <time>2026-02-05T10:49:58</time>
      </trkpt>
      <trkpt lat="45.07471" lon="5.63763">
        <ele>542.3333</ele>
        <time>2026-02-05T10:50:00</time>
      </trkpt>
      <trkpt lat="45.07471" lon="5.63763">
        <ele>542.3333</ele>
        <time>2026-02-05T10:50:00</time>
      </trkpt>
      <trkpt lat="45.07471" lon="5.63764">
        <ele>542.3333</ele>
        <time>2026-02-05T10:50:02</time>
      </trkpt>
      <trkpt lat="45.07471" lon="5.63766">
        <ele>541.8</ele>
        <time>2026-02-05T10:50:04</time>
      </trkpt>
      <trkpt lat="45.07471" lon="5.63767">
        <ele>541.8</ele>
        <time>2026-02-05T10:50:05</time>
      </trkpt>
      <trkpt lat="45.07471" lon="5.63767">
        <ele>541.8</ele>
        <time>2026-02-05T10:50:06</time>
      </trkpt>
      <trkpt lat="45.07472" lon="5.63768">
        <ele>541.8</ele>
        <time>2026-02-05T10:50:07</time>
      </trkpt>
      <trkpt lat="45.07473" lon="5.6377">
        <ele>540.8</ele>
        <time>2026-02-05T10:50:12</time>
      </trkpt>
      <trkpt lat="45.07474" lon="5.6377">
        <ele>540.8</ele>
        <time>2026-02-05T10:50:16</time>
      </trkpt>
      <trkpt lat="45.07474" lon="5.6377">
        <ele>540.8</ele>
        <time>2026-02-05T10:50:18</time>
      </trkpt>
      <trkpt lat="45.07474" lon="5.6377">
        <ele>540.8</ele>
        <time>2026-02-05T10:50:19</time>
      </trkpt>
      <trkpt lat="45.07474" lon="5.6377">
        <ele>540.8</ele>
        <time>2026-02-05T10:50:20</time>
      </trkpt>
      <trkpt lat="45.07475" lon="5.63771">
        <ele>540</ele>
        <time>2026-02-05T10:50:22</time>
      </trkpt>
      <trkpt lat="45.07477" lon="5.63776">
        <ele>540</ele>
        <time>2026-02-05T10:50:27</time>
      </trkpt>
      <trkpt lat="45.07479" lon="5.63778">
        <ele>539.8</ele>
        <time>2026-02-05T10:50:31</time>
      </trkpt>
      <trkpt lat="45.0748" lon="5.63779">
        <ele>539.8</ele>
        <time>2026-02-05T10:50:33</time>
      </trkpt>
      <trkpt lat="45.07481" lon="5.6378">
        <ele>539.8</ele>
        <time>2026-02-05T10:50:35</time>
      </trkpt>
      <trkpt lat="45.07482" lon="5.6378">
        <ele>538.6</ele>
        <time>2026-02-05T10:50:37</time>
      </trkpt>
      <trkpt lat="45.07483" lon="5.63781">
        <ele>538.6</ele>
        <time>2026-02-05T10:50:40</time>
      </trkpt>
      <trkpt lat="45.07484" lon="5.63782">
        <ele>538.6</ele>
        <time>2026-02-05T10:50:42</time>
      </trkpt>
      <trkpt lat="45.07485" lon="5.63784">
        <ele>538.6</ele>
        <time>2026-02-05T10:50:44</time>
      </trkpt>
      <trkpt lat="45.07486" lon="5.63784">
        <ele>538.6</ele>
        <time>2026-02-05T10:50:45</time>
      </trkpt>
      <trkpt lat="45.07486" lon="5.63784">
        <ele>540.6</ele>
        <time>2026-02-05T10:50:45</time>
      </trkpt>
      <trkpt lat="45.07487" lon="5.63784">
        <ele>540.6</ele>
        <time>2026-02-05T10:50:46</time>
      </trkpt>
      <trkpt lat="45.07487" lon="5.63784">
        <ele>540.6</ele>
        <time>2026-02-05T10:50:47</time>
      </trkpt>
      <trkpt lat="45.07487" lon="5.63784">
        <ele>540.6</ele>
        <time>2026-02-05T10:50:49</time>
      </trkpt>
      <trkpt lat="45.07487" lon="5.63784">
        <ele>540.6</ele>
        <time>2026-02-05T10:50:49</time>
      </trkpt>
      <trkpt lat="45.07487" lon="5.63783">
        <ele>540.6</ele>
        <time>2026-02-05T10:50:51</time>
      </trkpt>
      <trkpt lat="45.07487" lon="5.63783">
        <ele>540.6</ele>
        <time>2026-02-05T10:50:51</time>
      </trkpt>
      <trkpt lat="45.07489" lon="5.63783">
        <ele>542.2</ele>
        <time>2026-02-05T10:50:55</time>
      </trkpt>
      <trkpt lat="45.07489" lon="5.63784">
        <ele>542.2</ele>
        <time>2026-02-05T10:50:56</time>
      </trkpt>
      <trkpt lat="45.0749" lon="5.63784">
        <ele>542.2</ele>
        <time>2026-02-05T10:50:57</time>
      </trkpt>
      <trkpt lat="45.0749" lon="5.63784">
        <ele>542.2</ele>
        <time>2026-02-05T10:50:58</time>
      </trkpt>
      <trkpt lat="45.0749" lon="5.63784">
        <ele>542.2</ele>
        <time>2026-02-05T10:50:59</time>
      </trkpt>
      <trkpt lat="45.0749" lon="5.63785">
        <ele>542.2</ele>
        <time>2026-02-05T10:51:00</time>
      </trkpt>
      <trkpt lat="45.0749" lon="5.63785">
        <ele>542.2</ele>
        <time>2026-02-05T10:51:01</time>
      </trkpt>
      <trkpt lat="45.07492" lon="5.63786">
        <ele>542.2</ele>
        <time>2026-02-05T10:51:03</time>
      </trkpt>
      <trkpt lat="45.07493" lon="5.63787">
        <ele>544.8</ele>
        <time>2026-02-05T10:51:05</time>
      </trkpt>
      <trkpt lat="45.07493" lon="5.63787">
        <ele>544.8</ele>
        <time>2026-02-05T10:51:06</time>
      </trkpt>
      <trkpt lat="45.07493" lon="5.63787">
        <ele>544.8</ele>
        <time>2026-02-05T10:51:08</time>
      </trkpt>
      <trkpt lat="45.07493" lon="5.63788">
        <ele>544.8</ele>
        <time>2026-02-05T10:51:09</time>
      </trkpt>
      <trkpt lat="45.07494" lon="5.63788">
        <ele>544.8</ele>
        <time>2026-02-05T10:51:10</time>
      </trkpt>
      <trkpt lat="45.07494" lon="5.63789">
        <ele>544.8</ele>
        <time>2026-02-05T10:51:11</time>
      </trkpt>
      <trkpt lat="45.07494" lon="5.63789">
        <ele>544.8</ele>
        <time>2026-02-05T10:51:12</time>
      </trkpt>
      <trkpt lat="45.07495" lon="5.63789">
        <ele>544.6</ele>
        <time>2026-02-05T10:51:15</time>
      </trkpt>
      <trkpt lat="45.07495" lon="5.6379">
        <ele>544.6</ele>
        <time>2026-02-05T10:51:16</time>
      </trkpt>
      <trkpt lat="45.07495" lon="5.6379">
        <ele>544.6</ele>
        <time>2026-02-05T10:51:17</time>
      </trkpt>
      <trkpt lat="45.07495" lon="5.6379">
        <ele>544.6</ele>
        <time>2026-02-05T10:51:20</time>
      </trkpt>
      <trkpt lat="45.07495" lon="5.6379">
        <ele>545.9</ele>
        <time>2026-02-05T10:51:21</time>
      </trkpt>
      <trkpt lat="45.07495" lon="5.6379">
        <ele>545.9</ele>
        <time>2026-02-05T10:51:21</time>
      </trkpt>
      <trkpt lat="45.07495" lon="5.6379">
        <ele>545.9</ele>
        <time>2026-02-05T10:51:22</time>
      </trkpt>
      <trkpt lat="45.07495" lon="5.6379">
        <ele>545.9</ele>
        <time>2026-02-05T10:51:23</time>
      </trkpt>
      <trkpt lat="45.07495" lon="5.6379">
        <ele>545.9</ele>
        <time>2026-02-05T10:51:24</time>
      </trkpt>
      <trkpt lat="45.07495" lon="5.6379">
        <ele>545.9</ele>
        <time>2026-02-05T10:51:26</time>
      </trkpt>
      <trkpt lat="45.07495" lon="5.6379">
        <ele>545.9</ele>
        <time>2026-02-05T10:51:27</time>
      </trkpt>
      <trkpt lat="45.07496" lon="5.6379">
        <ele>545.9</ele>
        <time>2026-02-05T10:51:29</time>
      </trkpt>
      <trkpt lat="45.07499" lon="5.6379">
        <ele>545.9</ele>
        <time>2026-02-05T10:51:31</time>
      </trkpt>
      <trkpt lat="45.07503" lon="5.6379">
        <ele>545.9</ele>
        <time>2026-02-05T10:51:36</time>
      </trkpt>
      <trkpt lat="45.07504" lon="5.63789">
        <ele>546.5</ele>
        <time>2026-02-05T10:51:39</time>
      </trkpt>
      <trkpt lat="45.07504" lon="5.63789">
        <ele>546.5</ele>
        <time>2026-02-05T10:51:40</time>
      </trkpt>
      <trkpt lat="45.07507" lon="5.63786">
        <ele>546.5</ele>
        <time>2026-02-05T10:51:46</time>
      </trkpt>
      <trkpt lat="45.07507" lon="5.63785">
        <ele>548.4</ele>
        <time>2026-02-05T10:51:47</time>
      </trkpt>
      <trkpt lat="45.07508" lon="5.63782">
        <ele>548.4</ele>
        <time>2026-02-05T10:51:49</time>
      </trkpt>
      <trkpt lat="45.0751" lon="5.63779">
        <ele>548.4</ele>
        <time>2026-02-05T10:51:53</time>
      </trkpt>
      <trkpt lat="45.0751" lon="5.63778">
        <ele>548.4</ele>
        <time>2026-02-05T10:51:54</time>
      </trkpt>
      <trkpt lat="45.0751" lon="5.63777">
        <ele>548.4</ele>
        <time>2026-02-05T10:51:54</time>
      </trkpt>
      <trkpt lat="45.07511" lon="5.63775">
        <ele>550.1</ele>
        <time>2026-02-05T10:51:57</time>
      </trkpt>
      <trkpt lat="45.07511" lon="5.63775">
        <ele>550.1</ele>
        <time>2026-02-05T10:51:57</time>
      </trkpt>
      <trkpt lat="45.07512" lon="5.63774">
        <ele>550.1</ele>
        <time>2026-02-05T10:51:59</time>
      </trkpt>
      <trkpt lat="45.07512" lon="5.63774">
        <ele>550.1</ele>
        <time>2026-02-05T10:52:01</time>
      </trkpt>
      <trkpt lat="45.07512" lon="5.63773">
        <ele>550.3</ele>
        <time>2026-02-05T10:52:06</time>
      </trkpt>
      <trkpt lat="45.07512" lon="5.63773">
        <ele>550.3</ele>
        <time>2026-02-05T10:52:07</time>
      </trkpt>
      <trkpt lat="45.07512" lon="5.63773">
        <ele>550.3</ele>
        <time>2026-02-05T10:52:08</time>
      </trkpt>
      <trkpt lat="45.07512" lon="5.63773">
        <ele>550.3</ele>
        <time>2026-02-05T10:52:11</time>
      </trkpt>
      <trkpt lat="45.07512" lon="5.63773">
        <ele>550.3</ele>
        <time>2026-02-05T10:52:13</time>
      </trkpt>
      <trkpt lat="45.07513" lon="5.63768">
        <ele>550.9</ele>
        <time>2026-02-05T10:52:18</time>
      </trkpt>
      <trkpt lat="45.07514" lon="5.63766">
        <ele>550.9</ele>
        <time>2026-02-05T10:52:19</time>
      </trkpt>
      <trkpt lat="45.07514" lon="5.63763">
        <ele>550.9</ele>
        <time>2026-02-05T10:52:22</time>
      </trkpt>
      <trkpt lat="45.07513" lon="5.63761">
        <ele>550.9</ele>
        <time>2026-02-05T10:52:25</time>
      </trkpt>
      <trkpt lat="45.07513" lon="5.6376">
        <ele>550.9</ele>
        <time>2026-02-05T10:52:26</time>
      </trkpt>
      <trkpt lat="45.07513" lon="5.6376">
        <ele>550.9</ele>
        <time>2026-02-05T10:52:26</time>
      </trkpt>
      <trkpt lat="45.07513" lon="5.63759">
        <ele>550.9</ele>
        <time>2026-02-05T10:52:30</time>
      </trkpt>
      <trkpt lat="45.07512" lon="5.63759">
        <ele>557.9</ele>
        <time>2026-02-05T10:52:35</time>
      </trkpt>
      <trkpt lat="45.07512" lon="5.63759">
        <ele>557.9</ele>
        <time>2026-02-05T10:52:37</time>
      </trkpt>
      <trkpt lat="45.07512" lon="5.63758">
        <ele>557.9</ele>
        <time>2026-02-05T10:52:39</time>
      </trkpt>
      <trkpt lat="45.07512" lon="5.63759">
        <ele>557.6</ele>
        <time>2026-02-05T10:52:41</time>
      </trkpt>
      <trkpt lat="45.07514" lon="5.63755">
        <ele>557.6</ele>
        <time>2026-02-05T10:52:43</time>
      </trkpt>
      <trkpt lat="45.07515" lon="5.63753">
        <ele>557.6</ele>
        <time>2026-02-05T10:52:45</time>
      </trkpt>
      <trkpt lat="45.07515" lon="5.63753">
        <ele>557.6</ele>
        <time>2026-02-05T10:52:45</time>
      </trkpt>
      <trkpt lat="45.07515" lon="5.63753">
        <ele>557.6</ele>
        <time>2026-02-05T10:52:46</time>
      </trkpt>
      <trkpt lat="45.07515" lon="5.63752">
        <ele>557.6</ele>
        <time>2026-02-05T10:52:47</time>
      </trkpt>
      <trkpt lat="45.07515" lon="5.63751">
        <ele>557.6</ele>
        <time>2026-02-05T10:52:48</time>
      </trkpt>
      <trkpt lat="45.07515" lon="5.63749">
        <ele>557.6</ele>
        <time>2026-02-05T10:52:51</time>
      </trkpt>
      <trkpt lat="45.07516" lon="5.63746">
        <ele>557.6</ele>
        <time>2026-02-05T10:52:54</time>
      </trkpt>
      <trkpt lat="45.07516" lon="5.63739">
        <ele>557.1</ele>
        <time>2026-02-05T10:53:00</time>
      </trkpt>
      <trkpt lat="45.07516" lon="5.63738">
        <ele>557.1</ele>
        <time>2026-02-05T10:53:02</time>
      </trkpt>
      <trkpt lat="45.07517" lon="5.63735">
        <ele>558.2</ele>
        <time>2026-02-05T10:53:09</time>
      </trkpt>
      <trkpt lat="45.07517" lon="5.63734">
        <ele>558.2</ele>
        <time>2026-02-05T10:53:11</time>
      </trkpt>
      <trkpt lat="45.07518" lon="5.63733">
        <ele>559.2</ele>
        <time>2026-02-05T10:53:13</time>
      </trkpt>
      <trkpt lat="45.07519" lon="5.63731">
        <ele>559.2</ele>
        <time>2026-02-05T10:53:16</time>
      </trkpt>
      <trkpt lat="45.07519" lon="5.63731">
        <ele>559.2</ele>
        <time>2026-02-05T10:53:17</time>
      </trkpt>
      <trkpt lat="45.0752" lon="5.6373">
        <ele>559.2</ele>
        <time>2026-02-05T10:53:20</time>
      </trkpt>
      <trkpt lat="45.0752" lon="5.6373">
        <ele>560.7</ele>
        <time>2026-02-05T10:53:24</time>
      </trkpt>
      <trkpt lat="45.0752" lon="5.6373">
        <ele>560.7</ele>
        <time>2026-02-05T10:53:25</time>
      </trkpt>
      <trkpt lat="45.0752" lon="5.6373">
        <ele>560.7</ele>
        <time>2026-02-05T10:53:26</time>
      </trkpt>
      <trkpt lat="45.0752" lon="5.6373">
        <ele>560.7</ele>
        <time>2026-02-05T10:53:26</time>
      </trkpt>
      <trkpt lat="45.0752" lon="5.6373">
        <ele>560.7</ele>
        <time>2026-02-05T10:53:28</time>
      </trkpt>
      <trkpt lat="45.0752" lon="5.6373">
        <ele>560.7</ele>
        <time>2026-02-05T10:53:29</time>
      </trkpt>
      <trkpt lat="45.0752" lon="5.6373">
        <ele>562.2</ele>
        <time>2026-02-05T10:53:31</time>
      </trkpt>
      <trkpt lat="45.0752" lon="5.6373">
        <ele>562.2</ele>
        <time>2026-02-05T10:53:32</time>
      </trkpt>
      <trkpt lat="45.0752" lon="5.6373">
        <ele>562.2</ele>
        <time>2026-02-05T10:53:33</time>
      </trkpt>
      <trkpt lat="45.0752" lon="5.6373">
        <ele>562.2</ele>
        <time>2026-02-05T10:53:35</time>
      </trkpt>
      <trkpt lat="45.0752" lon="5.6373">
        <ele>562.2</ele>
        <time>2026-02-05T10:53:36</time>
      </trkpt>
      <trkpt lat="45.0752" lon="5.6373">
        <ele>562.2</ele>
        <time>2026-02-05T10:53:37</time>
      </trkpt>
      <trkpt lat="45.0752" lon="5.6373">
        <ele>562.2</ele>
        <time>2026-02-05T10:53:40</time>
      </trkpt>
      <trkpt lat="45.07523" lon="5.63719">
        <ele>562.2</ele>
        <time>2026-02-05T10:53:42</time>
      </trkpt>
      <trkpt lat="45.07524" lon="5.63717">
        <ele>562.2</ele>
        <time>2026-02-05T10:53:43</time>
      </trkpt>
      <trkpt lat="45.07524" lon="5.63716">
        <ele>562.2</ele>
        <time>2026-02-05T10:53:44</time>
      </trkpt>
      <trkpt lat="45.07525" lon="5.63716">
        <ele>562.2</ele>
        <time>2026-02-05T10:53:45</time>
      </trkpt>
      <trkpt lat="45.07525" lon="5.63715">
        <ele>562.2</ele>
        <time>2026-02-05T10:53:46</time>
      </trkpt>
      <trkpt lat="45.07525" lon="5.63715">
        <ele>562.2</ele>
        <time>2026-02-05T10:53:47</time>
      </trkpt>
      <trkpt lat="45.07526" lon="5.63713">
        <ele>566.2</ele>
        <time>2026-02-05T10:53:49</time>
      </trkpt>
      <trkpt lat="45.07528" lon="5.63711">
        <ele>566.2</ele>
        <time>2026-02-05T10:53:54</time>
      </trkpt>
      <trkpt lat="45.07528" lon="5.63709">
        <ele>565.9</ele>
        <time>2026-02-05T10:53:58</time>
      </trkpt>
      <trkpt lat="45.07528" lon="5.63709">
        <ele>565.9</ele>
        <time>2026-02-05T10:54:00</time>
      </trkpt>
      <trkpt lat="45.07528" lon="5.63708">
        <ele>565.9</ele>
        <time>2026-02-05T10:54:03</time>
      </trkpt>
      <trkpt lat="45.07527" lon="5.63708">
        <ele>565.9</ele>
        <time>2026-02-05T10:54:04</time>
      </trkpt>
      <trkpt lat="45.07527" lon="5.63708">
        <ele>566.8</ele>
        <time>2026-02-05T10:54:10</time>
      </trkpt>
      <trkpt lat="45.07527" lon="5.63708">
        <ele>566.8</ele>
        <time>2026-02-05T10:54:11</time>
      </trkpt>
      <trkpt lat="45.07527" lon="5.63708">
        <ele>566.8</ele>
        <time>2026-02-05T10:54:13</time>
      </trkpt>
      <trkpt lat="45.07527" lon="5.63707">
        <ele>566.8</ele>
        <time>2026-02-05T10:54:15</time>
      </trkpt>
      <trkpt lat="45.07527" lon="5.63707">
        <ele>567.1</ele>
        <time>2026-02-05T10:54:18</time>
      </trkpt>
      <trkpt lat="45.07527" lon="5.63707">
        <ele>567.1</ele>
        <time>2026-02-05T10:54:21</time>
      </trkpt>
      <trkpt lat="45.07527" lon="5.63707">
        <ele>567.1</ele>
        <time>2026-02-05T10:54:22</time>
      </trkpt>
      <trkpt lat="45.07527" lon="5.63706">
        <ele>567.1</ele>
        <time>2026-02-05T10:54:24</time>
      </trkpt>
      <trkpt lat="45.07528" lon="5.63704">
        <ele>567.1</ele>
        <time>2026-02-05T10:54:26</time>
      </trkpt>
      <trkpt lat="45.07529" lon="5.63696">
        <ele>567.1</ele>
        <time>2026-02-05T10:54:27</time>
      </trkpt>
      <trkpt lat="45.07529" lon="5.63694">
        <ele>567.1</ele>
        <time>2026-02-05T10:54:29</time>
      </trkpt>
      <trkpt lat="45.0753" lon="5.63693">
        <ele>567.1</ele>
        <time>2026-02-05T10:54:29</time>
      </trkpt>
      <trkpt lat="45.0753" lon="5.63693">
        <ele>567.1</ele>
        <time>2026-02-05T10:54:31</time>
      </trkpt>
      <trkpt lat="45.07531" lon="5.63692">
        <ele>572.6</ele>
        <time>2026-02-05T10:54:37</time>
      </trkpt>
      <trkpt lat="45.07531" lon="5.63692">
        <ele>572.6</ele>
        <time>2026-02-05T10:54:37</time>
      </trkpt>
      <trkpt lat="45.07531" lon="5.63692">
        <ele>572.6</ele>
        <time>2026-02-05T10:54:39</time>
      </trkpt>
      <trkpt lat="45.07532" lon="5.6369">
        <ele>572.6</ele>
        <time>2026-02-05T10:54:41</time>
      </trkpt>
      <trkpt lat="45.07533" lon="5.6369">
        <ele>575.13336</ele>
        <time>2026-02-05T10:54:48</time>
      </trkpt>
      <trkpt lat="45.07533" lon="5.6369">
        <ele>575.13336</ele>
        <time>2026-02-05T10:54:50</time>
      </trkpt>
      <trkpt lat="45.07533" lon="5.6369">
        <ele>575.13336</ele>
        <time>2026-02-05T10:54:52</time>
      </trkpt>
      <trkpt lat="45.07532" lon="5.63693">
        <ele>576.9</ele>
        <time>2026-02-05T10:54:59</time>
      </trkpt>
      <trkpt lat="45.07532" lon="5.63695">
        <ele>576.9</ele>
        <time>2026-02-05T10:55:04</time>
      </trkpt>
      <trkpt lat="45.07531" lon="5.63695">
        <ele>576.9</ele>
        <time>2026-02-05T10:55:05</time>
      </trkpt>
      <trkpt lat="45.07531" lon="5.63695">
        <ele>576.9</ele>
        <time>2026-02-05T10:55:07</time>
      </trkpt>
      <trkpt lat="45.07531" lon="5.63695">
        <ele>576.9</ele>
        <time>2026-02-05T10:55:07</time>
      </trkpt>
      <trkpt lat="45.07531" lon="5.63695">
        <ele>576.9</ele>
        <time>2026-02-05T10:55:08</time>
      </trkpt>
      <trkpt lat="45.07531" lon="5.63695">
        <ele>576.9</ele>
        <time>2026-02-05T10:55:09</time>
      </trkpt>
      <trkpt lat="45.07531" lon="5.63695">
        <ele>576.9</ele>
        <time>2026-02-05T10:55:10</time>
      </trkpt>
      <trkpt lat="45.07531" lon="5.63695">
        <ele>576.9</ele>
        <time>2026-02-05T10:55:11</time>
      </trkpt>
      <trkpt lat="45.07531" lon="5.63695">
        <ele>581.3</ele>
        <time>2026-02-05T10:55:12</time>
      </trkpt>
      <trkpt lat="45.07531" lon="5.63695">
        <ele>581.3</ele>
        <time>2026-02-05T10:55:12</time>
      </trkpt>
      <trkpt lat="45.07531" lon="5.63695">
        <ele>581.3</ele>
        <time>2026-02-05T10:55:15</time>
      </trkpt>
      <trkpt lat="45.07531" lon="5.63695">
        <ele>581.3</ele>
        <time>2026-02-05T10:55:16</time>
      </trkpt>
      <trkpt lat="45.07531" lon="5.63695">
        <ele>581.3</ele>
        <time>2026-02-05T10:55:19</time>
      </trkpt>
      <trkpt lat="45.07531" lon="5.63695">
        <ele>581.3</ele>
        <time>2026-02-05T10:55:20</time>
      </trkpt>
      <trkpt lat="45.07531" lon="5.63695">
        <ele>581.3</ele>
        <time>2026-02-05T10:55:22</time>
      </trkpt>
      <trkpt lat="45.07531" lon="5.63695">
        <ele>581.3</ele>
        <time>2026-02-05T10:55:22</time>
      </trkpt>
      <trkpt lat="45.07531" lon="5.63695">
        <ele>581.3</ele>
        <time>2026-02-05T10:55:24</time>
      </trkpt>
      <trkpt lat="45.07531" lon="5.63695">
        <ele>581.3</ele>
        <time>2026-02-05T10:55:26</time>
      </trkpt>
      <trkpt lat="45.07531" lon="5.63695">
        <ele>581.3</ele>
        <time>2026-02-05T10:55:26</time>
      </trkpt>
      <trkpt lat="45.07531" lon="5.63695">
        <ele>581.3</ele>
        <time>2026-02-05T10:55:29</time>
      </trkpt>
      <trkpt lat="45.07531" lon="5.63695">
        <ele>581.3</ele>
        <time>2026-02-05T10:55:30</time>
      </trkpt>
      <trkpt lat="45.07531" lon="5.63695">
        <ele>581.3</ele>
        <time>2026-02-05T10:55:31</time>
      </trkpt>
      <trkpt lat="45.07531" lon="5.63695">
        <ele>581.3</ele>
        <time>2026-02-05T10:55:32</time>
      </trkpt>
      <trkpt lat="45.07531" lon="5.63695">
        <ele>581.3</ele>
        <time>2026-02-05T10:55:36</time>
      </trkpt>
      <trkpt lat="45.07531" lon="5.63695">
        <ele>581.3</ele>
        <time>2026-02-05T10:55:37</time>
      </trkpt>
      <trkpt lat="45.07531" lon="5.63695">
        <ele>581.3</ele>
        <time>2026-02-05T10:55:38</time>
      </trkpt>
      <trkpt lat="45.07539" lon="5.63702">
        <ele>581.3</ele>
        <time>2026-02-05T10:55:39</time>
      </trkpt>
      <trkpt lat="45.07539" lon="5.63702">
        <ele>581.3</ele>
        <time>2026-02-05T10:55:40</time>
      </trkpt>
      <trkpt lat="45.0754" lon="5.63702">
        <ele>581.3</ele>
        <time>2026-02-05T10:55:41</time>
      </trkpt>
      <trkpt lat="45.07541" lon="5.63704">
        <ele>581.3</ele>
        <time>2026-02-05T10:55:46</time>
      </trkpt>
      <trkpt lat="45.07541" lon="5.63704">
        <ele>581.3</ele>
        <time>2026-02-05T10:55:47</time>
      </trkpt>
      <trkpt lat="45.07541" lon="5.63704">
        <ele>590.9</ele>
        <time>2026-02-05T10:55:50</time>
      </trkpt>
      <trkpt lat="45.07541" lon="5.63704">
        <ele>590.9</ele>
        <time>2026-02-05T10:55:50</time>
      </trkpt>
      <trkpt lat="45.07541" lon="5.63704">
        <ele>590.9</ele>
        <time>2026-02-05T10:55:52</time>
      </trkpt>
      <trkpt lat="45.07542" lon="5.63704">
        <ele>590.9</ele>
        <time>2026-02-05T10:55:54</time>
      </trkpt>
      <trkpt lat="45.07542" lon="5.63704">
        <ele>590.9</ele>
        <time>2026-02-05T10:55:57</time>
      </trkpt>
      <trkpt lat="45.07542" lon="5.63704">
        <ele>590.8</ele>
        <time>2026-02-05T10:56:00</time>
      </trkpt>
      <trkpt lat="45.07542" lon="5.63704">
        <ele>590.8</ele>
        <time>2026-02-05T10:56:01</time>
      </trkpt>
      <trkpt lat="45.07544" lon="5.63705">
        <ele>590.8</ele>
        <time>2026-02-05T10:56:04</time>
      </trkpt>
      <trkpt lat="45.07547" lon="5.63706">
        <ele>590.8</ele>
        <time>2026-02-05T10:56:05</time>
      </trkpt>
      <trkpt lat="45.07548" lon="5.63707">
        <ele>590.8</ele>
        <time>2026-02-05T10:56:06</time>
      </trkpt>
      <trkpt lat="45.0755" lon="5.63709">
        <ele>590.8</ele>
        <time>2026-02-05T10:56:09</time>
      </trkpt>
      <trkpt lat="45.07551" lon="5.63709">
        <ele>590.8</ele>
        <time>2026-02-05T10:56:10</time>
      </trkpt>
      <trkpt lat="45.07551" lon="5.63709">
        <ele>590.8</ele>
        <time>2026-02-05T10:56:11</time>
      </trkpt>
      <trkpt lat="45.07551" lon="5.6371">
        <ele>590.8</ele>
        <time>2026-02-05T10:56:12</time>
      </trkpt>
      <trkpt lat="45.07552" lon="5.6371">
        <ele>590.8</ele>
        <time>2026-02-05T10:56:13</time>
      </trkpt>
      <trkpt lat="45.07553" lon="5.63713">
        <ele>593.8</ele>
        <time>2026-02-05T10:56:16</time>
      </trkpt>
      <trkpt lat="45.07553" lon="5.63714">
        <ele>593.8</ele>
        <time>2026-02-05T10:56:18</time>
      </trkpt>
      <trkpt lat="45.07554" lon="5.63714">
        <ele>593.8</ele>
        <time>2026-02-05T10:56:19</time>
      </trkpt>
      <trkpt lat="45.07554" lon="5.63715">
        <ele>593.8</ele>
        <time>2026-02-05T10:56:20</time>
      </trkpt>
      <trkpt lat="45.07556" lon="5.63716">
        <ele>593.8</ele>
        <time>2026-02-05T10:56:22</time>
      </trkpt>
      <trkpt lat="45.07556" lon="5.63717">
        <ele>595.1</ele>
        <time>2026-02-05T10:56:23</time>
      </trkpt>
      <trkpt lat="45.07558" lon="5.63718">
        <ele>595.1</ele>
        <time>2026-02-05T10:56:26</time>
      </trkpt>
      <trkpt lat="45.07562" lon="5.63715">
        <ele>595.1</ele>
        <time>2026-02-05T10:56:31</time>
      </trkpt>
      <trkpt lat="45.07561" lon="5.63714">
        <ele>594.9</ele>
        <time>2026-02-05T10:56:31</time>
      </trkpt>
      <trkpt lat="45.07561" lon="5.63713">
        <ele>594.9</ele>
        <time>2026-02-05T10:56:32</time>
      </trkpt>
      <trkpt lat="45.07561" lon="5.63711">
        <ele>594.9</ele>
        <time>2026-02-05T10:56:34</time>
      </trkpt>
      <trkpt lat="45.07561" lon="5.6371">
        <ele>594.9</ele>
        <time>2026-02-05T10:56:35</time>
      </trkpt>
      <trkpt lat="45.07561" lon="5.63709">
        <ele>594.9</ele>
        <time>2026-02-05T10:56:36</time>
      </trkpt>
      <trkpt lat="45.0756" lon="5.63709">
        <ele>594.9</ele>
        <time>2026-02-05T10:56:39</time>
      </trkpt>
      <trkpt lat="45.0756" lon="5.63707">
        <ele>594.1</ele>
        <time>2026-02-05T10:56:41</time>
      </trkpt>
      <trkpt lat="45.0756" lon="5.63707">
        <ele>594.1</ele>
        <time>2026-02-05T10:56:41</time>
      </trkpt>
      <trkpt lat="45.0756" lon="5.63706">
        <ele>594.1</ele>
        <time>2026-02-05T10:56:43</time>
      </trkpt>
      <trkpt lat="45.0756" lon="5.63702">
        <ele>594.1</ele>
        <time>2026-02-05T10:56:46</time>
      </trkpt>
      <trkpt lat="45.0756" lon="5.63701">
        <ele>594.1</ele>
        <time>2026-02-05T10:56:47</time>
      </trkpt>
      <trkpt lat="45.07559" lon="5.637">
        <ele>592.7</ele>
        <time>2026-02-05T10:56:47</time>
      </trkpt>
      <trkpt lat="45.07559" lon="5.63697">
        <ele>592.7</ele>
        <time>2026-02-05T10:56:49</time>
      </trkpt>
      <trkpt lat="45.07559" lon="5.63697">
        <ele>592.7</ele>
        <time>2026-02-05T10:56:50</time>
      </trkpt>
      <trkpt lat="45.07559" lon="5.63696">
        <ele>592.7</ele>
        <time>2026-02-05T10:56:51</time>
      </trkpt>
      <trkpt lat="45.07559" lon="5.63696">
        <ele>592.7</ele>
        <time>2026-02-05T10:56:51</time>
      </trkpt>
      <trkpt lat="45.07559" lon="5.63695">
        <ele>592.7</ele>
        <time>2026-02-05T10:56:52</time>
      </trkpt>
      <trkpt lat="45.07559" lon="5.63695">
        <ele>592.7</ele>
        <time>2026-02-05T10:56:55</time>
      </trkpt>
      <trkpt lat="45.07559" lon="5.63695">
        <ele>591.6</ele>
        <time>2026-02-05T10:56:56</time>
      </trkpt>
      <trkpt lat="45.07559" lon="5.63694">
        <ele>591.6</ele>
        <time>2026-02-05T10:56:58</time>
      </trkpt>
      <trkpt lat="45.07559" lon="5.63694">
        <ele>591.6</ele>
        <time>2026-02-05T10:56:59</time>
      </trkpt>
      <trkpt lat="45.07559" lon="5.63694">
        <ele>591.6</ele>
        <time>2026-02-05T10:57:00</time>
      </trkpt>
      <trkpt lat="45.07559" lon="5.63694">
        <ele>591.6</ele>
        <time>2026-02-05T10:57:01</time>
      </trkpt>
      <trkpt lat="45.07559" lon="5.63693">
        <ele>591.6</ele>
        <time>2026-02-05T10:57:02</time>
      </trkpt>
      <trkpt lat="45.07559" lon="5.63691">
        <ele>592</ele>
        <time>2026-02-05T10:57:03</time>
      </trkpt>
      <trkpt lat="45.07559" lon="5.63691">
        <ele>592</ele>
        <time>2026-02-05T10:57:04</time>
      </trkpt>
      <trkpt lat="45.07559" lon="5.6369">
        <ele>592</ele>
        <time>2026-02-05T10:57:05</time>
      </trkpt>
      <trkpt lat="45.0756" lon="5.63689">
        <ele>592</ele>
        <time>2026-02-05T10:57:06</time>
      </trkpt>
      <trkpt lat="45.07561" lon="5.63688">
        <ele>592</ele>
        <time>2026-02-05T10:57:08</time>
      </trkpt>
      <trkpt lat="45.07563" lon="5.63687">
        <ele>592</ele>
        <time>2026-02-05T10:57:09</time>
      </trkpt>
      <trkpt lat="45.07563" lon="5.63686">
        <ele>592</ele>
        <time>2026-02-05T10:57:10</time>
      </trkpt>
      <trkpt lat="45.07563" lon="5.63686">
        <ele>592</ele>
        <time>2026-02-05T10:57:10</time>
      </trkpt>
      <trkpt lat="45.07564" lon="5.63686">
        <ele>591.86664</ele>
        <time>2026-02-05T10:57:12</time>
      </trkpt>
      <trkpt lat="45.07564" lon="5.63686">
        <ele>591.86664</ele>
        <time>2026-02-05T10:57:12</time>
      </trkpt>
      <trkpt lat="45.07565" lon="5.63686">
        <ele>591.86664</ele>
        <time>2026-02-05T10:57:13</time>
      </trkpt>
      <trkpt lat="45.07565" lon="5.63685">
        <ele>591.86664</ele>
        <time>2026-02-05T10:57:14</time>
      </trkpt>
      <trkpt lat="45.07565" lon="5.63685">
        <ele>591.86664</ele>
        <time>2026-02-05T10:57:15</time>
      </trkpt>
      <trkpt lat="45.07566" lon="5.63681">
        <ele>592</ele>
        <time>2026-02-05T10:57:20</time>
      </trkpt>
      <trkpt lat="45.07566" lon="5.6368">
        <ele>592</ele>
        <time>2026-02-05T10:57:21</time>
      </trkpt>
      <trkpt lat="45.07567" lon="5.6368">
        <ele>592</ele>
        <time>2026-02-05T10:57:22</time>
      </trkpt>
      <trkpt lat="45.07567" lon="5.63679">
        <ele>592</ele>
        <time>2026-02-05T10:57:23</time>
      </trkpt>
      <trkpt lat="45.07567" lon="5.63679">
        <ele>592</ele>
        <time>2026-02-05T10:57:25</time>
      </trkpt>
      <trkpt lat="45.07567" lon="5.63678">
        <ele>592</ele>
        <time>2026-02-05T10:57:26</time>
      </trkpt>
      <trkpt lat="45.07567" lon="5.63677">
        <ele>592</ele>
        <time>2026-02-05T10:57:27</time>
      </trkpt>
      <trkpt lat="45.07567" lon="5.63677">
        <ele>591.9667</ele>
        <time>2026-02-05T10:57:29</time>
      </trkpt>
      <trkpt lat="45.07567" lon="5.63676">
        <ele>591.9667</ele>
        <time>2026-02-05T10:57:30</time>
      </trkpt>
      <trkpt lat="45.07567" lon="5.63675">
        <ele>591.9667</ele>
        <time>2026-02-05T10:57:32</time>
      </trkpt>
      <trkpt lat="45.07567" lon="5.63675">
        <ele>591.9667</ele>
        <time>2026-02-05T10:57:32</time>
      </trkpt>
      <trkpt lat="45.07567" lon="5.63674">
        <ele>591.9667</ele>
        <time>2026-02-05T10:57:33</time>
      </trkpt>
      <trkpt lat="45.07567" lon="5.63674">
        <ele>591.9667</ele>
        <time>2026-02-05T10:57:36</time>
      </trkpt>
      <trkpt lat="45.07566" lon="5.63674">
        <ele>591.9</ele>
        <time>2026-02-05T10:57:39</time>
      </trkpt>
      <trkpt lat="45.07566" lon="5.63674">
        <ele>591.9</ele>
        <time>2026-02-05T10:57:40</time>
      </trkpt>
      <trkpt lat="45.07566" lon="5.63674">
        <ele>591.9</ele>
        <time>2026-02-05T10:57:41</time>
      </trkpt>
      <trkpt lat="45.07566" lon="5.63674">
        <ele>591.9</ele>
        <time>2026-02-05T10:57:43</time>
      </trkpt>
      <trkpt lat="45.07566" lon="5.63674">
        <ele>591.9</ele>
        <time>2026-02-05T10:57:45</time>
      </trkpt>
      <trkpt lat="45.07566" lon="5.63674">
        <ele>591.8</ele>
        <time>2026-02-05T10:57:47</time>
      </trkpt>
      <trkpt lat="45.07566" lon="5.63674">
        <ele>591.8</ele>
        <time>2026-02-05T10:57:48</time>
      </trkpt>
      <trkpt lat="45.07566" lon="5.63674">
        <ele>591.8</ele>
        <time>2026-02-05T10:57:49</time>
      </trkpt>
      <trkpt lat="45.07566" lon="5.63674">
        <ele>591.8</ele>
        <time>2026-02-05T10:57:50</time>
      </trkpt>
      <trkpt lat="45.07568" lon="5.63668">
        <ele>591.8</ele>
        <time>2026-02-05T10:57:53</time>
      </trkpt>
      <trkpt lat="45.07568" lon="5.63667">
        <ele>591.8</ele>
        <time>2026-02-05T10:57:55</time>
      </trkpt>
      <trkpt lat="45.07568" lon="5.63667">
        <ele>591.8</ele>
        <time>2026-02-05T10:57:56</time>
      </trkpt>
      <trkpt lat="45.07568" lon="5.63666">
        <ele>591.8</ele>
        <time>2026-02-05T10:58:00</time>
      </trkpt>
      <trkpt lat="45.07568" lon="5.63666">
        <ele>591.8</ele>
        <time>2026-02-05T10:58:01</time>
      </trkpt>
      <trkpt lat="45.07568" lon="5.63666">
        <ele>591.8</ele>
        <time>2026-02-05T10:58:02</time>
      </trkpt>
      <trkpt lat="45.07568" lon="5.63666">
        <ele>591.8</ele>
        <time>2026-02-05T10:58:04</time>
      </trkpt>
      <trkpt lat="45.07568" lon="5.63666">
        <ele>594.6</ele>
        <time>2026-02-05T10:58:05</time>
      </trkpt>
      <trkpt lat="45.07568" lon="5.63666">
        <ele>594.6</ele>
        <time>2026-02-05T10:58:06</time>
      </trkpt>
      <trkpt lat="45.07568" lon="5.63666">
        <ele>594.6</ele>
        <time>2026-02-05T10:58:07</time>
      </trkpt>
      <trkpt lat="45.07568" lon="5.63666">
        <ele>594.6</ele>
        <time>2026-02-05T10:58:08</time>
      </trkpt>
      <trkpt lat="45.07568" lon="5.63666">
        <ele>594.6</ele>
        <time>2026-02-05T10:58:09</time>
      </trkpt>
      <trkpt lat="45.07568" lon="5.63666">
        <ele>594.6</ele>
        <time>2026-02-05T10:58:09</time>
      </trkpt>
      <trkpt lat="45.07568" lon="5.63666">
        <ele>594.6</ele>
        <time>2026-02-05T10:58:10</time>
      </trkpt>
      <trkpt lat="45.07568" lon="5.63666">
        <ele>594.6</ele>
        <time>2026-02-05T10:58:11</time>
      </trkpt>
      <trkpt lat="45.07572" lon="5.6366">
        <ele>594.6</ele>
        <time>2026-02-05T10:58:11</time>
      </trkpt>
      <trkpt lat="45.07573" lon="5.63658">
        <ele>594.6</ele>
        <time>2026-02-05T10:58:12</time>
      </trkpt>
      <trkpt lat="45.07574" lon="5.63657">
        <ele>594.6</ele>
        <time>2026-02-05T10:58:13</time>
      </trkpt>
      <trkpt lat="45.07575" lon="5.63656">
        <ele>594.6</ele>
        <time>2026-02-05T10:58:14</time>
      </trkpt>
      <trkpt lat="45.07575" lon="5.63655">
        <ele>594.6</ele>
        <time>2026-02-05T10:58:15</time>
      </trkpt>
      <trkpt lat="45.07575" lon="5.63654">
        <ele>594.6</ele>
        <time>2026-02-05T10:58:16</time>
      </trkpt>
      <trkpt lat="45.07575" lon="5.63652">
        <ele>594.6</ele>
        <time>2026-02-05T10:58:19</time>
      </trkpt>
      <trkpt lat="45.07575" lon="5.63651">
        <ele>594.6</ele>
        <time>2026-02-05T10:58:20</time>
      </trkpt>
      <trkpt lat="45.07576" lon="5.63651">
        <ele>594.6</ele>
        <time>2026-02-05T10:58:21</time>
      </trkpt>
      <trkpt lat="45.07576" lon="5.63651">
        <ele>596.3</ele>
        <time>2026-02-05T10:58:23</time>
      </trkpt>
      <trkpt lat="45.07577" lon="5.63651">
        <ele>596.3</ele>
        <time>2026-02-05T10:58:24</time>
      </trkpt>
      <trkpt lat="45.07577" lon="5.6365">
        <ele>596.3</ele>
        <time>2026-02-05T10:58:26</time>
      </trkpt>
      <trkpt lat="45.07577" lon="5.6365">
        <ele>596.3</ele>
        <time>2026-02-05T10:58:29</time>
      </trkpt>
      <trkpt lat="45.07577" lon="5.63651">
        <ele>599.2</ele>
        <time>2026-02-05T10:58:31</time>
      </trkpt>
      <trkpt lat="45.07578" lon="5.6365">
        <ele>599.2</ele>
        <time>2026-02-05T10:58:31</time>
      </trkpt>
      <trkpt lat="45.07578" lon="5.6365">
        <ele>599.2</ele>
        <time>2026-02-05T10:58:32</time>
      </trkpt>
      <trkpt lat="45.07578" lon="5.6365">
        <ele>599.2</ele>
        <time>2026-02-05T10:58:33</time>
      </trkpt>
      <trkpt lat="45.07577" lon="5.6365">
        <ele>599.2</ele>
        <time>2026-02-05T10:58:36</time>
      </trkpt>
      <trkpt lat="45.07577" lon="5.6365">
        <ele>599.4</ele>
        <time>2026-02-05T10:58:43</time>
      </trkpt>
      <trkpt lat="45.07578" lon="5.6365">
        <ele>599.4</ele>
        <time>2026-02-05T10:58:47</time>
      </trkpt>
      <trkpt lat="45.07578" lon="5.6365">
        <ele>599.4</ele>
        <time>2026-02-05T10:58:49</time>
      </trkpt>
      <trkpt lat="45.07578" lon="5.6365">
        <ele>599.4</ele>
        <time>2026-02-05T10:58:50</time>
      </trkpt>
      <trkpt lat="45.07577" lon="5.63646">
        <ele>599.4</ele>
        <time>2026-02-05T10:58:51</time>
      </trkpt>
      <trkpt lat="45.07577" lon="5.63642">
        <ele>599.4</ele>
        <time>2026-02-05T10:58:51</time>
      </trkpt>
      <trkpt lat="45.07577" lon="5.63637">
        <ele>603.4</ele>
        <time>2026-02-05T10:58:56</time>
      </trkpt>
      <trkpt lat="45.07577" lon="5.63631">
        <ele>603.4</ele>
        <time>2026-02-05T10:59:01</time>
      </trkpt>
      <trkpt lat="45.07579" lon="5.63629">
        <ele>603.8</ele>
        <time>2026-02-05T10:59:06</time>
      </trkpt>
      <trkpt lat="45.07581" lon="5.63629">
        <ele>608.6</ele>
        <time>2026-02-05T10:59:16</time>
      </trkpt>
      <trkpt lat="45.07581" lon="5.63629">
        <ele>608.6</ele>
        <time>2026-02-05T10:59:17</time>
      </trkpt>
      <trkpt lat="45.07581" lon="5.63629">
        <ele>608.6</ele>
        <time>2026-02-05T10:59:19</time>
      </trkpt>
      <trkpt lat="45.07581" lon="5.63629">
        <ele>608.6</ele>
        <time>2026-02-05T10:59:20</time>
      </trkpt>
      <trkpt lat="45.07581" lon="5.63627">
        <ele>608.7</ele>
        <time>2026-02-05T10:59:21</time>
      </trkpt>
      <trkpt lat="45.07581" lon="5.63626">
        <ele>608.7</ele>
        <time>2026-02-05T10:59:22</time>
      </trkpt>
      <trkpt lat="45.0758" lon="5.63625">
        <ele>608.7</ele>
        <time>2026-02-05T10:59:23</time>
      </trkpt>
      <trkpt lat="45.0758" lon="5.63625">
        <ele>608.7</ele>
        <time>2026-02-05T10:59:25</time>
      </trkpt>
      <trkpt lat="45.0758" lon="5.63625">
        <ele>608.7</ele>
        <time>2026-02-05T10:59:27</time>
      </trkpt>
      <trkpt lat="45.07579" lon="5.63625">
        <ele>608.7</ele>
        <time>2026-02-05T10:59:28</time>
      </trkpt>
      <trkpt lat="45.07579" lon="5.63625">
        <ele>608.7</ele>
        <time>2026-02-05T10:59:29</time>
      </trkpt>
      <trkpt lat="45.07579" lon="5.63624">
        <ele>612</ele>
        <time>2026-02-05T10:59:30</time>
      </trkpt>
      <trkpt lat="45.07579" lon="5.63624">
        <ele>612</ele>
        <time>2026-02-05T10:59:33</time>
      </trkpt>
      <trkpt lat="45.07579" lon="5.63625">
        <ele>612</ele>
        <time>2026-02-05T10:59:36</time>
      </trkpt>
      <trkpt lat="45.07579" lon="5.63625">
        <ele>612</ele>
        <time>2026-02-05T10:59:37</time>
      </trkpt>
      <trkpt lat="45.07579" lon="5.63625">
        <ele>612</ele>
        <time>2026-02-05T10:59:38</time>
      </trkpt>
      <trkpt lat="45.07579" lon="5.63625">
        <ele>612</ele>
        <time>2026-02-05T10:59:39</time>
      </trkpt>
      <trkpt lat="45.07579" lon="5.63624">
        <ele>612</ele>
        <time>2026-02-05T10:59:42</time>
      </trkpt>
      <trkpt lat="45.07579" lon="5.63624">
        <ele>612</ele>
        <time>2026-02-05T10:59:45</time>
      </trkpt>
      <trkpt lat="45.07579" lon="5.63624">
        <ele>612</ele>
        <time>2026-02-05T10:59:46</time>
      </trkpt>
      <trkpt lat="45.07579" lon="5.63624">
        <ele>612</ele>
        <time>2026-02-05T10:59:48</time>
      </trkpt>
      <trkpt lat="45.07579" lon="5.63624">
        <ele>612</ele>
        <time>2026-02-05T10:59:51</time>
      </trkpt>
      <trkpt lat="45.07579" lon="5.63624">
        <ele>612</ele>
        <time>2026-02-05T10:59:52</time>
      </trkpt>
      <trkpt lat="45.07579" lon="5.63625">
        <ele>612</ele>
        <time>2026-02-05T10:59:54</time>
      </trkpt>
      <trkpt lat="45.07579" lon="5.63625">
        <ele>612</ele>
        <time>2026-02-05T10:59:58</time>
      </trkpt>
      <trkpt lat="45.07579" lon="5.63624">
        <ele>612</ele>
        <time>2026-02-05T10:59:59</time>
      </trkpt>
      <trkpt lat="45.0758" lon="5.63613">
        <ele>612</ele>
        <time>2026-02-05T11:00:01</time>
      </trkpt>
      <trkpt lat="45.07581" lon="5.63611">
        <ele>612</ele>
        <time>2026-02-05T11:00:02</time>
      </trkpt>
      <trkpt lat="45.07581" lon="5.6361">
        <ele>612</ele>
        <time>2026-02-05T11:00:03</time>
      </trkpt>
      <trkpt lat="45.07581" lon="5.63608">
        <ele>612</ele>
        <time>2026-02-05T11:00:05</time>
      </trkpt>
      <trkpt lat="45.07582" lon="5.636">
        <ele>612</ele>
        <time>2026-02-05T11:00:10</time>
      </trkpt>
      <trkpt lat="45.07581" lon="5.63597">
        <ele>612</ele>
        <time>2026-02-05T11:00:14</time>
      </trkpt>
      <trkpt lat="45.07582" lon="5.63595">
        <ele>612</ele>
        <time>2026-02-05T11:00:16</time>
      </trkpt>
      <trkpt lat="45.07581" lon="5.63594">
        <ele>620.6</ele>
        <time>2026-02-05T11:00:19</time>
      </trkpt>
      <trkpt lat="45.07581" lon="5.63591">
        <ele>620.6</ele>
        <time>2026-02-05T11:00:23</time>
      </trkpt>
      <trkpt lat="45.07581" lon="5.6359">
        <ele>620.6</ele>
        <time>2026-02-05T11:00:25</time>
      </trkpt>
      <trkpt lat="45.07581" lon="5.6359">
        <ele>622.06665</ele>
        <time>2026-02-05T11:00:28</time>
      </trkpt>
      <trkpt lat="45.07581" lon="5.63589">
        <ele>622.06665</ele>
        <time>2026-02-05T11:00:31</time>
      </trkpt>
      <trkpt lat="45.0758" lon="5.63588">
        <ele>622.06665</ele>
        <time>2026-02-05T11:00:32</time>
      </trkpt>
      <trkpt lat="45.0758" lon="5.63586">
        <ele>622.06665</ele>
        <time>2026-02-05T11:00:33</time>
      </trkpt>
      <trkpt lat="45.0758" lon="5.63585">
        <ele>622.4667</ele>
        <time>2026-02-05T11:00:35</time>
      </trkpt>
      <trkpt lat="45.07579" lon="5.63585">
        <ele>622.4667</ele>
        <time>2026-02-05T11:00:36</time>
      </trkpt>
      <trkpt lat="45.07579" lon="5.63585">
        <ele>622.4667</ele>
        <time>2026-02-05T11:00:37</time>
      </trkpt>
      <trkpt lat="45.07579" lon="5.63585">
        <ele>622.4667</ele>
        <time>2026-02-05T11:00:38</time>
      </trkpt>
      <trkpt lat="45.07579" lon="5.63585">
        <ele>622.4667</ele>
        <time>2026-02-05T11:00:39</time>
      </trkpt>
      <trkpt lat="45.07579" lon="5.63584">
        <ele>622.4667</ele>
        <time>2026-02-05T11:00:40</time>
      </trkpt>
      <trkpt lat="45.07579" lon="5.63585">
        <ele>622.4</ele>
        <time>2026-02-05T11:00:44</time>
      </trkpt>
      <trkpt lat="45.07579" lon="5.63585">
        <ele>622.4</ele>
        <time>2026-02-05T11:00:45</time>
      </trkpt>
      <trkpt lat="45.07579" lon="5.63584">
        <ele>622.4</ele>
        <time>2026-02-05T11:00:48</time>
      </trkpt>
      <trkpt lat="45.07579" lon="5.63584">
        <ele>622.4</ele>
        <time>2026-02-05T11:00:51</time>
      </trkpt>
      <trkpt lat="45.07579" lon="5.63584">
        <ele>622.4</ele>
        <time>2026-02-05T11:00:55</time>
      </trkpt>
      <trkpt lat="45.07579" lon="5.63584">
        <ele>622.4</ele>
        <time>2026-02-05T11:00:55</time>
      </trkpt>
      <trkpt lat="45.07579" lon="5.63584">
        <ele>622.4</ele>
        <time>2026-02-05T11:00:56</time>
      </trkpt>
      <trkpt lat="45.07579" lon="5.63584">
        <ele>622.4</ele>
        <time>2026-02-05T11:00:58</time>
      </trkpt>
      <trkpt lat="45.07578" lon="5.63574">
        <ele>622.4</ele>
        <time>2026-02-05T11:00:59</time>
      </trkpt>
      <trkpt lat="45.07578" lon="5.6357">
        <ele>622.4</ele>
        <time>2026-02-05T11:01:00</time>
      </trkpt>
      <trkpt lat="45.07578" lon="5.63569">
        <ele>623.5</ele>
        <time>2026-02-05T11:01:01</time>
      </trkpt>
      <trkpt lat="45.07578" lon="5.63568">
        <ele>623.5</ele>
        <time>2026-02-05T11:01:02</time>
      </trkpt>
      <trkpt lat="45.07577" lon="5.63566">
        <ele>623.5</ele>
        <time>2026-02-05T11:01:06</time>
      </trkpt>
      <trkpt lat="45.07577" lon="5.63566">
        <ele>623.5</ele>
        <time>2026-02-05T11:01:07</time>
      </trkpt>
      <trkpt lat="45.07577" lon="5.63565">
        <ele>623.8</ele>
        <time>2026-02-05T11:01:10</time>
      </trkpt>
      <trkpt lat="45.07577" lon="5.63565">
        <ele>623.8</ele>
        <time>2026-02-05T11:01:11</time>
      </trkpt>
      <trkpt lat="45.07577" lon="5.63564">
        <ele>623.8</ele>
        <time>2026-02-05T11:01:13</time>
      </trkpt>
      <trkpt lat="45.07576" lon="5.63563">
        <ele>624.2</ele>
        <time>2026-02-05T11:01:18</time>
      </trkpt>
      <trkpt lat="45.07576" lon="5.63563">
        <ele>624.2</ele>
        <time>2026-02-05T11:01:19</time>
      </trkpt>
      <trkpt lat="45.07576" lon="5.63563">
        <ele>624.2</ele>
        <time>2026-02-05T11:01:23</time>
      </trkpt>
      <trkpt lat="45.07576" lon="5.63563">
        <ele>624.2</ele>
        <time>2026-02-05T11:01:24</time>
      </trkpt>
      <trkpt lat="45.07576" lon="5.63562">
        <ele>625</ele>
        <time>2026-02-05T11:01:29</time>
      </trkpt>
      <trkpt lat="45.07576" lon="5.63562">
        <ele>625</ele>
        <time>2026-02-05T11:01:30</time>
      </trkpt>
      <trkpt lat="45.07576" lon="5.63562">
        <ele>625</ele>
        <time>2026-02-05T11:01:34</time>
      </trkpt>
      <trkpt lat="45.07576" lon="5.63562">
        <ele>625</ele>
        <time>2026-02-05T11:01:35</time>
      </trkpt>
      <trkpt lat="45.07576" lon="5.63562">
        <ele>625</ele>
        <time>2026-02-05T11:01:38</time>
      </trkpt>
      <trkpt lat="45.07576" lon="5.63562">
        <ele>625</ele>
        <time>2026-02-05T11:01:38</time>
      </trkpt>
      <trkpt lat="45.07576" lon="5.63562">
        <ele>625</ele>
        <time>2026-02-05T11:01:39</time>
      </trkpt>
      <trkpt lat="45.07576" lon="5.63562">
        <ele>625</ele>
        <time>2026-02-05T11:01:42</time>
      </trkpt>
      <trkpt lat="45.07576" lon="5.63562">
        <ele>625</ele>
        <time>2026-02-05T11:01:43</time>
      </trkpt>
      <trkpt lat="45.07578" lon="5.63553">
        <ele>625</ele>
        <time>2026-02-05T11:01:44</time>
      </trkpt>
      <trkpt lat="45.07579" lon="5.63549">
        <ele>625</ele>
        <time>2026-02-05T11:01:46</time>
      </trkpt>
      <trkpt lat="45.07579" lon="5.63548">
        <ele>625</ele>
        <time>2026-02-05T11:01:47</time>
      </trkpt>
      <trkpt lat="45.07578" lon="5.63548">
        <ele>625</ele>
        <time>2026-02-05T11:01:48</time>
      </trkpt>
      <trkpt lat="45.07578" lon="5.63547">
        <ele>625</ele>
        <time>2026-02-05T11:01:49</time>
      </trkpt>
      <trkpt lat="45.07578" lon="5.63547">
        <ele>625</ele>
        <time>2026-02-05T11:01:50</time>
      </trkpt>
      <trkpt lat="45.07578" lon="5.63542">
        <ele>628.5</ele>
        <time>2026-02-05T11:01:54</time>
      </trkpt>
      <trkpt lat="45.07577" lon="5.6354">
        <ele>628.5</ele>
        <time>2026-02-05T11:01:58</time>
      </trkpt>
      <trkpt lat="45.07577" lon="5.6354">
        <ele>628.5</ele>
        <time>2026-02-05T11:02:01</time>
      </trkpt>
      <trkpt lat="45.07577" lon="5.6354">
        <ele>628.5</ele>
        <time>2026-02-05T11:02:01</time>
      </trkpt>
      <trkpt lat="45.07577" lon="5.63539">
        <ele>628.5</ele>
        <time>2026-02-05T11:02:02</time>
      </trkpt>
      <trkpt lat="45.07577" lon="5.63537">
        <ele>628.5</ele>
        <time>2026-02-05T11:02:03</time>
      </trkpt>
      <trkpt lat="45.07578" lon="5.63535">
        <ele>628.9</ele>
        <time>2026-02-05T11:02:06</time>
      </trkpt>
      <trkpt lat="45.07578" lon="5.63535">
        <ele>628.9</ele>
        <time>2026-02-05T11:02:07</time>
      </trkpt>
      <trkpt lat="45.07579" lon="5.63535">
        <ele>628.9</ele>
        <time>2026-02-05T11:02:08</time>
      </trkpt>
      <trkpt lat="45.07579" lon="5.63534">
        <ele>628.9</ele>
        <time>2026-02-05T11:02:10</time>
      </trkpt>
      <trkpt lat="45.07579" lon="5.63534">
        <ele>628.9</ele>
        <time>2026-02-05T11:02:10</time>
      </trkpt>
      <trkpt lat="45.07579" lon="5.63526">
        <ele>629.1</ele>
        <time>2026-02-05T11:02:24</time>
      </trkpt>
      <trkpt lat="45.0758" lon="5.63526">
        <ele>629.1</ele>
        <time>2026-02-05T11:02:25</time>
      </trkpt>
      <trkpt lat="45.0758" lon="5.63524">
        <ele>629.1</ele>
        <time>2026-02-05T11:02:26</time>
      </trkpt>
      <trkpt lat="45.07581" lon="5.63522">
        <ele>629.1</ele>
        <time>2026-02-05T11:02:29</time>
      </trkpt>
      <trkpt lat="45.07581" lon="5.63521">
        <ele>629.1</ele>
        <time>2026-02-05T11:02:30</time>
      </trkpt>
      <trkpt lat="45.07582" lon="5.63521">
        <ele>629.1</ele>
        <time>2026-02-05T11:02:31</time>
      </trkpt>
      <trkpt lat="45.07582" lon="5.6352">
        <ele>629.4</ele>
        <time>2026-02-05T11:02:33</time>
      </trkpt>
      <trkpt lat="45.07582" lon="5.6352">
        <ele>629.4</ele>
        <time>2026-02-05T11:02:33</time>
      </trkpt>
      <trkpt lat="45.07583" lon="5.6352">
        <ele>629.4</ele>
        <time>2026-02-05T11:02:34</time>
      </trkpt>
      <trkpt lat="45.07584" lon="5.63519">
        <ele>631.1</ele>
        <time>2026-02-05T11:02:41</time>
      </trkpt>
      <trkpt lat="45.07586" lon="5.63518">
        <ele>631.1</ele>
        <time>2026-02-05T11:02:48</time>
      </trkpt>
      <trkpt lat="45.07586" lon="5.63518">
        <ele>631.1</ele>
        <time>2026-02-05T11:02:49</time>
      </trkpt>
      <trkpt lat="45.07586" lon="5.63518">
        <ele>632.7</ele>
        <time>2026-02-05T11:02:50</time>
      </trkpt>
      <trkpt lat="45.07586" lon="5.63517">
        <ele>632.7</ele>
        <time>2026-02-05T11:02:51</time>
      </trkpt>
      <trkpt lat="45.07586" lon="5.63516">
        <ele>632.7</ele>
        <time>2026-02-05T11:02:54</time>
      </trkpt>
      <trkpt lat="45.07587" lon="5.63514">
        <ele>632.7</ele>
        <time>2026-02-05T11:02:56</time>
      </trkpt>
      <trkpt lat="45.07587" lon="5.63512">
        <ele>635.63336</ele>
        <time>2026-02-05T11:02:59</time>
      </trkpt>
      <trkpt lat="45.07586" lon="5.63512">
        <ele>635.63336</ele>
        <time>2026-02-05T11:03:00</time>
      </trkpt>
      <trkpt lat="45.07586" lon="5.63511">
        <ele>635.63336</ele>
        <time>2026-02-05T11:03:01</time>
      </trkpt>
      <trkpt lat="45.07586" lon="5.6351">
        <ele>635.63336</ele>
        <time>2026-02-05T11:03:02</time>
      </trkpt>
      <trkpt lat="45.07586" lon="5.63509">
        <ele>635.63336</ele>
        <time>2026-02-05T11:03:04</time>
      </trkpt>
      <trkpt lat="45.07586" lon="5.63508">
        <ele>635.63336</ele>
        <time>2026-02-05T11:03:05</time>
      </trkpt>
      <trkpt lat="45.07586" lon="5.63507">
        <ele>635.63336</ele>
        <time>2026-02-05T11:03:06</time>
      </trkpt>
      <trkpt lat="45.07586" lon="5.63504">
        <ele>638</ele>
        <time>2026-02-05T11:03:09</time>
      </trkpt>
      <trkpt lat="45.07586" lon="5.63503">
        <ele>638</ele>
        <time>2026-02-05T11:03:10</time>
      </trkpt>
      <trkpt lat="45.07587" lon="5.63503">
        <ele>638</ele>
        <time>2026-02-05T11:03:13</time>
      </trkpt>
      <trkpt lat="45.07587" lon="5.63502">
        <ele>638</ele>
        <time>2026-02-05T11:03:13</time>
      </trkpt>
      <trkpt lat="45.07587" lon="5.63502">
        <ele>638</ele>
        <time>2026-02-05T11:03:14</time>
      </trkpt>
      <trkpt lat="45.07587" lon="5.63501">
        <ele>639.4667</ele>
        <time>2026-02-05T11:03:16</time>
      </trkpt>
      <trkpt lat="45.07587" lon="5.635">
        <ele>639.4667</ele>
        <time>2026-02-05T11:03:16</time>
      </trkpt>
      <trkpt lat="45.07586" lon="5.63498">
        <ele>639.4667</ele>
        <time>2026-02-05T11:03:18</time>
      </trkpt>
      <trkpt lat="45.07585" lon="5.63495">
        <ele>639.4667</ele>
        <time>2026-02-05T11:03:21</time>
      </trkpt>
      <trkpt lat="45.07584" lon="5.63493">
        <ele>639.8</ele>
        <time>2026-02-05T11:03:23</time>
      </trkpt>
      <trkpt lat="45.07583" lon="5.63491">
        <ele>639.8</ele>
        <time>2026-02-05T11:03:25</time>
      </trkpt>
      <trkpt lat="45.07581" lon="5.63487">
        <ele>639.8</ele>
        <time>2026-02-05T11:03:32</time>
      </trkpt>
      <trkpt lat="45.07581" lon="5.63487">
        <ele>643.13336</ele>
        <time>2026-02-05T11:03:35</time>
      </trkpt>
      <trkpt lat="45.07581" lon="5.63487">
        <ele>643.13336</ele>
        <time>2026-02-05T11:03:36</time>
      </trkpt>
      <trkpt lat="45.07581" lon="5.63487">
        <ele>643.13336</ele>
        <time>2026-02-05T11:03:37</time>
      </trkpt>
      <trkpt lat="45.07581" lon="5.63487">
        <ele>643.13336</ele>
        <time>2026-02-05T11:03:38</time>
      </trkpt>
      <trkpt lat="45.07582" lon="5.63486">
        <ele>644.1</ele>
        <time>2026-02-05T11:03:40</time>
      </trkpt>
      <trkpt lat="45.07584" lon="5.63486">
        <ele>644.1</ele>
        <time>2026-02-05T11:03:42</time>
      </trkpt>
      <trkpt lat="45.07585" lon="5.63485">
        <ele>644.1</ele>
        <time>2026-02-05T11:03:44</time>
      </trkpt>
      <trkpt lat="45.07586" lon="5.63484">
        <ele>644.1</ele>
        <time>2026-02-05T11:03:47</time>
      </trkpt>
      <trkpt lat="45.07588" lon="5.63482">
        <ele>644.1</ele>
        <time>2026-02-05T11:03:49</time>
      </trkpt>
      <trkpt lat="45.07591" lon="5.63478">
        <ele>644.23334</ele>
        <time>2026-02-05T11:03:53</time>
      </trkpt>
      <trkpt lat="45.07595" lon="5.63471">
        <ele>644.2</ele>
        <time>2026-02-05T11:04:03</time>
      </trkpt>
      <trkpt lat="45.07595" lon="5.6347">
        <ele>644.2</ele>
        <time>2026-02-05T11:04:04</time>
      </trkpt>
      <trkpt lat="45.07596" lon="5.6347">
        <ele>644.2</ele>
        <time>2026-02-05T11:04:04</time>
      </trkpt>
      <trkpt lat="45.07596" lon="5.6347">
        <ele>644.2</ele>
        <time>2026-02-05T11:04:06</time>
      </trkpt>
      <trkpt lat="45.07596" lon="5.6347">
        <ele>644.2</ele>
        <time>2026-02-05T11:04:07</time>
      </trkpt>
      <trkpt lat="45.07596" lon="5.6347">
        <ele>644.93335</ele>
        <time>2026-02-05T11:04:07</time>
      </trkpt>
      <trkpt lat="45.07596" lon="5.6347">
        <ele>644.93335</ele>
        <time>2026-02-05T11:04:08</time>
      </trkpt>
      <trkpt lat="45.07596" lon="5.6347">
        <ele>644.93335</ele>
        <time>2026-02-05T11:04:09</time>
      </trkpt>
      <trkpt lat="45.07596" lon="5.6347">
        <ele>644.93335</ele>
        <time>2026-02-05T11:04:11</time>
      </trkpt>
      <trkpt lat="45.07596" lon="5.63469">
        <ele>644.93335</ele>
        <time>2026-02-05T11:04:13</time>
      </trkpt>
      <trkpt lat="45.07596" lon="5.63469">
        <ele>644.93335</ele>
        <time>2026-02-05T11:04:14</time>
      </trkpt>
      <trkpt lat="45.07596" lon="5.63469">
        <ele>644.93335</ele>
        <time>2026-02-05T11:04:15</time>
      </trkpt>
      <trkpt lat="45.07596" lon="5.63469">
        <ele>644.93335</ele>
        <time>2026-02-05T11:04:15</time>
      </trkpt>
      <trkpt lat="45.07596" lon="5.63468">
        <ele>645.7</ele>
        <time>2026-02-05T11:04:21</time>
      </trkpt>
      <trkpt lat="45.07596" lon="5.63468">
        <ele>645.7</ele>
        <time>2026-02-05T11:04:22</time>
      </trkpt>
      <trkpt lat="45.07596" lon="5.63469">
        <ele>645.7</ele>
        <time>2026-02-05T11:04:23</time>
      </trkpt>
      <trkpt lat="45.07596" lon="5.63468">
        <ele>646.8</ele>
        <time>2026-02-05T11:04:25</time>
      </trkpt>
      <trkpt lat="45.07596" lon="5.63468">
        <ele>646.8</ele>
        <time>2026-02-05T11:04:26</time>
      </trkpt>
      <trkpt lat="45.07596" lon="5.63468">
        <ele>646.8</ele>
        <time>2026-02-05T11:04:29</time>
      </trkpt>
      <trkpt lat="45.07598" lon="5.6346">
        <ele>646.8</ele>
        <time>2026-02-05T11:04:32</time>
      </trkpt>
      <trkpt lat="45.07599" lon="5.63457">
        <ele>646.8</ele>
        <time>2026-02-05T11:04:33</time>
      </trkpt>
      <trkpt lat="45.07599" lon="5.63455">
        <ele>647</ele>
        <time>2026-02-05T11:04:34</time>
      </trkpt>
      <trkpt lat="45.07599" lon="5.63454">
        <ele>647</ele>
        <time>2026-02-05T11:04:35</time>
      </trkpt>
      <trkpt lat="45.07599" lon="5.63453">
        <ele>647</ele>
        <time>2026-02-05T11:04:36</time>
      </trkpt>
      <trkpt lat="45.07599" lon="5.63453">
        <ele>647</ele>
        <time>2026-02-05T11:04:36</time>
      </trkpt>
      <trkpt lat="45.07599" lon="5.63452">
        <ele>647</ele>
        <time>2026-02-05T11:04:37</time>
      </trkpt>
      <trkpt lat="45.07599" lon="5.6345">
        <ele>647</ele>
        <time>2026-02-05T11:04:40</time>
      </trkpt>
      <trkpt lat="45.07599" lon="5.63449">
        <ele>647</ele>
        <time>2026-02-05T11:04:41</time>
      </trkpt>
      <trkpt lat="45.07599" lon="5.63449">
        <ele>647.2</ele>
        <time>2026-02-05T11:04:41</time>
      </trkpt>
      <trkpt lat="45.07599" lon="5.63449">
        <ele>647.2</ele>
        <time>2026-02-05T11:04:43</time>
      </trkpt>
      <trkpt lat="45.07599" lon="5.63449">
        <ele>647.2</ele>
        <time>2026-02-05T11:04:43</time>
      </trkpt>
      <trkpt lat="45.07598" lon="5.63448">
        <ele>647.2</ele>
        <time>2026-02-05T11:04:44</time>
      </trkpt>
      <trkpt lat="45.07598" lon="5.63447">
        <ele>647.2</ele>
        <time>2026-02-05T11:04:48</time>
      </trkpt>
      <trkpt lat="45.07598" lon="5.63445">
        <ele>647.2</ele>
        <time>2026-02-05T11:04:50</time>
      </trkpt>
      <trkpt lat="45.07598" lon="5.63443">
        <ele>647</ele>
        <time>2026-02-05T11:04:52</time>
      </trkpt>
      <trkpt lat="45.076" lon="5.63439">
        <ele>647</ele>
        <time>2026-02-05T11:04:57</time>
      </trkpt>
      <trkpt lat="45.076" lon="5.63438">
        <ele>646.5</ele>
        <time>2026-02-05T11:04:59</time>
      </trkpt>
      <trkpt lat="45.076" lon="5.63438">
        <ele>646.5</ele>
        <time>2026-02-05T11:05:00</time>
      </trkpt>
      <trkpt lat="45.07601" lon="5.63437">
        <ele>646.5</ele>
        <time>2026-02-05T11:05:02</time>
      </trkpt>
      <trkpt lat="45.07601" lon="5.63436">
        <ele>646.5</ele>
        <time>2026-02-05T11:05:03</time>
      </trkpt>
      <trkpt lat="45.07602" lon="5.63433">
        <ele>646.5</ele>
        <time>2026-02-05T11:05:07</time>
      </trkpt>
      <trkpt lat="45.07602" lon="5.63433">
        <ele>646</ele>
        <time>2026-02-05T11:05:08</time>
      </trkpt>
      <trkpt lat="45.07602" lon="5.63433">
        <ele>646</ele>
        <time>2026-02-05T11:05:09</time>
      </trkpt>
      <trkpt lat="45.07603" lon="5.63432">
        <ele>646</ele>
        <time>2026-02-05T11:05:10</time>
      </trkpt>
      <trkpt lat="45.07603" lon="5.63432">
        <ele>646</ele>
        <time>2026-02-05T11:05:11</time>
      </trkpt>
      <trkpt lat="45.07603" lon="5.63432">
        <ele>646</ele>
        <time>2026-02-05T11:05:13</time>
      </trkpt>
      <trkpt lat="45.07603" lon="5.63432">
        <ele>646</ele>
        <time>2026-02-05T11:05:14</time>
      </trkpt>
      <trkpt lat="45.07603" lon="5.63432">
        <ele>646</ele>
        <time>2026-02-05T11:05:15</time>
      </trkpt>
      <trkpt lat="45.07603" lon="5.63432">
        <ele>646</ele>
        <time>2026-02-05T11:05:16</time>
      </trkpt>
      <trkpt lat="45.07603" lon="5.63432">
        <ele>646.9</ele>
        <time>2026-02-05T11:05:17</time>
      </trkpt>
      <trkpt lat="45.07603" lon="5.63432">
        <ele>646.9</ele>
        <time>2026-02-05T11:05:21</time>
      </trkpt>
      <trkpt lat="45.07604" lon="5.63428">
        <ele>646.9</ele>
        <time>2026-02-05T11:05:24</time>
      </trkpt>
      <trkpt lat="45.07605" lon="5.6342">
        <ele>646.9</ele>
        <time>2026-02-05T11:05:32</time>
      </trkpt>
      <trkpt lat="45.07605" lon="5.6342">
        <ele>646.9</ele>
        <time>2026-02-05T11:05:33</time>
      </trkpt>
      <trkpt lat="45.07605" lon="5.6342">
        <ele>646.9</ele>
        <time>2026-02-05T11:05:34</time>
      </trkpt>
      <trkpt lat="45.07606" lon="5.63419">
        <ele>649.8</ele>
        <time>2026-02-05T11:05:37</time>
      </trkpt>
      <trkpt lat="45.07606" lon="5.63419">
        <ele>649.8</ele>
        <time>2026-02-05T11:05:38</time>
      </trkpt>
      <trkpt lat="45.07606" lon="5.63419">
        <ele>649.8</ele>
        <time>2026-02-05T11:05:39</time>
      </trkpt>
      <trkpt lat="45.07607" lon="5.63416">
        <ele>649.8</ele>
        <time>2026-02-05T11:05:42</time>
      </trkpt>
      <trkpt lat="45.07608" lon="5.63414">
        <ele>648.6</ele>
        <time>2026-02-05T11:05:46</time>
      </trkpt>
      <trkpt lat="45.07608" lon="5.63414">
        <ele>648.6</ele>
        <time>2026-02-05T11:05:48</time>
      </trkpt>
      <trkpt lat="45.0761" lon="5.63412">
        <ele>648.6</ele>
        <time>2026-02-05T11:05:50</time>
      </trkpt>
      <trkpt lat="45.07612" lon="5.63409">
        <ele>648.6</ele>
        <time>2026-02-05T11:05:53</time>
      </trkpt>
      <trkpt lat="45.07613" lon="5.63408">
        <ele>645.8</ele>
        <time>2026-02-05T11:05:55</time>
      </trkpt>
      <trkpt lat="45.07614" lon="5.63408">
        <ele>645.8</ele>
        <time>2026-02-05T11:05:56</time>
      </trkpt>
      <trkpt lat="45.07615" lon="5.63407">
        <ele>645.8</ele>
        <time>2026-02-05T11:05:57</time>
      </trkpt>
      <trkpt lat="45.07615" lon="5.63406">
        <ele>645.8</ele>
        <time>2026-02-05T11:05:58</time>
      </trkpt>
      <trkpt lat="45.07616" lon="5.63405">
        <ele>645.8</ele>
        <time>2026-02-05T11:06:00</time>
      </trkpt>
      <trkpt lat="45.07616" lon="5.63404">
        <ele>645.8</ele>
        <time>2026-02-05T11:06:01</time>
      </trkpt>
      <trkpt lat="45.07616" lon="5.63402">
        <ele>644.5</ele>
        <time>2026-02-05T11:06:04</time>
      </trkpt>
      <trkpt lat="45.07617" lon="5.63401">
        <ele>644.5</ele>
        <time>2026-02-05T11:06:06</time>
      </trkpt>
      <trkpt lat="45.07617" lon="5.63401">
        <ele>644.5</ele>
        <time>2026-02-05T11:06:07</time>
      </trkpt>
      <trkpt lat="45.07618" lon="5.634">
        <ele>644.5</ele>
        <time>2026-02-05T11:06:09</time>
      </trkpt>
      <trkpt lat="45.07618" lon="5.634">
        <ele>644.5</ele>
        <time>2026-02-05T11:06:09</time>
      </trkpt>
      <trkpt lat="45.07618" lon="5.634">
        <ele>644.5</ele>
        <time>2026-02-05T11:06:10</time>
      </trkpt>
      <trkpt lat="45.07618" lon="5.634">
        <ele>643.3333</ele>
        <time>2026-02-05T11:06:11</time>
      </trkpt>
      <trkpt lat="45.07618" lon="5.634">
        <ele>643.3333</ele>
        <time>2026-02-05T11:06:12</time>
      </trkpt>
      <trkpt lat="45.07618" lon="5.634">
        <ele>643.3333</ele>
        <time>2026-02-05T11:06:14</time>
      </trkpt>
      <trkpt lat="45.07619" lon="5.634">
        <ele>643.3333</ele>
        <time>2026-02-05T11:06:15</time>
      </trkpt>
      <trkpt lat="45.07619" lon="5.634">
        <ele>643.3333</ele>
        <time>2026-02-05T11:06:18</time>
      </trkpt>
      <trkpt lat="45.07619" lon="5.634">
        <ele>643.3333</ele>
        <time>2026-02-05T11:06:19</time>
      </trkpt>
      <trkpt lat="45.07619" lon="5.634">
        <ele>643.3333</ele>
        <time>2026-02-05T11:06:19</time>
      </trkpt>
      <trkpt lat="45.07619" lon="5.634">
        <ele>643.6</ele>
        <time>2026-02-05T11:06:20</time>
      </trkpt>
      <trkpt lat="45.07619" lon="5.634">
        <ele>643.6</ele>
        <time>2026-02-05T11:06:21</time>
      </trkpt>
      <trkpt lat="45.0762" lon="5.63403">
        <ele>643.6</ele>
        <time>2026-02-05T11:06:24</time>
      </trkpt>
      <trkpt lat="45.0762" lon="5.63404">
        <ele>643.6</ele>
        <time>2026-02-05T11:06:26</time>
      </trkpt>
      <trkpt lat="45.0762" lon="5.63405">
        <ele>643.6</ele>
        <time>2026-02-05T11:06:28</time>
      </trkpt>
      <trkpt lat="45.0762" lon="5.63405">
        <ele>643.6</ele>
        <time>2026-02-05T11:06:29</time>
      </trkpt>
      <trkpt lat="45.07621" lon="5.63407">
        <ele>643.6</ele>
        <time>2026-02-05T11:06:32</time>
      </trkpt>
      <trkpt lat="45.07621" lon="5.63408">
        <ele>643.6</ele>
        <time>2026-02-05T11:06:34</time>
      </trkpt>
      <trkpt lat="45.07621" lon="5.63409">
        <ele>643.6</ele>
        <time>2026-02-05T11:06:35</time>
      </trkpt>
      <trkpt lat="45.07621" lon="5.63409">
        <ele>643.6</ele>
        <time>2026-02-05T11:06:36</time>
      </trkpt>
      <trkpt lat="45.07621" lon="5.6341">
        <ele>643.6</ele>
        <time>2026-02-05T11:06:37</time>
      </trkpt>
      <trkpt lat="45.07621" lon="5.6341">
        <ele>643.6</ele>
        <time>2026-02-05T11:06:38</time>
      </trkpt>
      <trkpt lat="45.07621" lon="5.6341">
        <ele>651.8</ele>
        <time>2026-02-05T11:06:39</time>
      </trkpt>
      <trkpt lat="45.07621" lon="5.6341">
        <ele>651.8</ele>
        <time>2026-02-05T11:06:41</time>
      </trkpt>
      <trkpt lat="45.07621" lon="5.6341">
        <ele>651.8</ele>
        <time>2026-02-05T11:06:42</time>
      </trkpt>
      <trkpt lat="45.07621" lon="5.6341">
        <ele>651.8</ele>
        <time>2026-02-05T11:06:43</time>
      </trkpt>
      <trkpt lat="45.07621" lon="5.63409">
        <ele>651.8</ele>
        <time>2026-02-05T11:06:44</time>
      </trkpt>
      <trkpt lat="45.07622" lon="5.63409">
        <ele>651.8</ele>
        <time>2026-02-05T11:06:45</time>
      </trkpt>
      <trkpt lat="45.07622" lon="5.63408">
        <ele>651.8</ele>
        <time>2026-02-05T11:06:46</time>
      </trkpt>
      <trkpt lat="45.07623" lon="5.63408">
        <ele>651.8</ele>
        <time>2026-02-05T11:06:47</time>
      </trkpt>
      <trkpt lat="45.07623" lon="5.63407">
        <ele>651.8</ele>
        <time>2026-02-05T11:06:48</time>
      </trkpt>
      <trkpt lat="45.07623" lon="5.63407">
        <ele>655.1</ele>
        <time>2026-02-05T11:06:50</time>
      </trkpt>
      <trkpt lat="45.07623" lon="5.63407">
        <ele>655.1</ele>
        <time>2026-02-05T11:06:51</time>
      </trkpt>
      <trkpt lat="45.07623" lon="5.63407">
        <ele>655.1</ele>
        <time>2026-02-05T11:06:51</time>
      </trkpt>
      <trkpt lat="45.07623" lon="5.63407">
        <ele>655.1</ele>
        <time>2026-02-05T11:06:52</time>
      </trkpt>
      <trkpt lat="45.07623" lon="5.63407">
        <ele>655.1</ele>
        <time>2026-02-05T11:06:53</time>
      </trkpt>
      <trkpt lat="45.07623" lon="5.63406">
        <ele>655.1</ele>
        <time>2026-02-05T11:06:54</time>
      </trkpt>
      <trkpt lat="45.07624" lon="5.63405">
        <ele>657.8</ele>
        <time>2026-02-05T11:06:58</time>
      </trkpt>
      <trkpt lat="45.07625" lon="5.63403">
        <ele>657.8</ele>
        <time>2026-02-05T11:07:00</time>
      </trkpt>
      <trkpt lat="45.07626" lon="5.63402">
        <ele>657.8</ele>
        <time>2026-02-05T11:07:02</time>
      </trkpt>
      <trkpt lat="45.07627" lon="5.634">
        <ele>661.4</ele>
        <time>2026-02-05T11:07:04</time>
      </trkpt>
      <trkpt lat="45.07628" lon="5.63399">
        <ele>661.4</ele>
        <time>2026-02-05T11:07:05</time>
      </trkpt>
      <trkpt lat="45.07629" lon="5.63398">
        <ele>661.4</ele>
        <time>2026-02-05T11:07:08</time>
      </trkpt>
      <trkpt lat="45.0763" lon="5.63397">
        <ele>661.4</ele>
        <time>2026-02-05T11:07:10</time>
      </trkpt>
      <trkpt lat="45.0763" lon="5.63395">
        <ele>661.4</ele>
        <time>2026-02-05T11:07:12</time>
      </trkpt>
      <trkpt lat="45.07631" lon="5.63395">
        <ele>662.9</ele>
        <time>2026-02-05T11:07:13</time>
      </trkpt>
      <trkpt lat="45.07631" lon="5.63395">
        <ele>662.9</ele>
        <time>2026-02-05T11:07:13</time>
      </trkpt>
      <trkpt lat="45.07631" lon="5.63395">
        <ele>662.9</ele>
        <time>2026-02-05T11:07:14</time>
      </trkpt>
      <trkpt lat="45.07631" lon="5.63395">
        <ele>662.9</ele>
        <time>2026-02-05T11:07:15</time>
      </trkpt>
      <trkpt lat="45.07631" lon="5.63395">
        <ele>662.9</ele>
        <time>2026-02-05T11:07:16</time>
      </trkpt>
      <trkpt lat="45.07631" lon="5.63395">
        <ele>662.9</ele>
        <time>2026-02-05T11:07:17</time>
      </trkpt>
      <trkpt lat="45.07631" lon="5.63395">
        <ele>662.9</ele>
        <time>2026-02-05T11:07:19</time>
      </trkpt>
      <trkpt lat="45.07631" lon="5.63395">
        <ele>662.8</ele>
        <time>2026-02-05T11:07:22</time>
      </trkpt>
      <trkpt lat="45.07631" lon="5.63395">
        <ele>662.8</ele>
        <time>2026-02-05T11:07:23</time>
      </trkpt>
      <trkpt lat="45.07631" lon="5.63395">
        <ele>662.8</ele>
        <time>2026-02-05T11:07:27</time>
      </trkpt>
      <trkpt lat="45.07631" lon="5.63395">
        <ele>662.8</ele>
        <time>2026-02-05T11:07:30</time>
      </trkpt>
      <trkpt lat="45.07631" lon="5.63395">
        <ele>662.8</ele>
        <time>2026-02-05T11:07:30</time>
      </trkpt>
      <trkpt lat="45.07631" lon="5.63395">
        <ele>662.8</ele>
        <time>2026-02-05T11:07:31</time>
      </trkpt>
      <trkpt lat="45.07631" lon="5.63395">
        <ele>662.8</ele>
        <time>2026-02-05T11:07:31</time>
      </trkpt>
      <trkpt lat="45.07631" lon="5.63395">
        <ele>662.8</ele>
        <time>2026-02-05T11:07:32</time>
      </trkpt>
      <trkpt lat="45.07631" lon="5.63395">
        <ele>662.8</ele>
        <time>2026-02-05T11:07:35</time>
      </trkpt>
      <trkpt lat="45.07631" lon="5.63395">
        <ele>662.8</ele>
        <time>2026-02-05T11:07:35</time>
      </trkpt>
      <trkpt lat="45.07631" lon="5.63395">
        <ele>662.8</ele>
        <time>2026-02-05T11:07:36</time>
      </trkpt>
      <trkpt lat="45.07631" lon="5.63395">
        <ele>662.8</ele>
        <time>2026-02-05T11:07:37</time>
      </trkpt>
      <trkpt lat="45.07638" lon="5.63402">
        <ele>662.8</ele>
        <time>2026-02-05T11:07:42</time>
      </trkpt>
      <trkpt lat="45.0764" lon="5.63404">
        <ele>668.1</ele>
        <time>2026-02-05T11:07:46</time>
      </trkpt>
      <trkpt lat="45.0764" lon="5.63405">
        <ele>668.1</ele>
        <time>2026-02-05T11:07:49</time>
      </trkpt>
      <trkpt lat="45.0764" lon="5.63405">
        <ele>668.1</ele>
        <time>2026-02-05T11:07:50</time>
      </trkpt>
      <trkpt lat="45.0764" lon="5.63406">
        <ele>669</ele>
        <time>2026-02-05T11:07:51</time>
      </trkpt>
      <trkpt lat="45.0764" lon="5.63408">
        <ele>669</ele>
        <time>2026-02-05T11:07:57</time>
      </trkpt>
      <trkpt lat="45.07639" lon="5.63408">
        <ele>669</ele>
        <time>2026-02-05T11:07:58</time>
      </trkpt>
      <trkpt lat="45.07639" lon="5.63409">
        <ele>669</ele>
        <time>2026-02-05T11:07:59</time>
      </trkpt>
      <trkpt lat="45.07639" lon="5.63409">
        <ele>670</ele>
        <time>2026-02-05T11:08:02</time>
      </trkpt>
      <trkpt lat="45.07639" lon="5.6341">
        <ele>670</ele>
        <time>2026-02-05T11:08:06</time>
      </trkpt>
      <trkpt lat="45.07639" lon="5.6341">
        <ele>670</ele>
        <time>2026-02-05T11:08:08</time>
      </trkpt>
      <trkpt lat="45.07639" lon="5.6341">
        <ele>670</ele>
        <time>2026-02-05T11:08:08</time>
      </trkpt>
      <trkpt lat="45.07639" lon="5.6341">
        <ele>670</ele>
        <time>2026-02-05T11:08:09</time>
      </trkpt>
      <trkpt lat="45.07639" lon="5.6341">
        <ele>671.5</ele>
        <time>2026-02-05T11:08:10</time>
      </trkpt>
      <trkpt lat="45.07639" lon="5.6341">
        <ele>671.5</ele>
        <time>2026-02-05T11:08:14</time>
      </trkpt>
      <trkpt lat="45.07639" lon="5.6341">
        <ele>671.5</ele>
        <time>2026-02-05T11:08:15</time>
      </trkpt>
      <trkpt lat="45.07641" lon="5.63413">
        <ele>672.86664</ele>
        <time>2026-02-05T11:08:19</time>
      </trkpt>
      <trkpt lat="45.07642" lon="5.63414">
        <ele>672.86664</ele>
        <time>2026-02-05T11:08:19</time>
      </trkpt>
      <trkpt lat="45.07642" lon="5.63415">
        <ele>672.86664</ele>
        <time>2026-02-05T11:08:20</time>
      </trkpt>
      <trkpt lat="45.07643" lon="5.63417">
        <ele>672.86664</ele>
        <time>2026-02-05T11:08:23</time>
      </trkpt>
      <trkpt lat="45.07643" lon="5.63417">
        <ele>672.86664</ele>
        <time>2026-02-05T11:08:24</time>
      </trkpt>
      <trkpt lat="45.07643" lon="5.63417">
        <ele>675.7</ele>
        <time>2026-02-05T11:08:27</time>
      </trkpt>
      <trkpt lat="45.07643" lon="5.63417">
        <ele>675.7</ele>
        <time>2026-02-05T11:08:30</time>
      </trkpt>
      <trkpt lat="45.07643" lon="5.63418">
        <ele>675.7</ele>
        <time>2026-02-05T11:08:32</time>
      </trkpt>
      <trkpt lat="45.07643" lon="5.63418">
        <ele>675.7</ele>
        <time>2026-02-05T11:08:33</time>
      </trkpt>
      <trkpt lat="45.07643" lon="5.63418">
        <ele>675.7</ele>
        <time>2026-02-05T11:08:34</time>
      </trkpt>
      <trkpt lat="45.07643" lon="5.63418">
        <ele>675.7</ele>
        <time>2026-02-05T11:08:35</time>
      </trkpt>
      <trkpt lat="45.07644" lon="5.63418">
        <ele>676.6</ele>
        <time>2026-02-05T11:08:36</time>
      </trkpt>
      <trkpt lat="45.07646" lon="5.6342">
        <ele>676.6</ele>
        <time>2026-02-05T11:08:37</time>
      </trkpt>
      <trkpt lat="45.07647" lon="5.63421">
        <ele>676.6</ele>
        <time>2026-02-05T11:08:37</time>
      </trkpt>
      <trkpt lat="45.07647" lon="5.63421">
        <ele>676.6</ele>
        <time>2026-02-05T11:08:38</time>
      </trkpt>
      <trkpt lat="45.07648" lon="5.63421">
        <ele>676.6</ele>
        <time>2026-02-05T11:08:39</time>
      </trkpt>
      <trkpt lat="45.07648" lon="5.63422">
        <ele>676.6</ele>
        <time>2026-02-05T11:08:40</time>
      </trkpt>
      <trkpt lat="45.07649" lon="5.63423">
        <ele>676.6</ele>
        <time>2026-02-05T11:08:41</time>
      </trkpt>
      <trkpt lat="45.07649" lon="5.63424">
        <ele>676.6</ele>
        <time>2026-02-05T11:08:42</time>
      </trkpt>
      <trkpt lat="45.0765" lon="5.63425">
        <ele>676.6</ele>
        <time>2026-02-05T11:08:43</time>
      </trkpt>
      <trkpt lat="45.07651" lon="5.63426">
        <ele>676.6</ele>
        <time>2026-02-05T11:08:44</time>
      </trkpt>
      <trkpt lat="45.07652" lon="5.63427">
        <ele>678.1</ele>
        <time>2026-02-05T11:08:47</time>
      </trkpt>
      <trkpt lat="45.07652" lon="5.63427">
        <ele>678.1</ele>
        <time>2026-02-05T11:08:48</time>
      </trkpt>
      <trkpt lat="45.07652" lon="5.63428">
        <ele>678.1</ele>
        <time>2026-02-05T11:08:50</time>
      </trkpt>
      <trkpt lat="45.07652" lon="5.63428">
        <ele>682.2</ele>
        <time>2026-02-05T11:08:51</time>
      </trkpt>
      <trkpt lat="45.07652" lon="5.63428">
        <ele>682.2</ele>
        <time>2026-02-05T11:08:52</time>
      </trkpt>
      <trkpt lat="45.07652" lon="5.63428">
        <ele>682.2</ele>
        <time>2026-02-05T11:08:54</time>
      </trkpt>
      <trkpt lat="45.07653" lon="5.63429">
        <ele>682.2</ele>
        <time>2026-02-05T11:08:56</time>
      </trkpt>
      <trkpt lat="45.07653" lon="5.6343">
        <ele>682.2</ele>
        <time>2026-02-05T11:08:57</time>
      </trkpt>
      <trkpt lat="45.07653" lon="5.6343">
        <ele>682.2</ele>
        <time>2026-02-05T11:08:58</time>
      </trkpt>
      <trkpt lat="45.07653" lon="5.63431">
        <ele>683</ele>
        <time>2026-02-05T11:09:05</time>
      </trkpt>
      <trkpt lat="45.07653" lon="5.63431">
        <ele>683</ele>
        <time>2026-02-05T11:09:06</time>
      </trkpt>
      <trkpt lat="45.07653" lon="5.63431">
        <ele>683</ele>
        <time>2026-02-05T11:09:07</time>
      </trkpt>
      <trkpt lat="45.07653" lon="5.63431">
        <ele>683</ele>
        <time>2026-02-05T11:09:08</time>
      </trkpt>
      <trkpt lat="45.07653" lon="5.63431">
        <ele>683.1</ele>
        <time>2026-02-05T11:09:09</time>
      </trkpt>
      <trkpt lat="45.07653" lon="5.63431">
        <ele>683.1</ele>
        <time>2026-02-05T11:09:10</time>
      </trkpt>
      <trkpt lat="45.07653" lon="5.63431">
        <ele>683.1</ele>
        <time>2026-02-05T11:09:11</time>
      </trkpt>
      <trkpt lat="45.07653" lon="5.63431">
        <ele>683.1</ele>
        <time>2026-02-05T11:09:12</time>
      </trkpt>
      <trkpt lat="45.07653" lon="5.63431">
        <ele>683.1</ele>
        <time>2026-02-05T11:09:13</time>
      </trkpt>
      <trkpt lat="45.07653" lon="5.63431">
        <ele>683.1</ele>
        <time>2026-02-05T11:09:15</time>
      </trkpt>
      <trkpt lat="45.07653" lon="5.63431">
        <ele>683.1</ele>
        <time>2026-02-05T11:09:16</time>
      </trkpt>
      <trkpt lat="45.07653" lon="5.63431">
        <ele>683.1</ele>
        <time>2026-02-05T11:09:17</time>
      </trkpt>
      <trkpt lat="45.07655" lon="5.63432">
        <ele>683.1</ele>
        <time>2026-02-05T11:09:19</time>
      </trkpt>
      <trkpt lat="45.07659" lon="5.63435">
        <ele>683.1</ele>
        <time>2026-02-05T11:09:23</time>
      </trkpt>
      <trkpt lat="45.0766" lon="5.63435">
        <ele>683.1</ele>
        <time>2026-02-05T11:09:24</time>
      </trkpt>
      <trkpt lat="45.07661" lon="5.63435">
        <ele>683.1</ele>
        <time>2026-02-05T11:09:25</time>
      </trkpt>
      <trkpt lat="45.07661" lon="5.63435">
        <ele>683.1</ele>
        <time>2026-02-05T11:09:26</time>
      </trkpt>
      <trkpt lat="45.07663" lon="5.63434">
        <ele>680.6667</ele>
        <time>2026-02-05T11:09:30</time>
      </trkpt>
      <trkpt lat="45.07663" lon="5.63433">
        <ele>681</ele>
        <time>2026-02-05T11:09:34</time>
      </trkpt>
      <trkpt lat="45.07663" lon="5.63432">
        <ele>681</ele>
        <time>2026-02-05T11:09:34</time>
      </trkpt>
      <trkpt lat="45.07663" lon="5.63431">
        <ele>681</ele>
        <time>2026-02-05T11:09:35</time>
      </trkpt>
      <trkpt lat="45.07663" lon="5.6343">
        <ele>681</ele>
        <time>2026-02-05T11:09:37</time>
      </trkpt>
      <trkpt lat="45.07663" lon="5.63429">
        <ele>681</ele>
        <time>2026-02-05T11:09:39</time>
      </trkpt>
      <trkpt lat="45.07663" lon="5.63429">
        <ele>681.1</ele>
        <time>2026-02-05T11:09:41</time>
      </trkpt>
      <trkpt lat="45.07663" lon="5.63429">
        <ele>681.1</ele>
        <time>2026-02-05T11:09:43</time>
      </trkpt>
      <trkpt lat="45.07663" lon="5.63429">
        <ele>681.1</ele>
        <time>2026-02-05T11:09:46</time>
      </trkpt>
      <trkpt lat="45.07663" lon="5.63429">
        <ele>681.1</ele>
        <time>2026-02-05T11:09:47</time>
      </trkpt>
      <trkpt lat="45.07663" lon="5.63429">
        <ele>681.1</ele>
        <time>2026-02-05T11:09:48</time>
      </trkpt>
      <trkpt lat="45.07663" lon="5.63429">
        <ele>681.5</ele>
        <time>2026-02-05T11:09:49</time>
      </trkpt>
      <trkpt lat="45.07663" lon="5.63429">
        <ele>681.5</ele>
        <time>2026-02-05T11:09:49</time>
      </trkpt>
      <trkpt lat="45.07663" lon="5.63429">
        <ele>681.5</ele>
        <time>2026-02-05T11:09:50</time>
      </trkpt>
      <trkpt lat="45.07663" lon="5.63429">
        <ele>681.5</ele>
        <time>2026-02-05T11:09:50</time>
      </trkpt>
      <trkpt lat="45.07663" lon="5.63429">
        <ele>681.5</ele>
        <time>2026-02-05T11:09:51</time>
      </trkpt>
      <trkpt lat="45.07663" lon="5.63429">
        <ele>681.5</ele>
        <time>2026-02-05T11:09:52</time>
      </trkpt>
      <trkpt lat="45.07663" lon="5.63429">
        <ele>681.5</ele>
        <time>2026-02-05T11:09:53</time>
      </trkpt>
      <trkpt lat="45.07663" lon="5.63429">
        <ele>681.5</ele>
        <time>2026-02-05T11:09:54</time>
      </trkpt>
      <trkpt lat="45.07663" lon="5.63429">
        <ele>681.5</ele>
        <time>2026-02-05T11:09:55</time>
      </trkpt>
      <trkpt lat="45.07663" lon="5.63429">
        <ele>681.5</ele>
        <time>2026-02-05T11:09:56</time>
      </trkpt>
      <trkpt lat="45.07663" lon="5.63429">
        <ele>681.5</ele>
        <time>2026-02-05T11:09:58</time>
      </trkpt>
      <trkpt lat="45.07663" lon="5.63429">
        <ele>681.5</ele>
        <time>2026-02-05T11:10:01</time>
      </trkpt>
      <trkpt lat="45.07663" lon="5.63429">
        <ele>681.5</ele>
        <time>2026-02-05T11:10:06</time>
      </trkpt>
      <trkpt lat="45.07663" lon="5.63429">
        <ele>681.5</ele>
        <time>2026-02-05T11:10:07</time>
      </trkpt>
      <trkpt lat="45.07663" lon="5.63429">
        <ele>681.5</ele>
        <time>2026-02-05T11:10:08</time>
      </trkpt>
      <trkpt lat="45.07663" lon="5.63429">
        <ele>681.5</ele>
        <time>2026-02-05T11:10:10</time>
      </trkpt>
      <trkpt lat="45.07664" lon="5.63429">
        <ele>681.5</ele>
        <time>2026-02-05T11:10:14</time>
      </trkpt>
      <trkpt lat="45.07665" lon="5.6343">
        <ele>681.5</ele>
        <time>2026-02-05T11:10:16</time>
      </trkpt>
      <trkpt lat="45.07665" lon="5.6343">
        <ele>681.5</ele>
        <time>2026-02-05T11:10:17</time>
      </trkpt>
      <trkpt lat="45.07665" lon="5.6343">
        <ele>681.5</ele>
        <time>2026-02-05T11:10:17</time>
      </trkpt>
      <trkpt lat="45.07668" lon="5.63435">
        <ele>681.5</ele>
        <time>2026-02-05T11:10:19</time>
      </trkpt>
      <trkpt lat="45.07672" lon="5.63442">
        <ele>681.5</ele>
        <time>2026-02-05T11:10:24</time>
      </trkpt>
      <trkpt lat="45.07672" lon="5.63443">
        <ele>688.6</ele>
        <time>2026-02-05T11:10:25</time>
      </trkpt>
      <trkpt lat="45.07671" lon="5.63444">
        <ele>688.6</ele>
        <time>2026-02-05T11:10:30</time>
      </trkpt>
      <trkpt lat="45.07671" lon="5.63444">
        <ele>688.6</ele>
        <time>2026-02-05T11:10:31</time>
      </trkpt>
      <trkpt lat="45.07671" lon="5.63444">
        <ele>688.6</ele>
        <time>2026-02-05T11:10:33</time>
      </trkpt>
      <trkpt lat="45.07671" lon="5.63444">
        <ele>691.06665</ele>
        <time>2026-02-05T11:10:34</time>
      </trkpt>
      <trkpt lat="45.07671" lon="5.63444">
        <ele>691.06665</ele>
        <time>2026-02-05T11:10:35</time>
      </trkpt>
      <trkpt lat="45.07671" lon="5.63444">
        <ele>691.06665</ele>
        <time>2026-02-05T11:10:36</time>
      </trkpt>
      <trkpt lat="45.07671" lon="5.63444">
        <ele>691.06665</ele>
        <time>2026-02-05T11:10:37</time>
      </trkpt>
      <trkpt lat="45.07671" lon="5.63444">
        <ele>691.06665</ele>
        <time>2026-02-05T11:10:38</time>
      </trkpt>
      <trkpt lat="45.07671" lon="5.63444">
        <ele>691.06665</ele>
        <time>2026-02-05T11:10:38</time>
      </trkpt>
      <trkpt lat="45.07671" lon="5.63444">
        <ele>691.2</ele>
        <time>2026-02-05T11:10:41</time>
      </trkpt>
      <trkpt lat="45.07671" lon="5.63444">
        <ele>691.2</ele>
        <time>2026-02-05T11:10:43</time>
      </trkpt>
      <trkpt lat="45.07671" lon="5.63444">
        <ele>691.2</ele>
        <time>2026-02-05T11:10:44</time>
      </trkpt>
      <trkpt lat="45.07671" lon="5.63444">
        <ele>691.2</ele>
        <time>2026-02-05T11:10:45</time>
      </trkpt>
      <trkpt lat="45.07671" lon="5.63444">
        <ele>691.2</ele>
        <time>2026-02-05T11:10:46</time>
      </trkpt>
      <trkpt lat="45.07672" lon="5.63445">
        <ele>691.2</ele>
        <time>2026-02-05T11:10:49</time>
      </trkpt>
      <trkpt lat="45.07673" lon="5.63445">
        <ele>691.2</ele>
        <time>2026-02-05T11:10:50</time>
      </trkpt>
      <trkpt lat="45.07676" lon="5.63445">
        <ele>691.2</ele>
        <time>2026-02-05T11:10:52</time>
      </trkpt>
      <trkpt lat="45.07677" lon="5.63445">
        <ele>691.2</ele>
        <time>2026-02-05T11:10:54</time>
      </trkpt>
      <trkpt lat="45.07678" lon="5.63445">
        <ele>691.2</ele>
        <time>2026-02-05T11:10:55</time>
      </trkpt>
      <trkpt lat="45.0768" lon="5.63444">
        <ele>693.93335</ele>
        <time>2026-02-05T11:10:58</time>
      </trkpt>
      <trkpt lat="45.0768" lon="5.63444">
        <ele>693.93335</ele>
        <time>2026-02-05T11:10:59</time>
      </trkpt>
      <trkpt lat="45.0768" lon="5.63444">
        <ele>693.93335</ele>
        <time>2026-02-05T11:10:59</time>
      </trkpt>
      <trkpt lat="45.07681" lon="5.63444">
        <ele>693.93335</ele>
        <time>2026-02-05T11:11:00</time>
      </trkpt>
      <trkpt lat="45.07681" lon="5.63444">
        <ele>693.93335</ele>
        <time>2026-02-05T11:11:01</time>
      </trkpt>
      <trkpt lat="45.07682" lon="5.63444">
        <ele>693.93335</ele>
        <time>2026-02-05T11:11:02</time>
      </trkpt>
      <trkpt lat="45.07683" lon="5.63445">
        <ele>693.93335</ele>
        <time>2026-02-05T11:11:04</time>
      </trkpt>
      <trkpt lat="45.07684" lon="5.63446">
        <ele>697.3</ele>
        <time>2026-02-05T11:11:12</time>
      </trkpt>
      <trkpt lat="45.07685" lon="5.63446">
        <ele>697.3</ele>
        <time>2026-02-05T11:11:14</time>
      </trkpt>
      <trkpt lat="45.07685" lon="5.63447">
        <ele>697.3</ele>
        <time>2026-02-05T11:11:16</time>
      </trkpt>
      <trkpt lat="45.07685" lon="5.63447">
        <ele>697.3</ele>
        <time>2026-02-05T11:11:17</time>
      </trkpt>
      <trkpt lat="45.07684" lon="5.63448">
        <ele>697.3</ele>
        <time>2026-02-05T11:11:19</time>
      </trkpt>
      <trkpt lat="45.07684" lon="5.63448">
        <ele>698.5</ele>
        <time>2026-02-05T11:11:20</time>
      </trkpt>
      <trkpt lat="45.07684" lon="5.63448">
        <ele>698.5</ele>
        <time>2026-02-05T11:11:20</time>
      </trkpt>
      <trkpt lat="45.07684" lon="5.63448">
        <ele>698.5</ele>
        <time>2026-02-05T11:11:21</time>
      </trkpt>
      <trkpt lat="45.07684" lon="5.63448">
        <ele>698.5</ele>
        <time>2026-02-05T11:11:23</time>
      </trkpt>
      <trkpt lat="45.07684" lon="5.63449">
        <ele>698.5</ele>
        <time>2026-02-05T11:11:24</time>
      </trkpt>
      <trkpt lat="45.07685" lon="5.63449">
        <ele>699.4</ele>
        <time>2026-02-05T11:11:27</time>
      </trkpt>
      <trkpt lat="45.07686" lon="5.6345">
        <ele>699.4</ele>
        <time>2026-02-05T11:11:28</time>
      </trkpt>
      <trkpt lat="45.07686" lon="5.63451">
        <ele>699.4</ele>
        <time>2026-02-05T11:11:28</time>
      </trkpt>
      <trkpt lat="45.07686" lon="5.63452">
        <ele>699.4</ele>
        <time>2026-02-05T11:11:29</time>
      </trkpt>
      <trkpt lat="45.07686" lon="5.63452">
        <ele>699.4</ele>
        <time>2026-02-05T11:11:30</time>
      </trkpt>
      <trkpt lat="45.07686" lon="5.63452">
        <ele>699.4</ele>
        <time>2026-02-05T11:11:30</time>
      </trkpt>
      <trkpt lat="45.07686" lon="5.63453">
        <ele>699.4</ele>
        <time>2026-02-05T11:11:31</time>
      </trkpt>
      <trkpt lat="45.07686" lon="5.63453">
        <ele>699.4</ele>
        <time>2026-02-05T11:11:33</time>
      </trkpt>
      <trkpt lat="45.07686" lon="5.63453">
        <ele>701.4</ele>
        <time>2026-02-05T11:11:34</time>
      </trkpt>
      <trkpt lat="45.07687" lon="5.63454">
        <ele>701.4</ele>
        <time>2026-02-05T11:11:35</time>
      </trkpt>
      <trkpt lat="45.07687" lon="5.63455">
        <ele>701.4</ele>
        <time>2026-02-05T11:11:35</time>
      </trkpt>
      <trkpt lat="45.07687" lon="5.63455">
        <ele>701.4</ele>
        <time>2026-02-05T11:11:36</time>
      </trkpt>
      <trkpt lat="45.07688" lon="5.63456">
        <ele>701.4</ele>
        <time>2026-02-05T11:11:39</time>
      </trkpt>
      <trkpt lat="45.07688" lon="5.63456">
        <ele>701.4</ele>
        <time>2026-02-05T11:11:41</time>
      </trkpt>
      <trkpt lat="45.07688" lon="5.63456">
        <ele>702.3</ele>
        <time>2026-02-05T11:11:43</time>
      </trkpt>
      <trkpt lat="45.07688" lon="5.63456">
        <ele>702.3</ele>
        <time>2026-02-05T11:11:43</time>
      </trkpt>
      <trkpt lat="45.07688" lon="5.63456">
        <ele>702.3</ele>
        <time>2026-02-05T11:11:44</time>
      </trkpt>
      <trkpt lat="45.07688" lon="5.63456">
        <ele>702.3</ele>
        <time>2026-02-05T11:11:46</time>
      </trkpt>
      <trkpt lat="45.07688" lon="5.63456">
        <ele>702.3</ele>
        <time>2026-02-05T11:11:47</time>
      </trkpt>
      <trkpt lat="45.07688" lon="5.63456">
        <ele>702.3</ele>
        <time>2026-02-05T11:11:47</time>
      </trkpt>
      <trkpt lat="45.07688" lon="5.63456">
        <ele>702.3</ele>
        <time>2026-02-05T11:11:48</time>
      </trkpt>
      <trkpt lat="45.07688" lon="5.63456">
        <ele>703.5</ele>
        <time>2026-02-05T11:11:50</time>
      </trkpt>
      <trkpt lat="45.07688" lon="5.63456">
        <ele>703.5</ele>
        <time>2026-02-05T11:11:53</time>
      </trkpt>
      <trkpt lat="45.07689" lon="5.63457">
        <ele>703.5</ele>
        <time>2026-02-05T11:11:54</time>
      </trkpt>
      <trkpt lat="45.07689" lon="5.63457">
        <ele>703.5</ele>
        <time>2026-02-05T11:11:55</time>
      </trkpt>
      <trkpt lat="45.0769" lon="5.6346">
        <ele>703.5</ele>
        <time>2026-02-05T11:11:58</time>
      </trkpt>
      <trkpt lat="45.07691" lon="5.6346">
        <ele>703.5</ele>
        <time>2026-02-05T11:11:59</time>
      </trkpt>
      <trkpt lat="45.07691" lon="5.63461">
        <ele>703.5</ele>
        <time>2026-02-05T11:12:00</time>
      </trkpt>
      <trkpt lat="45.07692" lon="5.63464">
        <ele>703.5</ele>
        <time>2026-02-05T11:12:04</time>
      </trkpt>
      <trkpt lat="45.07693" lon="5.63466">
        <ele>703.5</ele>
        <time>2026-02-05T11:12:05</time>
      </trkpt>
      <trkpt lat="45.07694" lon="5.63467">
        <ele>703.5</ele>
        <time>2026-02-05T11:12:06</time>
      </trkpt>
      <trkpt lat="45.07694" lon="5.63468">
        <ele>707.8333</ele>
        <time>2026-02-05T11:12:07</time>
      </trkpt>
      <trkpt lat="45.07695" lon="5.63468">
        <ele>707.8333</ele>
        <time>2026-02-05T11:12:08</time>
      </trkpt>
      <trkpt lat="45.07695" lon="5.63468">
        <ele>707.8333</ele>
        <time>2026-02-05T11:12:09</time>
      </trkpt>
      <trkpt lat="45.07695" lon="5.63468">
        <ele>707.8333</ele>
        <time>2026-02-05T11:12:09</time>
      </trkpt>
      <trkpt lat="45.07695" lon="5.63468">
        <ele>707.8333</ele>
        <time>2026-02-05T11:12:10</time>
      </trkpt>
      <trkpt lat="45.07696" lon="5.63468">
        <ele>707.8333</ele>
        <time>2026-02-05T11:12:12</time>
      </trkpt>
      <trkpt lat="45.07699" lon="5.63473">
        <ele>707</ele>
        <time>2026-02-05T11:12:22</time>
      </trkpt>
      <trkpt lat="45.077" lon="5.63473">
        <ele>707</ele>
        <time>2026-02-05T11:12:23</time>
      </trkpt>
      <trkpt lat="45.077" lon="5.63473">
        <ele>707</ele>
        <time>2026-02-05T11:12:23</time>
      </trkpt>
      <trkpt lat="45.077" lon="5.63474">
        <ele>707</ele>
        <time>2026-02-05T11:12:24</time>
      </trkpt>
      <trkpt lat="45.07701" lon="5.63474">
        <ele>707</ele>
        <time>2026-02-05T11:12:26</time>
      </trkpt>
      <trkpt lat="45.07701" lon="5.63474">
        <ele>707</ele>
        <time>2026-02-05T11:12:27</time>
      </trkpt>
      <trkpt lat="45.07701" lon="5.63475">
        <ele>707</ele>
        <time>2026-02-05T11:12:27</time>
      </trkpt>
      <trkpt lat="45.07701" lon="5.63476">
        <ele>707.1</ele>
        <time>2026-02-05T11:12:31</time>
      </trkpt>
      <trkpt lat="45.07701" lon="5.63477">
        <ele>707.1</ele>
        <time>2026-02-05T11:12:31</time>
      </trkpt>
      <trkpt lat="45.07701" lon="5.63477">
        <ele>707.1</ele>
        <time>2026-02-05T11:12:32</time>
      </trkpt>
      <trkpt lat="45.07701" lon="5.63478">
        <ele>707.1</ele>
        <time>2026-02-05T11:12:33</time>
      </trkpt>
      <trkpt lat="45.07701" lon="5.63478">
        <ele>707.1</ele>
        <time>2026-02-05T11:12:34</time>
      </trkpt>
      <trkpt lat="45.07701" lon="5.63478">
        <ele>707.1</ele>
        <time>2026-02-05T11:12:35</time>
      </trkpt>
      <trkpt lat="45.07701" lon="5.63478">
        <ele>708</ele>
        <time>2026-02-05T11:12:36</time>
      </trkpt>
      <trkpt lat="45.07701" lon="5.63478">
        <ele>708</ele>
        <time>2026-02-05T11:12:37</time>
      </trkpt>
      <trkpt lat="45.077" lon="5.63478">
        <ele>708.8</ele>
        <time>2026-02-05T11:12:45</time>
      </trkpt>
      <trkpt lat="45.077" lon="5.63478">
        <ele>708.8</ele>
        <time>2026-02-05T11:12:47</time>
      </trkpt>
      <trkpt lat="45.077" lon="5.63478">
        <ele>708.8</ele>
        <time>2026-02-05T11:12:48</time>
      </trkpt>
      <trkpt lat="45.077" lon="5.63478">
        <ele>708.8</ele>
        <time>2026-02-05T11:12:51</time>
      </trkpt>
      <trkpt lat="45.077" lon="5.63478">
        <ele>708.8</ele>
        <time>2026-02-05T11:12:52</time>
      </trkpt>
      <trkpt lat="45.077" lon="5.63478">
        <ele>708.8</ele>
        <time>2026-02-05T11:12:54</time>
      </trkpt>
      <trkpt lat="45.07701" lon="5.63478">
        <ele>708.8</ele>
        <time>2026-02-05T11:12:59</time>
      </trkpt>
      <trkpt lat="45.07701" lon="5.63478">
        <ele>708.8</ele>
        <time>2026-02-05T11:13:01</time>
      </trkpt>
      <trkpt lat="45.07701" lon="5.63478">
        <ele>708.8</ele>
        <time>2026-02-05T11:13:04</time>
      </trkpt>
      <trkpt lat="45.07701" lon="5.63478">
        <ele>708.8</ele>
        <time>2026-02-05T11:13:04</time>
      </trkpt>
      <trkpt lat="45.07704" lon="5.63485">
        <ele>708.8</ele>
        <time>2026-02-05T11:13:06</time>
      </trkpt>
      <trkpt lat="45.07706" lon="5.63488">
        <ele>708.8</ele>
        <time>2026-02-05T11:13:06</time>
      </trkpt>
      <trkpt lat="45.07706" lon="5.63489">
        <ele>708.8</ele>
        <time>2026-02-05T11:13:07</time>
      </trkpt>
      <trkpt lat="45.07706" lon="5.63489">
        <ele>708.8</ele>
        <time>2026-02-05T11:13:09</time>
      </trkpt>
      <trkpt lat="45.07707" lon="5.63489">
        <ele>708.8</ele>
        <time>2026-02-05T11:13:10</time>
      </trkpt>
      <trkpt lat="45.07707" lon="5.63489">
        <ele>711.8</ele>
        <time>2026-02-05T11:13:10</time>
      </trkpt>
      <trkpt lat="45.07707" lon="5.63489">
        <ele>711.8</ele>
        <time>2026-02-05T11:13:11</time>
      </trkpt>
      <trkpt lat="45.07707" lon="5.63489">
        <ele>711.8</ele>
        <time>2026-02-05T11:13:12</time>
      </trkpt>
      <trkpt lat="45.07707" lon="5.63489">
        <ele>711.8</ele>
        <time>2026-02-05T11:13:13</time>
      </trkpt>
      <trkpt lat="45.07707" lon="5.63489">
        <ele>711.8</ele>
        <time>2026-02-05T11:13:14</time>
      </trkpt>
      <trkpt lat="45.07707" lon="5.63489">
        <ele>711.8</ele>
        <time>2026-02-05T11:13:16</time>
      </trkpt>
      <trkpt lat="45.07707" lon="5.63489">
        <ele>711.8</ele>
        <time>2026-02-05T11:13:17</time>
      </trkpt>
      <trkpt lat="45.07709" lon="5.6349">
        <ele>713.3</ele>
        <time>2026-02-05T11:13:19</time>
      </trkpt>
      <trkpt lat="45.0771" lon="5.63492">
        <ele>713.3</ele>
        <time>2026-02-05T11:13:21</time>
      </trkpt>
      <trkpt lat="45.07711" lon="5.63492">
        <ele>713.3</ele>
        <time>2026-02-05T11:13:22</time>
      </trkpt>
      <trkpt lat="45.07711" lon="5.63493">
        <ele>713.3</ele>
        <time>2026-02-05T11:13:23</time>
      </trkpt>
      <trkpt lat="45.07712" lon="5.63495">
        <ele>713.3</ele>
        <time>2026-02-05T11:13:25</time>
      </trkpt>
      <trkpt lat="45.07713" lon="5.63497">
        <ele>715.7</ele>
        <time>2026-02-05T11:13:32</time>
      </trkpt>
      <trkpt lat="45.07713" lon="5.63497">
        <ele>715.7</ele>
        <time>2026-02-05T11:13:33</time>
      </trkpt>
      <trkpt lat="45.07713" lon="5.63497">
        <ele>715.7</ele>
        <time>2026-02-05T11:13:33</time>
      </trkpt>
      <trkpt lat="45.07713" lon="5.63497">
        <ele>717.3</ele>
        <time>2026-02-05T11:13:34</time>
      </trkpt>
      <trkpt lat="45.07713" lon="5.63497">
        <ele>717.3</ele>
        <time>2026-02-05T11:13:37</time>
      </trkpt>
      <trkpt lat="45.07713" lon="5.63497">
        <ele>717.3</ele>
        <time>2026-02-05T11:13:38</time>
      </trkpt>
      <trkpt lat="45.07713" lon="5.63497">
        <ele>717.3</ele>
        <time>2026-02-05T11:13:38</time>
      </trkpt>
      <trkpt lat="45.07713" lon="5.63497">
        <ele>717.3</ele>
        <time>2026-02-05T11:13:40</time>
      </trkpt>
      <trkpt lat="45.07713" lon="5.63497">
        <ele>717.3</ele>
        <time>2026-02-05T11:13:40</time>
      </trkpt>
      <trkpt lat="45.07713" lon="5.63497">
        <ele>717.3</ele>
        <time>2026-02-05T11:13:41</time>
      </trkpt>
      <trkpt lat="45.07713" lon="5.63497">
        <ele>718.3</ele>
        <time>2026-02-05T11:13:41</time>
      </trkpt>
      <trkpt lat="45.07713" lon="5.63497">
        <ele>718.3</ele>
        <time>2026-02-05T11:13:42</time>
      </trkpt>
      <trkpt lat="45.07713" lon="5.63497">
        <ele>718.3</ele>
        <time>2026-02-05T11:13:45</time>
      </trkpt>
      <trkpt lat="45.07713" lon="5.63497">
        <ele>718.3</ele>
        <time>2026-02-05T11:13:46</time>
      </trkpt>
      <trkpt lat="45.07713" lon="5.63497">
        <ele>718.3</ele>
        <time>2026-02-05T11:13:47</time>
      </trkpt>
      <trkpt lat="45.07713" lon="5.63497">
        <ele>718.3</ele>
        <time>2026-02-05T11:13:49</time>
      </trkpt>
      <trkpt lat="45.07713" lon="5.63497">
        <ele>718.3</ele>
        <time>2026-02-05T11:13:50</time>
      </trkpt>
      <trkpt lat="45.07713" lon="5.63497">
        <ele>718.3</ele>
        <time>2026-02-05T11:13:51</time>
      </trkpt>
      <trkpt lat="45.07713" lon="5.63497">
        <ele>718.3</ele>
        <time>2026-02-05T11:13:52</time>
      </trkpt>
      <trkpt lat="45.07714" lon="5.63497">
        <ele>718.3</ele>
        <time>2026-02-05T11:13:54</time>
      </trkpt>
      <trkpt lat="45.07714" lon="5.63497">
        <ele>718.3</ele>
        <time>2026-02-05T11:13:55</time>
      </trkpt>
      <trkpt lat="45.07716" lon="5.635">
        <ele>718.3</ele>
        <time>2026-02-05T11:13:57</time>
      </trkpt>
      <trkpt lat="45.07717" lon="5.63501">
        <ele>718.3</ele>
        <time>2026-02-05T11:13:58</time>
      </trkpt>
      <trkpt lat="45.07718" lon="5.63503">
        <ele>718.3</ele>
        <time>2026-02-05T11:14:00</time>
      </trkpt>
      <trkpt lat="45.07718" lon="5.63503">
        <ele>718.3</ele>
        <time>2026-02-05T11:14:02</time>
      </trkpt>
      <trkpt lat="45.07718" lon="5.63503">
        <ele>718.3</ele>
        <time>2026-02-05T11:14:03</time>
      </trkpt>
      <trkpt lat="45.07718" lon="5.63503">
        <ele>718.3</ele>
        <time>2026-02-05T11:14:04</time>
      </trkpt>
      <trkpt lat="45.07718" lon="5.63503">
        <ele>718.3</ele>
        <time>2026-02-05T11:14:06</time>
      </trkpt>
      <trkpt lat="45.07718" lon="5.63503">
        <ele>718.3</ele>
        <time>2026-02-05T11:14:07</time>
      </trkpt>
      <trkpt lat="45.07718" lon="5.63503">
        <ele>714.8</ele>
        <time>2026-02-05T11:14:12</time>
      </trkpt>
      <trkpt lat="45.07725" lon="5.63496">
        <ele>714.8</ele>
        <time>2026-02-05T11:14:14</time>
      </trkpt>
      <trkpt lat="45.07726" lon="5.63495">
        <ele>714.8</ele>
        <time>2026-02-05T11:14:15</time>
      </trkpt>
      <trkpt lat="45.07726" lon="5.63494">
        <ele>714.8</ele>
        <time>2026-02-05T11:14:16</time>
      </trkpt>
      <trkpt lat="45.07726" lon="5.63494">
        <ele>714.8</ele>
        <time>2026-02-05T11:14:20</time>
      </trkpt>
      <trkpt lat="45.07728" lon="5.63492">
        <ele>707.9</ele>
        <time>2026-02-05T11:14:35</time>
      </trkpt>
      <trkpt lat="45.07728" lon="5.63493">
        <ele>707.9</ele>
        <time>2026-02-05T11:14:37</time>
      </trkpt>
      <trkpt lat="45.07728" lon="5.63495">
        <ele>707.9</ele>
        <time>2026-02-05T11:14:39</time>
      </trkpt>
      <trkpt lat="45.07728" lon="5.63496">
        <ele>707.9</ele>
        <time>2026-02-05T11:14:41</time>
      </trkpt>
      <trkpt lat="45.07725" lon="5.635">
        <ele>711.7</ele>
        <time>2026-02-05T11:14:50</time>
      </trkpt>
      <trkpt lat="45.07725" lon="5.635">
        <ele>711.7</ele>
        <time>2026-02-05T11:14:51</time>
      </trkpt>
      <trkpt lat="45.07726" lon="5.63505">
        <ele>714.3</ele>
        <time>2026-02-05T11:15:01</time>
      </trkpt>
      <trkpt lat="45.07726" lon="5.63506">
        <ele>714.3</ele>
        <time>2026-02-05T11:15:02</time>
      </trkpt>
      <trkpt lat="45.07726" lon="5.63506">
        <ele>714.3</ele>
        <time>2026-02-05T11:15:03</time>
      </trkpt>
      <trkpt lat="45.07725" lon="5.63508">
        <ele>714.3</ele>
        <time>2026-02-05T11:15:05</time>
      </trkpt>
      <trkpt lat="45.07725" lon="5.63509">
        <ele>714.3</ele>
        <time>2026-02-05T11:15:06</time>
      </trkpt>
      <trkpt lat="45.07725" lon="5.63509">
        <ele>717.5</ele>
        <time>2026-02-05T11:15:07</time>
      </trkpt>
      <trkpt lat="45.07725" lon="5.63512">
        <ele>717.5</ele>
        <time>2026-02-05T11:15:11</time>
      </trkpt>
      <trkpt lat="45.07725" lon="5.63512">
        <ele>717.5</ele>
        <time>2026-02-05T11:15:12</time>
      </trkpt>
      <trkpt lat="45.07725" lon="5.63513">
        <ele>717.5</ele>
        <time>2026-02-05T11:15:14</time>
      </trkpt>
      <trkpt lat="45.07725" lon="5.63514">
        <ele>717.5</ele>
        <time>2026-02-05T11:15:16</time>
      </trkpt>
      <trkpt lat="45.07725" lon="5.63514">
        <ele>727.9</ele>
        <time>2026-02-05T11:15:16</time>
      </trkpt>
      <trkpt lat="45.07725" lon="5.63515">
        <ele>727.9</ele>
        <time>2026-02-05T11:15:17</time>
      </trkpt>
      <trkpt lat="45.07725" lon="5.63518">
        <ele>727.9</ele>
        <time>2026-02-05T11:15:23</time>
      </trkpt>
      <trkpt lat="45.07725" lon="5.63519">
        <ele>729.8</ele>
        <time>2026-02-05T11:15:25</time>
      </trkpt>
      <trkpt lat="45.07724" lon="5.63521">
        <ele>729.8</ele>
        <time>2026-02-05T11:15:29</time>
      </trkpt>
      <trkpt lat="45.07725" lon="5.63523">
        <ele>729.8</ele>
        <time>2026-02-05T11:15:34</time>
      </trkpt>
      <trkpt lat="45.07725" lon="5.63524">
        <ele>732</ele>
        <time>2026-02-05T11:15:35</time>
      </trkpt>
      <trkpt lat="45.07727" lon="5.63522">
        <ele>732.3</ele>
        <time>2026-02-05T11:15:50</time>
      </trkpt>
      <trkpt lat="45.07727" lon="5.63522">
        <ele>732.3</ele>
        <time>2026-02-05T11:15:51</time>
      </trkpt>
      <trkpt lat="45.07728" lon="5.63523">
        <ele>732.3</ele>
        <time>2026-02-05T11:15:52</time>
      </trkpt>
      <trkpt lat="45.07729" lon="5.63524">
        <ele>732.3</ele>
        <time>2026-02-05T11:15:54</time>
      </trkpt>
      <trkpt lat="45.07731" lon="5.63528">
        <ele>732.3</ele>
        <time>2026-02-05T11:15:57</time>
      </trkpt>
      <trkpt lat="45.07731" lon="5.63529">
        <ele>732.3</ele>
        <time>2026-02-05T11:15:58</time>
      </trkpt>
      <trkpt lat="45.07731" lon="5.63529">
        <ele>732.3</ele>
        <time>2026-02-05T11:15:59</time>
      </trkpt>
      <trkpt lat="45.07731" lon="5.63528">
        <ele>732.3</ele>
        <time>2026-02-05T11:16:01</time>
      </trkpt>
      <trkpt lat="45.07732" lon="5.63528">
        <ele>732.3</ele>
        <time>2026-02-05T11:16:03</time>
      </trkpt>
      <trkpt lat="45.07733" lon="5.63525">
        <ele>732.6</ele>
        <time>2026-02-05T11:16:04</time>
      </trkpt>
      <trkpt lat="45.07733" lon="5.63525">
        <ele>732.6</ele>
        <time>2026-02-05T11:16:05</time>
      </trkpt>
      <trkpt lat="45.07734" lon="5.63524">
        <ele>732.6</ele>
        <time>2026-02-05T11:16:05</time>
      </trkpt>
      <trkpt lat="45.07734" lon="5.63525">
        <ele>732.6</ele>
        <time>2026-02-05T11:16:06</time>
      </trkpt>
      <trkpt lat="45.07733" lon="5.63526">
        <ele>732.6</ele>
        <time>2026-02-05T11:16:06</time>
      </trkpt>
      <trkpt lat="45.07733" lon="5.63526">
        <ele>732.6</ele>
        <time>2026-02-05T11:16:07</time>
      </trkpt>
      <trkpt lat="45.07734" lon="5.63525">
        <ele>732.6</ele>
        <time>2026-02-05T11:16:08</time>
      </trkpt>
      <trkpt lat="45.07737" lon="5.63523">
        <ele>733.2</ele>
        <time>2026-02-05T11:16:12</time>
      </trkpt>
      <trkpt lat="45.07738" lon="5.63522">
        <ele>733.2</ele>
        <time>2026-02-05T11:16:13</time>
      </trkpt>
      <trkpt lat="45.07739" lon="5.63522">
        <ele>733.2</ele>
        <time>2026-02-05T11:16:14</time>
      </trkpt>
      <trkpt lat="45.0774" lon="5.63521">
        <ele>733.2</ele>
        <time>2026-02-05T11:16:17</time>
      </trkpt>
      <trkpt lat="45.07741" lon="5.63522">
        <ele>733.2</ele>
        <time>2026-02-05T11:16:20</time>
      </trkpt>
      <trkpt lat="45.07741" lon="5.63522">
        <ele>734.8</ele>
        <time>2026-02-05T11:16:21</time>
      </trkpt>
      <trkpt lat="45.07742" lon="5.63523">
        <ele>734.8</ele>
        <time>2026-02-05T11:16:24</time>
      </trkpt>
      <trkpt lat="45.07742" lon="5.63524">
        <ele>734.8</ele>
        <time>2026-02-05T11:16:26</time>
      </trkpt>
      <trkpt lat="45.07742" lon="5.63524">
        <ele>734.8</ele>
        <time>2026-02-05T11:16:27</time>
      </trkpt>
      <trkpt lat="45.07743" lon="5.63525">
        <ele>733.9</ele>
        <time>2026-02-05T11:16:30</time>
      </trkpt>
      <trkpt lat="45.07743" lon="5.63525">
        <ele>733.9</ele>
        <time>2026-02-05T11:16:32</time>
      </trkpt>
      <trkpt lat="45.07744" lon="5.63525">
        <ele>733.9</ele>
        <time>2026-02-05T11:16:34</time>
      </trkpt>
      <trkpt lat="45.07746" lon="5.63522">
        <ele>732.4</ele>
        <time>2026-02-05T11:16:39</time>
      </trkpt>
      <trkpt lat="45.07746" lon="5.63521">
        <ele>732.4</ele>
        <time>2026-02-05T11:16:41</time>
      </trkpt>
      <trkpt lat="45.07746" lon="5.6352">
        <ele>732.4</ele>
        <time>2026-02-05T11:16:44</time>
      </trkpt>
      <trkpt lat="45.07746" lon="5.63519">
        <ele>732.4</ele>
        <time>2026-02-05T11:16:45</time>
      </trkpt>
      <trkpt lat="45.07746" lon="5.63517">
        <ele>733.7</ele>
        <time>2026-02-05T11:16:50</time>
      </trkpt>
      <trkpt lat="45.07746" lon="5.63516">
        <ele>733.7</ele>
        <time>2026-02-05T11:16:52</time>
      </trkpt>
      <trkpt lat="45.07745" lon="5.63516">
        <ele>733.7</ele>
        <time>2026-02-05T11:16:54</time>
      </trkpt>
      <trkpt lat="45.07746" lon="5.63515">
        <ele>736.4</ele>
        <time>2026-02-05T11:16:57</time>
      </trkpt>
      <trkpt lat="45.07746" lon="5.63515">
        <ele>736.4</ele>
        <time>2026-02-05T11:16:58</time>
      </trkpt>
      <trkpt lat="45.07745" lon="5.63515">
        <ele>736.4</ele>
        <time>2026-02-05T11:17:01</time>
      </trkpt>
      <trkpt lat="45.07746" lon="5.63512">
        <ele>736.4</ele>
        <time>2026-02-05T11:17:03</time>
      </trkpt>
      <trkpt lat="45.07746" lon="5.6351">
        <ele>736.4</ele>
        <time>2026-02-05T11:17:05</time>
      </trkpt>
      <trkpt lat="45.07746" lon="5.6351">
        <ele>736.4</ele>
        <time>2026-02-05T11:17:06</time>
      </trkpt>
      <trkpt lat="45.07747" lon="5.63508">
        <ele>736.4</ele>
        <time>2026-02-05T11:17:09</time>
      </trkpt>
      <trkpt lat="45.07747" lon="5.63508">
        <ele>736.4</ele>
        <time>2026-02-05T11:17:09</time>
      </trkpt>
      <trkpt lat="45.07747" lon="5.63508">
        <ele>736.4</ele>
        <time>2026-02-05T11:17:11</time>
      </trkpt>
      <trkpt lat="45.07747" lon="5.63508">
        <ele>736.4</ele>
        <time>2026-02-05T11:17:13</time>
      </trkpt>
      <trkpt lat="45.07747" lon="5.63508">
        <ele>739.1</ele>
        <time>2026-02-05T11:17:14</time>
      </trkpt>
      <trkpt lat="45.07748" lon="5.63506">
        <ele>739.1</ele>
        <time>2026-02-05T11:17:20</time>
      </trkpt>
      <trkpt lat="45.0775" lon="5.63504">
        <ele>739.1</ele>
        <time>2026-02-05T11:17:22</time>
      </trkpt>
      <trkpt lat="45.07753" lon="5.63501">
        <ele>739.5</ele>
        <time>2026-02-05T11:17:25</time>
      </trkpt>
      <trkpt lat="45.07755" lon="5.63497">
        <ele>739.5</ele>
        <time>2026-02-05T11:17:29</time>
      </trkpt>
      <trkpt lat="45.07756" lon="5.63496">
        <ele>739.4</ele>
        <time>2026-02-05T11:17:31</time>
      </trkpt>
      <trkpt lat="45.07756" lon="5.63496">
        <ele>739.4</ele>
        <time>2026-02-05T11:17:31</time>
      </trkpt>
      <trkpt lat="45.07756" lon="5.63495">
        <ele>739.4</ele>
        <time>2026-02-05T11:17:34</time>
      </trkpt>
      <trkpt lat="45.07755" lon="5.63495">
        <ele>739.4</ele>
        <time>2026-02-05T11:17:35</time>
      </trkpt>
      <trkpt lat="45.07755" lon="5.63495">
        <ele>739.4</ele>
        <time>2026-02-05T11:17:35</time>
      </trkpt>
      <trkpt lat="45.07755" lon="5.63495">
        <ele>739.4</ele>
        <time>2026-02-05T11:17:36</time>
      </trkpt>
      <trkpt lat="45.07755" lon="5.63495">
        <ele>739.6</ele>
        <time>2026-02-05T11:17:38</time>
      </trkpt>
      <trkpt lat="45.07756" lon="5.63495">
        <ele>739.6</ele>
        <time>2026-02-05T11:17:43</time>
      </trkpt>
      <trkpt lat="45.07757" lon="5.63494">
        <ele>739.6</ele>
        <time>2026-02-05T11:17:46</time>
      </trkpt>
      <trkpt lat="45.07757" lon="5.63494">
        <ele>739.6</ele>
        <time>2026-02-05T11:17:51</time>
      </trkpt>
      <trkpt lat="45.07757" lon="5.63494">
        <ele>739.6</ele>
        <time>2026-02-05T11:17:52</time>
      </trkpt>
      <trkpt lat="45.07757" lon="5.63494">
        <ele>739.6</ele>
        <time>2026-02-05T11:17:53</time>
      </trkpt>
      <trkpt lat="45.07757" lon="5.63494">
        <ele>740.1</ele>
        <time>2026-02-05T11:17:54</time>
      </trkpt>
      <trkpt lat="45.07757" lon="5.63494">
        <ele>740.1</ele>
        <time>2026-02-05T11:17:58</time>
      </trkpt>
      <trkpt lat="45.07757" lon="5.63494">
        <ele>740.1</ele>
        <time>2026-02-05T11:17:59</time>
      </trkpt>
      <trkpt lat="45.07757" lon="5.63494">
        <ele>740.1</ele>
        <time>2026-02-05T11:17:59</time>
      </trkpt>
      <trkpt lat="45.07757" lon="5.63494">
        <ele>740.1</ele>
        <time>2026-02-05T11:18:00</time>
      </trkpt>
      <trkpt lat="45.07757" lon="5.63494">
        <ele>740.1</ele>
        <time>2026-02-05T11:18:01</time>
      </trkpt>
      <trkpt lat="45.07757" lon="5.63493">
        <ele>740.1</ele>
        <time>2026-02-05T11:18:03</time>
      </trkpt>
      <trkpt lat="45.07758" lon="5.6349">
        <ele>740.1</ele>
        <time>2026-02-05T11:18:03</time>
      </trkpt>
      <trkpt lat="45.07758" lon="5.63488">
        <ele>740.1</ele>
        <time>2026-02-05T11:18:04</time>
      </trkpt>
      <trkpt lat="45.07758" lon="5.63481">
        <ele>740.1</ele>
        <time>2026-02-05T11:18:08</time>
      </trkpt>
      <trkpt lat="45.07758" lon="5.63481">
        <ele>740.1</ele>
        <time>2026-02-05T11:18:09</time>
      </trkpt>
      <trkpt lat="45.0776" lon="5.63478">
        <ele>741.6</ele>
        <time>2026-02-05T11:18:11</time>
      </trkpt>
      <trkpt lat="45.07762" lon="5.63474">
        <ele>741.6</ele>
        <time>2026-02-05T11:18:15</time>
      </trkpt>
      <trkpt lat="45.07762" lon="5.63473">
        <ele>741.6</ele>
        <time>2026-02-05T11:18:16</time>
      </trkpt>
      <trkpt lat="45.07762" lon="5.63473">
        <ele>741.6</ele>
        <time>2026-02-05T11:18:17</time>
      </trkpt>
      <trkpt lat="45.07762" lon="5.63473">
        <ele>742.0333</ele>
        <time>2026-02-05T11:18:19</time>
      </trkpt>
      <trkpt lat="45.07762" lon="5.63472">
        <ele>742.0333</ele>
        <time>2026-02-05T11:18:20</time>
      </trkpt>
      <trkpt lat="45.07762" lon="5.63471">
        <ele>742.0333</ele>
        <time>2026-02-05T11:18:21</time>
      </trkpt>
      <trkpt lat="45.07762" lon="5.63471">
        <ele>742.0333</ele>
        <time>2026-02-05T11:18:24</time>
      </trkpt>
      <trkpt lat="45.07762" lon="5.6347">
        <ele>742.0333</ele>
        <time>2026-02-05T11:18:25</time>
      </trkpt>
      <trkpt lat="45.07762" lon="5.6347">
        <ele>742.0333</ele>
        <time>2026-02-05T11:18:26</time>
      </trkpt>
      <trkpt lat="45.07761" lon="5.6347">
        <ele>742.4</ele>
        <time>2026-02-05T11:18:27</time>
      </trkpt>
      <trkpt lat="45.07761" lon="5.6347">
        <ele>742.4</ele>
        <time>2026-02-05T11:18:28</time>
      </trkpt>
      <trkpt lat="45.07761" lon="5.6347">
        <ele>742.4</ele>
        <time>2026-02-05T11:18:29</time>
      </trkpt>
      <trkpt lat="45.07761" lon="5.6347">
        <ele>742.4</ele>
        <time>2026-02-05T11:18:29</time>
      </trkpt>
      <trkpt lat="45.07761" lon="5.63469">
        <ele>742.4</ele>
        <time>2026-02-05T11:18:32</time>
      </trkpt>
      <trkpt lat="45.0776" lon="5.63466">
        <ele>742.4</ele>
        <time>2026-02-05T11:18:34</time>
      </trkpt>
      <trkpt lat="45.0776" lon="5.63459">
        <ele>742.6</ele>
        <time>2026-02-05T11:18:40</time>
      </trkpt>
      <trkpt lat="45.07759" lon="5.63458">
        <ele>742.6</ele>
        <time>2026-02-05T11:18:41</time>
      </trkpt>
      <trkpt lat="45.07759" lon="5.63455">
        <ele>742.6</ele>
        <time>2026-02-05T11:18:45</time>
      </trkpt>
      <trkpt lat="45.07759" lon="5.63454">
        <ele>745.5</ele>
        <time>2026-02-05T11:18:46</time>
      </trkpt>
      <trkpt lat="45.07759" lon="5.63454">
        <ele>745.5</ele>
        <time>2026-02-05T11:18:46</time>
      </trkpt>
      <trkpt lat="45.0776" lon="5.63454">
        <ele>745.5</ele>
        <time>2026-02-05T11:18:48</time>
      </trkpt>
      <trkpt lat="45.0776" lon="5.63454">
        <ele>745.5</ele>
        <time>2026-02-05T11:18:49</time>
      </trkpt>
      <trkpt lat="45.0776" lon="5.63454">
        <ele>745.5</ele>
        <time>2026-02-05T11:18:49</time>
      </trkpt>
      <trkpt lat="45.0776" lon="5.63454">
        <ele>745.5</ele>
        <time>2026-02-05T11:18:50</time>
      </trkpt>
      <trkpt lat="45.07761" lon="5.63455">
        <ele>745.5</ele>
        <time>2026-02-05T11:18:51</time>
      </trkpt>
      <trkpt lat="45.07761" lon="5.63455">
        <ele>745.5</ele>
        <time>2026-02-05T11:18:52</time>
      </trkpt>
      <trkpt lat="45.07761" lon="5.63456">
        <ele>748.1</ele>
        <time>2026-02-05T11:18:53</time>
      </trkpt>
      <trkpt lat="45.07762" lon="5.63457">
        <ele>748.1</ele>
        <time>2026-02-05T11:18:57</time>
      </trkpt>
      <trkpt lat="45.07762" lon="5.63458">
        <ele>748.1</ele>
        <time>2026-02-05T11:18:58</time>
      </trkpt>
      <trkpt lat="45.07762" lon="5.6346">
        <ele>748.1</ele>
        <time>2026-02-05T11:19:00</time>
      </trkpt>
      <trkpt lat="45.07762" lon="5.63462">
        <ele>748.1</ele>
        <time>2026-02-05T11:19:02</time>
      </trkpt>
      <trkpt lat="45.07762" lon="5.63462">
        <ele>748.9</ele>
        <time>2026-02-05T11:19:04</time>
      </trkpt>
      <trkpt lat="45.07762" lon="5.63463">
        <ele>748.9</ele>
        <time>2026-02-05T11:19:05</time>
      </trkpt>
      <trkpt lat="45.07762" lon="5.63463">
        <ele>748.9</ele>
        <time>2026-02-05T11:19:05</time>
      </trkpt>
      <trkpt lat="45.07762" lon="5.63463">
        <ele>748.9</ele>
        <time>2026-02-05T11:19:06</time>
      </trkpt>
      <trkpt lat="45.07763" lon="5.63465">
        <ele>748.9</ele>
        <time>2026-02-05T11:19:07</time>
      </trkpt>
      <trkpt lat="45.07763" lon="5.63466">
        <ele>748.9</ele>
        <time>2026-02-05T11:19:10</time>
      </trkpt>
      <trkpt lat="45.07763" lon="5.63466">
        <ele>748.9</ele>
        <time>2026-02-05T11:19:11</time>
      </trkpt>
      <trkpt lat="45.07764" lon="5.63466">
        <ele>751.5</ele>
        <time>2026-02-05T11:19:13</time>
      </trkpt>
      <trkpt lat="45.07764" lon="5.63466">
        <ele>751.5</ele>
        <time>2026-02-05T11:19:14</time>
      </trkpt>
      <trkpt lat="45.07764" lon="5.63467">
        <ele>751.5</ele>
        <time>2026-02-05T11:19:14</time>
      </trkpt>
      <trkpt lat="45.07764" lon="5.63467">
        <ele>751.5</ele>
        <time>2026-02-05T11:19:15</time>
      </trkpt>
      <trkpt lat="45.07765" lon="5.63468">
        <ele>751.5</ele>
        <time>2026-02-05T11:19:17</time>
      </trkpt>
      <trkpt lat="45.07766" lon="5.63468">
        <ele>751.5</ele>
        <time>2026-02-05T11:19:19</time>
      </trkpt>
      <trkpt lat="45.07767" lon="5.63469">
        <ele>751.5</ele>
        <time>2026-02-05T11:19:20</time>
      </trkpt>
      <trkpt lat="45.07767" lon="5.63469">
        <ele>751.5</ele>
        <time>2026-02-05T11:19:21</time>
      </trkpt>
      <trkpt lat="45.07767" lon="5.63469">
        <ele>754.4667</ele>
        <time>2026-02-05T11:19:22</time>
      </trkpt>
      <trkpt lat="45.07768" lon="5.63469">
        <ele>754.4667</ele>
        <time>2026-02-05T11:19:23</time>
      </trkpt>
      <trkpt lat="45.07768" lon="5.63469">
        <ele>754.4667</ele>
        <time>2026-02-05T11:19:24</time>
      </trkpt>
      <trkpt lat="45.07768" lon="5.6347">
        <ele>754.4667</ele>
        <time>2026-02-05T11:19:25</time>
      </trkpt>
      <trkpt lat="45.07768" lon="5.6347">
        <ele>754.4667</ele>
        <time>2026-02-05T11:19:26</time>
      </trkpt>
      <trkpt lat="45.07768" lon="5.63471">
        <ele>754.4667</ele>
        <time>2026-02-05T11:19:27</time>
      </trkpt>
      <trkpt lat="45.07768" lon="5.63472">
        <ele>754.4667</ele>
        <time>2026-02-05T11:19:30</time>
      </trkpt>
      <trkpt lat="45.07768" lon="5.63472">
        <ele>757.6</ele>
        <time>2026-02-05T11:19:34</time>
      </trkpt>
      <trkpt lat="45.07768" lon="5.63473">
        <ele>757.6</ele>
        <time>2026-02-05T11:19:35</time>
      </trkpt>
      <trkpt lat="45.07767" lon="5.63473">
        <ele>757.6</ele>
        <time>2026-02-05T11:19:36</time>
      </trkpt>
      <trkpt lat="45.07767" lon="5.63473">
        <ele>757.6</ele>
        <time>2026-02-05T11:19:36</time>
      </trkpt>
      <trkpt lat="45.07767" lon="5.63473">
        <ele>757.6</ele>
        <time>2026-02-05T11:19:39</time>
      </trkpt>
      <trkpt lat="45.07767" lon="5.63473">
        <ele>757.6</ele>
        <time>2026-02-05T11:19:40</time>
      </trkpt>
      <trkpt lat="45.07767" lon="5.63473">
        <ele>757.6</ele>
        <time>2026-02-05T11:19:41</time>
      </trkpt>
      <trkpt lat="45.07767" lon="5.63474">
        <ele>758.9667</ele>
        <time>2026-02-05T11:19:42</time>
      </trkpt>
      <trkpt lat="45.07767" lon="5.63475">
        <ele>758.9667</ele>
        <time>2026-02-05T11:19:43</time>
      </trkpt>
      <trkpt lat="45.07767" lon="5.63477">
        <ele>758.9667</ele>
        <time>2026-02-05T11:19:45</time>
      </trkpt>
      <trkpt lat="45.07767" lon="5.63477">
        <ele>758.9667</ele>
        <time>2026-02-05T11:19:48</time>
      </trkpt>
      <trkpt lat="45.07767" lon="5.63477">
        <ele>758.9667</ele>
        <time>2026-02-05T11:19:48</time>
      </trkpt>
      <trkpt lat="45.07769" lon="5.63479">
        <ele>758.9667</ele>
        <time>2026-02-05T11:19:50</time>
      </trkpt>
      <trkpt lat="45.0777" lon="5.63479">
        <ele>759.86664</ele>
        <time>2026-02-05T11:19:52</time>
      </trkpt>
      <trkpt lat="45.07771" lon="5.63479">
        <ele>759.86664</ele>
        <time>2026-02-05T11:19:53</time>
      </trkpt>
      <trkpt lat="45.07771" lon="5.63479">
        <ele>759.86664</ele>
        <time>2026-02-05T11:19:54</time>
      </trkpt>
      <trkpt lat="45.07771" lon="5.63479">
        <ele>759.86664</ele>
        <time>2026-02-05T11:19:55</time>
      </trkpt>
      <trkpt lat="45.07772" lon="5.63479">
        <ele>759.86664</ele>
        <time>2026-02-05T11:19:57</time>
      </trkpt>
      <trkpt lat="45.07772" lon="5.63479">
        <ele>759.86664</ele>
        <time>2026-02-05T11:19:58</time>
      </trkpt>
      <trkpt lat="45.07774" lon="5.63481">
        <ele>760.8</ele>
        <time>2026-02-05T11:20:00</time>
      </trkpt>
      <trkpt lat="45.07776" lon="5.63481">
        <ele>760.8</ele>
        <time>2026-02-05T11:20:03</time>
      </trkpt>
      <trkpt lat="45.07777" lon="5.63482">
        <ele>760.8</ele>
        <time>2026-02-05T11:20:05</time>
      </trkpt>
      <trkpt lat="45.07777" lon="5.63482">
        <ele>760.8</ele>
        <time>2026-02-05T11:20:06</time>
      </trkpt>
      <trkpt lat="45.07778" lon="5.63482">
        <ele>760.8</ele>
        <time>2026-02-05T11:20:07</time>
      </trkpt>
      <trkpt lat="45.07778" lon="5.63482">
        <ele>760.8</ele>
        <time>2026-02-05T11:20:08</time>
      </trkpt>
      <trkpt lat="45.07778" lon="5.63482">
        <ele>761.7</ele>
        <time>2026-02-05T11:20:09</time>
      </trkpt>
      <trkpt lat="45.07779" lon="5.63482">
        <ele>761.7</ele>
        <time>2026-02-05T11:20:09</time>
      </trkpt>
      <trkpt lat="45.07781" lon="5.63483">
        <ele>761.7</ele>
        <time>2026-02-05T11:20:15</time>
      </trkpt>
      <trkpt lat="45.07781" lon="5.63483">
        <ele>762.6</ele>
        <time>2026-02-05T11:20:18</time>
      </trkpt>
      <trkpt lat="45.07781" lon="5.63483">
        <ele>762.6</ele>
        <time>2026-02-05T11:20:20</time>
      </trkpt>
      <trkpt lat="45.07781" lon="5.63483">
        <ele>762.6</ele>
        <time>2026-02-05T11:20:21</time>
      </trkpt>
      <trkpt lat="45.07782" lon="5.63483">
        <ele>762.6</ele>
        <time>2026-02-05T11:20:22</time>
      </trkpt>
      <trkpt lat="45.07784" lon="5.63484">
        <ele>763.86664</ele>
        <time>2026-02-05T11:20:25</time>
      </trkpt>
      <trkpt lat="45.07785" lon="5.63484">
        <ele>763.86664</ele>
        <time>2026-02-05T11:20:27</time>
      </trkpt>
      <trkpt lat="45.07785" lon="5.63483">
        <ele>763.86664</ele>
        <time>2026-02-05T11:20:29</time>
      </trkpt>
      <trkpt lat="45.07785" lon="5.63483">
        <ele>763.86664</ele>
        <time>2026-02-05T11:20:29</time>
      </trkpt>
      <trkpt lat="45.07786" lon="5.63483">
        <ele>763.86664</ele>
        <time>2026-02-05T11:20:31</time>
      </trkpt>
      <trkpt lat="45.07786" lon="5.63482">
        <ele>763.86664</ele>
        <time>2026-02-05T11:20:32</time>
      </trkpt>
      <trkpt lat="45.07786" lon="5.63482">
        <ele>763.86664</ele>
        <time>2026-02-05T11:20:33</time>
      </trkpt>
      <trkpt lat="45.07786" lon="5.63482">
        <ele>765.1</ele>
        <time>2026-02-05T11:20:33</time>
      </trkpt>
      <trkpt lat="45.07786" lon="5.63482">
        <ele>765.1</ele>
        <time>2026-02-05T11:20:35</time>
      </trkpt>
      <trkpt lat="45.07786" lon="5.63481">
        <ele>765.1</ele>
        <time>2026-02-05T11:20:36</time>
      </trkpt>
      <trkpt lat="45.07787" lon="5.63478">
        <ele>766.76666</ele>
        <time>2026-02-05T11:20:46</time>
      </trkpt>
      <trkpt lat="45.07787" lon="5.63478">
        <ele>766.76666</ele>
        <time>2026-02-05T11:20:48</time>
      </trkpt>
      <trkpt lat="45.07787" lon="5.63478">
        <ele>766.76666</ele>
        <time>2026-02-05T11:20:51</time>
      </trkpt>
      <trkpt lat="45.07787" lon="5.63478">
        <ele>767.6</ele>
        <time>2026-02-05T11:20:54</time>
      </trkpt>
      <trkpt lat="45.07787" lon="5.63478">
        <ele>767.6</ele>
        <time>2026-02-05T11:20:55</time>
      </trkpt>
      <trkpt lat="45.07787" lon="5.63478">
        <ele>767.6</ele>
        <time>2026-02-05T11:20:57</time>
      </trkpt>
      <trkpt lat="45.07787" lon="5.63478">
        <ele>767.6</ele>
        <time>2026-02-05T11:20:57</time>
      </trkpt>
      <trkpt lat="45.07787" lon="5.63478">
        <ele>767.6</ele>
        <time>2026-02-05T11:20:59</time>
      </trkpt>
      <trkpt lat="45.07787" lon="5.63478">
        <ele>767.6</ele>
        <time>2026-02-05T11:21:00</time>
      </trkpt>
      <trkpt lat="45.07787" lon="5.63478">
        <ele>767.6</ele>
        <time>2026-02-05T11:21:01</time>
      </trkpt>
      <trkpt lat="45.07787" lon="5.63478">
        <ele>767.6</ele>
        <time>2026-02-05T11:21:02</time>
      </trkpt>
      <trkpt lat="45.07787" lon="5.63477">
        <ele>767.6</ele>
        <time>2026-02-05T11:21:03</time>
      </trkpt>
      <trkpt lat="45.07786" lon="5.63476">
        <ele>767.6</ele>
        <time>2026-02-05T11:21:06</time>
      </trkpt>
      <trkpt lat="45.07786" lon="5.63475">
        <ele>767.6</ele>
        <time>2026-02-05T11:21:08</time>
      </trkpt>
      <trkpt lat="45.07787" lon="5.63464">
        <ele>768.4667</ele>
        <time>2026-02-05T11:21:09</time>
      </trkpt>
      <trkpt lat="45.07787" lon="5.63462">
        <ele>768.4667</ele>
        <time>2026-02-05T11:21:10</time>
      </trkpt>
      <trkpt lat="45.07787" lon="5.63461">
        <ele>768.4667</ele>
        <time>2026-02-05T11:21:12</time>
      </trkpt>
      <trkpt lat="45.07786" lon="5.63458">
        <ele>768.4667</ele>
        <time>2026-02-05T11:21:16</time>
      </trkpt>
      <trkpt lat="45.07786" lon="5.63457">
        <ele>771.0333</ele>
        <time>2026-02-05T11:21:18</time>
      </trkpt>
      <trkpt lat="45.07786" lon="5.63457">
        <ele>771.0333</ele>
        <time>2026-02-05T11:21:19</time>
      </trkpt>
      <trkpt lat="45.07786" lon="5.63457">
        <ele>771.0333</ele>
        <time>2026-02-05T11:21:21</time>
      </trkpt>
      <trkpt lat="45.07787" lon="5.63457">
        <ele>771.0333</ele>
        <time>2026-02-05T11:21:26</time>
      </trkpt>
      <trkpt lat="45.07787" lon="5.63458">
        <ele>771.0333</ele>
        <time>2026-02-05T11:21:27</time>
      </trkpt>
      <trkpt lat="45.07788" lon="5.63456">
        <ele>771.8</ele>
        <time>2026-02-05T11:21:31</time>
      </trkpt>
      <trkpt lat="45.07788" lon="5.63456">
        <ele>771.8</ele>
        <time>2026-02-05T11:21:32</time>
      </trkpt>
      <trkpt lat="45.07788" lon="5.63454">
        <ele>771.8</ele>
        <time>2026-02-05T11:21:34</time>
      </trkpt>
      <trkpt lat="45.07787" lon="5.63449">
        <ele>771.3</ele>
        <time>2026-02-05T11:21:42</time>
      </trkpt>
      <trkpt lat="45.07786" lon="5.63448">
        <ele>772.1</ele>
        <time>2026-02-05T11:21:43</time>
      </trkpt>
      <trkpt lat="45.07786" lon="5.63446">
        <ele>772.1</ele>
        <time>2026-02-05T11:21:46</time>
      </trkpt>
      <trkpt lat="45.07785" lon="5.63445">
        <ele>772.1</ele>
        <time>2026-02-05T11:21:47</time>
      </trkpt>
      <trkpt lat="45.07784" lon="5.63444">
        <ele>772.1</ele>
        <time>2026-02-05T11:21:48</time>
      </trkpt>
      <trkpt lat="45.07784" lon="5.63443">
        <ele>772.1</ele>
        <time>2026-02-05T11:21:50</time>
      </trkpt>
      <trkpt lat="45.07785" lon="5.63442">
        <ele>774.86664</ele>
        <time>2026-02-05T11:21:54</time>
      </trkpt>
      <trkpt lat="45.07785" lon="5.63441">
        <ele>774.86664</ele>
        <time>2026-02-05T11:21:55</time>
      </trkpt>
      <trkpt lat="45.07785" lon="5.63441">
        <ele>774.86664</ele>
        <time>2026-02-05T11:21:56</time>
      </trkpt>
      <trkpt lat="45.07785" lon="5.63441">
        <ele>774.86664</ele>
        <time>2026-02-05T11:21:57</time>
      </trkpt>
      <trkpt lat="45.07785" lon="5.63441">
        <ele>774.86664</ele>
        <time>2026-02-05T11:21:58</time>
      </trkpt>
      <trkpt lat="45.07785" lon="5.63441">
        <ele>774.86664</ele>
        <time>2026-02-05T11:21:59</time>
      </trkpt>
      <trkpt lat="45.07787" lon="5.63438">
        <ele>776</ele>
        <time>2026-02-05T11:22:05</time>
      </trkpt>
      <trkpt lat="45.07789" lon="5.63433">
        <ele>776</ele>
        <time>2026-02-05T11:22:13</time>
      </trkpt>
      <trkpt lat="45.07793" lon="5.63425">
        <ele>776.6</ele>
        <time>2026-02-05T11:22:27</time>
      </trkpt>
      <trkpt lat="45.07793" lon="5.63424">
        <ele>780.76666</ele>
        <time>2026-02-05T11:22:29</time>
      </trkpt>
      <trkpt lat="45.07793" lon="5.63424">
        <ele>780.76666</ele>
        <time>2026-02-05T11:22:30</time>
      </trkpt>
      <trkpt lat="45.07793" lon="5.63424">
        <ele>780.76666</ele>
        <time>2026-02-05T11:22:31</time>
      </trkpt>
      <trkpt lat="45.07794" lon="5.63424">
        <ele>780.76666</ele>
        <time>2026-02-05T11:22:32</time>
      </trkpt>
      <trkpt lat="45.07794" lon="5.63423">
        <ele>780.76666</ele>
        <time>2026-02-05T11:22:32</time>
      </trkpt>
      <trkpt lat="45.07794" lon="5.63423">
        <ele>780.76666</ele>
        <time>2026-02-05T11:22:34</time>
      </trkpt>
      <trkpt lat="45.07794" lon="5.63423">
        <ele>780.76666</ele>
        <time>2026-02-05T11:22:35</time>
      </trkpt>
      <trkpt lat="45.07794" lon="5.63423">
        <ele>780.76666</ele>
        <time>2026-02-05T11:22:36</time>
      </trkpt>
      <trkpt lat="45.07794" lon="5.63423">
        <ele>780.76666</ele>
        <time>2026-02-05T11:22:37</time>
      </trkpt>
      <trkpt lat="45.07794" lon="5.63423">
        <ele>780.9</ele>
        <time>2026-02-05T11:22:39</time>
      </trkpt>
      <trkpt lat="45.07795" lon="5.6342">
        <ele>780.9</ele>
        <time>2026-02-05T11:22:41</time>
      </trkpt>
      <trkpt lat="45.07796" lon="5.63419">
        <ele>780.9</ele>
        <time>2026-02-05T11:22:42</time>
      </trkpt>
      <trkpt lat="45.07796" lon="5.63418">
        <ele>780.9</ele>
        <time>2026-02-05T11:22:43</time>
      </trkpt>
      <trkpt lat="45.07797" lon="5.63417">
        <ele>780.9</ele>
        <time>2026-02-05T11:22:45</time>
      </trkpt>
      <trkpt lat="45.07797" lon="5.63417">
        <ele>780.9</ele>
        <time>2026-02-05T11:22:46</time>
      </trkpt>
      <trkpt lat="45.07797" lon="5.63416">
        <ele>780.9</ele>
        <time>2026-02-05T11:22:46</time>
      </trkpt>
      <trkpt lat="45.07798" lon="5.63416">
        <ele>780.7</ele>
        <time>2026-02-05T11:22:48</time>
      </trkpt>
      <trkpt lat="45.07798" lon="5.63416">
        <ele>780.7</ele>
        <time>2026-02-05T11:22:49</time>
      </trkpt>
      <trkpt lat="45.07798" lon="5.63416">
        <ele>780.7</ele>
        <time>2026-02-05T11:22:50</time>
      </trkpt>
      <trkpt lat="45.07798" lon="5.63416">
        <ele>781.5</ele>
        <time>2026-02-05T11:22:58</time>
      </trkpt>
      <trkpt lat="45.07798" lon="5.63416">
        <ele>781.5</ele>
        <time>2026-02-05T11:22:59</time>
      </trkpt>
      <trkpt lat="45.07798" lon="5.63416">
        <ele>781.5</ele>
        <time>2026-02-05T11:23:00</time>
      </trkpt>
      <trkpt lat="45.07798" lon="5.63416">
        <ele>781.5</ele>
        <time>2026-02-05T11:23:01</time>
      </trkpt>
      <trkpt lat="45.07802" lon="5.63414">
        <ele>781.9</ele>
        <time>2026-02-05T11:23:10</time>
      </trkpt>
      <trkpt lat="45.07803" lon="5.63414">
        <ele>781.9</ele>
        <time>2026-02-05T11:23:11</time>
      </trkpt>
      <trkpt lat="45.07804" lon="5.63414">
        <ele>781.9</ele>
        <time>2026-02-05T11:23:12</time>
      </trkpt>
      <trkpt lat="45.07805" lon="5.63413">
        <ele>785.2</ele>
        <time>2026-02-05T11:23:14</time>
      </trkpt>
      <trkpt lat="45.07805" lon="5.63413">
        <ele>785.2</ele>
        <time>2026-02-05T11:23:15</time>
      </trkpt>
      <trkpt lat="45.07806" lon="5.63412">
        <ele>785.2</ele>
        <time>2026-02-05T11:23:16</time>
      </trkpt>
      <trkpt lat="45.07808" lon="5.63409">
        <ele>785.2</ele>
        <time>2026-02-05T11:23:21</time>
      </trkpt>
      <trkpt lat="45.07808" lon="5.63408">
        <ele>787.4667</ele>
        <time>2026-02-05T11:23:25</time>
      </trkpt>
      <trkpt lat="45.07808" lon="5.63408">
        <ele>787.4667</ele>
        <time>2026-02-05T11:23:28</time>
      </trkpt>
      <trkpt lat="45.07808" lon="5.63408">
        <ele>787.4667</ele>
        <time>2026-02-05T11:23:29</time>
      </trkpt>
      <trkpt lat="45.07808" lon="5.63408">
        <ele>787.4667</ele>
        <time>2026-02-05T11:23:30</time>
      </trkpt>
      <trkpt lat="45.07808" lon="5.63407">
        <ele>787.9</ele>
        <time>2026-02-05T11:23:34</time>
      </trkpt>
      <trkpt lat="45.07808" lon="5.63407">
        <ele>787.9</ele>
        <time>2026-02-05T11:23:35</time>
      </trkpt>
      <trkpt lat="45.07808" lon="5.63407">
        <ele>787.9</ele>
        <time>2026-02-05T11:23:35</time>
      </trkpt>
      <trkpt lat="45.07809" lon="5.63406">
        <ele>787.9</ele>
        <time>2026-02-05T11:23:38</time>
      </trkpt>
      <trkpt lat="45.07809" lon="5.63406">
        <ele>790</ele>
        <time>2026-02-05T11:23:40</time>
      </trkpt>
      <trkpt lat="45.07809" lon="5.63406">
        <ele>790</ele>
        <time>2026-02-05T11:23:41</time>
      </trkpt>
      <trkpt lat="45.07808" lon="5.63406">
        <ele>790</ele>
        <time>2026-02-05T11:23:42</time>
      </trkpt>
      <trkpt lat="45.07808" lon="5.63406">
        <ele>790</ele>
        <time>2026-02-05T11:23:42</time>
      </trkpt>
      <trkpt lat="45.07808" lon="5.63406">
        <ele>790</ele>
        <time>2026-02-05T11:23:44</time>
      </trkpt>
      <trkpt lat="45.07808" lon="5.63406">
        <ele>790</ele>
        <time>2026-02-05T11:23:45</time>
      </trkpt>
      <trkpt lat="45.07808" lon="5.63406">
        <ele>794.4</ele>
        <time>2026-02-05T11:23:47</time>
      </trkpt>
      <trkpt lat="45.07808" lon="5.63406">
        <ele>794.4</ele>
        <time>2026-02-05T11:23:48</time>
      </trkpt>
      <trkpt lat="45.07808" lon="5.63406">
        <ele>794.4</ele>
        <time>2026-02-05T11:23:49</time>
      </trkpt>
      <trkpt lat="45.07809" lon="5.63405">
        <ele>794.4</ele>
        <time>2026-02-05T11:23:51</time>
      </trkpt>
      <trkpt lat="45.07809" lon="5.63405">
        <ele>794.4</ele>
        <time>2026-02-05T11:23:54</time>
      </trkpt>
      <trkpt lat="45.07809" lon="5.63398">
        <ele>796.06665</ele>
        <time>2026-02-05T11:23:58</time>
      </trkpt>
      <trkpt lat="45.0781" lon="5.63393">
        <ele>796.06665</ele>
        <time>2026-02-05T11:24:01</time>
      </trkpt>
      <trkpt lat="45.07811" lon="5.63393">
        <ele>796.06665</ele>
        <time>2026-02-05T11:24:02</time>
      </trkpt>
      <trkpt lat="45.07811" lon="5.63392">
        <ele>796.06665</ele>
        <time>2026-02-05T11:24:03</time>
      </trkpt>
      <trkpt lat="45.07811" lon="5.63392">
        <ele>796.06665</ele>
        <time>2026-02-05T11:24:04</time>
      </trkpt>
      <trkpt lat="45.07811" lon="5.63392">
        <ele>796.9</ele>
        <time>2026-02-05T11:24:05</time>
      </trkpt>
      <trkpt lat="45.07811" lon="5.63392">
        <ele>796.9</ele>
        <time>2026-02-05T11:24:07</time>
      </trkpt>
      <trkpt lat="45.07812" lon="5.63392">
        <ele>796.9</ele>
        <time>2026-02-05T11:24:16</time>
      </trkpt>
      <trkpt lat="45.0782" lon="5.63391">
        <ele>796.9</ele>
        <time>2026-02-05T11:24:17</time>
      </trkpt>
      <trkpt lat="45.07821" lon="5.6339">
        <ele>796.9</ele>
        <time>2026-02-05T11:24:18</time>
      </trkpt>
      <trkpt lat="45.07821" lon="5.63389">
        <ele>796.9</ele>
        <time>2026-02-05T11:24:20</time>
      </trkpt>
      <trkpt lat="45.07821" lon="5.63388">
        <ele>796.9</ele>
        <time>2026-02-05T11:24:21</time>
      </trkpt>
      <trkpt lat="45.07821" lon="5.63387">
        <ele>796.9</ele>
        <time>2026-02-05T11:24:22</time>
      </trkpt>
      <trkpt lat="45.07822" lon="5.63385">
        <ele>796.9</ele>
        <time>2026-02-05T11:24:23</time>
      </trkpt>
      <trkpt lat="45.07822" lon="5.63384">
        <ele>796.9</ele>
        <time>2026-02-05T11:24:24</time>
      </trkpt>
      <trkpt lat="45.07823" lon="5.63384">
        <ele>796.9</ele>
        <time>2026-02-05T11:24:25</time>
      </trkpt>
      <trkpt lat="45.07823" lon="5.63384">
        <ele>796.9</ele>
        <time>2026-02-05T11:24:26</time>
      </trkpt>
      <trkpt lat="45.07823" lon="5.63384">
        <ele>796.9</ele>
        <time>2026-02-05T11:24:27</time>
      </trkpt>
      <trkpt lat="45.07822" lon="5.63385">
        <ele>796.9</ele>
        <time>2026-02-05T11:24:29</time>
      </trkpt>
      <trkpt lat="45.07822" lon="5.63385">
        <ele>796.9</ele>
        <time>2026-02-05T11:24:30</time>
      </trkpt>
      <trkpt lat="45.07822" lon="5.63386">
        <ele>799.6</ele>
        <time>2026-02-05T11:24:31</time>
      </trkpt>
      <trkpt lat="45.07822" lon="5.63386">
        <ele>799.6</ele>
        <time>2026-02-05T11:24:32</time>
      </trkpt>
      <trkpt lat="45.07822" lon="5.63386">
        <ele>799.6</ele>
        <time>2026-02-05T11:24:33</time>
      </trkpt>
      <trkpt lat="45.07822" lon="5.63387">
        <ele>799.6</ele>
        <time>2026-02-05T11:24:33</time>
      </trkpt>
      <trkpt lat="45.07823" lon="5.63388">
        <ele>799.6</ele>
        <time>2026-02-05T11:24:35</time>
      </trkpt>
      <trkpt lat="45.07823" lon="5.63388">
        <ele>799.6</ele>
        <time>2026-02-05T11:24:35</time>
      </trkpt>
      <trkpt lat="45.07823" lon="5.6339">
        <ele>799.6</ele>
        <time>2026-02-05T11:24:38</time>
      </trkpt>
      <trkpt lat="45.07823" lon="5.63391">
        <ele>800</ele>
        <time>2026-02-05T11:24:40</time>
      </trkpt>
      <trkpt lat="45.07823" lon="5.63391">
        <ele>800</ele>
        <time>2026-02-05T11:24:41</time>
      </trkpt>
      <trkpt lat="45.07823" lon="5.63392">
        <ele>800</ele>
        <time>2026-02-05T11:24:43</time>
      </trkpt>
      <trkpt lat="45.07823" lon="5.63392">
        <ele>800</ele>
        <time>2026-02-05T11:24:44</time>
      </trkpt>
      <trkpt lat="45.07822" lon="5.63393">
        <ele>800</ele>
        <time>2026-02-05T11:24:46</time>
      </trkpt>
      <trkpt lat="45.07822" lon="5.63393">
        <ele>800.2</ele>
        <time>2026-02-05T11:24:48</time>
      </trkpt>
      <trkpt lat="45.07822" lon="5.63393">
        <ele>800.2</ele>
        <time>2026-02-05T11:24:49</time>
      </trkpt>
      <trkpt lat="45.07822" lon="5.63394">
        <ele>800.2</ele>
        <time>2026-02-05T11:24:51</time>
      </trkpt>
      <trkpt lat="45.07822" lon="5.63396">
        <ele>800.2</ele>
        <time>2026-02-05T11:24:54</time>
      </trkpt>
      <trkpt lat="45.07823" lon="5.63397">
        <ele>801.3</ele>
        <time>2026-02-05T11:24:55</time>
      </trkpt>
      <trkpt lat="45.07824" lon="5.63397">
        <ele>801.3</ele>
        <time>2026-02-05T11:24:56</time>
      </trkpt>
      <trkpt lat="45.07824" lon="5.63398">
        <ele>801.3</ele>
        <time>2026-02-05T11:24:57</time>
      </trkpt>
      <trkpt lat="45.07824" lon="5.63398">
        <ele>801.3</ele>
        <time>2026-02-05T11:24:58</time>
      </trkpt>
      <trkpt lat="45.07824" lon="5.63398">
        <ele>801.3</ele>
        <time>2026-02-05T11:24:59</time>
      </trkpt>
      <trkpt lat="45.07823" lon="5.63398">
        <ele>801.3</ele>
        <time>2026-02-05T11:25:03</time>
      </trkpt>
      <trkpt lat="45.07823" lon="5.63398">
        <ele>803.4</ele>
        <time>2026-02-05T11:25:04</time>
      </trkpt>
      <trkpt lat="45.07823" lon="5.63398">
        <ele>803.4</ele>
        <time>2026-02-05T11:25:04</time>
      </trkpt>
      <trkpt lat="45.07823" lon="5.63398">
        <ele>803.4</ele>
        <time>2026-02-05T11:25:06</time>
      </trkpt>
      <trkpt lat="45.07823" lon="5.63398">
        <ele>803.4</ele>
        <time>2026-02-05T11:25:07</time>
      </trkpt>
      <trkpt lat="45.07823" lon="5.63398">
        <ele>803.4</ele>
        <time>2026-02-05T11:25:08</time>
      </trkpt>
      <trkpt lat="45.07824" lon="5.63398">
        <ele>803.4</ele>
        <time>2026-02-05T11:25:10</time>
      </trkpt>
      <trkpt lat="45.07824" lon="5.63398">
        <ele>803.4</ele>
        <time>2026-02-05T11:25:11</time>
      </trkpt>
      <trkpt lat="45.07825" lon="5.63399">
        <ele>804.6</ele>
        <time>2026-02-05T11:25:14</time>
      </trkpt>
      <trkpt lat="45.07826" lon="5.634">
        <ele>804.6</ele>
        <time>2026-02-05T11:25:16</time>
      </trkpt>
      <trkpt lat="45.07826" lon="5.63401">
        <ele>804.6</ele>
        <time>2026-02-05T11:25:16</time>
      </trkpt>
      <trkpt lat="45.07826" lon="5.63402">
        <ele>803</ele>
        <time>2026-02-05T11:25:20</time>
      </trkpt>
      <trkpt lat="45.07826" lon="5.63402">
        <ele>803</ele>
        <time>2026-02-05T11:25:20</time>
      </trkpt>
      <trkpt lat="45.07826" lon="5.63402">
        <ele>803</ele>
        <time>2026-02-05T11:25:22</time>
      </trkpt>
      <trkpt lat="45.07826" lon="5.63403">
        <ele>803</ele>
        <time>2026-02-05T11:25:24</time>
      </trkpt>
      <trkpt lat="45.07826" lon="5.63403">
        <ele>803</ele>
        <time>2026-02-05T11:25:25</time>
      </trkpt>
      <trkpt lat="45.07826" lon="5.63403">
        <ele>803</ele>
        <time>2026-02-05T11:25:26</time>
      </trkpt>
      <trkpt lat="45.07826" lon="5.63404">
        <ele>803</ele>
        <time>2026-02-05T11:25:27</time>
      </trkpt>
      <trkpt lat="45.07826" lon="5.63404">
        <ele>803.8</ele>
        <time>2026-02-05T11:25:28</time>
      </trkpt>
      <trkpt lat="45.07825" lon="5.63405">
        <ele>803.8</ele>
        <time>2026-02-05T11:25:29</time>
      </trkpt>
      <trkpt lat="45.07825" lon="5.63406">
        <ele>803.8</ele>
        <time>2026-02-05T11:25:30</time>
      </trkpt>
      <trkpt lat="45.07825" lon="5.63407">
        <ele>803.8</ele>
        <time>2026-02-05T11:25:31</time>
      </trkpt>
      <trkpt lat="45.07824" lon="5.63407">
        <ele>803.8</ele>
        <time>2026-02-05T11:25:32</time>
      </trkpt>
      <trkpt lat="45.07824" lon="5.63407">
        <ele>803.8</ele>
        <time>2026-02-05T11:25:33</time>
      </trkpt>
      <trkpt lat="45.07824" lon="5.63407">
        <ele>803.8</ele>
        <time>2026-02-05T11:25:34</time>
      </trkpt>
      <trkpt lat="45.07822" lon="5.63408">
        <ele>803.8</ele>
        <time>2026-02-05T11:25:37</time>
      </trkpt>
      <trkpt lat="45.07822" lon="5.63408">
        <ele>807.2</ele>
        <time>2026-02-05T11:25:38</time>
      </trkpt>
      <trkpt lat="45.07822" lon="5.63407">
        <ele>807.2</ele>
        <time>2026-02-05T11:25:39</time>
      </trkpt>
      <trkpt lat="45.07821" lon="5.63407">
        <ele>807.2</ele>
        <time>2026-02-05T11:25:39</time>
      </trkpt>
      <trkpt lat="45.07821" lon="5.63407">
        <ele>807.2</ele>
        <time>2026-02-05T11:25:40</time>
      </trkpt>
      <trkpt lat="45.07821" lon="5.63406">
        <ele>807.2</ele>
        <time>2026-02-05T11:25:41</time>
      </trkpt>
      <trkpt lat="45.07821" lon="5.63407">
        <ele>807.2</ele>
        <time>2026-02-05T11:25:43</time>
      </trkpt>
      <trkpt lat="45.0782" lon="5.6341">
        <ele>810.5</ele>
        <time>2026-02-05T11:25:49</time>
      </trkpt>
      <trkpt lat="45.0782" lon="5.6341">
        <ele>810.5</ele>
        <time>2026-02-05T11:25:51</time>
      </trkpt>
      <trkpt lat="45.0782" lon="5.6341">
        <ele>810.5</ele>
        <time>2026-02-05T11:25:52</time>
      </trkpt>
      <trkpt lat="45.0782" lon="5.63411">
        <ele>810.5</ele>
        <time>2026-02-05T11:25:53</time>
      </trkpt>
      <trkpt lat="45.0782" lon="5.63411">
        <ele>810.5</ele>
        <time>2026-02-05T11:25:53</time>
      </trkpt>
      <trkpt lat="45.0782" lon="5.63412">
        <ele>810.5</ele>
        <time>2026-02-05T11:25:54</time>
      </trkpt>
      <trkpt lat="45.0782" lon="5.63412">
        <ele>811.8</ele>
        <time>2026-02-05T11:25:55</time>
      </trkpt>
      <trkpt lat="45.0782" lon="5.63412">
        <ele>811.8</ele>
        <time>2026-02-05T11:25:56</time>
      </trkpt>
      <trkpt lat="45.0782" lon="5.63413">
        <ele>811.8</ele>
        <time>2026-02-05T11:25:57</time>
      </trkpt>
      <trkpt lat="45.0782" lon="5.63413">
        <ele>811.8</ele>
        <time>2026-02-05T11:25:58</time>
      </trkpt>
      <trkpt lat="45.0782" lon="5.63413">
        <ele>811.8</ele>
        <time>2026-02-05T11:26:00</time>
      </trkpt>
      <trkpt lat="45.07821" lon="5.63417">
        <ele>811.8</ele>
        <time>2026-02-05T11:26:03</time>
      </trkpt>
      <trkpt lat="45.07821" lon="5.6342">
        <ele>811.8</ele>
        <time>2026-02-05T11:26:04</time>
      </trkpt>
      <trkpt lat="45.07823" lon="5.63424">
        <ele>811.8</ele>
        <time>2026-02-05T11:26:08</time>
      </trkpt>
      <trkpt lat="45.07824" lon="5.63424">
        <ele>811.8</ele>
        <time>2026-02-05T11:26:09</time>
      </trkpt>
      <trkpt lat="45.07825" lon="5.63428">
        <ele>812</ele>
        <time>2026-02-05T11:26:13</time>
      </trkpt>
      <trkpt lat="45.07826" lon="5.63429">
        <ele>812</ele>
        <time>2026-02-05T11:26:15</time>
      </trkpt>
      <trkpt lat="45.07827" lon="5.6343">
        <ele>812</ele>
        <time>2026-02-05T11:26:16</time>
      </trkpt>
      <trkpt lat="45.07827" lon="5.6343">
        <ele>812</ele>
        <time>2026-02-05T11:26:16</time>
      </trkpt>
      <trkpt lat="45.07827" lon="5.6343">
        <ele>812</ele>
        <time>2026-02-05T11:26:17</time>
      </trkpt>
      <trkpt lat="45.07828" lon="5.6343">
        <ele>812</ele>
        <time>2026-02-05T11:26:19</time>
      </trkpt>
      <trkpt lat="45.07828" lon="5.6343">
        <ele>812</ele>
        <time>2026-02-05T11:26:20</time>
      </trkpt>
      <trkpt lat="45.07828" lon="5.6343">
        <ele>811.7</ele>
        <time>2026-02-05T11:26:21</time>
      </trkpt>
      <trkpt lat="45.07829" lon="5.63429">
        <ele>811.7</ele>
        <time>2026-02-05T11:26:25</time>
      </trkpt>
      <trkpt lat="45.07831" lon="5.63429">
        <ele>811.7</ele>
        <time>2026-02-05T11:26:26</time>
      </trkpt>
      <trkpt lat="45.07835" lon="5.63429">
        <ele>812</ele>
        <time>2026-02-05T11:26:32</time>
      </trkpt>
      <trkpt lat="45.07835" lon="5.63429">
        <ele>812</ele>
        <time>2026-02-05T11:26:33</time>
      </trkpt>
      <trkpt lat="45.07837" lon="5.6343">
        <ele>812</ele>
        <time>2026-02-05T11:26:37</time>
      </trkpt>
      <trkpt lat="45.07839" lon="5.63432">
        <ele>812.6</ele>
        <time>2026-02-05T11:26:41</time>
      </trkpt>
      <trkpt lat="45.0784" lon="5.63432">
        <ele>812.6</ele>
        <time>2026-02-05T11:26:42</time>
      </trkpt>
      <trkpt lat="45.07839" lon="5.63432">
        <ele>812.6</ele>
        <time>2026-02-05T11:26:43</time>
      </trkpt>
      <trkpt lat="45.07839" lon="5.63432">
        <ele>812.6</ele>
        <time>2026-02-05T11:26:44</time>
      </trkpt>
      <trkpt lat="45.07839" lon="5.63432">
        <ele>812.6</ele>
        <time>2026-02-05T11:26:45</time>
      </trkpt>
      <trkpt lat="45.0784" lon="5.63432">
        <ele>812.6</ele>
        <time>2026-02-05T11:26:46</time>
      </trkpt>
      <trkpt lat="45.07842" lon="5.63433">
        <ele>814.3</ele>
        <time>2026-02-05T11:26:51</time>
      </trkpt>
      <trkpt lat="45.07843" lon="5.63434">
        <ele>814.3</ele>
        <time>2026-02-05T11:26:53</time>
      </trkpt>
      <trkpt lat="45.07846" lon="5.63435">
        <ele>815.2</ele>
        <time>2026-02-05T11:26:58</time>
      </trkpt>
      <trkpt lat="45.07848" lon="5.63437">
        <ele>814.3</ele>
        <time>2026-02-05T11:27:03</time>
      </trkpt>
      <trkpt lat="45.0785" lon="5.63437">
        <ele>814.3</ele>
        <time>2026-02-05T11:27:05</time>
      </trkpt>
      <trkpt lat="45.07856" lon="5.63438">
        <ele>814.1</ele>
        <time>2026-02-05T11:27:13</time>
      </trkpt>
      <trkpt lat="45.07857" lon="5.63438">
        <ele>814.1</ele>
        <time>2026-02-05T11:27:15</time>
      </trkpt>
      <trkpt lat="45.07859" lon="5.63438">
        <ele>814.1</ele>
        <time>2026-02-05T11:27:17</time>
      </trkpt>
      <trkpt lat="45.07859" lon="5.63438">
        <ele>814.1</ele>
        <time>2026-02-05T11:27:18</time>
      </trkpt>
      <trkpt lat="45.07859" lon="5.63438">
        <ele>814.1</ele>
        <time>2026-02-05T11:27:18</time>
      </trkpt>
      <trkpt lat="45.07859" lon="5.63437">
        <ele>814.26666</ele>
        <time>2026-02-05T11:27:20</time>
      </trkpt>
      <trkpt lat="45.07859" lon="5.63438">
        <ele>814.26666</ele>
        <time>2026-02-05T11:27:21</time>
      </trkpt>
      <trkpt lat="45.0786" lon="5.63439">
        <ele>814.26666</ele>
        <time>2026-02-05T11:27:22</time>
      </trkpt>
      <trkpt lat="45.0786" lon="5.63439">
        <ele>814.26666</ele>
        <time>2026-02-05T11:27:23</time>
      </trkpt>
      <trkpt lat="45.07861" lon="5.63439">
        <ele>814.26666</ele>
        <time>2026-02-05T11:27:25</time>
      </trkpt>
      <trkpt lat="45.07865" lon="5.6344">
        <ele>815.1</ele>
        <time>2026-02-05T11:27:34</time>
      </trkpt>
      <trkpt lat="45.07866" lon="5.6344">
        <ele>815.1</ele>
        <time>2026-02-05T11:27:35</time>
      </trkpt>
      <trkpt lat="45.07866" lon="5.6344">
        <ele>815.1</ele>
        <time>2026-02-05T11:27:36</time>
      </trkpt>
      <trkpt lat="45.07866" lon="5.6344">
        <ele>814</ele>
        <time>2026-02-05T11:27:37</time>
      </trkpt>
      <trkpt lat="45.07867" lon="5.6344">
        <ele>814</ele>
        <time>2026-02-05T11:27:39</time>
      </trkpt>
      <trkpt lat="45.07867" lon="5.6344">
        <ele>814</ele>
        <time>2026-02-05T11:27:41</time>
      </trkpt>
      <trkpt lat="45.07867" lon="5.6344">
        <ele>814</ele>
        <time>2026-02-05T11:27:42</time>
      </trkpt>
      <trkpt lat="45.07867" lon="5.63439">
        <ele>814</ele>
        <time>2026-02-05T11:27:43</time>
      </trkpt>
      <trkpt lat="45.07867" lon="5.6344">
        <ele>814</ele>
        <time>2026-02-05T11:27:44</time>
      </trkpt>
      <trkpt lat="45.07867" lon="5.6344">
        <ele>814.56665</ele>
        <time>2026-02-05T11:27:45</time>
      </trkpt>
      <trkpt lat="45.07867" lon="5.6344">
        <ele>814.56665</ele>
        <time>2026-02-05T11:27:45</time>
      </trkpt>
      <trkpt lat="45.07868" lon="5.6344">
        <ele>814.56665</ele>
        <time>2026-02-05T11:27:46</time>
      </trkpt>
      <trkpt lat="45.07868" lon="5.6344">
        <ele>814.56665</ele>
        <time>2026-02-05T11:27:47</time>
      </trkpt>
      <trkpt lat="45.07869" lon="5.63442">
        <ele>814.56665</ele>
        <time>2026-02-05T11:27:49</time>
      </trkpt>
      <trkpt lat="45.0787" lon="5.63442">
        <ele>814.56665</ele>
        <time>2026-02-05T11:27:50</time>
      </trkpt>
      <trkpt lat="45.0787" lon="5.63443">
        <ele>814.56665</ele>
        <time>2026-02-05T11:27:51</time>
      </trkpt>
      <trkpt lat="45.07871" lon="5.63445">
        <ele>814.9</ele>
        <time>2026-02-05T11:27:52</time>
      </trkpt>
      <trkpt lat="45.07871" lon="5.63446">
        <ele>814.9</ele>
        <time>2026-02-05T11:27:53</time>
      </trkpt>
      <trkpt lat="45.07872" lon="5.63448">
        <ele>814.9</ele>
        <time>2026-02-05T11:27:56</time>
      </trkpt>
      <trkpt lat="45.07872" lon="5.63448">
        <ele>814.9</ele>
        <time>2026-02-05T11:27:57</time>
      </trkpt>
      <trkpt lat="45.07872" lon="5.63449">
        <ele>814.9</ele>
        <time>2026-02-05T11:27:57</time>
      </trkpt>
      <trkpt lat="45.07872" lon="5.63449">
        <ele>814.9</ele>
        <time>2026-02-05T11:27:59</time>
      </trkpt>
      <trkpt lat="45.07873" lon="5.63451">
        <ele>816.8</ele>
        <time>2026-02-05T11:28:01</time>
      </trkpt>
      <trkpt lat="45.07873" lon="5.63452">
        <ele>816.8</ele>
        <time>2026-02-05T11:28:02</time>
      </trkpt>
      <trkpt lat="45.07873" lon="5.63453">
        <ele>816.8</ele>
        <time>2026-02-05T11:28:04</time>
      </trkpt>
      <trkpt lat="45.07874" lon="5.63454">
        <ele>816.8</ele>
        <time>2026-02-05T11:28:05</time>
      </trkpt>
      <trkpt lat="45.07874" lon="5.63456">
        <ele>816.8</ele>
        <time>2026-02-05T11:28:07</time>
      </trkpt>
      <trkpt lat="45.07874" lon="5.63456">
        <ele>820.1</ele>
        <time>2026-02-05T11:28:08</time>
      </trkpt>
      <trkpt lat="45.07874" lon="5.63457">
        <ele>820.1</ele>
        <time>2026-02-05T11:28:09</time>
      </trkpt>
      <trkpt lat="45.07874" lon="5.63457">
        <ele>820.1</ele>
        <time>2026-02-05T11:28:11</time>
      </trkpt>
      <trkpt lat="45.07872" lon="5.63455">
        <ele>821.6</ele>
        <time>2026-02-05T11:28:19</time>
      </trkpt>
      <trkpt lat="45.07872" lon="5.63455">
        <ele>821.6</ele>
        <time>2026-02-05T11:28:19</time>
      </trkpt>
      <trkpt lat="45.07872" lon="5.63455">
        <ele>821.6</ele>
        <time>2026-02-05T11:28:22</time>
      </trkpt>
      <trkpt lat="45.07872" lon="5.63455">
        <ele>821.6</ele>
        <time>2026-02-05T11:28:23</time>
      </trkpt>
      <trkpt lat="45.07872" lon="5.63456">
        <ele>821.6</ele>
        <time>2026-02-05T11:28:24</time>
      </trkpt>
      <trkpt lat="45.07872" lon="5.63456">
        <ele>821.6</ele>
        <time>2026-02-05T11:28:25</time>
      </trkpt>
      <trkpt lat="45.07872" lon="5.63456">
        <ele>821.6</ele>
        <time>2026-02-05T11:28:26</time>
      </trkpt>
      <trkpt lat="45.07872" lon="5.63456">
        <ele>821.6</ele>
        <time>2026-02-05T11:28:26</time>
      </trkpt>
      <trkpt lat="45.07873" lon="5.63456">
        <ele>821.6</ele>
        <time>2026-02-05T11:28:28</time>
      </trkpt>
      <trkpt lat="45.07874" lon="5.63458">
        <ele>821.6</ele>
        <time>2026-02-05T11:28:31</time>
      </trkpt>
      <trkpt lat="45.07875" lon="5.6346">
        <ele>821.6</ele>
        <time>2026-02-05T11:28:34</time>
      </trkpt>
      <trkpt lat="45.07876" lon="5.63462">
        <ele>821.6</ele>
        <time>2026-02-05T11:28:38</time>
      </trkpt>
      <trkpt lat="45.07877" lon="5.63463">
        <ele>821.6</ele>
        <time>2026-02-05T11:28:39</time>
      </trkpt>
      <trkpt lat="45.07877" lon="5.63463">
        <ele>821.6</ele>
        <time>2026-02-05T11:28:40</time>
      </trkpt>
      <trkpt lat="45.07877" lon="5.63463">
        <ele>821.2</ele>
        <time>2026-02-05T11:28:44</time>
      </trkpt>
      <trkpt lat="45.07877" lon="5.63463">
        <ele>821.2</ele>
        <time>2026-02-05T11:28:45</time>
      </trkpt>
      <trkpt lat="45.07877" lon="5.63463">
        <ele>821.2</ele>
        <time>2026-02-05T11:28:46</time>
      </trkpt>
      <trkpt lat="45.07877" lon="5.63463">
        <ele>821.2</ele>
        <time>2026-02-05T11:28:46</time>
      </trkpt>
      <trkpt lat="45.07877" lon="5.63464">
        <ele>821.2</ele>
        <time>2026-02-05T11:28:47</time>
      </trkpt>
      <trkpt lat="45.07878" lon="5.63465">
        <ele>821.2</ele>
        <time>2026-02-05T11:28:48</time>
      </trkpt>
      <trkpt lat="45.07879" lon="5.63471">
        <ele>821.2</ele>
        <time>2026-02-05T11:28:51</time>
      </trkpt>
      <trkpt lat="45.07879" lon="5.63472">
        <ele>821.2</ele>
        <time>2026-02-05T11:28:52</time>
      </trkpt>
      <trkpt lat="45.07879" lon="5.63473">
        <ele>821.8</ele>
        <time>2026-02-05T11:28:54</time>
      </trkpt>
      <trkpt lat="45.07879" lon="5.63474">
        <ele>821.8</ele>
        <time>2026-02-05T11:28:55</time>
      </trkpt>
      <trkpt lat="45.07879" lon="5.63474">
        <ele>821.8</ele>
        <time>2026-02-05T11:28:56</time>
      </trkpt>
      <trkpt lat="45.07879" lon="5.63474">
        <ele>821.8</ele>
        <time>2026-02-05T11:28:56</time>
      </trkpt>
      <trkpt lat="45.07879" lon="5.63474">
        <ele>821.8</ele>
        <time>2026-02-05T11:28:57</time>
      </trkpt>
      <trkpt lat="45.07881" lon="5.63474">
        <ele>821.8</ele>
        <time>2026-02-05T11:29:00</time>
      </trkpt>
      <trkpt lat="45.07881" lon="5.63474">
        <ele>821.8</ele>
        <time>2026-02-05T11:29:01</time>
      </trkpt>
      <trkpt lat="45.07881" lon="5.63474">
        <ele>824.9</ele>
        <time>2026-02-05T11:29:02</time>
      </trkpt>
      <trkpt lat="45.07881" lon="5.63474">
        <ele>824.9</ele>
        <time>2026-02-05T11:29:03</time>
      </trkpt>
      <trkpt lat="45.07881" lon="5.63473">
        <ele>824.9</ele>
        <time>2026-02-05T11:29:04</time>
      </trkpt>
      <trkpt lat="45.07882" lon="5.63473">
        <ele>824.9</ele>
        <time>2026-02-05T11:29:05</time>
      </trkpt>
      <trkpt lat="45.07882" lon="5.63473">
        <ele>824.9</ele>
        <time>2026-02-05T11:29:06</time>
      </trkpt>
      <trkpt lat="45.07882" lon="5.63473">
        <ele>824.9</ele>
        <time>2026-02-05T11:29:07</time>
      </trkpt>
      <trkpt lat="45.07883" lon="5.63471">
        <ele>824.9</ele>
        <time>2026-02-05T11:29:09</time>
      </trkpt>
      <trkpt lat="45.07883" lon="5.6347">
        <ele>824.9</ele>
        <time>2026-02-05T11:29:11</time>
      </trkpt>
      <trkpt lat="45.07884" lon="5.63469">
        <ele>825.9</ele>
        <time>2026-02-05T11:29:13</time>
      </trkpt>
      <trkpt lat="45.07884" lon="5.63469">
        <ele>825.9</ele>
        <time>2026-02-05T11:29:13</time>
      </trkpt>
      <trkpt lat="45.07884" lon="5.63469">
        <ele>825.9</ele>
        <time>2026-02-05T11:29:15</time>
      </trkpt>
      <trkpt lat="45.07884" lon="5.63469">
        <ele>825.9</ele>
        <time>2026-02-05T11:29:16</time>
      </trkpt>
      <trkpt lat="45.07884" lon="5.63469">
        <ele>825.9</ele>
        <time>2026-02-05T11:29:17</time>
      </trkpt>
      <trkpt lat="45.07884" lon="5.63469">
        <ele>825.9</ele>
        <time>2026-02-05T11:29:18</time>
      </trkpt>
      <trkpt lat="45.07884" lon="5.63469">
        <ele>825.9</ele>
        <time>2026-02-05T11:29:19</time>
      </trkpt>
      <trkpt lat="45.07885" lon="5.63468">
        <ele>825.9</ele>
        <time>2026-02-05T11:29:20</time>
      </trkpt>
      <trkpt lat="45.07885" lon="5.63467">
        <ele>828.4</ele>
        <time>2026-02-05T11:29:21</time>
      </trkpt>
      <trkpt lat="45.07885" lon="5.63466">
        <ele>828.4</ele>
        <time>2026-02-05T11:29:21</time>
      </trkpt>
      <trkpt lat="45.07885" lon="5.63465">
        <ele>828.4</ele>
        <time>2026-02-05T11:29:22</time>
      </trkpt>
      <trkpt lat="45.07886" lon="5.63465">
        <ele>828.4</ele>
        <time>2026-02-05T11:29:23</time>
      </trkpt>
      <trkpt lat="45.07886" lon="5.63465">
        <ele>828.4</ele>
        <time>2026-02-05T11:29:24</time>
      </trkpt>
      <trkpt lat="45.07886" lon="5.63464">
        <ele>828.4</ele>
        <time>2026-02-05T11:29:25</time>
      </trkpt>
      <trkpt lat="45.07886" lon="5.63464">
        <ele>828.4</ele>
        <time>2026-02-05T11:29:25</time>
      </trkpt>
      <trkpt lat="45.07886" lon="5.63464">
        <ele>828.4</ele>
        <time>2026-02-05T11:29:26</time>
      </trkpt>
      <trkpt lat="45.07887" lon="5.63463">
        <ele>828.4</ele>
        <time>2026-02-05T11:29:27</time>
      </trkpt>
      <trkpt lat="45.07887" lon="5.63461">
        <ele>830.4</ele>
        <time>2026-02-05T11:29:30</time>
      </trkpt>
      <trkpt lat="45.07888" lon="5.6346">
        <ele>830.4</ele>
        <time>2026-02-05T11:29:31</time>
      </trkpt>
      <trkpt lat="45.07888" lon="5.63459">
        <ele>830.4</ele>
        <time>2026-02-05T11:29:32</time>
      </trkpt>
      <trkpt lat="45.07889" lon="5.63459">
        <ele>830.4</ele>
        <time>2026-02-05T11:29:34</time>
      </trkpt>
      <trkpt lat="45.07889" lon="5.63459">
        <ele>830.4</ele>
        <time>2026-02-05T11:29:35</time>
      </trkpt>
      <trkpt lat="45.07889" lon="5.63459">
        <ele>830.4</ele>
        <time>2026-02-05T11:29:35</time>
      </trkpt>
      <trkpt lat="45.07889" lon="5.63459">
        <ele>830.4</ele>
        <time>2026-02-05T11:29:36</time>
      </trkpt>
      <trkpt lat="45.07889" lon="5.63459">
        <ele>830.7</ele>
        <time>2026-02-05T11:29:38</time>
      </trkpt>
      <trkpt lat="45.07889" lon="5.63458">
        <ele>830.7</ele>
        <time>2026-02-05T11:29:42</time>
      </trkpt>
      <trkpt lat="45.07889" lon="5.63458">
        <ele>830.7</ele>
        <time>2026-02-05T11:29:43</time>
      </trkpt>
      <trkpt lat="45.07889" lon="5.63456">
        <ele>830.9</ele>
        <time>2026-02-05T11:29:47</time>
      </trkpt>
      <trkpt lat="45.0789" lon="5.6345">
        <ele>830.9</ele>
        <time>2026-02-05T11:29:50</time>
      </trkpt>
      <trkpt lat="45.0789" lon="5.63449">
        <ele>830.9</ele>
        <time>2026-02-05T11:29:54</time>
      </trkpt>
      <trkpt lat="45.0789" lon="5.63449">
        <ele>830.9</ele>
        <time>2026-02-05T11:29:55</time>
      </trkpt>
      <trkpt lat="45.0789" lon="5.63449">
        <ele>832</ele>
        <time>2026-02-05T11:29:55</time>
      </trkpt>
      <trkpt lat="45.0789" lon="5.63449">
        <ele>832</ele>
        <time>2026-02-05T11:29:56</time>
      </trkpt>
      <trkpt lat="45.0789" lon="5.63443">
        <ele>832</ele>
        <time>2026-02-05T11:30:02</time>
      </trkpt>
      <trkpt lat="45.0789" lon="5.63442">
        <ele>832</ele>
        <time>2026-02-05T11:30:03</time>
      </trkpt>
      <trkpt lat="45.0789" lon="5.63442">
        <ele>832.2</ele>
        <time>2026-02-05T11:30:03</time>
      </trkpt>
      <trkpt lat="45.0789" lon="5.63441">
        <ele>832.2</ele>
        <time>2026-02-05T11:30:04</time>
      </trkpt>
      <trkpt lat="45.0789" lon="5.6344">
        <ele>832.2</ele>
        <time>2026-02-05T11:30:05</time>
      </trkpt>
      <trkpt lat="45.0789" lon="5.6344">
        <ele>832.2</ele>
        <time>2026-02-05T11:30:06</time>
      </trkpt>
      <trkpt lat="45.0789" lon="5.63438">
        <ele>832.2</ele>
        <time>2026-02-05T11:30:08</time>
      </trkpt>
      <trkpt lat="45.0789" lon="5.63438">
        <ele>832.2</ele>
        <time>2026-02-05T11:30:09</time>
      </trkpt>
      <trkpt lat="45.0789" lon="5.63437">
        <ele>832.2</ele>
        <time>2026-02-05T11:30:10</time>
      </trkpt>
      <trkpt lat="45.0789" lon="5.63436">
        <ele>832.2</ele>
        <time>2026-02-05T11:30:10</time>
      </trkpt>
      <trkpt lat="45.0789" lon="5.63435">
        <ele>832.9</ele>
        <time>2026-02-05T11:30:12</time>
      </trkpt>
      <trkpt lat="45.07891" lon="5.63433">
        <ele>832.9</ele>
        <time>2026-02-05T11:30:15</time>
      </trkpt>
      <trkpt lat="45.07891" lon="5.63431">
        <ele>832.9</ele>
        <time>2026-02-05T11:30:17</time>
      </trkpt>
      <trkpt lat="45.0789" lon="5.6343">
        <ele>832.9</ele>
        <time>2026-02-05T11:30:19</time>
      </trkpt>
      <trkpt lat="45.0789" lon="5.63429">
        <ele>832.9</ele>
        <time>2026-02-05T11:30:20</time>
      </trkpt>
      <trkpt lat="45.0789" lon="5.63428">
        <ele>834.3</ele>
        <time>2026-02-05T11:30:21</time>
      </trkpt>
      <trkpt lat="45.0789" lon="5.63428">
        <ele>834.3</ele>
        <time>2026-02-05T11:30:22</time>
      </trkpt>
      <trkpt lat="45.07889" lon="5.63428">
        <ele>834.3</ele>
        <time>2026-02-05T11:30:22</time>
      </trkpt>
      <trkpt lat="45.07889" lon="5.63428">
        <ele>834.3</ele>
        <time>2026-02-05T11:30:24</time>
      </trkpt>
      <trkpt lat="45.07888" lon="5.63425">
        <ele>834.3</ele>
        <time>2026-02-05T11:30:27</time>
      </trkpt>
      <trkpt lat="45.07887" lon="5.63423">
        <ele>834.76666</ele>
        <time>2026-02-05T11:30:29</time>
      </trkpt>
      <trkpt lat="45.07887" lon="5.63421">
        <ele>834.76666</ele>
        <time>2026-02-05T11:30:31</time>
      </trkpt>
      <trkpt lat="45.07886" lon="5.6342">
        <ele>834.76666</ele>
        <time>2026-02-05T11:30:32</time>
      </trkpt>
      <trkpt lat="45.07886" lon="5.63417">
        <ele>834.76666</ele>
        <time>2026-02-05T11:30:34</time>
      </trkpt>
      <trkpt lat="45.07885" lon="5.63415">
        <ele>834.76666</ele>
        <time>2026-02-05T11:30:37</time>
      </trkpt>
      <trkpt lat="45.07883" lon="5.63413">
        <ele>834.7</ele>
        <time>2026-02-05T11:30:44</time>
      </trkpt>
      <trkpt lat="45.07882" lon="5.63413">
        <ele>836.2</ele>
        <time>2026-02-05T11:30:48</time>
      </trkpt>
      <trkpt lat="45.07882" lon="5.63413">
        <ele>836.2</ele>
        <time>2026-02-05T11:30:49</time>
      </trkpt>
      <trkpt lat="45.07881" lon="5.63413">
        <ele>836.2</ele>
        <time>2026-02-05T11:30:51</time>
      </trkpt>
      <trkpt lat="45.07881" lon="5.63413">
        <ele>836.2</ele>
        <time>2026-02-05T11:30:53</time>
      </trkpt>
      <trkpt lat="45.07881" lon="5.63413">
        <ele>836.2</ele>
        <time>2026-02-05T11:30:53</time>
      </trkpt>
      <trkpt lat="45.07881" lon="5.63413">
        <ele>837.7</ele>
        <time>2026-02-05T11:30:54</time>
      </trkpt>
      <trkpt lat="45.07881" lon="5.63413">
        <ele>837.7</ele>
        <time>2026-02-05T11:30:55</time>
      </trkpt>
      <trkpt lat="45.07881" lon="5.63413">
        <ele>837.7</ele>
        <time>2026-02-05T11:30:58</time>
      </trkpt>
      <trkpt lat="45.07881" lon="5.63413">
        <ele>837.7</ele>
        <time>2026-02-05T11:31:01</time>
      </trkpt>
      <trkpt lat="45.07881" lon="5.63413">
        <ele>837.7</ele>
        <time>2026-02-05T11:31:03</time>
      </trkpt>
      <trkpt lat="45.07881" lon="5.63413">
        <ele>837.7</ele>
        <time>2026-02-05T11:31:04</time>
      </trkpt>
      <trkpt lat="45.07881" lon="5.63413">
        <ele>837.7</ele>
        <time>2026-02-05T11:31:06</time>
      </trkpt>
      <trkpt lat="45.07881" lon="5.63413">
        <ele>837.7</ele>
        <time>2026-02-05T11:31:07</time>
      </trkpt>
      <trkpt lat="45.07881" lon="5.63413">
        <ele>837.7</ele>
        <time>2026-02-05T11:31:07</time>
      </trkpt>
      <trkpt lat="45.07881" lon="5.63413">
        <ele>837.7</ele>
        <time>2026-02-05T11:31:08</time>
      </trkpt>
      <trkpt lat="45.07881" lon="5.63413">
        <ele>837.7</ele>
        <time>2026-02-05T11:31:09</time>
      </trkpt>
      <trkpt lat="45.07881" lon="5.63413">
        <ele>837.7</ele>
        <time>2026-02-05T11:31:10</time>
      </trkpt>
      <trkpt lat="45.07881" lon="5.63413">
        <ele>837.7</ele>
        <time>2026-02-05T11:31:10</time>
      </trkpt>
      <trkpt lat="45.07881" lon="5.63413">
        <ele>837.7</ele>
        <time>2026-02-05T11:31:11</time>
      </trkpt>
      <trkpt lat="45.07881" lon="5.63413">
        <ele>837.7</ele>
        <time>2026-02-05T11:31:12</time>
      </trkpt>
      <trkpt lat="45.07881" lon="5.63413">
        <ele>837.7</ele>
        <time>2026-02-05T11:31:13</time>
      </trkpt>
      <trkpt lat="45.07881" lon="5.63413">
        <ele>837.7</ele>
        <time>2026-02-05T11:31:14</time>
      </trkpt>
      <trkpt lat="45.07881" lon="5.63413">
        <ele>837.7</ele>
        <time>2026-02-05T11:31:15</time>
      </trkpt>
      <trkpt lat="45.07881" lon="5.63412">
        <ele>837.7</ele>
        <time>2026-02-05T11:31:16</time>
      </trkpt>
      <trkpt lat="45.0788" lon="5.63408">
        <ele>839.1</ele>
        <time>2026-02-05T11:31:19</time>
      </trkpt>
      <trkpt lat="45.07879" lon="5.63402">
        <ele>839.1</ele>
        <time>2026-02-05T11:31:20</time>
      </trkpt>
      <trkpt lat="45.07878" lon="5.63399">
        <ele>839.1</ele>
        <time>2026-02-05T11:31:21</time>
      </trkpt>
      <trkpt lat="45.07878" lon="5.63394">
        <ele>839.1</ele>
        <time>2026-02-05T11:31:25</time>
      </trkpt>
      <trkpt lat="45.07877" lon="5.63393">
        <ele>839.1</ele>
        <time>2026-02-05T11:31:26</time>
      </trkpt>
      <trkpt lat="45.07877" lon="5.63392">
        <ele>839.76666</ele>
        <time>2026-02-05T11:31:28</time>
      </trkpt>
      <trkpt lat="45.07877" lon="5.63389">
        <ele>839.76666</ele>
        <time>2026-02-05T11:31:30</time>
      </trkpt>
      <trkpt lat="45.07877" lon="5.63386">
        <ele>839.76666</ele>
        <time>2026-02-05T11:31:33</time>
      </trkpt>
      <trkpt lat="45.07877" lon="5.63385">
        <ele>839.76666</ele>
        <time>2026-02-05T11:31:34</time>
      </trkpt>
      <trkpt lat="45.07877" lon="5.63384">
        <ele>839.76666</ele>
        <time>2026-02-05T11:31:35</time>
      </trkpt>
      <trkpt lat="45.07877" lon="5.63382">
        <ele>841.5</ele>
        <time>2026-02-05T11:31:36</time>
      </trkpt>
      <trkpt lat="45.07877" lon="5.63379">
        <ele>841.5</ele>
        <time>2026-02-05T11:31:43</time>
      </trkpt>
      <trkpt lat="45.07876" lon="5.63376">
        <ele>842.7</ele>
        <time>2026-02-05T11:31:48</time>
      </trkpt>
      <trkpt lat="45.07876" lon="5.63376">
        <ele>842.7</ele>
        <time>2026-02-05T11:31:50</time>
      </trkpt>
      <trkpt lat="45.07876" lon="5.6337">
        <ele>842.8</ele>
        <time>2026-02-05T11:31:55</time>
      </trkpt>
      <trkpt lat="45.07876" lon="5.63368">
        <ele>842.8</ele>
        <time>2026-02-05T11:31:57</time>
      </trkpt>
      <trkpt lat="45.07877" lon="5.63367">
        <ele>842.8</ele>
        <time>2026-02-05T11:31:59</time>
      </trkpt>
      <trkpt lat="45.07878" lon="5.63365">
        <ele>842.3</ele>
        <time>2026-02-05T11:32:04</time>
      </trkpt>
      <trkpt lat="45.07878" lon="5.63364">
        <ele>842.3</ele>
        <time>2026-02-05T11:32:09</time>
      </trkpt>
      <trkpt lat="45.07879" lon="5.6336">
        <ele>842.1</ele>
        <time>2026-02-05T11:32:12</time>
      </trkpt>
      <trkpt lat="45.07879" lon="5.63359">
        <ele>842.1</ele>
        <time>2026-02-05T11:32:13</time>
      </trkpt>
      <trkpt lat="45.07879" lon="5.63359">
        <ele>842.1</ele>
        <time>2026-02-05T11:32:14</time>
      </trkpt>
      <trkpt lat="45.07878" lon="5.63358">
        <ele>842.1</ele>
        <time>2026-02-05T11:32:15</time>
      </trkpt>
      <trkpt lat="45.07878" lon="5.63358">
        <ele>842.1</ele>
        <time>2026-02-05T11:32:17</time>
      </trkpt>
      <trkpt lat="45.07878" lon="5.63358">
        <ele>845.1</ele>
        <time>2026-02-05T11:32:20</time>
      </trkpt>
      <trkpt lat="45.07878" lon="5.63358">
        <ele>845.1</ele>
        <time>2026-02-05T11:32:27</time>
      </trkpt>
      <trkpt lat="45.07878" lon="5.63358">
        <ele>845.1</ele>
        <time>2026-02-05T11:32:27</time>
      </trkpt>
      <trkpt lat="45.07878" lon="5.63358">
        <ele>845.1</ele>
        <time>2026-02-05T11:32:33</time>
      </trkpt>
      <trkpt lat="45.07877" lon="5.63356">
        <ele>845.1</ele>
        <time>2026-02-05T11:32:36</time>
      </trkpt>
      <trkpt lat="45.07877" lon="5.63355">
        <ele>845.1</ele>
        <time>2026-02-05T11:32:40</time>
      </trkpt>
      <trkpt lat="45.07877" lon="5.63355">
        <ele>845.1</ele>
        <time>2026-02-05T11:32:41</time>
      </trkpt>
      <trkpt lat="45.07877" lon="5.63355">
        <ele>845.1</ele>
        <time>2026-02-05T11:32:43</time>
      </trkpt>
      <trkpt lat="45.07877" lon="5.63355">
        <ele>845.1</ele>
        <time>2026-02-05T11:32:44</time>
      </trkpt>
      <trkpt lat="45.07877" lon="5.63355">
        <ele>847.4</ele>
        <time>2026-02-05T11:32:46</time>
      </trkpt>
      <trkpt lat="45.07877" lon="5.63355">
        <ele>847.4</ele>
        <time>2026-02-05T11:32:47</time>
      </trkpt>
      <trkpt lat="45.07877" lon="5.63355">
        <ele>847.4</ele>
        <time>2026-02-05T11:32:48</time>
      </trkpt>
      <trkpt lat="45.07877" lon="5.63355">
        <ele>847.4</ele>
        <time>2026-02-05T11:32:51</time>
      </trkpt>
      <trkpt lat="45.07877" lon="5.63355">
        <ele>847.4</ele>
        <time>2026-02-05T11:32:52</time>
      </trkpt>
      <trkpt lat="45.07877" lon="5.63355">
        <ele>847.4</ele>
        <time>2026-02-05T11:32:53</time>
      </trkpt>
      <trkpt lat="45.07876" lon="5.63346">
        <ele>847.4</ele>
        <time>2026-02-05T11:32:55</time>
      </trkpt>
      <trkpt lat="45.07876" lon="5.63343">
        <ele>847.4</ele>
        <time>2026-02-05T11:32:56</time>
      </trkpt>
      <trkpt lat="45.07876" lon="5.63342">
        <ele>847.4</ele>
        <time>2026-02-05T11:32:57</time>
      </trkpt>
      <trkpt lat="45.07876" lon="5.63342">
        <ele>847.4</ele>
        <time>2026-02-05T11:32:58</time>
      </trkpt>
      <trkpt lat="45.07875" lon="5.63342">
        <ele>847.4</ele>
        <time>2026-02-05T11:32:59</time>
      </trkpt>
      <trkpt lat="45.07875" lon="5.63342">
        <ele>847.4</ele>
        <time>2026-02-05T11:33:00</time>
      </trkpt>
      <trkpt lat="45.07875" lon="5.63342">
        <ele>847.4</ele>
        <time>2026-02-05T11:33:01</time>
      </trkpt>
      <trkpt lat="45.07875" lon="5.63342">
        <ele>847.4</ele>
        <time>2026-02-05T11:33:02</time>
      </trkpt>
      <trkpt lat="45.07875" lon="5.63341">
        <ele>847.4</ele>
        <time>2026-02-05T11:33:03</time>
      </trkpt>
      <trkpt lat="45.07875" lon="5.63342">
        <ele>847.4</ele>
        <time>2026-02-05T11:33:04</time>
      </trkpt>
      <trkpt lat="45.07875" lon="5.63342">
        <ele>847.4</ele>
        <time>2026-02-05T11:33:05</time>
      </trkpt>
      <trkpt lat="45.07875" lon="5.63342">
        <ele>847.4</ele>
        <time>2026-02-05T11:33:06</time>
      </trkpt>
      <trkpt lat="45.07875" lon="5.63341">
        <ele>847.4</ele>
        <time>2026-02-05T11:33:06</time>
      </trkpt>
      <trkpt lat="45.07875" lon="5.63342">
        <ele>847.4</ele>
        <time>2026-02-05T11:33:07</time>
      </trkpt>
      <trkpt lat="45.07875" lon="5.63342">
        <ele>847.4</ele>
        <time>2026-02-05T11:33:08</time>
      </trkpt>
      <trkpt lat="45.07875" lon="5.63342">
        <ele>847.4</ele>
        <time>2026-02-05T11:33:09</time>
      </trkpt>
      <trkpt lat="45.07875" lon="5.63341">
        <ele>850.6</ele>
        <time>2026-02-05T11:33:13</time>
      </trkpt>
      <trkpt lat="45.07875" lon="5.63341">
        <ele>850.6</ele>
        <time>2026-02-05T11:33:13</time>
      </trkpt>
      <trkpt lat="45.07875" lon="5.63341">
        <ele>850.6</ele>
        <time>2026-02-05T11:33:15</time>
      </trkpt>
      <trkpt lat="45.07875" lon="5.63341">
        <ele>850.6</ele>
        <time>2026-02-05T11:33:16</time>
      </trkpt>
      <trkpt lat="45.07875" lon="5.63342">
        <ele>850.6</ele>
        <time>2026-02-05T11:33:17</time>
      </trkpt>
      <trkpt lat="45.07875" lon="5.63342">
        <ele>850.6</ele>
        <time>2026-02-05T11:33:17</time>
      </trkpt>
      <trkpt lat="45.07875" lon="5.63342">
        <ele>850.6</ele>
        <time>2026-02-05T11:33:18</time>
      </trkpt>
      <trkpt lat="45.07875" lon="5.63341">
        <ele>850.6</ele>
        <time>2026-02-05T11:33:20</time>
      </trkpt>
      <trkpt lat="45.07874" lon="5.6334">
        <ele>850.6</ele>
        <time>2026-02-05T11:33:21</time>
      </trkpt>
      <trkpt lat="45.07873" lon="5.63339">
        <ele>850.6</ele>
        <time>2026-02-05T11:33:21</time>
      </trkpt>
      <trkpt lat="45.07873" lon="5.63337">
        <ele>850.6</ele>
        <time>2026-02-05T11:33:23</time>
      </trkpt>
      <trkpt lat="45.07869" lon="5.6333">
        <ele>850.6</ele>
        <time>2026-02-05T11:33:31</time>
      </trkpt>
      <trkpt lat="45.07867" lon="5.63326">
        <ele>852.2</ele>
        <time>2026-02-05T11:33:34</time>
      </trkpt>
      <trkpt lat="45.07866" lon="5.6332">
        <ele>852.2</ele>
        <time>2026-02-05T11:33:39</time>
      </trkpt>
      <trkpt lat="45.07865" lon="5.63317">
        <ele>852.2</ele>
        <time>2026-02-05T11:33:41</time>
      </trkpt>
      <trkpt lat="45.07864" lon="5.63314">
        <ele>852.26666</ele>
        <time>2026-02-05T11:33:43</time>
      </trkpt>
      <trkpt lat="45.07862" lon="5.63308">
        <ele>852.3</ele>
        <time>2026-02-05T11:33:48</time>
      </trkpt>
      <trkpt lat="45.07861" lon="5.63302">
        <ele>852.3</ele>
        <time>2026-02-05T11:33:53</time>
      </trkpt>
      <trkpt lat="45.07861" lon="5.633">
        <ele>852.3</ele>
        <time>2026-02-05T11:33:54</time>
      </trkpt>
      <trkpt lat="45.07861" lon="5.63299">
        <ele>853.2</ele>
        <time>2026-02-05T11:33:56</time>
      </trkpt>
      <trkpt lat="45.07861" lon="5.63298">
        <ele>853.2</ele>
        <time>2026-02-05T11:33:56</time>
      </trkpt>
      <trkpt lat="45.07862" lon="5.63297">
        <ele>853.2</ele>
        <time>2026-02-05T11:33:57</time>
      </trkpt>
      <trkpt lat="45.07862" lon="5.63296">
        <ele>853.2</ele>
        <time>2026-02-05T11:33:58</time>
      </trkpt>
      <trkpt lat="45.07863" lon="5.63295">
        <ele>853.2</ele>
        <time>2026-02-05T11:33:59</time>
      </trkpt>
      <trkpt lat="45.07864" lon="5.63294">
        <ele>853.2</ele>
        <time>2026-02-05T11:34:02</time>
      </trkpt>
      <trkpt lat="45.07864" lon="5.63294">
        <ele>852.6</ele>
        <time>2026-02-05T11:34:02</time>
      </trkpt>
      <trkpt lat="45.07864" lon="5.63293">
        <ele>852.6</ele>
        <time>2026-02-05T11:34:03</time>
      </trkpt>
      <trkpt lat="45.07863" lon="5.63293">
        <ele>852.6</ele>
        <time>2026-02-05T11:34:05</time>
      </trkpt>
      <trkpt lat="45.07863" lon="5.63292">
        <ele>852.6</ele>
        <time>2026-02-05T11:34:07</time>
      </trkpt>
      <trkpt lat="45.07862" lon="5.63289">
        <ele>852.6</ele>
        <time>2026-02-05T11:34:10</time>
      </trkpt>
      <trkpt lat="45.07861" lon="5.63288">
        <ele>852.6</ele>
        <time>2026-02-05T11:34:13</time>
      </trkpt>
      <trkpt lat="45.07857" lon="5.63282">
        <ele>854.1</ele>
        <time>2026-02-05T11:34:18</time>
      </trkpt>
      <trkpt lat="45.07856" lon="5.6328">
        <ele>854.1</ele>
        <time>2026-02-05T11:34:20</time>
      </trkpt>
      <trkpt lat="45.07855" lon="5.63279">
        <ele>854.1</ele>
        <time>2026-02-05T11:34:22</time>
      </trkpt>
      <trkpt lat="45.07854" lon="5.63277">
        <ele>854.1</ele>
        <time>2026-02-05T11:34:23</time>
      </trkpt>
      <trkpt lat="45.07854" lon="5.63276">
        <ele>854.1</ele>
        <time>2026-02-05T11:34:24</time>
      </trkpt>
      <trkpt lat="45.07853" lon="5.63275">
        <ele>856</ele>
        <time>2026-02-05T11:34:27</time>
      </trkpt>
      <trkpt lat="45.07852" lon="5.63272">
        <ele>856</ele>
        <time>2026-02-05T11:34:30</time>
      </trkpt>
      <trkpt lat="45.07851" lon="5.6327">
        <ele>856</ele>
        <time>2026-02-05T11:34:34</time>
      </trkpt>
      <trkpt lat="45.07851" lon="5.63266">
        <ele>857</ele>
        <time>2026-02-05T11:34:40</time>
      </trkpt>
      <trkpt lat="45.07851" lon="5.63262">
        <ele>858.5</ele>
        <time>2026-02-05T11:34:46</time>
      </trkpt>
      <trkpt lat="45.07851" lon="5.63261">
        <ele>858.5</ele>
        <time>2026-02-05T11:34:47</time>
      </trkpt>
      <trkpt lat="45.07851" lon="5.6326">
        <ele>858.5</ele>
        <time>2026-02-05T11:34:48</time>
      </trkpt>
      <trkpt lat="45.0785" lon="5.63258">
        <ele>859</ele>
        <time>2026-02-05T11:34:52</time>
      </trkpt>
      <trkpt lat="45.0785" lon="5.63257">
        <ele>859</ele>
        <time>2026-02-05T11:34:54</time>
      </trkpt>
      <trkpt lat="45.0785" lon="5.63255">
        <ele>859</ele>
        <time>2026-02-05T11:34:56</time>
      </trkpt>
      <trkpt lat="45.0785" lon="5.63254">
        <ele>859</ele>
        <time>2026-02-05T11:34:59</time>
      </trkpt>
      <trkpt lat="45.0785" lon="5.63252">
        <ele>860.93335</ele>
        <time>2026-02-05T11:35:01</time>
      </trkpt>
      <trkpt lat="45.0785" lon="5.6325">
        <ele>860.93335</ele>
        <time>2026-02-05T11:35:02</time>
      </trkpt>
      <trkpt lat="45.0785" lon="5.63246">
        <ele>860.93335</ele>
        <time>2026-02-05T11:35:06</time>
      </trkpt>
      <trkpt lat="45.0785" lon="5.63246">
        <ele>860.93335</ele>
        <time>2026-02-05T11:35:07</time>
      </trkpt>
      <trkpt lat="45.07852" lon="5.63245">
        <ele>860.3</ele>
        <time>2026-02-05T11:35:11</time>
      </trkpt>
      <trkpt lat="45.07852" lon="5.63245">
        <ele>860.3</ele>
        <time>2026-02-05T11:35:12</time>
      </trkpt>
      <trkpt lat="45.07852" lon="5.63245">
        <ele>860.3</ele>
        <time>2026-02-05T11:35:13</time>
      </trkpt>
      <trkpt lat="45.07852" lon="5.63245">
        <ele>860.3</ele>
        <time>2026-02-05T11:35:15</time>
      </trkpt>
      <trkpt lat="45.07852" lon="5.63245">
        <ele>860.3</ele>
        <time>2026-02-05T11:35:16</time>
      </trkpt>
      <trkpt lat="45.07852" lon="5.63245">
        <ele>860.3</ele>
        <time>2026-02-05T11:35:18</time>
      </trkpt>
      <trkpt lat="45.07852" lon="5.63245">
        <ele>860.8</ele>
        <time>2026-02-05T11:35:20</time>
      </trkpt>
      <trkpt lat="45.07852" lon="5.63245">
        <ele>860.8</ele>
        <time>2026-02-05T11:35:21</time>
      </trkpt>
      <trkpt lat="45.07852" lon="5.63245">
        <ele>860.8</ele>
        <time>2026-02-05T11:35:21</time>
      </trkpt>
      <trkpt lat="45.07852" lon="5.63245">
        <ele>860.8</ele>
        <time>2026-02-05T11:35:23</time>
      </trkpt>
      <trkpt lat="45.07851" lon="5.6324">
        <ele>860.8</ele>
        <time>2026-02-05T11:35:30</time>
      </trkpt>
      <trkpt lat="45.07851" lon="5.63233">
        <ele>860.8</ele>
        <time>2026-02-05T11:35:34</time>
      </trkpt>
      <trkpt lat="45.07851" lon="5.6323">
        <ele>862.9</ele>
        <time>2026-02-05T11:35:36</time>
      </trkpt>
      <trkpt lat="45.07851" lon="5.63229">
        <ele>862.9</ele>
        <time>2026-02-05T11:35:37</time>
      </trkpt>
      <trkpt lat="45.07851" lon="5.63228">
        <ele>862.9</ele>
        <time>2026-02-05T11:35:39</time>
      </trkpt>
      <trkpt lat="45.07852" lon="5.63227">
        <ele>862.9</ele>
        <time>2026-02-05T11:35:41</time>
      </trkpt>
      <trkpt lat="45.07852" lon="5.63226">
        <ele>862.9</ele>
        <time>2026-02-05T11:35:43</time>
      </trkpt>
      <trkpt lat="45.07852" lon="5.63224">
        <ele>865.5</ele>
        <time>2026-02-05T11:35:48</time>
      </trkpt>
      <trkpt lat="45.07852" lon="5.63224">
        <ele>865.5</ele>
        <time>2026-02-05T11:35:49</time>
      </trkpt>
      <trkpt lat="45.07852" lon="5.63222">
        <ele>866.36664</ele>
        <time>2026-02-05T11:35:52</time>
      </trkpt>
      <trkpt lat="45.07852" lon="5.63222">
        <ele>866.36664</ele>
        <time>2026-02-05T11:35:53</time>
      </trkpt>
      <trkpt lat="45.07852" lon="5.63217">
        <ele>867.2</ele>
        <time>2026-02-05T11:36:01</time>
      </trkpt>
      <trkpt lat="45.07852" lon="5.63217">
        <ele>867.2</ele>
        <time>2026-02-05T11:36:03</time>
      </trkpt>
      <trkpt lat="45.07852" lon="5.63217">
        <ele>867.2</ele>
        <time>2026-02-05T11:36:04</time>
      </trkpt>
      <trkpt lat="45.07852" lon="5.63216">
        <ele>867.2</ele>
        <time>2026-02-05T11:36:06</time>
      </trkpt>
      <trkpt lat="45.07852" lon="5.63215">
        <ele>867.2</ele>
        <time>2026-02-05T11:36:08</time>
      </trkpt>
      <trkpt lat="45.07852" lon="5.63214">
        <ele>867.2</ele>
        <time>2026-02-05T11:36:08</time>
      </trkpt>
      <trkpt lat="45.07851" lon="5.63209">
        <ele>867.4</ele>
        <time>2026-02-05T11:36:13</time>
      </trkpt>
      <trkpt lat="45.07851" lon="5.63205">
        <ele>867.4</ele>
        <time>2026-02-05T11:36:17</time>
      </trkpt>
      <trkpt lat="45.07852" lon="5.63203">
        <ele>868.6</ele>
        <time>2026-02-05T11:36:23</time>
      </trkpt>
      <trkpt lat="45.07852" lon="5.63203">
        <ele>868.6</ele>
        <time>2026-02-05T11:36:24</time>
      </trkpt>
      <trkpt lat="45.07852" lon="5.63203">
        <ele>868.6</ele>
        <time>2026-02-05T11:36:25</time>
      </trkpt>
      <trkpt lat="45.07852" lon="5.63202">
        <ele>868.6</ele>
        <time>2026-02-05T11:36:26</time>
      </trkpt>
      <trkpt lat="45.07852" lon="5.63202">
        <ele>868.6</ele>
        <time>2026-02-05T11:36:27</time>
      </trkpt>
      <trkpt lat="45.07852" lon="5.63202">
        <ele>870.86664</ele>
        <time>2026-02-05T11:36:28</time>
      </trkpt>
      <trkpt lat="45.07852" lon="5.63201">
        <ele>870.86664</ele>
        <time>2026-02-05T11:36:29</time>
      </trkpt>
      <trkpt lat="45.07852" lon="5.63201">
        <ele>870.86664</ele>
        <time>2026-02-05T11:36:31</time>
      </trkpt>
      <trkpt lat="45.07852" lon="5.63201">
        <ele>870.86664</ele>
        <time>2026-02-05T11:36:32</time>
      </trkpt>
      <trkpt lat="45.07852" lon="5.63201">
        <ele>870.86664</ele>
        <time>2026-02-05T11:36:33</time>
      </trkpt>
      <trkpt lat="45.07852" lon="5.63201">
        <ele>870.86664</ele>
        <time>2026-02-05T11:36:34</time>
      </trkpt>
      <trkpt lat="45.07852" lon="5.63201">
        <ele>871.1</ele>
        <time>2026-02-05T11:36:37</time>
      </trkpt>
      <trkpt lat="45.07852" lon="5.63201">
        <ele>871.1</ele>
        <time>2026-02-05T11:36:38</time>
      </trkpt>
      <trkpt lat="45.07851" lon="5.63201">
        <ele>871.1</ele>
        <time>2026-02-05T11:36:41</time>
      </trkpt>
      <trkpt lat="45.07851" lon="5.63201">
        <ele>871.1</ele>
        <time>2026-02-05T11:36:42</time>
      </trkpt>
      <trkpt lat="45.07851" lon="5.63201">
        <ele>871.1</ele>
        <time>2026-02-05T11:36:43</time>
      </trkpt>
      <trkpt lat="45.07851" lon="5.63201">
        <ele>871.1</ele>
        <time>2026-02-05T11:36:44</time>
      </trkpt>
      <trkpt lat="45.07851" lon="5.63201">
        <ele>871.1</ele>
        <time>2026-02-05T11:36:45</time>
      </trkpt>
      <trkpt lat="45.07851" lon="5.632">
        <ele>871.1</ele>
        <time>2026-02-05T11:36:46</time>
      </trkpt>
      <trkpt lat="45.07851" lon="5.632">
        <ele>871.1</ele>
        <time>2026-02-05T11:36:47</time>
      </trkpt>
      <trkpt lat="45.07855" lon="5.63193">
        <ele>871.1</ele>
        <time>2026-02-05T11:36:48</time>
      </trkpt>
      <trkpt lat="45.07857" lon="5.63189">
        <ele>871.1</ele>
        <time>2026-02-05T11:36:50</time>
      </trkpt>
      <trkpt lat="45.07858" lon="5.63189">
        <ele>871.1</ele>
        <time>2026-02-05T11:36:50</time>
      </trkpt>
      <trkpt lat="45.07857" lon="5.63186">
        <ele>871.1</ele>
        <time>2026-02-05T11:36:53</time>
      </trkpt>
      <trkpt lat="45.07857" lon="5.63185">
        <ele>871.7</ele>
        <time>2026-02-05T11:36:54</time>
      </trkpt>
      <trkpt lat="45.07857" lon="5.63183">
        <ele>871.7</ele>
        <time>2026-02-05T11:36:56</time>
      </trkpt>
      <trkpt lat="45.07857" lon="5.63183">
        <ele>871.7</ele>
        <time>2026-02-05T11:36:57</time>
      </trkpt>
      <trkpt lat="45.07857" lon="5.63183">
        <ele>871.7</ele>
        <time>2026-02-05T11:36:58</time>
      </trkpt>
      <trkpt lat="45.07857" lon="5.63183">
        <ele>871.7</ele>
        <time>2026-02-05T11:36:59</time>
      </trkpt>
      <trkpt lat="45.07857" lon="5.63181">
        <ele>872.2</ele>
        <time>2026-02-05T11:37:04</time>
      </trkpt>
      <trkpt lat="45.07857" lon="5.63178">
        <ele>872.2</ele>
        <time>2026-02-05T11:37:07</time>
      </trkpt>
      <trkpt lat="45.07857" lon="5.63178">
        <ele>872.2</ele>
        <time>2026-02-05T11:37:09</time>
      </trkpt>
      <trkpt lat="45.07856" lon="5.63177">
        <ele>872.2</ele>
        <time>2026-02-05T11:37:09</time>
      </trkpt>
      <trkpt lat="45.07855" lon="5.63176">
        <ele>872.2</ele>
        <time>2026-02-05T11:37:11</time>
      </trkpt>
      <trkpt lat="45.07855" lon="5.63175">
        <ele>874.7</ele>
        <time>2026-02-05T11:37:12</time>
      </trkpt>
      <trkpt lat="45.07855" lon="5.63175">
        <ele>874.7</ele>
        <time>2026-02-05T11:37:13</time>
      </trkpt>
      <trkpt lat="45.07855" lon="5.63175">
        <ele>874.7</ele>
        <time>2026-02-05T11:37:13</time>
      </trkpt>
      <trkpt lat="45.07855" lon="5.63174">
        <ele>874.7</ele>
        <time>2026-02-05T11:37:15</time>
      </trkpt>
      <trkpt lat="45.07856" lon="5.63174">
        <ele>874.7</ele>
        <time>2026-02-05T11:37:16</time>
      </trkpt>
      <trkpt lat="45.07856" lon="5.63174">
        <ele>874.7</ele>
        <time>2026-02-05T11:37:16</time>
      </trkpt>
      <trkpt lat="45.07856" lon="5.63174">
        <ele>874.7</ele>
        <time>2026-02-05T11:37:17</time>
      </trkpt>
      <trkpt lat="45.07856" lon="5.63174">
        <ele>874.7</ele>
        <time>2026-02-05T11:37:18</time>
      </trkpt>
      <trkpt lat="45.07857" lon="5.63174">
        <ele>876.5</ele>
        <time>2026-02-05T11:37:22</time>
      </trkpt>
      <trkpt lat="45.07857" lon="5.63174">
        <ele>876.5</ele>
        <time>2026-02-05T11:37:23</time>
      </trkpt>
      <trkpt lat="45.07857" lon="5.63173">
        <ele>876.5</ele>
        <time>2026-02-05T11:37:25</time>
      </trkpt>
      <trkpt lat="45.07857" lon="5.63172">
        <ele>876.5</ele>
        <time>2026-02-05T11:37:26</time>
      </trkpt>
      <trkpt lat="45.07856" lon="5.6317">
        <ele>877.3</ele>
        <time>2026-02-05T11:37:29</time>
      </trkpt>
      <trkpt lat="45.07856" lon="5.63167">
        <ele>877.3</ele>
        <time>2026-02-05T11:37:36</time>
      </trkpt>
      <trkpt lat="45.07856" lon="5.63167">
        <ele>877.2</ele>
        <time>2026-02-05T11:37:43</time>
      </trkpt>
      <trkpt lat="45.07856" lon="5.63167">
        <ele>877.2</ele>
        <time>2026-02-05T11:37:44</time>
      </trkpt>
      <trkpt lat="45.07856" lon="5.63167">
        <ele>878.3</ele>
        <time>2026-02-05T11:37:48</time>
      </trkpt>
      <trkpt lat="45.07856" lon="5.63167">
        <ele>878.3</ele>
        <time>2026-02-05T11:37:50</time>
      </trkpt>
      <trkpt lat="45.07856" lon="5.63167">
        <ele>878.3</ele>
        <time>2026-02-05T11:37:51</time>
      </trkpt>
      <trkpt lat="45.07856" lon="5.63167">
        <ele>878.3</ele>
        <time>2026-02-05T11:37:53</time>
      </trkpt>
      <trkpt lat="45.07856" lon="5.63167">
        <ele>878.3</ele>
        <time>2026-02-05T11:37:55</time>
      </trkpt>
      <trkpt lat="45.07855" lon="5.63163">
        <ele>879.76666</ele>
        <time>2026-02-05T11:38:03</time>
      </trkpt>
      <trkpt lat="45.07854" lon="5.63156">
        <ele>879.76666</ele>
        <time>2026-02-05T11:38:04</time>
      </trkpt>
      <trkpt lat="45.07853" lon="5.63151">
        <ele>883.1</ele>
        <time>2026-02-05T11:38:06</time>
      </trkpt>
      <trkpt lat="45.07852" lon="5.63146">
        <ele>883.1</ele>
        <time>2026-02-05T11:38:10</time>
      </trkpt>
      <trkpt lat="45.07851" lon="5.63144">
        <ele>883.1</ele>
        <time>2026-02-05T11:38:12</time>
      </trkpt>
      <trkpt lat="45.0785" lon="5.63141">
        <ele>885.1</ele>
        <time>2026-02-05T11:38:17</time>
      </trkpt>
      <trkpt lat="45.0785" lon="5.6314">
        <ele>885.1</ele>
        <time>2026-02-05T11:38:19</time>
      </trkpt>
      <trkpt lat="45.0785" lon="5.6314">
        <ele>885.1</ele>
        <time>2026-02-05T11:38:20</time>
      </trkpt>
      <trkpt lat="45.0785" lon="5.6314">
        <ele>885.1</ele>
        <time>2026-02-05T11:38:21</time>
      </trkpt>
      <trkpt lat="45.0785" lon="5.63137">
        <ele>886.9667</ele>
        <time>2026-02-05T11:38:23</time>
      </trkpt>
      <trkpt lat="45.07849" lon="5.63136">
        <ele>886.9667</ele>
        <time>2026-02-05T11:38:23</time>
      </trkpt>
      <trkpt lat="45.07847" lon="5.63131">
        <ele>886.9667</ele>
        <time>2026-02-05T11:38:28</time>
      </trkpt>
      <trkpt lat="45.07846" lon="5.63127">
        <ele>888.7</ele>
        <time>2026-02-05T11:38:33</time>
      </trkpt>
      <trkpt lat="45.07846" lon="5.63128">
        <ele>888.7</ele>
        <time>2026-02-05T11:38:35</time>
      </trkpt>
      <trkpt lat="45.07846" lon="5.63128">
        <ele>890</ele>
        <time>2026-02-05T11:38:38</time>
      </trkpt>
      <trkpt lat="45.07846" lon="5.63128">
        <ele>890</ele>
        <time>2026-02-05T11:38:40</time>
      </trkpt>
      <trkpt lat="45.07846" lon="5.63127">
        <ele>890</ele>
        <time>2026-02-05T11:38:40</time>
      </trkpt>
      <trkpt lat="45.07846" lon="5.63126">
        <ele>890</ele>
        <time>2026-02-05T11:38:41</time>
      </trkpt>
      <trkpt lat="45.07846" lon="5.63125">
        <ele>890</ele>
        <time>2026-02-05T11:38:41</time>
      </trkpt>
      <trkpt lat="45.07845" lon="5.63124">
        <ele>890</ele>
        <time>2026-02-05T11:38:42</time>
      </trkpt>
      <trkpt lat="45.07845" lon="5.63122">
        <ele>889.6</ele>
        <time>2026-02-05T11:38:44</time>
      </trkpt>
      <trkpt lat="45.07847" lon="5.63117">
        <ele>889.6</ele>
        <time>2026-02-05T11:38:51</time>
      </trkpt>
      <trkpt lat="45.07847" lon="5.63115">
        <ele>889.4</ele>
        <time>2026-02-05T11:38:55</time>
      </trkpt>
      <trkpt lat="45.07848" lon="5.63113">
        <ele>889.4</ele>
        <time>2026-02-05T11:38:57</time>
      </trkpt>
      <trkpt lat="45.07848" lon="5.63112">
        <ele>889.4</ele>
        <time>2026-02-05T11:38:59</time>
      </trkpt>
      <trkpt lat="45.07848" lon="5.63111">
        <ele>889</ele>
        <time>2026-02-05T11:39:03</time>
      </trkpt>
      <trkpt lat="45.07848" lon="5.63109">
        <ele>889</ele>
        <time>2026-02-05T11:39:06</time>
      </trkpt>
      <trkpt lat="45.07848" lon="5.63108">
        <ele>889</ele>
        <time>2026-02-05T11:39:07</time>
      </trkpt>
      <trkpt lat="45.07848" lon="5.63108">
        <ele>889</ele>
        <time>2026-02-05T11:39:08</time>
      </trkpt>
      <trkpt lat="45.07848" lon="5.63107">
        <ele>889</ele>
        <time>2026-02-05T11:39:09</time>
      </trkpt>
      <trkpt lat="45.07849" lon="5.63102">
        <ele>888.9</ele>
        <time>2026-02-05T11:39:16</time>
      </trkpt>
      <trkpt lat="45.0785" lon="5.631">
        <ele>888.9</ele>
        <time>2026-02-05T11:39:18</time>
      </trkpt>
      <trkpt lat="45.0785" lon="5.63099">
        <ele>888.9</ele>
        <time>2026-02-05T11:39:19</time>
      </trkpt>
      <trkpt lat="45.0785" lon="5.63098">
        <ele>888.2</ele>
        <time>2026-02-05T11:39:22</time>
      </trkpt>
      <trkpt lat="45.0785" lon="5.63098">
        <ele>888.2</ele>
        <time>2026-02-05T11:39:23</time>
      </trkpt>
      <trkpt lat="45.0785" lon="5.63097">
        <ele>888.2</ele>
        <time>2026-02-05T11:39:24</time>
      </trkpt>
      <trkpt lat="45.07851" lon="5.63097">
        <ele>888.7</ele>
        <time>2026-02-05T11:39:28</time>
      </trkpt>
      <trkpt lat="45.07851" lon="5.63096">
        <ele>888.7</ele>
        <time>2026-02-05T11:39:33</time>
      </trkpt>
      <trkpt lat="45.07852" lon="5.63092">
        <ele>888.8</ele>
        <time>2026-02-05T11:39:41</time>
      </trkpt>
      <trkpt lat="45.07853" lon="5.63088">
        <ele>888.8</ele>
        <time>2026-02-05T11:39:43</time>
      </trkpt>
      <trkpt lat="45.07853" lon="5.63086">
        <ele>888.8</ele>
        <time>2026-02-05T11:39:45</time>
      </trkpt>
      <trkpt lat="45.07853" lon="5.63084">
        <ele>888.8</ele>
        <time>2026-02-05T11:39:46</time>
      </trkpt>
      <trkpt lat="45.07852" lon="5.63082">
        <ele>888.8</ele>
        <time>2026-02-05T11:39:49</time>
      </trkpt>
      <trkpt lat="45.07851" lon="5.6308">
        <ele>888.8</ele>
        <time>2026-02-05T11:39:52</time>
      </trkpt>
      <trkpt lat="45.07851" lon="5.6308">
        <ele>888.8</ele>
        <time>2026-02-05T11:39:53</time>
      </trkpt>
      <trkpt lat="45.07851" lon="5.6308">
        <ele>888.8</ele>
        <time>2026-02-05T11:39:54</time>
      </trkpt>
      <trkpt lat="45.0785" lon="5.6308">
        <ele>889.3</ele>
        <time>2026-02-05T11:39:59</time>
      </trkpt>
      <trkpt lat="45.0785" lon="5.6308">
        <ele>890.4</ele>
        <time>2026-02-05T11:40:23</time>
      </trkpt>
      <trkpt lat="45.0785" lon="5.63074">
        <ele>890.4</ele>
        <time>2026-02-05T11:40:24</time>
      </trkpt>
      <trkpt lat="45.0785" lon="5.63072">
        <ele>890.4</ele>
        <time>2026-02-05T11:40:25</time>
      </trkpt>
      <trkpt lat="45.07848" lon="5.63067">
        <ele>890.4</ele>
        <time>2026-02-05T11:40:32</time>
      </trkpt>
      <trkpt lat="45.07846" lon="5.63064">
        <ele>892.4</ele>
        <time>2026-02-05T11:40:36</time>
      </trkpt>
      <trkpt lat="45.07845" lon="5.63061">
        <ele>892.4</ele>
        <time>2026-02-05T11:40:40</time>
      </trkpt>
      <trkpt lat="45.07845" lon="5.6306">
        <ele>892.4</ele>
        <time>2026-02-05T11:40:42</time>
      </trkpt>
      <trkpt lat="45.07844" lon="5.63056">
        <ele>892.4</ele>
        <time>2026-02-05T11:40:46</time>
      </trkpt>
      <trkpt lat="45.07844" lon="5.63051">
        <ele>891.3</ele>
        <time>2026-02-05T11:40:52</time>
      </trkpt>
      <trkpt lat="45.07843" lon="5.6305">
        <ele>891.3</ele>
        <time>2026-02-05T11:40:54</time>
      </trkpt>
      <trkpt lat="45.07843" lon="5.63047">
        <ele>891.3</ele>
        <time>2026-02-05T11:40:57</time>
      </trkpt>
      <trkpt lat="45.07843" lon="5.63047">
        <ele>891.3</ele>
        <time>2026-02-05T11:40:58</time>
      </trkpt>
      <trkpt lat="45.07843" lon="5.63046">
        <ele>890.5</ele>
        <time>2026-02-05T11:40:59</time>
      </trkpt>
      <trkpt lat="45.07843" lon="5.63046">
        <ele>890.5</ele>
        <time>2026-02-05T11:40:59</time>
      </trkpt>
      <trkpt lat="45.07843" lon="5.63046">
        <ele>890.5</ele>
        <time>2026-02-05T11:41:00</time>
      </trkpt>
      <trkpt lat="45.07842" lon="5.63046">
        <ele>890.5</ele>
        <time>2026-02-05T11:41:02</time>
      </trkpt>
      <trkpt lat="45.07842" lon="5.63046">
        <ele>890.5</ele>
        <time>2026-02-05T11:41:03</time>
      </trkpt>
      <trkpt lat="45.07841" lon="5.63045">
        <ele>890.5</ele>
        <time>2026-02-05T11:41:05</time>
      </trkpt>
      <trkpt lat="45.0784" lon="5.63043">
        <ele>890.5</ele>
        <time>2026-02-05T11:41:06</time>
      </trkpt>
      <trkpt lat="45.07839" lon="5.63038">
        <ele>890.7</ele>
        <time>2026-02-05T11:41:12</time>
      </trkpt>
      <trkpt lat="45.07837" lon="5.63036">
        <ele>890.7</ele>
        <time>2026-02-05T11:41:15</time>
      </trkpt>
      <trkpt lat="45.07834" lon="5.63032">
        <ele>891.5</ele>
        <time>2026-02-05T11:41:22</time>
      </trkpt>
      <trkpt lat="45.07828" lon="5.63029">
        <ele>892.9</ele>
        <time>2026-02-05T11:41:31</time>
      </trkpt>
      <trkpt lat="45.07827" lon="5.63027">
        <ele>896.1</ele>
        <time>2026-02-05T11:41:33</time>
      </trkpt>
      <trkpt lat="45.07826" lon="5.63024">
        <ele>896.1</ele>
        <time>2026-02-05T11:41:38</time>
      </trkpt>
      <trkpt lat="45.07826" lon="5.63023">
        <ele>896.1</ele>
        <time>2026-02-05T11:41:40</time>
      </trkpt>
      <trkpt lat="45.07824" lon="5.6302">
        <ele>899.2</ele>
        <time>2026-02-05T11:41:44</time>
      </trkpt>
      <trkpt lat="45.07824" lon="5.6302">
        <ele>899.2</ele>
        <time>2026-02-05T11:41:45</time>
      </trkpt>
      <trkpt lat="45.07824" lon="5.63019">
        <ele>899.2</ele>
        <time>2026-02-05T11:41:46</time>
      </trkpt>
      <trkpt lat="45.07824" lon="5.63019">
        <ele>899.2</ele>
        <time>2026-02-05T11:41:46</time>
      </trkpt>
      <trkpt lat="45.07823" lon="5.63018">
        <ele>899.2</ele>
        <time>2026-02-05T11:41:48</time>
      </trkpt>
      <trkpt lat="45.0782" lon="5.63016">
        <ele>901.5</ele>
        <time>2026-02-05T11:41:52</time>
      </trkpt>
      <trkpt lat="45.0782" lon="5.63014">
        <ele>901.5</ele>
        <time>2026-02-05T11:41:54</time>
      </trkpt>
      <trkpt lat="45.07819" lon="5.63011">
        <ele>901.5</ele>
        <time>2026-02-05T11:41:58</time>
      </trkpt>
      <trkpt lat="45.07813" lon="5.63">
        <ele>904.4</ele>
        <time>2026-02-05T11:42:12</time>
      </trkpt>
      <trkpt lat="45.0781" lon="5.62996">
        <ele>907.5</ele>
        <time>2026-02-05T11:42:18</time>
      </trkpt>
      <trkpt lat="45.07808" lon="5.62991">
        <ele>909.9</ele>
        <time>2026-02-05T11:42:24</time>
      </trkpt>
      <trkpt lat="45.07807" lon="5.62985">
        <ele>909.9</ele>
        <time>2026-02-05T11:42:30</time>
      </trkpt>
      <trkpt lat="45.07806" lon="5.62984">
        <ele>910.4</ele>
        <time>2026-02-05T11:42:32</time>
      </trkpt>
      <trkpt lat="45.07806" lon="5.62982">
        <ele>910.4</ele>
        <time>2026-02-05T11:42:35</time>
      </trkpt>
      <trkpt lat="45.07805" lon="5.62981">
        <ele>910.4</ele>
        <time>2026-02-05T11:42:36</time>
      </trkpt>
      <trkpt lat="45.07805" lon="5.62979">
        <ele>910.4</ele>
        <time>2026-02-05T11:42:38</time>
      </trkpt>
      <trkpt lat="45.07804" lon="5.62977">
        <ele>911.2</ele>
        <time>2026-02-05T11:42:40</time>
      </trkpt>
      <trkpt lat="45.07801" lon="5.62971">
        <ele>914.3</ele>
        <time>2026-02-05T11:42:47</time>
      </trkpt>
      <trkpt lat="45.07797" lon="5.62964">
        <ele>915.0333</ele>
        <time>2026-02-05T11:42:57</time>
      </trkpt>
      <trkpt lat="45.07791" lon="5.62955">
        <ele>916.5</ele>
        <time>2026-02-05T11:43:11</time>
      </trkpt>
      <trkpt lat="45.0779" lon="5.62953">
        <ele>916.5</ele>
        <time>2026-02-05T11:43:12</time>
      </trkpt>
      <trkpt lat="45.0779" lon="5.62953">
        <ele>916.5</ele>
        <time>2026-02-05T11:43:12</time>
      </trkpt>
      <trkpt lat="45.07788" lon="5.62949">
        <ele>916.5</ele>
        <time>2026-02-05T11:43:15</time>
      </trkpt>
      <trkpt lat="45.07788" lon="5.62948">
        <ele>916.5</ele>
        <time>2026-02-05T11:43:16</time>
      </trkpt>
      <trkpt lat="45.07787" lon="5.62947">
        <ele>916.5</ele>
        <time>2026-02-05T11:43:17</time>
      </trkpt>
      <trkpt lat="45.07786" lon="5.62946">
        <ele>916.5</ele>
        <time>2026-02-05T11:43:18</time>
      </trkpt>
      <trkpt lat="45.07785" lon="5.62944">
        <ele>917.1</ele>
        <time>2026-02-05T11:43:20</time>
      </trkpt>
      <trkpt lat="45.07785" lon="5.62943">
        <ele>917.1</ele>
        <time>2026-02-05T11:43:21</time>
      </trkpt>
      <trkpt lat="45.07785" lon="5.62941">
        <ele>917.1</ele>
        <time>2026-02-05T11:43:24</time>
      </trkpt>
      <trkpt lat="45.07785" lon="5.62939">
        <ele>917.1</ele>
        <time>2026-02-05T11:43:26</time>
      </trkpt>
      <trkpt lat="45.07786" lon="5.62936">
        <ele>917.1</ele>
        <time>2026-02-05T11:43:28</time>
      </trkpt>
      <trkpt lat="45.07786" lon="5.62935">
        <ele>917.1</ele>
        <time>2026-02-05T11:43:30</time>
      </trkpt>
      <trkpt lat="45.07786" lon="5.62932">
        <ele>917.1</ele>
        <time>2026-02-05T11:43:34</time>
      </trkpt>
      <trkpt lat="45.07787" lon="5.62931">
        <ele>916.7</ele>
        <time>2026-02-05T11:43:36</time>
      </trkpt>
      <trkpt lat="45.07787" lon="5.6293">
        <ele>916.7</ele>
        <time>2026-02-05T11:43:38</time>
      </trkpt>
      <trkpt lat="45.07787" lon="5.62929">
        <ele>916.7</ele>
        <time>2026-02-05T11:43:38</time>
      </trkpt>
      <trkpt lat="45.07787" lon="5.62928">
        <ele>916.7</ele>
        <time>2026-02-05T11:43:40</time>
      </trkpt>
      <trkpt lat="45.07787" lon="5.62927">
        <ele>916.7</ele>
        <time>2026-02-05T11:43:41</time>
      </trkpt>
      <trkpt lat="45.07785" lon="5.62923">
        <ele>915.5</ele>
        <time>2026-02-05T11:43:46</time>
      </trkpt>
      <trkpt lat="45.07784" lon="5.62921">
        <ele>915.5</ele>
        <time>2026-02-05T11:43:50</time>
      </trkpt>
      <trkpt lat="45.07782" lon="5.62915">
        <ele>915.9</ele>
        <time>2026-02-05T11:43:57</time>
      </trkpt>
      <trkpt lat="45.07781" lon="5.62914">
        <ele>915.9</ele>
        <time>2026-02-05T11:43:59</time>
      </trkpt>
      <trkpt lat="45.07782" lon="5.62913">
        <ele>916.5</ele>
        <time>2026-02-05T11:44:00</time>
      </trkpt>
      <trkpt lat="45.07782" lon="5.62913">
        <ele>916.5</ele>
        <time>2026-02-05T11:44:01</time>
      </trkpt>
      <trkpt lat="45.07781" lon="5.62912">
        <ele>916.5</ele>
        <time>2026-02-05T11:44:02</time>
      </trkpt>
      <trkpt lat="45.07781" lon="5.62912">
        <ele>916.5</ele>
        <time>2026-02-05T11:44:03</time>
      </trkpt>
      <trkpt lat="45.07781" lon="5.62911">
        <ele>916.5</ele>
        <time>2026-02-05T11:44:04</time>
      </trkpt>
      <trkpt lat="45.07779" lon="5.62905">
        <ele>916</ele>
        <time>2026-02-05T11:44:11</time>
      </trkpt>
      <trkpt lat="45.07779" lon="5.62904">
        <ele>916</ele>
        <time>2026-02-05T11:44:13</time>
      </trkpt>
      <trkpt lat="45.07779" lon="5.62902">
        <ele>916</ele>
        <time>2026-02-05T11:44:14</time>
      </trkpt>
      <trkpt lat="45.07779" lon="5.62894">
        <ele>916.7</ele>
        <time>2026-02-05T11:44:19</time>
      </trkpt>
      <trkpt lat="45.07779" lon="5.62888">
        <ele>917.1</ele>
        <time>2026-02-05T11:44:25</time>
      </trkpt>
      <trkpt lat="45.07777" lon="5.62883">
        <ele>917.4</ele>
        <time>2026-02-05T11:44:30</time>
      </trkpt>
      <trkpt lat="45.07774" lon="5.62877">
        <ele>917.4</ele>
        <time>2026-02-05T11:44:36</time>
      </trkpt>
      <trkpt lat="45.0777" lon="5.62871">
        <ele>918.2</ele>
        <time>2026-02-05T11:44:42</time>
      </trkpt>
      <trkpt lat="45.07769" lon="5.62869">
        <ele>918.8</ele>
        <time>2026-02-05T11:44:44</time>
      </trkpt>
      <trkpt lat="45.07768" lon="5.62868">
        <ele>918.8</ele>
        <time>2026-02-05T11:44:46</time>
      </trkpt>
      <trkpt lat="45.07768" lon="5.62867">
        <ele>918.8</ele>
        <time>2026-02-05T11:44:47</time>
      </trkpt>
      <trkpt lat="45.07767" lon="5.62865">
        <ele>918.8</ele>
        <time>2026-02-05T11:44:48</time>
      </trkpt>
      <trkpt lat="45.07766" lon="5.62862">
        <ele>918.8</ele>
        <time>2026-02-05T11:44:51</time>
      </trkpt>
      <trkpt lat="45.07766" lon="5.6286">
        <ele>921.1</ele>
        <time>2026-02-05T11:44:52</time>
      </trkpt>
      <trkpt lat="45.07765" lon="5.62859">
        <ele>921.1</ele>
        <time>2026-02-05T11:44:53</time>
      </trkpt>
      <trkpt lat="45.07765" lon="5.62859">
        <ele>921.1</ele>
        <time>2026-02-05T11:44:54</time>
      </trkpt>
      <trkpt lat="45.07765" lon="5.62857">
        <ele>921.1</ele>
        <time>2026-02-05T11:44:55</time>
      </trkpt>
      <trkpt lat="45.07764" lon="5.62856">
        <ele>921.1</ele>
        <time>2026-02-05T11:44:57</time>
      </trkpt>
      <trkpt lat="45.07763" lon="5.62855">
        <ele>921.1</ele>
        <time>2026-02-05T11:44:58</time>
      </trkpt>
      <trkpt lat="45.07762" lon="5.62855">
        <ele>922.9</ele>
        <time>2026-02-05T11:44:59</time>
      </trkpt>
      <trkpt lat="45.07761" lon="5.62854">
        <ele>922.9</ele>
        <time>2026-02-05T11:45:00</time>
      </trkpt>
      <trkpt lat="45.07761" lon="5.62853">
        <ele>922.9</ele>
        <time>2026-02-05T11:45:02</time>
      </trkpt>
      <trkpt lat="45.07759" lon="5.62851">
        <ele>922.9</ele>
        <time>2026-02-05T11:45:05</time>
      </trkpt>
      <trkpt lat="45.07758" lon="5.6285">
        <ele>924.13336</ele>
        <time>2026-02-05T11:45:07</time>
      </trkpt>
      <trkpt lat="45.07758" lon="5.62849">
        <ele>924.13336</ele>
        <time>2026-02-05T11:45:07</time>
      </trkpt>
      <trkpt lat="45.07758" lon="5.62848">
        <ele>924.13336</ele>
        <time>2026-02-05T11:45:08</time>
      </trkpt>
      <trkpt lat="45.07758" lon="5.62846">
        <ele>924.13336</ele>
        <time>2026-02-05T11:45:10</time>
      </trkpt>
      <trkpt lat="45.07757" lon="5.62843">
        <ele>924.3</ele>
        <time>2026-02-05T11:45:14</time>
      </trkpt>
      <trkpt lat="45.07753" lon="5.62834">
        <ele>922.3</ele>
        <time>2026-02-05T11:45:22</time>
      </trkpt>
      <trkpt lat="45.07751" lon="5.62833">
        <ele>922.3</ele>
        <time>2026-02-05T11:45:24</time>
      </trkpt>
      <trkpt lat="45.07751" lon="5.62832">
        <ele>922.3</ele>
        <time>2026-02-05T11:45:25</time>
      </trkpt>
      <trkpt lat="45.0775" lon="5.62829">
        <ele>920.4</ele>
        <time>2026-02-05T11:45:30</time>
      </trkpt>
      <trkpt lat="45.0775" lon="5.62825">
        <ele>919.9</ele>
        <time>2026-02-05T11:45:33</time>
      </trkpt>
      <trkpt lat="45.07749" lon="5.62822">
        <ele>919.9</ele>
        <time>2026-02-05T11:45:36</time>
      </trkpt>
      <trkpt lat="45.07747" lon="5.62818">
        <ele>918.3</ele>
        <time>2026-02-05T11:45:40</time>
      </trkpt>
      <trkpt lat="45.07746" lon="5.62815">
        <ele>918.3</ele>
        <time>2026-02-05T11:45:43</time>
      </trkpt>
      <trkpt lat="45.07745" lon="5.62813">
        <ele>918.3</ele>
        <time>2026-02-05T11:45:44</time>
      </trkpt>
      <trkpt lat="45.07745" lon="5.62811">
        <ele>918.3</ele>
        <time>2026-02-05T11:45:46</time>
      </trkpt>
      <trkpt lat="45.07744" lon="5.6281">
        <ele>916.6</ele>
        <time>2026-02-05T11:45:48</time>
      </trkpt>
      <trkpt lat="45.07743" lon="5.62809">
        <ele>916.6</ele>
        <time>2026-02-05T11:45:49</time>
      </trkpt>
      <trkpt lat="45.07742" lon="5.6281">
        <ele>916.6</ele>
        <time>2026-02-05T11:45:50</time>
      </trkpt>
      <trkpt lat="45.07741" lon="5.6281">
        <ele>916.6</ele>
        <time>2026-02-05T11:45:50</time>
      </trkpt>
      <trkpt lat="45.0774" lon="5.6281">
        <ele>916.6</ele>
        <time>2026-02-05T11:45:51</time>
      </trkpt>
      <trkpt lat="45.0774" lon="5.62809">
        <ele>916.6</ele>
        <time>2026-02-05T11:45:52</time>
      </trkpt>
      <trkpt lat="45.0774" lon="5.62809">
        <ele>916.6</ele>
        <time>2026-02-05T11:45:53</time>
      </trkpt>
      <trkpt lat="45.07739" lon="5.62809">
        <ele>916.6</ele>
        <time>2026-02-05T11:45:54</time>
      </trkpt>
      <trkpt lat="45.07739" lon="5.62808">
        <ele>915.9</ele>
        <time>2026-02-05T11:45:56</time>
      </trkpt>
      <trkpt lat="45.07735" lon="5.62803">
        <ele>918.2</ele>
        <time>2026-02-05T11:46:04</time>
      </trkpt>
      <trkpt lat="45.07732" lon="5.62799">
        <ele>918.2</ele>
        <time>2026-02-05T11:46:09</time>
      </trkpt>
      <trkpt lat="45.07732" lon="5.62799">
        <ele>918.2</ele>
        <time>2026-02-05T11:46:10</time>
      </trkpt>
      <trkpt lat="45.0773" lon="5.62797">
        <ele>919.4</ele>
        <time>2026-02-05T11:46:12</time>
      </trkpt>
      <trkpt lat="45.07729" lon="5.62796">
        <ele>919.4</ele>
        <time>2026-02-05T11:46:14</time>
      </trkpt>
      <trkpt lat="45.07729" lon="5.62795">
        <ele>919.4</ele>
        <time>2026-02-05T11:46:14</time>
      </trkpt>
      <trkpt lat="45.07728" lon="5.6279">
        <ele>919.2</ele>
        <time>2026-02-05T11:46:18</time>
      </trkpt>
      <trkpt lat="45.07728" lon="5.62787">
        <ele>919.2</ele>
        <time>2026-02-05T11:46:21</time>
      </trkpt>
      <trkpt lat="45.07728" lon="5.62784">
        <ele>919.2</ele>
        <time>2026-02-05T11:46:24</time>
      </trkpt>
      <trkpt lat="45.07728" lon="5.62782">
        <ele>919.2</ele>
        <time>2026-02-05T11:46:25</time>
      </trkpt>
      <trkpt lat="45.0773" lon="5.62776">
        <ele>918.73334</ele>
        <time>2026-02-05T11:46:33</time>
      </trkpt>
      <trkpt lat="45.0773" lon="5.62774">
        <ele>917.5</ele>
        <time>2026-02-05T11:46:34</time>
      </trkpt>
      <trkpt lat="45.0773" lon="5.62773">
        <ele>917.5</ele>
        <time>2026-02-05T11:46:35</time>
      </trkpt>
      <trkpt lat="45.0773" lon="5.62772">
        <ele>917.5</ele>
        <time>2026-02-05T11:46:36</time>
      </trkpt>
      <trkpt lat="45.07729" lon="5.62771">
        <ele>917.5</ele>
        <time>2026-02-05T11:46:37</time>
      </trkpt>
      <trkpt lat="45.07729" lon="5.62771">
        <ele>917.5</ele>
        <time>2026-02-05T11:46:38</time>
      </trkpt>
      <trkpt lat="45.07729" lon="5.6277">
        <ele>917.5</ele>
        <time>2026-02-05T11:46:39</time>
      </trkpt>
      <trkpt lat="45.07729" lon="5.62769">
        <ele>917.5</ele>
        <time>2026-02-05T11:46:40</time>
      </trkpt>
      <trkpt lat="45.07729" lon="5.62767">
        <ele>917.5</ele>
        <time>2026-02-05T11:46:41</time>
      </trkpt>
      <trkpt lat="45.07729" lon="5.62766">
        <ele>916.9</ele>
        <time>2026-02-05T11:46:43</time>
      </trkpt>
      <trkpt lat="45.07729" lon="5.62766">
        <ele>916.9</ele>
        <time>2026-02-05T11:46:44</time>
      </trkpt>
      <trkpt lat="45.07729" lon="5.62765">
        <ele>916.9</ele>
        <time>2026-02-05T11:46:45</time>
      </trkpt>
      <trkpt lat="45.07729" lon="5.62764">
        <ele>916.9</ele>
        <time>2026-02-05T11:46:46</time>
      </trkpt>
      <trkpt lat="45.0773" lon="5.62763">
        <ele>916.9</ele>
        <time>2026-02-05T11:46:47</time>
      </trkpt>
      <trkpt lat="45.0773" lon="5.62759">
        <ele>916.6</ele>
        <time>2026-02-05T11:46:54</time>
      </trkpt>
      <trkpt lat="45.07729" lon="5.62758">
        <ele>916.6</ele>
        <time>2026-02-05T11:46:57</time>
      </trkpt>
      <trkpt lat="45.07729" lon="5.62756">
        <ele>915.8</ele>
        <time>2026-02-05T11:46:59</time>
      </trkpt>
      <trkpt lat="45.07729" lon="5.62756">
        <ele>915.8</ele>
        <time>2026-02-05T11:47:00</time>
      </trkpt>
      <trkpt lat="45.07729" lon="5.62756">
        <ele>915.8</ele>
        <time>2026-02-05T11:47:01</time>
      </trkpt>
      <trkpt lat="45.07728" lon="5.62755">
        <ele>915.8</ele>
        <time>2026-02-05T11:47:05</time>
      </trkpt>
      <trkpt lat="45.07728" lon="5.62753">
        <ele>917.6</ele>
        <time>2026-02-05T11:47:09</time>
      </trkpt>
      <trkpt lat="45.07727" lon="5.62752">
        <ele>917.6</ele>
        <time>2026-02-05T11:47:10</time>
      </trkpt>
      <trkpt lat="45.07725" lon="5.62749">
        <ele>917.6</ele>
        <time>2026-02-05T11:47:13</time>
      </trkpt>
      <trkpt lat="45.07724" lon="5.62747">
        <ele>917.6</ele>
        <time>2026-02-05T11:47:15</time>
      </trkpt>
      <trkpt lat="45.07724" lon="5.62746">
        <ele>918.1</ele>
        <time>2026-02-05T11:47:17</time>
      </trkpt>
      <trkpt lat="45.07724" lon="5.62744">
        <ele>918.1</ele>
        <time>2026-02-05T11:47:18</time>
      </trkpt>
      <trkpt lat="45.07724" lon="5.62743">
        <ele>918.1</ele>
        <time>2026-02-05T11:47:20</time>
      </trkpt>
      <trkpt lat="45.07724" lon="5.62742">
        <ele>918.1</ele>
        <time>2026-02-05T11:47:21</time>
      </trkpt>
      <trkpt lat="45.07724" lon="5.62742">
        <ele>918.1</ele>
        <time>2026-02-05T11:47:22</time>
      </trkpt>
      <trkpt lat="45.07725" lon="5.62741">
        <ele>918.1</ele>
        <time>2026-02-05T11:47:24</time>
      </trkpt>
      <trkpt lat="45.07725" lon="5.6274">
        <ele>918.1</ele>
        <time>2026-02-05T11:47:24</time>
      </trkpt>
      <trkpt lat="45.07726" lon="5.6274">
        <ele>920.6</ele>
        <time>2026-02-05T11:47:26</time>
      </trkpt>
      <trkpt lat="45.07726" lon="5.6274">
        <ele>920.6</ele>
        <time>2026-02-05T11:47:26</time>
      </trkpt>
      <trkpt lat="45.07726" lon="5.62739">
        <ele>920.6</ele>
        <time>2026-02-05T11:47:27</time>
      </trkpt>
      <trkpt lat="45.07724" lon="5.62737">
        <ele>927.1</ele>
        <time>2026-02-05T11:48:03</time>
      </trkpt>
      <trkpt lat="45.07725" lon="5.62738">
        <ele>927.1</ele>
        <time>2026-02-05T11:48:04</time>
      </trkpt>
      <trkpt lat="45.07725" lon="5.62738">
        <ele>927.1</ele>
        <time>2026-02-05T11:48:05</time>
      </trkpt>
      <trkpt lat="45.07725" lon="5.62738">
        <ele>927.1</ele>
        <time>2026-02-05T11:48:06</time>
      </trkpt>
      <trkpt lat="45.07726" lon="5.62737">
        <ele>927.1</ele>
        <time>2026-02-05T11:48:07</time>
      </trkpt>
      <trkpt lat="45.07728" lon="5.62738">
        <ele>925.7</ele>
        <time>2026-02-05T11:48:35</time>
      </trkpt>
      <trkpt lat="45.07728" lon="5.62738">
        <ele>925.7</ele>
        <time>2026-02-05T11:49:34</time>
      </trkpt>
      <trkpt lat="45.07728" lon="5.62738">
        <ele>925.7</ele>
        <time>2026-02-05T11:49:35</time>
      </trkpt>
      <trkpt lat="45.07728" lon="5.62738">
        <ele>925.7</ele>
        <time>2026-02-05T11:49:35</time>
      </trkpt>
      <trkpt lat="45.07728" lon="5.62738">
        <ele>925.7</ele>
        <time>2026-02-05T11:49:37</time>
      </trkpt>
      <trkpt lat="45.07728" lon="5.62738">
        <ele>925.7</ele>
        <time>2026-02-05T11:49:39</time>
      </trkpt>
      <trkpt lat="45.07728" lon="5.62738">
        <ele>925.7</ele>
        <time>2026-02-05T11:49:43</time>
      </trkpt>
      <trkpt lat="45.07728" lon="5.62738">
        <ele>925.7</ele>
        <time>2026-02-05T11:49:45</time>
      </trkpt>
      <trkpt lat="45.07728" lon="5.62738">
        <ele>925.7</ele>
        <time>2026-02-05T11:49:48</time>
      </trkpt>
      <trkpt lat="45.07728" lon="5.62739">
        <ele>925.7</ele>
        <time>2026-02-05T11:49:49</time>
      </trkpt>
      <trkpt lat="45.07728" lon="5.62739">
        <ele>925.7</ele>
        <time>2026-02-05T11:49:50</time>
      </trkpt>
      <trkpt lat="45.07728" lon="5.62726">
        <ele>925.7</ele>
        <time>2026-02-05T11:49:51</time>
      </trkpt>
      <trkpt lat="45.07728" lon="5.62725">
        <ele>925.7</ele>
        <time>2026-02-05T11:49:52</time>
      </trkpt>
      <trkpt lat="45.07728" lon="5.62724">
        <ele>925.7</ele>
        <time>2026-02-05T11:49:53</time>
      </trkpt>
      <trkpt lat="45.07727" lon="5.62718">
        <ele>925.4</ele>
        <time>2026-02-05T11:49:57</time>
      </trkpt>
      <trkpt lat="45.07727" lon="5.62714">
        <ele>925.4</ele>
        <time>2026-02-05T11:50:02</time>
      </trkpt>
      <trkpt lat="45.07727" lon="5.62713">
        <ele>925.4</ele>
        <time>2026-02-05T11:50:05</time>
      </trkpt>
      <trkpt lat="45.07727" lon="5.62713">
        <ele>926.1</ele>
        <time>2026-02-05T11:50:06</time>
      </trkpt>
      <trkpt lat="45.07727" lon="5.62713">
        <ele>926.1</ele>
        <time>2026-02-05T11:50:07</time>
      </trkpt>
      <trkpt lat="45.07727" lon="5.62713">
        <ele>926.1</ele>
        <time>2026-02-05T11:50:08</time>
      </trkpt>
      <trkpt lat="45.07727" lon="5.62712">
        <ele>926.1</ele>
        <time>2026-02-05T11:50:09</time>
      </trkpt>
      <trkpt lat="45.07727" lon="5.62712">
        <ele>927.1</ele>
        <time>2026-02-05T11:50:15</time>
      </trkpt>
      <trkpt lat="45.07727" lon="5.62712">
        <ele>927.1</ele>
        <time>2026-02-05T11:50:18</time>
      </trkpt>
      <trkpt lat="45.07727" lon="5.62712">
        <ele>927.1</ele>
        <time>2026-02-05T11:50:20</time>
      </trkpt>
      <trkpt lat="45.07727" lon="5.62712">
        <ele>927.1</ele>
        <time>2026-02-05T11:50:21</time>
      </trkpt>
      <trkpt lat="45.07727" lon="5.62712">
        <ele>927.1</ele>
        <time>2026-02-05T11:50:22</time>
      </trkpt>
      <trkpt lat="45.07728" lon="5.62701">
        <ele>927.1</ele>
        <time>2026-02-05T11:50:26</time>
      </trkpt>
      <trkpt lat="45.07728" lon="5.62699">
        <ele>927.1</ele>
        <time>2026-02-05T11:50:27</time>
      </trkpt>
      <trkpt lat="45.07728" lon="5.62699">
        <ele>927.1</ele>
        <time>2026-02-05T11:50:27</time>
      </trkpt>
      <trkpt lat="45.07728" lon="5.62699">
        <ele>927.1</ele>
        <time>2026-02-05T11:50:28</time>
      </trkpt>
      <trkpt lat="45.07728" lon="5.62699">
        <ele>927.1</ele>
        <time>2026-02-05T11:50:30</time>
      </trkpt>
      <trkpt lat="45.07728" lon="5.62699">
        <ele>927.5</ele>
        <time>2026-02-05T11:50:33</time>
      </trkpt>
      <trkpt lat="45.07728" lon="5.62699">
        <ele>927.5</ele>
        <time>2026-02-05T11:50:41</time>
      </trkpt>
      <trkpt lat="45.07728" lon="5.62699">
        <ele>927.5</ele>
        <time>2026-02-05T11:50:46</time>
      </trkpt>
      <trkpt lat="45.07728" lon="5.62699">
        <ele>927.5</ele>
        <time>2026-02-05T11:50:49</time>
      </trkpt>
      <trkpt lat="45.07728" lon="5.62699">
        <ele>927.5</ele>
        <time>2026-02-05T11:50:52</time>
      </trkpt>
      <trkpt lat="45.07727" lon="5.62687">
        <ele>927.5</ele>
        <time>2026-02-05T11:50:58</time>
      </trkpt>
      <trkpt lat="45.07726" lon="5.62686">
        <ele>935.6</ele>
        <time>2026-02-05T11:51:01</time>
      </trkpt>
      <trkpt lat="45.07726" lon="5.62686">
        <ele>935.6</ele>
        <time>2026-02-05T11:51:02</time>
      </trkpt>
      <trkpt lat="45.07726" lon="5.62685">
        <ele>935.6</ele>
        <time>2026-02-05T11:51:03</time>
      </trkpt>
      <trkpt lat="45.07726" lon="5.62685">
        <ele>935.6</ele>
        <time>2026-02-05T11:51:03</time>
      </trkpt>
      <trkpt lat="45.07726" lon="5.62685">
        <ele>935.6</ele>
        <time>2026-02-05T11:51:04</time>
      </trkpt>
      <trkpt lat="45.07726" lon="5.62684">
        <ele>935.6</ele>
        <time>2026-02-05T11:51:07</time>
      </trkpt>
      <trkpt lat="45.07726" lon="5.62684">
        <ele>935.6</ele>
        <time>2026-02-05T11:51:08</time>
      </trkpt>
      <trkpt lat="45.07726" lon="5.62684">
        <ele>935.7</ele>
        <time>2026-02-05T11:51:09</time>
      </trkpt>
      <trkpt lat="45.07726" lon="5.62684">
        <ele>935.7</ele>
        <time>2026-02-05T11:51:10</time>
      </trkpt>
      <trkpt lat="45.07726" lon="5.62684">
        <ele>935.7</ele>
        <time>2026-02-05T11:51:10</time>
      </trkpt>
      <trkpt lat="45.07726" lon="5.62684">
        <ele>935.7</ele>
        <time>2026-02-05T11:51:13</time>
      </trkpt>
      <trkpt lat="45.07726" lon="5.62684">
        <ele>935.7</ele>
        <time>2026-02-05T11:51:15</time>
      </trkpt>
      <trkpt lat="45.07726" lon="5.62684">
        <ele>935.7</ele>
        <time>2026-02-05T11:51:16</time>
      </trkpt>
      <trkpt lat="45.07726" lon="5.62684">
        <ele>937.2</ele>
        <time>2026-02-05T11:51:18</time>
      </trkpt>
      <trkpt lat="45.07726" lon="5.62684">
        <ele>937.2</ele>
        <time>2026-02-05T11:51:18</time>
      </trkpt>
      <trkpt lat="45.07726" lon="5.62684">
        <ele>937.2</ele>
        <time>2026-02-05T11:51:19</time>
      </trkpt>
      <trkpt lat="45.07726" lon="5.6268">
        <ele>937.2</ele>
        <time>2026-02-05T11:51:22</time>
      </trkpt>
      <trkpt lat="45.07725" lon="5.62678">
        <ele>937.2</ele>
        <time>2026-02-05T11:51:23</time>
      </trkpt>
      <trkpt lat="45.07725" lon="5.62676">
        <ele>937.2</ele>
        <time>2026-02-05T11:51:24</time>
      </trkpt>
      <trkpt lat="45.07725" lon="5.62675">
        <ele>937.2</ele>
        <time>2026-02-05T11:51:25</time>
      </trkpt>
      <trkpt lat="45.07724" lon="5.62668">
        <ele>940</ele>
        <time>2026-02-05T11:51:30</time>
      </trkpt>
      <trkpt lat="45.07724" lon="5.62666">
        <ele>940</ele>
        <time>2026-02-05T11:51:32</time>
      </trkpt>
      <trkpt lat="45.07725" lon="5.62661">
        <ele>940.5</ele>
        <time>2026-02-05T11:51:39</time>
      </trkpt>
      <trkpt lat="45.07724" lon="5.6266">
        <ele>940.5</ele>
        <time>2026-02-05T11:51:40</time>
      </trkpt>
      <trkpt lat="45.07724" lon="5.6266">
        <ele>940.5</ele>
        <time>2026-02-05T11:51:41</time>
      </trkpt>
      <trkpt lat="45.07724" lon="5.62659">
        <ele>940.5</ele>
        <time>2026-02-05T11:51:42</time>
      </trkpt>
      <trkpt lat="45.07724" lon="5.62659">
        <ele>940.5</ele>
        <time>2026-02-05T11:51:42</time>
      </trkpt>
      <trkpt lat="45.07725" lon="5.6266">
        <ele>943</ele>
        <time>2026-02-05T11:51:44</time>
      </trkpt>
      <trkpt lat="45.07725" lon="5.6266">
        <ele>943</ele>
        <time>2026-02-05T11:51:45</time>
      </trkpt>
      <trkpt lat="45.07725" lon="5.62661">
        <ele>943</ele>
        <time>2026-02-05T11:51:46</time>
      </trkpt>
      <trkpt lat="45.07725" lon="5.62661">
        <ele>943</ele>
        <time>2026-02-05T11:51:47</time>
      </trkpt>
      <trkpt lat="45.07724" lon="5.62661">
        <ele>943</ele>
        <time>2026-02-05T11:51:50</time>
      </trkpt>
      <trkpt lat="45.07724" lon="5.6266">
        <ele>943</ele>
        <time>2026-02-05T11:51:52</time>
      </trkpt>
      <trkpt lat="45.07724" lon="5.62658">
        <ele>943.6</ele>
        <time>2026-02-05T11:51:57</time>
      </trkpt>
      <trkpt lat="45.07724" lon="5.62656">
        <ele>943.6</ele>
        <time>2026-02-05T11:51:59</time>
      </trkpt>
      <trkpt lat="45.07724" lon="5.62653">
        <ele>945.56665</ele>
        <time>2026-02-05T11:52:02</time>
      </trkpt>
      <trkpt lat="45.07724" lon="5.62652">
        <ele>945.56665</ele>
        <time>2026-02-05T11:52:03</time>
      </trkpt>
      <trkpt lat="45.07724" lon="5.62648">
        <ele>945.56665</ele>
        <time>2026-02-05T11:52:05</time>
      </trkpt>
      <trkpt lat="45.07724" lon="5.62647">
        <ele>945.56665</ele>
        <time>2026-02-05T11:52:06</time>
      </trkpt>
      <trkpt lat="45.07724" lon="5.62646">
        <ele>945.56665</ele>
        <time>2026-02-05T11:52:07</time>
      </trkpt>
      <trkpt lat="45.07724" lon="5.62646">
        <ele>945.56665</ele>
        <time>2026-02-05T11:52:08</time>
      </trkpt>
      <trkpt lat="45.07724" lon="5.62645">
        <ele>947</ele>
        <time>2026-02-05T11:52:09</time>
      </trkpt>
      <trkpt lat="45.07724" lon="5.62644">
        <ele>947</ele>
        <time>2026-02-05T11:52:10</time>
      </trkpt>
      <trkpt lat="45.07725" lon="5.62642">
        <ele>947</ele>
        <time>2026-02-05T11:52:12</time>
      </trkpt>
      <trkpt lat="45.07725" lon="5.6264">
        <ele>947</ele>
        <time>2026-02-05T11:52:15</time>
      </trkpt>
      <trkpt lat="45.07725" lon="5.62638">
        <ele>947.8</ele>
        <time>2026-02-05T11:52:18</time>
      </trkpt>
      <trkpt lat="45.07726" lon="5.62637">
        <ele>947.8</ele>
        <time>2026-02-05T11:52:19</time>
      </trkpt>
      <trkpt lat="45.07726" lon="5.62636">
        <ele>947.8</ele>
        <time>2026-02-05T11:52:20</time>
      </trkpt>
      <trkpt lat="45.07726" lon="5.62635">
        <ele>947.8</ele>
        <time>2026-02-05T11:52:21</time>
      </trkpt>
      <trkpt lat="45.07726" lon="5.62633">
        <ele>947.8</ele>
        <time>2026-02-05T11:52:23</time>
      </trkpt>
      <trkpt lat="45.07727" lon="5.62627">
        <ele>949.3</ele>
        <time>2026-02-05T11:52:30</time>
      </trkpt>
      <trkpt lat="45.07728" lon="5.62626">
        <ele>949.3</ele>
        <time>2026-02-05T11:52:32</time>
      </trkpt>
      <trkpt lat="45.07729" lon="5.62626">
        <ele>950.1</ele>
        <time>2026-02-05T11:52:33</time>
      </trkpt>
      <trkpt lat="45.0773" lon="5.62624">
        <ele>950.1</ele>
        <time>2026-02-05T11:52:36</time>
      </trkpt>
      <trkpt lat="45.0773" lon="5.62623">
        <ele>950.1</ele>
        <time>2026-02-05T11:52:38</time>
      </trkpt>
      <trkpt lat="45.07732" lon="5.62618">
        <ele>949.9</ele>
        <time>2026-02-05T11:52:44</time>
      </trkpt>
      <trkpt lat="45.07733" lon="5.62613">
        <ele>949.9</ele>
        <time>2026-02-05T11:52:49</time>
      </trkpt>
      <trkpt lat="45.07733" lon="5.6261">
        <ele>952.9</ele>
        <time>2026-02-05T11:52:51</time>
      </trkpt>
      <trkpt lat="45.07734" lon="5.62604">
        <ele>952.9</ele>
        <time>2026-02-05T11:52:58</time>
      </trkpt>
      <trkpt lat="45.07734" lon="5.62602">
        <ele>953.3</ele>
        <time>2026-02-05T11:53:00</time>
      </trkpt>
      <trkpt lat="45.07735" lon="5.62601">
        <ele>953.3</ele>
        <time>2026-02-05T11:53:01</time>
      </trkpt>
      <trkpt lat="45.07734" lon="5.62601">
        <ele>953.3</ele>
        <time>2026-02-05T11:53:02</time>
      </trkpt>
      <trkpt lat="45.07734" lon="5.626">
        <ele>953.3</ele>
        <time>2026-02-05T11:53:04</time>
      </trkpt>
      <trkpt lat="45.07734" lon="5.626">
        <ele>953.3</ele>
        <time>2026-02-05T11:53:05</time>
      </trkpt>
      <trkpt lat="45.07734" lon="5.62599">
        <ele>953.3</ele>
        <time>2026-02-05T11:53:08</time>
      </trkpt>
      <trkpt lat="45.07734" lon="5.62599">
        <ele>953.8</ele>
        <time>2026-02-05T11:53:10</time>
      </trkpt>
      <trkpt lat="45.07734" lon="5.62599">
        <ele>953.8</ele>
        <time>2026-02-05T11:53:11</time>
      </trkpt>
      <trkpt lat="45.07734" lon="5.62598">
        <ele>953.8</ele>
        <time>2026-02-05T11:53:12</time>
      </trkpt>
      <trkpt lat="45.07733" lon="5.62597">
        <ele>953.8</ele>
        <time>2026-02-05T11:53:14</time>
      </trkpt>
      <trkpt lat="45.07733" lon="5.62596">
        <ele>953.8</ele>
        <time>2026-02-05T11:53:15</time>
      </trkpt>
      <trkpt lat="45.07733" lon="5.62595">
        <ele>953.8</ele>
        <time>2026-02-05T11:53:17</time>
      </trkpt>
      <trkpt lat="45.07733" lon="5.62592">
        <ele>954.3</ele>
        <time>2026-02-05T11:53:19</time>
      </trkpt>
      <trkpt lat="45.07734" lon="5.62586">
        <ele>954.3</ele>
        <time>2026-02-05T11:53:22</time>
      </trkpt>
      <trkpt lat="45.07734" lon="5.62586">
        <ele>954.3</ele>
        <time>2026-02-05T11:53:23</time>
      </trkpt>
      <trkpt lat="45.07734" lon="5.62585">
        <ele>954.3</ele>
        <time>2026-02-05T11:53:25</time>
      </trkpt>
      <trkpt lat="45.07734" lon="5.62585">
        <ele>958.3</ele>
        <time>2026-02-05T11:53:27</time>
      </trkpt>
      <trkpt lat="45.07734" lon="5.62584">
        <ele>958.4</ele>
        <time>2026-02-05T11:53:37</time>
      </trkpt>
      <trkpt lat="45.07734" lon="5.62584">
        <ele>958.4</ele>
        <time>2026-02-05T11:53:38</time>
      </trkpt>
      <trkpt lat="45.07734" lon="5.62583">
        <ele>958.4</ele>
        <time>2026-02-05T11:53:40</time>
      </trkpt>
      <trkpt lat="45.07734" lon="5.62578">
        <ele>958.4</ele>
        <time>2026-02-05T11:53:43</time>
      </trkpt>
      <trkpt lat="45.07733" lon="5.62577">
        <ele>958.4</ele>
        <time>2026-02-05T11:53:43</time>
      </trkpt>
      <trkpt lat="45.07733" lon="5.62577">
        <ele>958.4</ele>
        <time>2026-02-05T11:53:44</time>
      </trkpt>
      <trkpt lat="45.07733" lon="5.62576">
        <ele>958.4</ele>
        <time>2026-02-05T11:53:45</time>
      </trkpt>
      <trkpt lat="45.07733" lon="5.62574">
        <ele>960.86664</ele>
        <time>2026-02-05T11:53:47</time>
      </trkpt>
      <trkpt lat="45.07733" lon="5.62571">
        <ele>960.86664</ele>
        <time>2026-02-05T11:53:50</time>
      </trkpt>
      <trkpt lat="45.07733" lon="5.6257">
        <ele>960.86664</ele>
        <time>2026-02-05T11:53:51</time>
      </trkpt>
      <trkpt lat="45.07733" lon="5.62569">
        <ele>960.86664</ele>
        <time>2026-02-05T11:53:51</time>
      </trkpt>
      <trkpt lat="45.07732" lon="5.62568">
        <ele>960.86664</ele>
        <time>2026-02-05T11:53:53</time>
      </trkpt>
      <trkpt lat="45.07732" lon="5.62567">
        <ele>960.86664</ele>
        <time>2026-02-05T11:53:54</time>
      </trkpt>
      <trkpt lat="45.07732" lon="5.62566">
        <ele>960.86664</ele>
        <time>2026-02-05T11:53:55</time>
      </trkpt>
      <trkpt lat="45.07732" lon="5.62565">
        <ele>960.86664</ele>
        <time>2026-02-05T11:53:56</time>
      </trkpt>
      <trkpt lat="45.07731" lon="5.62564">
        <ele>961.3</ele>
        <time>2026-02-05T11:53:58</time>
      </trkpt>
      <trkpt lat="45.07731" lon="5.62563">
        <ele>961.3</ele>
        <time>2026-02-05T11:53:58</time>
      </trkpt>
      <trkpt lat="45.0773" lon="5.62562">
        <ele>961.3</ele>
        <time>2026-02-05T11:53:59</time>
      </trkpt>
      <trkpt lat="45.07729" lon="5.62562">
        <ele>961.3</ele>
        <time>2026-02-05T11:54:01</time>
      </trkpt>
      <trkpt lat="45.07728" lon="5.62561">
        <ele>961.3</ele>
        <time>2026-02-05T11:54:03</time>
      </trkpt>
      <trkpt lat="45.07728" lon="5.62562">
        <ele>961.3</ele>
        <time>2026-02-05T11:54:04</time>
      </trkpt>
      <trkpt lat="45.07728" lon="5.62561">
        <ele>963.7</ele>
        <time>2026-02-05T11:54:06</time>
      </trkpt>
      <trkpt lat="45.07727" lon="5.62561">
        <ele>963.7</ele>
        <time>2026-02-05T11:54:08</time>
      </trkpt>
      <trkpt lat="45.07727" lon="5.62561">
        <ele>963.7</ele>
        <time>2026-02-05T11:54:09</time>
      </trkpt>
      <trkpt lat="45.07727" lon="5.62561">
        <ele>963.7</ele>
        <time>2026-02-05T11:54:10</time>
      </trkpt>
      <trkpt lat="45.07727" lon="5.62561">
        <ele>963.7</ele>
        <time>2026-02-05T11:54:10</time>
      </trkpt>
      <trkpt lat="45.07727" lon="5.62561">
        <ele>963.7</ele>
        <time>2026-02-05T11:54:12</time>
      </trkpt>
      <trkpt lat="45.07727" lon="5.62561">
        <ele>963.7</ele>
        <time>2026-02-05T11:54:13</time>
      </trkpt>
      <trkpt lat="45.07727" lon="5.62561">
        <ele>964</ele>
        <time>2026-02-05T11:54:21</time>
      </trkpt>
      <trkpt lat="45.07727" lon="5.62561">
        <ele>964</ele>
        <time>2026-02-05T11:54:22</time>
      </trkpt>
      <trkpt lat="45.07727" lon="5.62561">
        <ele>964</ele>
        <time>2026-02-05T11:54:23</time>
      </trkpt>
      <trkpt lat="45.07727" lon="5.62561">
        <ele>964</ele>
        <time>2026-02-05T11:54:24</time>
      </trkpt>
      <trkpt lat="45.07727" lon="5.62561">
        <ele>964</ele>
        <time>2026-02-05T11:54:25</time>
      </trkpt>
      <trkpt lat="45.07727" lon="5.62561">
        <ele>964</ele>
        <time>2026-02-05T11:54:26</time>
      </trkpt>
      <trkpt lat="45.07726" lon="5.6256">
        <ele>964</ele>
        <time>2026-02-05T11:54:29</time>
      </trkpt>
      <trkpt lat="45.07726" lon="5.6256">
        <ele>964</ele>
        <time>2026-02-05T11:54:29</time>
      </trkpt>
      <trkpt lat="45.07727" lon="5.62555">
        <ele>964</ele>
        <time>2026-02-05T11:54:32</time>
      </trkpt>
      <trkpt lat="45.07728" lon="5.62549">
        <ele>964</ele>
        <time>2026-02-05T11:54:33</time>
      </trkpt>
      <trkpt lat="45.07728" lon="5.62546">
        <ele>964</ele>
        <time>2026-02-05T11:54:34</time>
      </trkpt>
      <trkpt lat="45.07727" lon="5.62544">
        <ele>964</ele>
        <time>2026-02-05T11:54:36</time>
      </trkpt>
      <trkpt lat="45.07726" lon="5.62541">
        <ele>964</ele>
        <time>2026-02-05T11:54:39</time>
      </trkpt>
      <trkpt lat="45.07726" lon="5.6254">
        <ele>964</ele>
        <time>2026-02-05T11:54:40</time>
      </trkpt>
      <trkpt lat="45.07726" lon="5.62539">
        <ele>964</ele>
        <time>2026-02-05T11:54:41</time>
      </trkpt>
      <trkpt lat="45.07726" lon="5.62539">
        <ele>963.7</ele>
        <time>2026-02-05T11:54:42</time>
      </trkpt>
      <trkpt lat="45.07726" lon="5.62539">
        <ele>963.7</ele>
        <time>2026-02-05T11:54:43</time>
      </trkpt>
      <trkpt lat="45.07726" lon="5.62539">
        <ele>963.7</ele>
        <time>2026-02-05T11:54:44</time>
      </trkpt>
      <trkpt lat="45.07726" lon="5.62539">
        <ele>963.7</ele>
        <time>2026-02-05T11:54:46</time>
      </trkpt>
      <trkpt lat="45.07726" lon="5.62539">
        <ele>963.7</ele>
        <time>2026-02-05T11:54:47</time>
      </trkpt>
      <trkpt lat="45.07726" lon="5.62539">
        <ele>963.7</ele>
        <time>2026-02-05T11:54:50</time>
      </trkpt>
      <trkpt lat="45.07726" lon="5.62537">
        <ele>963.3</ele>
        <time>2026-02-05T11:54:54</time>
      </trkpt>
      <trkpt lat="45.07728" lon="5.62528">
        <ele>963.3</ele>
        <time>2026-02-05T11:54:59</time>
      </trkpt>
      <trkpt lat="45.07728" lon="5.62527">
        <ele>963.3</ele>
        <time>2026-02-05T11:55:00</time>
      </trkpt>
      <trkpt lat="45.07728" lon="5.62526">
        <ele>963.3</ele>
        <time>2026-02-05T11:55:01</time>
      </trkpt>
      <trkpt lat="45.07728" lon="5.62525">
        <ele>963.3</ele>
        <time>2026-02-05T11:55:02</time>
      </trkpt>
      <trkpt lat="45.07727" lon="5.62521">
        <ele>963.3</ele>
        <time>2026-02-05T11:55:06</time>
      </trkpt>
      <trkpt lat="45.07725" lon="5.62518">
        <ele>962.23334</ele>
        <time>2026-02-05T11:55:10</time>
      </trkpt>
      <trkpt lat="45.07724" lon="5.62517">
        <ele>962.23334</ele>
        <time>2026-02-05T11:55:13</time>
      </trkpt>
      <trkpt lat="45.07724" lon="5.62517">
        <ele>962.23334</ele>
        <time>2026-02-05T11:55:14</time>
      </trkpt>
      <trkpt lat="45.07723" lon="5.62515">
        <ele>962.23334</ele>
        <time>2026-02-05T11:55:17</time>
      </trkpt>
      <trkpt lat="45.07722" lon="5.62514">
        <ele>962.8</ele>
        <time>2026-02-05T11:55:18</time>
      </trkpt>
      <trkpt lat="45.07722" lon="5.62511">
        <ele>962.8</ele>
        <time>2026-02-05T11:55:20</time>
      </trkpt>
      <trkpt lat="45.07722" lon="5.6251">
        <ele>962.8</ele>
        <time>2026-02-05T11:55:22</time>
      </trkpt>
      <trkpt lat="45.07722" lon="5.62509">
        <ele>962.8</ele>
        <time>2026-02-05T11:55:23</time>
      </trkpt>
      <trkpt lat="45.07721" lon="5.62508">
        <ele>962.8</ele>
        <time>2026-02-05T11:55:24</time>
      </trkpt>
      <trkpt lat="45.07721" lon="5.62507">
        <ele>962.8</ele>
        <time>2026-02-05T11:55:26</time>
      </trkpt>
      <trkpt lat="45.07722" lon="5.62505">
        <ele>963.1667</ele>
        <time>2026-02-05T11:55:29</time>
      </trkpt>
      <trkpt lat="45.07722" lon="5.62504">
        <ele>963.1667</ele>
        <time>2026-02-05T11:55:33</time>
      </trkpt>
      <trkpt lat="45.07723" lon="5.62503">
        <ele>964.5</ele>
        <time>2026-02-05T11:55:36</time>
      </trkpt>
      <trkpt lat="45.07722" lon="5.62499">
        <ele>964.5</ele>
        <time>2026-02-05T11:55:40</time>
      </trkpt>
      <trkpt lat="45.07721" lon="5.62496">
        <ele>964.5</ele>
        <time>2026-02-05T11:55:43</time>
      </trkpt>
      <trkpt lat="45.07721" lon="5.62495">
        <ele>964.5</ele>
        <time>2026-02-05T11:55:44</time>
      </trkpt>
      <trkpt lat="45.07721" lon="5.62495">
        <ele>964.5</ele>
        <time>2026-02-05T11:55:45</time>
      </trkpt>
      <trkpt lat="45.07721" lon="5.62495">
        <ele>965.3333</ele>
        <time>2026-02-05T11:55:46</time>
      </trkpt>
      <trkpt lat="45.07721" lon="5.62495">
        <ele>965.3333</ele>
        <time>2026-02-05T11:55:48</time>
      </trkpt>
      <trkpt lat="45.07721" lon="5.62494">
        <ele>965.3333</ele>
        <time>2026-02-05T11:55:50</time>
      </trkpt>
      <trkpt lat="45.07721" lon="5.62494">
        <ele>965.3333</ele>
        <time>2026-02-05T11:55:51</time>
      </trkpt>
      <trkpt lat="45.07721" lon="5.62493">
        <ele>965.3333</ele>
        <time>2026-02-05T11:55:52</time>
      </trkpt>
      <trkpt lat="45.07721" lon="5.62492">
        <ele>965.3333</ele>
        <time>2026-02-05T11:55:53</time>
      </trkpt>
      <trkpt lat="45.07721" lon="5.62492">
        <ele>969.4</ele>
        <time>2026-02-05T11:55:54</time>
      </trkpt>
      <trkpt lat="45.07721" lon="5.62492">
        <ele>969.4</ele>
        <time>2026-02-05T11:55:55</time>
      </trkpt>
      <trkpt lat="45.07721" lon="5.62491">
        <ele>969.4</ele>
        <time>2026-02-05T11:55:56</time>
      </trkpt>
      <trkpt lat="45.07721" lon="5.62491">
        <ele>969.4</ele>
        <time>2026-02-05T11:55:57</time>
      </trkpt>
      <trkpt lat="45.07721" lon="5.62491">
        <ele>970.1</ele>
        <time>2026-02-05T11:56:05</time>
      </trkpt>
      <trkpt lat="45.07721" lon="5.62491">
        <ele>970.1</ele>
        <time>2026-02-05T11:56:09</time>
      </trkpt>
      <trkpt lat="45.07721" lon="5.62491">
        <ele>970.1</ele>
        <time>2026-02-05T11:56:09</time>
      </trkpt>
      <trkpt lat="45.07721" lon="5.62491">
        <ele>970.1</ele>
        <time>2026-02-05T11:56:10</time>
      </trkpt>
      <trkpt lat="45.07721" lon="5.62491">
        <ele>970.1</ele>
        <time>2026-02-05T11:56:10</time>
      </trkpt>
      <trkpt lat="45.07721" lon="5.62491">
        <ele>970.1</ele>
        <time>2026-02-05T11:56:16</time>
      </trkpt>
      <trkpt lat="45.07722" lon="5.62483">
        <ele>970.1</ele>
        <time>2026-02-05T11:56:33</time>
      </trkpt>
      <trkpt lat="45.07722" lon="5.62479">
        <ele>970.1</ele>
        <time>2026-02-05T11:56:34</time>
      </trkpt>
      <trkpt lat="45.07723" lon="5.62479">
        <ele>970.1</ele>
        <time>2026-02-05T11:56:35</time>
      </trkpt>
      <trkpt lat="45.07721" lon="5.62487">
        <ele>970.1</ele>
        <time>2026-02-05T11:56:36</time>
      </trkpt>
      <trkpt lat="45.07721" lon="5.6249">
        <ele>970.1</ele>
        <time>2026-02-05T11:56:37</time>
      </trkpt>
      <trkpt lat="45.07721" lon="5.62491">
        <ele>970.1</ele>
        <time>2026-02-05T11:56:39</time>
      </trkpt>
      <trkpt lat="45.07721" lon="5.6249">
        <ele>972.9667</ele>
        <time>2026-02-05T11:56:41</time>
      </trkpt>
      <trkpt lat="45.07721" lon="5.6249">
        <ele>972.9667</ele>
        <time>2026-02-05T11:56:43</time>
      </trkpt>
      <trkpt lat="45.07721" lon="5.62489">
        <ele>972.9667</ele>
        <time>2026-02-05T11:56:45</time>
      </trkpt>
      <trkpt lat="45.07721" lon="5.62483">
        <ele>972.9667</ele>
        <time>2026-02-05T11:56:47</time>
      </trkpt>
      <trkpt lat="45.07722" lon="5.62479">
        <ele>978.4</ele>
        <time>2026-02-05T11:56:49</time>
      </trkpt>
      <trkpt lat="45.07722" lon="5.62477">
        <ele>978.4</ele>
        <time>2026-02-05T11:56:50</time>
      </trkpt>
      <trkpt lat="45.07723" lon="5.62474">
        <ele>978.4</ele>
        <time>2026-02-05T11:56:56</time>
      </trkpt>
      <trkpt lat="45.07722" lon="5.62471">
        <ele>977.7</ele>
        <time>2026-02-05T11:57:01</time>
      </trkpt>
      <trkpt lat="45.07722" lon="5.6247">
        <ele>977.7</ele>
        <time>2026-02-05T11:57:02</time>
      </trkpt>
      <trkpt lat="45.07722" lon="5.62469">
        <ele>977.7</ele>
        <time>2026-02-05T11:57:02</time>
      </trkpt>
      <trkpt lat="45.07723" lon="5.62468">
        <ele>977.7</ele>
        <time>2026-02-05T11:57:03</time>
      </trkpt>
      <trkpt lat="45.07723" lon="5.62465">
        <ele>979.1667</ele>
        <time>2026-02-05T11:57:05</time>
      </trkpt>
      <trkpt lat="45.07722" lon="5.62464">
        <ele>979.1667</ele>
        <time>2026-02-05T11:57:05</time>
      </trkpt>
      <trkpt lat="45.07722" lon="5.62459">
        <ele>979.1667</ele>
        <time>2026-02-05T11:57:11</time>
      </trkpt>
      <trkpt lat="45.07722" lon="5.62458">
        <ele>980.2</ele>
        <time>2026-02-05T11:57:12</time>
      </trkpt>
      <trkpt lat="45.07722" lon="5.62458">
        <ele>980.2</ele>
        <time>2026-02-05T11:57:13</time>
      </trkpt>
      <trkpt lat="45.07721" lon="5.62454">
        <ele>980.2</ele>
        <time>2026-02-05T11:57:16</time>
      </trkpt>
      <trkpt lat="45.07717" lon="5.62452">
        <ele>982.1</ele>
        <time>2026-02-05T11:57:23</time>
      </trkpt>
      <trkpt lat="45.07717" lon="5.62452">
        <ele>982.1</ele>
        <time>2026-02-05T11:57:23</time>
      </trkpt>
      <trkpt lat="45.07717" lon="5.62452">
        <ele>982.1</ele>
        <time>2026-02-05T11:57:24</time>
      </trkpt>
      <trkpt lat="45.07717" lon="5.62452">
        <ele>982.1</ele>
        <time>2026-02-05T11:57:25</time>
      </trkpt>
      <trkpt lat="45.07717" lon="5.6245">
        <ele>982.9</ele>
        <time>2026-02-05T11:57:29</time>
      </trkpt>
      <trkpt lat="45.07717" lon="5.6245">
        <ele>982.9</ele>
        <time>2026-02-05T11:57:30</time>
      </trkpt>
      <trkpt lat="45.07717" lon="5.62449">
        <ele>982.9</ele>
        <time>2026-02-05T11:57:31</time>
      </trkpt>
      <trkpt lat="45.07717" lon="5.62448">
        <ele>982.9</ele>
        <time>2026-02-05T11:57:33</time>
      </trkpt>
      <trkpt lat="45.07716" lon="5.62447">
        <ele>982.9</ele>
        <time>2026-02-05T11:57:34</time>
      </trkpt>
      <trkpt lat="45.07711" lon="5.62445">
        <ele>984.5</ele>
        <time>2026-02-05T11:57:39</time>
      </trkpt>
      <trkpt lat="45.0771" lon="5.62444">
        <ele>984.5</ele>
        <time>2026-02-05T11:57:40</time>
      </trkpt>
      <trkpt lat="45.07709" lon="5.62444">
        <ele>984.5</ele>
        <time>2026-02-05T11:57:40</time>
      </trkpt>
      <trkpt lat="45.0771" lon="5.62444">
        <ele>984.5</ele>
        <time>2026-02-05T11:57:43</time>
      </trkpt>
      <trkpt lat="45.0771" lon="5.62444">
        <ele>984.5</ele>
        <time>2026-02-05T11:57:43</time>
      </trkpt>
      <trkpt lat="45.07711" lon="5.62444">
        <ele>984.5</ele>
        <time>2026-02-05T11:57:45</time>
      </trkpt>
      <trkpt lat="45.07711" lon="5.62444">
        <ele>984.56665</ele>
        <time>2026-02-05T11:57:46</time>
      </trkpt>
      <trkpt lat="45.07711" lon="5.62445">
        <ele>984.56665</ele>
        <time>2026-02-05T11:57:49</time>
      </trkpt>
      <trkpt lat="45.07712" lon="5.62444">
        <ele>984.56665</ele>
        <time>2026-02-05T11:57:51</time>
      </trkpt>
      <trkpt lat="45.07713" lon="5.6244">
        <ele>984.5</ele>
        <time>2026-02-05T11:57:56</time>
      </trkpt>
      <trkpt lat="45.07713" lon="5.6244">
        <ele>984.5</ele>
        <time>2026-02-05T11:57:57</time>
      </trkpt>
      <trkpt lat="45.07712" lon="5.62439">
        <ele>984.5</ele>
        <time>2026-02-05T11:57:58</time>
      </trkpt>
      <trkpt lat="45.07712" lon="5.62438">
        <ele>984.5</ele>
        <time>2026-02-05T11:58:01</time>
      </trkpt>
      <trkpt lat="45.07712" lon="5.62438">
        <ele>984.5</ele>
        <time>2026-02-05T11:58:05</time>
      </trkpt>
      <trkpt lat="45.07712" lon="5.62437">
        <ele>984</ele>
        <time>2026-02-05T11:58:07</time>
      </trkpt>
      <trkpt lat="45.07712" lon="5.62437">
        <ele>984</ele>
        <time>2026-02-05T11:58:08</time>
      </trkpt>
      <trkpt lat="45.07712" lon="5.62436">
        <ele>984</ele>
        <time>2026-02-05T11:58:09</time>
      </trkpt>
      <trkpt lat="45.07712" lon="5.62436">
        <ele>984</ele>
        <time>2026-02-05T11:58:09</time>
      </trkpt>
      <trkpt lat="45.07712" lon="5.62436">
        <ele>984</ele>
        <time>2026-02-05T11:58:10</time>
      </trkpt>
      <trkpt lat="45.07713" lon="5.62436">
        <ele>984</ele>
        <time>2026-02-05T11:58:11</time>
      </trkpt>
      <trkpt lat="45.07713" lon="5.62436">
        <ele>984</ele>
        <time>2026-02-05T11:58:11</time>
      </trkpt>
      <trkpt lat="45.07714" lon="5.62436">
        <ele>984</ele>
        <time>2026-02-05T11:58:13</time>
      </trkpt>
      <trkpt lat="45.07714" lon="5.62436">
        <ele>983.6</ele>
        <time>2026-02-05T11:58:14</time>
      </trkpt>
      <trkpt lat="45.07715" lon="5.62436">
        <ele>983.6</ele>
        <time>2026-02-05T11:58:14</time>
      </trkpt>
      <trkpt lat="45.07716" lon="5.62436">
        <ele>983.6</ele>
        <time>2026-02-05T11:58:16</time>
      </trkpt>
      <trkpt lat="45.07717" lon="5.62436">
        <ele>983.6</ele>
        <time>2026-02-05T11:58:17</time>
      </trkpt>
      <trkpt lat="45.07717" lon="5.62436">
        <ele>983.6</ele>
        <time>2026-02-05T11:58:18</time>
      </trkpt>
      <trkpt lat="45.07718" lon="5.62436">
        <ele>983.6</ele>
        <time>2026-02-05T11:58:19</time>
      </trkpt>
      <trkpt lat="45.07718" lon="5.62437">
        <ele>983.6</ele>
        <time>2026-02-05T11:58:20</time>
      </trkpt>
      <trkpt lat="45.07719" lon="5.62437">
        <ele>983.6</ele>
        <time>2026-02-05T11:58:20</time>
      </trkpt>
      <trkpt lat="45.07719" lon="5.62437">
        <ele>983.6</ele>
        <time>2026-02-05T11:58:22</time>
      </trkpt>
      <trkpt lat="45.07719" lon="5.62437">
        <ele>983.6</ele>
        <time>2026-02-05T11:58:23</time>
      </trkpt>
      <trkpt lat="45.07719" lon="5.62436">
        <ele>983.6</ele>
        <time>2026-02-05T11:58:24</time>
      </trkpt>
      <trkpt lat="45.0772" lon="5.62436">
        <ele>983.6</ele>
        <time>2026-02-05T11:58:29</time>
      </trkpt>
      <trkpt lat="45.0772" lon="5.62436">
        <ele>983.6</ele>
        <time>2026-02-05T11:58:30</time>
      </trkpt>
      <trkpt lat="45.0772" lon="5.62436">
        <ele>983.5</ele>
        <time>2026-02-05T11:58:30</time>
      </trkpt>
      <trkpt lat="45.0772" lon="5.62437">
        <ele>983.5</ele>
        <time>2026-02-05T11:58:31</time>
      </trkpt>
      <trkpt lat="45.0772" lon="5.62437">
        <ele>983.5</ele>
        <time>2026-02-05T11:58:32</time>
      </trkpt>
      <trkpt lat="45.07721" lon="5.62438">
        <ele>983.5</ele>
        <time>2026-02-05T11:58:33</time>
      </trkpt>
      <trkpt lat="45.07721" lon="5.62439">
        <ele>983.5</ele>
        <time>2026-02-05T11:58:34</time>
      </trkpt>
      <trkpt lat="45.07721" lon="5.62439">
        <ele>983.5</ele>
        <time>2026-02-05T11:58:35</time>
      </trkpt>
      <trkpt lat="45.07721" lon="5.6244">
        <ele>983.5</ele>
        <time>2026-02-05T11:58:36</time>
      </trkpt>
      <trkpt lat="45.07722" lon="5.6244">
        <ele>983.5</ele>
        <time>2026-02-05T11:58:37</time>
      </trkpt>
      <trkpt lat="45.07723" lon="5.62441">
        <ele>983.6667</ele>
        <time>2026-02-05T11:58:39</time>
      </trkpt>
      <trkpt lat="45.07723" lon="5.62441">
        <ele>983.6667</ele>
        <time>2026-02-05T11:58:40</time>
      </trkpt>
      <trkpt lat="45.07724" lon="5.62442">
        <ele>983.6667</ele>
        <time>2026-02-05T11:58:41</time>
      </trkpt>
      <trkpt lat="45.07725" lon="5.62443">
        <ele>983.6667</ele>
        <time>2026-02-05T11:58:42</time>
      </trkpt>
      <trkpt lat="45.07729" lon="5.62447">
        <ele>983.6</ele>
        <time>2026-02-05T11:58:47</time>
      </trkpt>
      <trkpt lat="45.07729" lon="5.62448">
        <ele>983.6</ele>
        <time>2026-02-05T11:58:48</time>
      </trkpt>
      <trkpt lat="45.0773" lon="5.6245">
        <ele>983.6</ele>
        <time>2026-02-05T11:58:52</time>
      </trkpt>
      <trkpt lat="45.07731" lon="5.6245">
        <ele>983.6</ele>
        <time>2026-02-05T11:58:53</time>
      </trkpt>
      <trkpt lat="45.07731" lon="5.6245">
        <ele>983.5</ele>
        <time>2026-02-05T11:58:53</time>
      </trkpt>
      <trkpt lat="45.07731" lon="5.62449">
        <ele>983.5</ele>
        <time>2026-02-05T11:58:55</time>
      </trkpt>
      <trkpt lat="45.07732" lon="5.62447">
        <ele>983.5</ele>
        <time>2026-02-05T11:58:57</time>
      </trkpt>
      <trkpt lat="45.07732" lon="5.62446">
        <ele>983.5</ele>
        <time>2026-02-05T11:58:58</time>
      </trkpt>
      <trkpt lat="45.07732" lon="5.62445">
        <ele>983.5</ele>
        <time>2026-02-05T11:59:00</time>
      </trkpt>
      <trkpt lat="45.07729" lon="5.62442">
        <ele>983.8</ele>
        <time>2026-02-05T11:59:06</time>
      </trkpt>
      <trkpt lat="45.07728" lon="5.62441">
        <ele>983.8</ele>
        <time>2026-02-05T11:59:06</time>
      </trkpt>
      <trkpt lat="45.07728" lon="5.6244">
        <ele>983.8</ele>
        <time>2026-02-05T11:59:07</time>
      </trkpt>
      <trkpt lat="45.07727" lon="5.6244">
        <ele>983.8</ele>
        <time>2026-02-05T11:59:08</time>
      </trkpt>
      <trkpt lat="45.07727" lon="5.62439">
        <ele>983.8</ele>
        <time>2026-02-05T11:59:08</time>
      </trkpt>
      <trkpt lat="45.07727" lon="5.62438">
        <ele>983.8</ele>
        <time>2026-02-05T11:59:09</time>
      </trkpt>
      <trkpt lat="45.07727" lon="5.62436">
        <ele>983.8</ele>
        <time>2026-02-05T11:59:10</time>
      </trkpt>
      <trkpt lat="45.07727" lon="5.62435">
        <ele>983.8</ele>
        <time>2026-02-05T11:59:11</time>
      </trkpt>
      <trkpt lat="45.07727" lon="5.62435">
        <ele>982.8</ele>
        <time>2026-02-05T11:59:13</time>
      </trkpt>
      <trkpt lat="45.07727" lon="5.62434">
        <ele>982.8</ele>
        <time>2026-02-05T11:59:14</time>
      </trkpt>
      <trkpt lat="45.07727" lon="5.62433">
        <ele>982.8</ele>
        <time>2026-02-05T11:59:15</time>
      </trkpt>
      <trkpt lat="45.07727" lon="5.62432">
        <ele>982.8</ele>
        <time>2026-02-05T11:59:16</time>
      </trkpt>
      <trkpt lat="45.07726" lon="5.62429">
        <ele>982.8</ele>
        <time>2026-02-05T11:59:19</time>
      </trkpt>
      <trkpt lat="45.07726" lon="5.62428">
        <ele>982.8</ele>
        <time>2026-02-05T11:59:20</time>
      </trkpt>
      <trkpt lat="45.07726" lon="5.62428">
        <ele>982.8</ele>
        <time>2026-02-05T11:59:22</time>
      </trkpt>
      <trkpt lat="45.07726" lon="5.62428">
        <ele>982</ele>
        <time>2026-02-05T11:59:25</time>
      </trkpt>
      <trkpt lat="45.07726" lon="5.62428">
        <ele>982</ele>
        <time>2026-02-05T11:59:30</time>
      </trkpt>
      <trkpt lat="45.07726" lon="5.62428">
        <ele>982</ele>
        <time>2026-02-05T11:59:31</time>
      </trkpt>
      <trkpt lat="45.07726" lon="5.62428">
        <ele>980.76666</ele>
        <time>2026-02-05T11:59:31</time>
      </trkpt>
      <trkpt lat="45.07728" lon="5.62428">
        <ele>980.76666</ele>
        <time>2026-02-05T11:59:37</time>
      </trkpt>
      <trkpt lat="45.07728" lon="5.62428">
        <ele>980.76666</ele>
        <time>2026-02-05T11:59:37</time>
      </trkpt>
      <trkpt lat="45.07728" lon="5.62427">
        <ele>980.76666</ele>
        <time>2026-02-05T11:59:39</time>
      </trkpt>
      <trkpt lat="45.07729" lon="5.62426">
        <ele>980.7</ele>
        <time>2026-02-05T11:59:41</time>
      </trkpt>
      <trkpt lat="45.07731" lon="5.62426">
        <ele>980.7</ele>
        <time>2026-02-05T11:59:46</time>
      </trkpt>
      <trkpt lat="45.07731" lon="5.62426">
        <ele>980.7</ele>
        <time>2026-02-05T11:59:47</time>
      </trkpt>
      <trkpt lat="45.07732" lon="5.62426">
        <ele>980.7</ele>
        <time>2026-02-05T11:59:48</time>
      </trkpt>
      <trkpt lat="45.07733" lon="5.62426">
        <ele>980.7</ele>
        <time>2026-02-05T11:59:49</time>
      </trkpt>
      <trkpt lat="45.07734" lon="5.62427">
        <ele>980.8333</ele>
        <time>2026-02-05T11:59:50</time>
      </trkpt>
      <trkpt lat="45.07734" lon="5.62428">
        <ele>980.8333</ele>
        <time>2026-02-05T11:59:51</time>
      </trkpt>
      <trkpt lat="45.07735" lon="5.62428">
        <ele>980.8333</ele>
        <time>2026-02-05T11:59:52</time>
      </trkpt>
      <trkpt lat="45.07738" lon="5.62428">
        <ele>980.8333</ele>
        <time>2026-02-05T11:59:53</time>
      </trkpt>
      <trkpt lat="45.07736" lon="5.62428">
        <ele>980.8333</ele>
        <time>2026-02-05T11:59:54</time>
      </trkpt>
      <trkpt lat="45.07736" lon="5.62428">
        <ele>980.8333</ele>
        <time>2026-02-05T11:59:55</time>
      </trkpt>
      <trkpt lat="45.07737" lon="5.62428">
        <ele>980.8333</ele>
        <time>2026-02-05T11:59:56</time>
      </trkpt>
      <trkpt lat="45.07738" lon="5.62429">
        <ele>980.8333</ele>
        <time>2026-02-05T11:59:57</time>
      </trkpt>
      <trkpt lat="45.07739" lon="5.62432">
        <ele>980.73334</ele>
        <time>2026-02-05T12:00:00</time>
      </trkpt>
      <trkpt lat="45.07739" lon="5.62432">
        <ele>980.73334</ele>
        <time>2026-02-05T12:00:01</time>
      </trkpt>
      <trkpt lat="45.0774" lon="5.62432">
        <ele>980.73334</ele>
        <time>2026-02-05T12:00:02</time>
      </trkpt>
      <trkpt lat="45.0774" lon="5.62433">
        <ele>980.73334</ele>
        <time>2026-02-05T12:00:03</time>
      </trkpt>
      <trkpt lat="45.0774" lon="5.62434">
        <ele>980.73334</ele>
        <time>2026-02-05T12:00:05</time>
      </trkpt>
      <trkpt lat="45.0774" lon="5.62434">
        <ele>980.73334</ele>
        <time>2026-02-05T12:00:06</time>
      </trkpt>
      <trkpt lat="45.0774" lon="5.62435">
        <ele>980.7</ele>
        <time>2026-02-05T12:00:08</time>
      </trkpt>
      <trkpt lat="45.0774" lon="5.62435">
        <ele>980.7</ele>
        <time>2026-02-05T12:00:08</time>
      </trkpt>
      <trkpt lat="45.0774" lon="5.62435">
        <ele>980.7</ele>
        <time>2026-02-05T12:00:10</time>
      </trkpt>
      <trkpt lat="45.0774" lon="5.62435">
        <ele>980.7</ele>
        <time>2026-02-05T12:00:11</time>
      </trkpt>
      <trkpt lat="45.07741" lon="5.62438">
        <ele>980.7</ele>
        <time>2026-02-05T12:00:14</time>
      </trkpt>
      <trkpt lat="45.07741" lon="5.62439">
        <ele>981.6667</ele>
        <time>2026-02-05T12:00:15</time>
      </trkpt>
      <trkpt lat="45.07741" lon="5.62439">
        <ele>981.6667</ele>
        <time>2026-02-05T12:00:16</time>
      </trkpt>
      <trkpt lat="45.07742" lon="5.6244">
        <ele>981.6667</ele>
        <time>2026-02-05T12:00:17</time>
      </trkpt>
      <trkpt lat="45.07742" lon="5.62441">
        <ele>981.6667</ele>
        <time>2026-02-05T12:00:18</time>
      </trkpt>
      <trkpt lat="45.07742" lon="5.62441">
        <ele>981.6667</ele>
        <time>2026-02-05T12:00:19</time>
      </trkpt>
      <trkpt lat="45.07742" lon="5.62442">
        <ele>981.6667</ele>
        <time>2026-02-05T12:00:20</time>
      </trkpt>
      <trkpt lat="45.07743" lon="5.62442">
        <ele>981.6667</ele>
        <time>2026-02-05T12:00:21</time>
      </trkpt>
      <trkpt lat="45.07743" lon="5.62443">
        <ele>981.6667</ele>
        <time>2026-02-05T12:00:22</time>
      </trkpt>
      <trkpt lat="45.07743" lon="5.62444">
        <ele>983.2</ele>
        <time>2026-02-05T12:00:25</time>
      </trkpt>
      <trkpt lat="45.07743" lon="5.62444">
        <ele>983.2</ele>
        <time>2026-02-05T12:00:26</time>
      </trkpt>
      <trkpt lat="45.07744" lon="5.62443">
        <ele>983.2</ele>
        <time>2026-02-05T12:00:27</time>
      </trkpt>
      <trkpt lat="45.07745" lon="5.62443">
        <ele>983.2</ele>
        <time>2026-02-05T12:00:28</time>
      </trkpt>
      <trkpt lat="45.07745" lon="5.62444">
        <ele>983.2</ele>
        <time>2026-02-05T12:00:29</time>
      </trkpt>
      <trkpt lat="45.07746" lon="5.62444">
        <ele>983.2</ele>
        <time>2026-02-05T12:00:30</time>
      </trkpt>
      <trkpt lat="45.07747" lon="5.62446">
        <ele>991.7</ele>
        <time>2026-02-05T12:00:36</time>
      </trkpt>
      <trkpt lat="45.07747" lon="5.62447">
        <ele>991.7</ele>
        <time>2026-02-05T12:00:37</time>
      </trkpt>
      <trkpt lat="45.07747" lon="5.62447">
        <ele>991.7</ele>
        <time>2026-02-05T12:00:38</time>
      </trkpt>
      <trkpt lat="45.07747" lon="5.62448">
        <ele>991.7</ele>
        <time>2026-02-05T12:00:39</time>
      </trkpt>
      <trkpt lat="45.07747" lon="5.62448">
        <ele>991.7</ele>
        <time>2026-02-05T12:00:41</time>
      </trkpt>
      <trkpt lat="45.07749" lon="5.62453">
        <ele>993.76666</ele>
        <time>2026-02-05T12:00:46</time>
      </trkpt>
      <trkpt lat="45.07749" lon="5.62454">
        <ele>993.76666</ele>
        <time>2026-02-05T12:00:47</time>
      </trkpt>
      <trkpt lat="45.0775" lon="5.62458">
        <ele>993.76666</ele>
        <time>2026-02-05T12:00:49</time>
      </trkpt>
      <trkpt lat="45.0775" lon="5.62458">
        <ele>993.76666</ele>
        <time>2026-02-05T12:00:51</time>
      </trkpt>
      <trkpt lat="45.0775" lon="5.62459">
        <ele>996.3</ele>
        <time>2026-02-05T12:00:52</time>
      </trkpt>
      <trkpt lat="45.07751" lon="5.62459">
        <ele>996.3</ele>
        <time>2026-02-05T12:00:54</time>
      </trkpt>
      <trkpt lat="45.07752" lon="5.62459">
        <ele>996.3</ele>
        <time>2026-02-05T12:00:57</time>
      </trkpt>
      <trkpt lat="45.07753" lon="5.6246">
        <ele>996.3</ele>
        <time>2026-02-05T12:00:58</time>
      </trkpt>
      <trkpt lat="45.07753" lon="5.6246">
        <ele>996.3</ele>
        <time>2026-02-05T12:00:59</time>
      </trkpt>
      <trkpt lat="45.07754" lon="5.6246">
        <ele>996.3</ele>
        <time>2026-02-05T12:01:00</time>
      </trkpt>
      <trkpt lat="45.07755" lon="5.62461">
        <ele>999.3</ele>
        <time>2026-02-05T12:01:02</time>
      </trkpt>
      <trkpt lat="45.07756" lon="5.62462">
        <ele>999.3</ele>
        <time>2026-02-05T12:01:03</time>
      </trkpt>
      <trkpt lat="45.07757" lon="5.62462">
        <ele>999.3</ele>
        <time>2026-02-05T12:01:04</time>
      </trkpt>
      <trkpt lat="45.07757" lon="5.62462">
        <ele>999.3</ele>
        <time>2026-02-05T12:01:05</time>
      </trkpt>
      <trkpt lat="45.07759" lon="5.62461">
        <ele>1001.5</ele>
        <time>2026-02-05T12:01:11</time>
      </trkpt>
      <trkpt lat="45.07761" lon="5.62461">
        <ele>1001.5</ele>
        <time>2026-02-05T12:01:16</time>
      </trkpt>
      <trkpt lat="45.07762" lon="5.62462">
        <ele>1003.56665</ele>
        <time>2026-02-05T12:01:18</time>
      </trkpt>
      <trkpt lat="45.07762" lon="5.62462">
        <ele>1003.56665</ele>
        <time>2026-02-05T12:01:19</time>
      </trkpt>
      <trkpt lat="45.07762" lon="5.62462">
        <ele>1003.56665</ele>
        <time>2026-02-05T12:01:20</time>
      </trkpt>
      <trkpt lat="45.07762" lon="5.62462">
        <ele>1003.56665</ele>
        <time>2026-02-05T12:01:21</time>
      </trkpt>
      <trkpt lat="45.07762" lon="5.62462">
        <ele>1003.56665</ele>
        <time>2026-02-05T12:01:22</time>
      </trkpt>
      <trkpt lat="45.07762" lon="5.62461">
        <ele>1003.56665</ele>
        <time>2026-02-05T12:01:23</time>
      </trkpt>
      <trkpt lat="45.07762" lon="5.62461">
        <ele>1003.56665</ele>
        <time>2026-02-05T12:01:24</time>
      </trkpt>
      <trkpt lat="45.07762" lon="5.62461">
        <ele>1003.56665</ele>
        <time>2026-02-05T12:01:24</time>
      </trkpt>
      <trkpt lat="45.07763" lon="5.6246">
        <ele>1003.56665</ele>
        <time>2026-02-05T12:01:25</time>
      </trkpt>
      <trkpt lat="45.07763" lon="5.6246">
        <ele>1006.4</ele>
        <time>2026-02-05T12:01:27</time>
      </trkpt>
      <trkpt lat="45.07764" lon="5.6246">
        <ele>1006.4</ele>
        <time>2026-02-05T12:01:29</time>
      </trkpt>
      <trkpt lat="45.07764" lon="5.62459">
        <ele>1006.4</ele>
        <time>2026-02-05T12:01:30</time>
      </trkpt>
      <trkpt lat="45.07764" lon="5.62459">
        <ele>1006.4</ele>
        <time>2026-02-05T12:01:31</time>
      </trkpt>
      <trkpt lat="45.07765" lon="5.62459">
        <ele>1006.4</ele>
        <time>2026-02-05T12:01:32</time>
      </trkpt>
      <trkpt lat="45.07765" lon="5.62459">
        <ele>1006.8</ele>
        <time>2026-02-05T12:01:33</time>
      </trkpt>
      <trkpt lat="45.07766" lon="5.6246">
        <ele>1006.8</ele>
        <time>2026-02-05T12:01:35</time>
      </trkpt>
      <trkpt lat="45.07766" lon="5.62461">
        <ele>1006.8</ele>
        <time>2026-02-05T12:01:36</time>
      </trkpt>
      <trkpt lat="45.07767" lon="5.62463">
        <ele>1006.8</ele>
        <time>2026-02-05T12:01:38</time>
      </trkpt>
      <trkpt lat="45.07767" lon="5.62468">
        <ele>1009.1667</ele>
        <time>2026-02-05T12:01:43</time>
      </trkpt>
      <trkpt lat="45.07767" lon="5.62469">
        <ele>1009.1667</ele>
        <time>2026-02-05T12:01:45</time>
      </trkpt>
      <trkpt lat="45.07767" lon="5.62469">
        <ele>1009.1667</ele>
        <time>2026-02-05T12:01:47</time>
      </trkpt>
      <trkpt lat="45.07767" lon="5.62469">
        <ele>1009.1667</ele>
        <time>2026-02-05T12:01:48</time>
      </trkpt>
      <trkpt lat="45.07767" lon="5.62469">
        <ele>1009.1667</ele>
        <time>2026-02-05T12:01:49</time>
      </trkpt>
      <trkpt lat="45.07767" lon="5.62469">
        <ele>1009.1667</ele>
        <time>2026-02-05T12:01:50</time>
      </trkpt>
      <trkpt lat="45.07767" lon="5.62469">
        <ele>1010.7</ele>
        <time>2026-02-05T12:01:54</time>
      </trkpt>
      <trkpt lat="45.07767" lon="5.62469">
        <ele>1010.7</ele>
        <time>2026-02-05T12:02:21</time>
      </trkpt>
      <trkpt lat="45.07767" lon="5.6247">
        <ele>1010.7</ele>
        <time>2026-02-05T12:02:24</time>
      </trkpt>
      <trkpt lat="45.07767" lon="5.62471">
        <ele>1010.7</ele>
        <time>2026-02-05T12:02:25</time>
      </trkpt>
      <trkpt lat="45.07767" lon="5.62472">
        <ele>1010.7</ele>
        <time>2026-02-05T12:02:26</time>
      </trkpt>
      <trkpt lat="45.07767" lon="5.62473">
        <ele>1010.7</ele>
        <time>2026-02-05T12:02:27</time>
      </trkpt>
      <trkpt lat="45.07768" lon="5.62475">
        <ele>1010.7</ele>
        <time>2026-02-05T12:02:29</time>
      </trkpt>
      <trkpt lat="45.07768" lon="5.62475">
        <ele>1014.1</ele>
        <time>2026-02-05T12:02:30</time>
      </trkpt>
      <trkpt lat="45.07769" lon="5.62475">
        <ele>1014.1</ele>
        <time>2026-02-05T12:02:31</time>
      </trkpt>
      <trkpt lat="45.0777" lon="5.62476">
        <ele>1014.1</ele>
        <time>2026-02-05T12:02:32</time>
      </trkpt>
      <trkpt lat="45.07771" lon="5.62476">
        <ele>1014.1</ele>
        <time>2026-02-05T12:02:33</time>
      </trkpt>
      <trkpt lat="45.07772" lon="5.62476">
        <ele>1014.1</ele>
        <time>2026-02-05T12:02:33</time>
      </trkpt>
      <trkpt lat="45.07776" lon="5.62477">
        <ele>1015.1</ele>
        <time>2026-02-05T12:02:38</time>
      </trkpt>
      <trkpt lat="45.07776" lon="5.62477">
        <ele>1015.1</ele>
        <time>2026-02-05T12:02:39</time>
      </trkpt>
      <trkpt lat="45.07776" lon="5.62476">
        <ele>1015.1</ele>
        <time>2026-02-05T12:02:40</time>
      </trkpt>
      <trkpt lat="45.07776" lon="5.62475">
        <ele>1015.1</ele>
        <time>2026-02-05T12:02:41</time>
      </trkpt>
      <trkpt lat="45.07777" lon="5.62475">
        <ele>1015.1</ele>
        <time>2026-02-05T12:02:42</time>
      </trkpt>
      <trkpt lat="45.07777" lon="5.62475">
        <ele>1015.1</ele>
        <time>2026-02-05T12:02:43</time>
      </trkpt>
      <trkpt lat="45.07779" lon="5.62475">
        <ele>1014.8</ele>
        <time>2026-02-05T12:02:47</time>
      </trkpt>
      <trkpt lat="45.0778" lon="5.62475">
        <ele>1014.8</ele>
        <time>2026-02-05T12:02:48</time>
      </trkpt>
      <trkpt lat="45.0778" lon="5.62476">
        <ele>1014.8</ele>
        <time>2026-02-05T12:02:49</time>
      </trkpt>
      <trkpt lat="45.07784" lon="5.62477">
        <ele>1014.5333</ele>
        <time>2026-02-05T12:02:54</time>
      </trkpt>
      <trkpt lat="45.07785" lon="5.62477">
        <ele>1014.5333</ele>
        <time>2026-02-05T12:02:56</time>
      </trkpt>
      <trkpt lat="45.07787" lon="5.62476">
        <ele>1014.5333</ele>
        <time>2026-02-05T12:02:58</time>
      </trkpt>
      <trkpt lat="45.07788" lon="5.62476">
        <ele>1014.5333</ele>
        <time>2026-02-05T12:02:59</time>
      </trkpt>
      <trkpt lat="45.0779" lon="5.62475">
        <ele>1014.5</ele>
        <time>2026-02-05T12:03:02</time>
      </trkpt>
      <trkpt lat="45.07795" lon="5.62478">
        <ele>1014.5</ele>
        <time>2026-02-05T12:03:11</time>
      </trkpt>
      <trkpt lat="45.07795" lon="5.62479">
        <ele>1014.6</ele>
        <time>2026-02-05T12:03:11</time>
      </trkpt>
      <trkpt lat="45.07795" lon="5.6248">
        <ele>1014.6</ele>
        <time>2026-02-05T12:03:12</time>
      </trkpt>
      <trkpt lat="45.07794" lon="5.6248">
        <ele>1014.6</ele>
        <time>2026-02-05T12:03:13</time>
      </trkpt>
      <trkpt lat="45.07792" lon="5.62477">
        <ele>1015</ele>
        <time>2026-02-05T12:03:23</time>
      </trkpt>
      <trkpt lat="45.07792" lon="5.62477">
        <ele>1015</ele>
        <time>2026-02-05T12:03:25</time>
      </trkpt>
      <trkpt lat="45.07792" lon="5.62477">
        <ele>1015</ele>
        <time>2026-02-05T12:03:26</time>
      </trkpt>
      <trkpt lat="45.07792" lon="5.62477">
        <ele>1015</ele>
        <time>2026-02-05T12:03:29</time>
      </trkpt>
      <trkpt lat="45.07792" lon="5.62477">
        <ele>1015</ele>
        <time>2026-02-05T12:03:32</time>
      </trkpt>
      <trkpt lat="45.07793" lon="5.62479">
        <ele>1015</ele>
        <time>2026-02-05T12:03:36</time>
      </trkpt>
      <trkpt lat="45.07793" lon="5.6248">
        <ele>1015</ele>
        <time>2026-02-05T12:03:36</time>
      </trkpt>
      <trkpt lat="45.07796" lon="5.62483">
        <ele>1015</ele>
        <time>2026-02-05T12:03:44</time>
      </trkpt>
      <trkpt lat="45.07797" lon="5.62483">
        <ele>1015</ele>
        <time>2026-02-05T12:03:45</time>
      </trkpt>
      <trkpt lat="45.07797" lon="5.62483">
        <ele>1015.1</ele>
        <time>2026-02-05T12:03:46</time>
      </trkpt>
      <trkpt lat="45.07798" lon="5.62483">
        <ele>1015.1</ele>
        <time>2026-02-05T12:03:47</time>
      </trkpt>
      <trkpt lat="45.07799" lon="5.62483">
        <ele>1015.1</ele>
        <time>2026-02-05T12:03:49</time>
      </trkpt>
      <trkpt lat="45.078" lon="5.62482">
        <ele>1015.1</ele>
        <time>2026-02-05T12:03:52</time>
      </trkpt>
      <trkpt lat="45.07801" lon="5.62482">
        <ele>1015.1</ele>
        <time>2026-02-05T12:03:52</time>
      </trkpt>
      <trkpt lat="45.07802" lon="5.62482">
        <ele>1015.1</ele>
        <time>2026-02-05T12:03:53</time>
      </trkpt>
      <trkpt lat="45.07803" lon="5.62483">
        <ele>1015.4</ele>
        <time>2026-02-05T12:03:53</time>
      </trkpt>
      <trkpt lat="45.07806" lon="5.62484">
        <ele>1015.4</ele>
        <time>2026-02-05T12:03:56</time>
      </trkpt>
      <trkpt lat="45.07808" lon="5.62485">
        <ele>1015.4</ele>
        <time>2026-02-05T12:03:58</time>
      </trkpt>
      <trkpt lat="45.07809" lon="5.62485">
        <ele>1015.4</ele>
        <time>2026-02-05T12:03:59</time>
      </trkpt>
      <trkpt lat="45.0781" lon="5.62485">
        <ele>1015.5</ele>
        <time>2026-02-05T12:04:00</time>
      </trkpt>
      <trkpt lat="45.07811" lon="5.62485">
        <ele>1015.5</ele>
        <time>2026-02-05T12:04:02</time>
      </trkpt>
      <trkpt lat="45.07812" lon="5.62484">
        <ele>1015.5</ele>
        <time>2026-02-05T12:04:03</time>
      </trkpt>
      <trkpt lat="45.07812" lon="5.62484">
        <ele>1015.5</ele>
        <time>2026-02-05T12:04:05</time>
      </trkpt>
      <trkpt lat="45.07812" lon="5.62484">
        <ele>1015.5</ele>
        <time>2026-02-05T12:04:06</time>
      </trkpt>
      <trkpt lat="45.07812" lon="5.62485">
        <ele>1015.5</ele>
        <time>2026-02-05T12:04:08</time>
      </trkpt>
      <trkpt lat="45.07812" lon="5.62485">
        <ele>1015.5</ele>
        <time>2026-02-05T12:04:10</time>
      </trkpt>
      <trkpt lat="45.07812" lon="5.62485">
        <ele>1015.5</ele>
        <time>2026-02-05T12:04:10</time>
      </trkpt>
      <trkpt lat="45.07812" lon="5.62486">
        <ele>1015.5</ele>
        <time>2026-02-05T12:04:13</time>
      </trkpt>
      <trkpt lat="45.07812" lon="5.62486">
        <ele>1015.5</ele>
        <time>2026-02-05T12:04:13</time>
      </trkpt>
      <trkpt lat="45.07812" lon="5.62486">
        <ele>1015.5</ele>
        <time>2026-02-05T12:04:14</time>
      </trkpt>
      <trkpt lat="45.07812" lon="5.62486">
        <ele>1015.63336</ele>
        <time>2026-02-05T12:04:15</time>
      </trkpt>
      <trkpt lat="45.07812" lon="5.62486">
        <ele>1015.63336</ele>
        <time>2026-02-05T12:04:17</time>
      </trkpt>
      <trkpt lat="45.07813" lon="5.62486">
        <ele>1015.63336</ele>
        <time>2026-02-05T12:04:17</time>
      </trkpt>
      <trkpt lat="45.07813" lon="5.62486">
        <ele>1015.63336</ele>
        <time>2026-02-05T12:04:19</time>
      </trkpt>
      <trkpt lat="45.07814" lon="5.62487">
        <ele>1015.63336</ele>
        <time>2026-02-05T12:04:19</time>
      </trkpt>
      <trkpt lat="45.07816" lon="5.62487">
        <ele>1015.63336</ele>
        <time>2026-02-05T12:04:22</time>
      </trkpt>
      <trkpt lat="45.07817" lon="5.62488">
        <ele>1015.63336</ele>
        <time>2026-02-05T12:04:23</time>
      </trkpt>
      <trkpt lat="45.07818" lon="5.62488">
        <ele>1017.5</ele>
        <time>2026-02-05T12:04:24</time>
      </trkpt>
      <trkpt lat="45.07818" lon="5.62488">
        <ele>1017.5</ele>
        <time>2026-02-05T12:04:25</time>
      </trkpt>
      <trkpt lat="45.07819" lon="5.62489">
        <ele>1017.5</ele>
        <time>2026-02-05T12:04:28</time>
      </trkpt>
      <trkpt lat="45.0782" lon="5.62488">
        <ele>1017.5</ele>
        <time>2026-02-05T12:04:28</time>
      </trkpt>
      <trkpt lat="45.0782" lon="5.62488">
        <ele>1017.5</ele>
        <time>2026-02-05T12:04:29</time>
      </trkpt>
      <trkpt lat="45.07821" lon="5.62488">
        <ele>1017.5</ele>
        <time>2026-02-05T12:04:30</time>
      </trkpt>
      <trkpt lat="45.07821" lon="5.62488">
        <ele>1018.1</ele>
        <time>2026-02-05T12:04:31</time>
      </trkpt>
      <trkpt lat="45.07821" lon="5.62488">
        <ele>1018.1</ele>
        <time>2026-02-05T12:04:36</time>
      </trkpt>
      <trkpt lat="45.07821" lon="5.62488">
        <ele>1018.1</ele>
        <time>2026-02-05T12:04:37</time>
      </trkpt>
      <trkpt lat="45.07824" lon="5.6249">
        <ele>1018.9</ele>
        <time>2026-02-05T12:04:40</time>
      </trkpt>
      <trkpt lat="45.07824" lon="5.62491">
        <ele>1018.9</ele>
        <time>2026-02-05T12:04:41</time>
      </trkpt>
      <trkpt lat="45.07824" lon="5.62492">
        <ele>1018.9</ele>
        <time>2026-02-05T12:04:42</time>
      </trkpt>
      <trkpt lat="45.07824" lon="5.62492">
        <ele>1018.9</ele>
        <time>2026-02-05T12:04:43</time>
      </trkpt>
      <trkpt lat="45.07825" lon="5.62492">
        <ele>1018.9</ele>
        <time>2026-02-05T12:04:44</time>
      </trkpt>
      <trkpt lat="45.07825" lon="5.62492">
        <ele>1018.9</ele>
        <time>2026-02-05T12:04:45</time>
      </trkpt>
      <trkpt lat="45.07825" lon="5.62492">
        <ele>1018.9</ele>
        <time>2026-02-05T12:04:46</time>
      </trkpt>
      <trkpt lat="45.07826" lon="5.62493">
        <ele>1019.3</ele>
        <time>2026-02-05T12:04:48</time>
      </trkpt>
      <trkpt lat="45.07827" lon="5.62494">
        <ele>1019.3</ele>
        <time>2026-02-05T12:04:51</time>
      </trkpt>
      <trkpt lat="45.07828" lon="5.62495">
        <ele>1019.3</ele>
        <time>2026-02-05T12:04:54</time>
      </trkpt>
      <trkpt lat="45.07828" lon="5.62496">
        <ele>1019.3</ele>
        <time>2026-02-05T12:04:55</time>
      </trkpt>
      <trkpt lat="45.07828" lon="5.62496">
        <ele>1019.3</ele>
        <time>2026-02-05T12:04:56</time>
      </trkpt>
      <trkpt lat="45.07829" lon="5.62497">
        <ele>1020.3</ele>
        <time>2026-02-05T12:04:58</time>
      </trkpt>
      <trkpt lat="45.0783" lon="5.62498">
        <ele>1020.3</ele>
        <time>2026-02-05T12:04:59</time>
      </trkpt>
      <trkpt lat="45.0783" lon="5.62499">
        <ele>1020.3</ele>
        <time>2026-02-05T12:05:01</time>
      </trkpt>
      <trkpt lat="45.07831" lon="5.625">
        <ele>1020.3</ele>
        <time>2026-02-05T12:05:02</time>
      </trkpt>
      <trkpt lat="45.07831" lon="5.625">
        <ele>1020.3</ele>
        <time>2026-02-05T12:05:04</time>
      </trkpt>
      <trkpt lat="45.07831" lon="5.625">
        <ele>1020.7</ele>
        <time>2026-02-05T12:05:06</time>
      </trkpt>
      <trkpt lat="45.07832" lon="5.62501">
        <ele>1020.7</ele>
        <time>2026-02-05T12:05:09</time>
      </trkpt>
      <trkpt lat="45.07832" lon="5.62501">
        <ele>1020.7</ele>
        <time>2026-02-05T12:05:13</time>
      </trkpt>
      <trkpt lat="45.07832" lon="5.62501">
        <ele>1021.1</ele>
        <time>2026-02-05T12:05:15</time>
      </trkpt>
      <trkpt lat="45.07832" lon="5.62501">
        <ele>1021.1</ele>
        <time>2026-02-05T12:05:16</time>
      </trkpt>
      <trkpt lat="45.07832" lon="5.62501">
        <ele>1021.1</ele>
        <time>2026-02-05T12:05:17</time>
      </trkpt>
      <trkpt lat="45.07832" lon="5.62501">
        <ele>1021.1</ele>
        <time>2026-02-05T12:05:17</time>
      </trkpt>
      <trkpt lat="45.07832" lon="5.62501">
        <ele>1021.1</ele>
        <time>2026-02-05T12:05:19</time>
      </trkpt>
      <trkpt lat="45.07832" lon="5.62501">
        <ele>1021.1</ele>
        <time>2026-02-05T12:05:20</time>
      </trkpt>
      <trkpt lat="45.07832" lon="5.62501">
        <ele>1021.1</ele>
        <time>2026-02-05T12:05:21</time>
      </trkpt>
      <trkpt lat="45.07832" lon="5.62501">
        <ele>1021.1</ele>
        <time>2026-02-05T12:05:23</time>
      </trkpt>
      <trkpt lat="45.07835" lon="5.62507">
        <ele>1021.1</ele>
        <time>2026-02-05T12:05:25</time>
      </trkpt>
      <trkpt lat="45.07836" lon="5.62509">
        <ele>1021.1</ele>
        <time>2026-02-05T12:05:26</time>
      </trkpt>
      <trkpt lat="45.07837" lon="5.6251">
        <ele>1021.1</ele>
        <time>2026-02-05T12:05:27</time>
      </trkpt>
      <trkpt lat="45.07839" lon="5.62513">
        <ele>1022.6</ele>
        <time>2026-02-05T12:05:30</time>
      </trkpt>
      <trkpt lat="45.07839" lon="5.62514">
        <ele>1022.6</ele>
        <time>2026-02-05T12:05:31</time>
      </trkpt>
      <trkpt lat="45.0784" lon="5.62514">
        <ele>1022.6</ele>
        <time>2026-02-05T12:05:32</time>
      </trkpt>
      <trkpt lat="45.07841" lon="5.62514">
        <ele>1022.6</ele>
        <time>2026-02-05T12:05:40</time>
      </trkpt>
      <trkpt lat="45.07838" lon="5.62509">
        <ele>1022.6</ele>
        <time>2026-02-05T12:06:06</time>
      </trkpt>
      <trkpt lat="45.07838" lon="5.62508">
        <ele>1022.6</ele>
        <time>2026-02-05T12:06:07</time>
      </trkpt>
      <trkpt lat="45.07838" lon="5.62506">
        <ele>1029.4</ele>
        <time>2026-02-05T12:06:14</time>
      </trkpt>
      <trkpt lat="45.07838" lon="5.62506">
        <ele>1029.4</ele>
        <time>2026-02-05T12:06:15</time>
      </trkpt>
      <trkpt lat="45.07838" lon="5.62506">
        <ele>1029.5</ele>
        <time>2026-02-05T12:06:18</time>
      </trkpt>
      <trkpt lat="45.07838" lon="5.62506">
        <ele>1029.5</ele>
        <time>2026-02-05T12:06:20</time>
      </trkpt>
      <trkpt lat="45.07838" lon="5.62506">
        <ele>1029.5</ele>
        <time>2026-02-05T12:06:21</time>
      </trkpt>
      <trkpt lat="45.07838" lon="5.62506">
        <ele>1029.5</ele>
        <time>2026-02-05T12:06:24</time>
      </trkpt>
      <trkpt lat="45.07838" lon="5.62506">
        <ele>1029.5</ele>
        <time>2026-02-05T12:06:25</time>
      </trkpt>
      <trkpt lat="45.07838" lon="5.62508">
        <ele>1029.5</ele>
        <time>2026-02-05T12:06:28</time>
      </trkpt>
      <trkpt lat="45.07838" lon="5.62509">
        <ele>1029.5</ele>
        <time>2026-02-05T12:06:29</time>
      </trkpt>
      <trkpt lat="45.07838" lon="5.62511">
        <ele>1029.5</ele>
        <time>2026-02-05T12:06:30</time>
      </trkpt>
      <trkpt lat="45.07839" lon="5.62513">
        <ele>1029.5</ele>
        <time>2026-02-05T12:06:32</time>
      </trkpt>
      <trkpt lat="45.07839" lon="5.62516">
        <ele>1029.5</ele>
        <time>2026-02-05T12:06:34</time>
      </trkpt>
      <trkpt lat="45.07839" lon="5.62517">
        <ele>1029.5</ele>
        <time>2026-02-05T12:06:36</time>
      </trkpt>
      <trkpt lat="45.07839" lon="5.62518">
        <ele>1029.5</ele>
        <time>2026-02-05T12:06:37</time>
      </trkpt>
      <trkpt lat="45.07839" lon="5.62518">
        <ele>1029.5</ele>
        <time>2026-02-05T12:06:38</time>
      </trkpt>
      <trkpt lat="45.07839" lon="5.62518">
        <ele>1029.5</ele>
        <time>2026-02-05T12:06:39</time>
      </trkpt>
      <trkpt lat="45.07839" lon="5.62518">
        <ele>1029.5</ele>
        <time>2026-02-05T12:06:42</time>
      </trkpt>
      <trkpt lat="45.07839" lon="5.62518">
        <ele>1031.3</ele>
        <time>2026-02-05T12:06:43</time>
      </trkpt>
      <trkpt lat="45.07839" lon="5.62518">
        <ele>1031.3</ele>
        <time>2026-02-05T12:06:45</time>
      </trkpt>
      <trkpt lat="45.0784" lon="5.62518">
        <ele>1031.3</ele>
        <time>2026-02-05T12:06:46</time>
      </trkpt>
      <trkpt lat="45.07841" lon="5.62518">
        <ele>1031.3</ele>
        <time>2026-02-05T12:06:47</time>
      </trkpt>
      <trkpt lat="45.07844" lon="5.62519">
        <ele>1031.3</ele>
        <time>2026-02-05T12:06:49</time>
      </trkpt>
      <trkpt lat="45.07847" lon="5.62521">
        <ele>1032.6666</ele>
        <time>2026-02-05T12:06:50</time>
      </trkpt>
      <trkpt lat="45.07849" lon="5.62525">
        <ele>1032.6666</ele>
        <time>2026-02-05T12:06:51</time>
      </trkpt>
      <trkpt lat="45.07849" lon="5.62526">
        <ele>1032.6666</ele>
        <time>2026-02-05T12:06:52</time>
      </trkpt>
      <trkpt lat="45.0785" lon="5.62528">
        <ele>1032.6666</ele>
        <time>2026-02-05T12:06:53</time>
      </trkpt>
      <trkpt lat="45.07849" lon="5.62529">
        <ele>1032.6666</ele>
        <time>2026-02-05T12:06:56</time>
      </trkpt>
      <trkpt lat="45.07849" lon="5.6253">
        <ele>1032.6666</ele>
        <time>2026-02-05T12:06:57</time>
      </trkpt>
      <trkpt lat="45.07848" lon="5.62532">
        <ele>1032.8</ele>
        <time>2026-02-05T12:06:59</time>
      </trkpt>
      <trkpt lat="45.07848" lon="5.62534">
        <ele>1032.8</ele>
        <time>2026-02-05T12:07:00</time>
      </trkpt>
      <trkpt lat="45.07848" lon="5.62535">
        <ele>1032.8</ele>
        <time>2026-02-05T12:07:04</time>
      </trkpt>
      <trkpt lat="45.07848" lon="5.62535">
        <ele>1032.8</ele>
        <time>2026-02-05T12:07:06</time>
      </trkpt>
      <trkpt lat="45.07848" lon="5.62535">
        <ele>1032.8</ele>
        <time>2026-02-05T12:07:07</time>
      </trkpt>
      <trkpt lat="45.07848" lon="5.62535">
        <ele>1036.4</ele>
        <time>2026-02-05T12:07:11</time>
      </trkpt>
      <trkpt lat="45.07848" lon="5.62535">
        <ele>1036.4</ele>
        <time>2026-02-05T12:07:13</time>
      </trkpt>
      <trkpt lat="45.07848" lon="5.62537">
        <ele>1036.4</ele>
        <time>2026-02-05T12:07:14</time>
      </trkpt>
      <trkpt lat="45.07849" lon="5.62538">
        <ele>1036.4</ele>
        <time>2026-02-05T12:07:15</time>
      </trkpt>
      <trkpt lat="45.07849" lon="5.62539">
        <ele>1036.3</ele>
        <time>2026-02-05T12:07:15</time>
      </trkpt>
      <trkpt lat="45.0785" lon="5.6254">
        <ele>1036.3</ele>
        <time>2026-02-05T12:07:17</time>
      </trkpt>
      <trkpt lat="45.0785" lon="5.6254">
        <ele>1036.3</ele>
        <time>2026-02-05T12:07:18</time>
      </trkpt>
      <trkpt lat="45.0785" lon="5.62541">
        <ele>1036.3</ele>
        <time>2026-02-05T12:07:20</time>
      </trkpt>
      <trkpt lat="45.07851" lon="5.62541">
        <ele>1036.3</ele>
        <time>2026-02-05T12:07:24</time>
      </trkpt>
      <trkpt lat="45.07851" lon="5.62541">
        <ele>1040.2</ele>
        <time>2026-02-05T12:07:25</time>
      </trkpt>
      <trkpt lat="45.07851" lon="5.62542">
        <ele>1040.2</ele>
        <time>2026-02-05T12:07:26</time>
      </trkpt>
      <trkpt lat="45.07851" lon="5.62541">
        <ele>1040.2</ele>
        <time>2026-02-05T12:07:27</time>
      </trkpt>
      <trkpt lat="45.07851" lon="5.62541">
        <ele>1040.2</ele>
        <time>2026-02-05T12:07:28</time>
      </trkpt>
      <trkpt lat="45.07851" lon="5.62542">
        <ele>1040.2</ele>
        <time>2026-02-05T12:07:28</time>
      </trkpt>
      <trkpt lat="45.07851" lon="5.62542">
        <ele>1040.2</ele>
        <time>2026-02-05T12:07:29</time>
      </trkpt>
      <trkpt lat="45.07861" lon="5.62543">
        <ele>1040.2</ele>
        <time>2026-02-05T12:07:33</time>
      </trkpt>
      <trkpt lat="45.07863" lon="5.62544">
        <ele>1040.2</ele>
        <time>2026-02-05T12:07:35</time>
      </trkpt>
      <trkpt lat="45.07864" lon="5.62545">
        <ele>1040.2</ele>
        <time>2026-02-05T12:07:36</time>
      </trkpt>
      <trkpt lat="45.07864" lon="5.62547">
        <ele>1040.2</ele>
        <time>2026-02-05T12:07:38</time>
      </trkpt>
      <trkpt lat="45.07864" lon="5.62547">
        <ele>1040.2</ele>
        <time>2026-02-05T12:07:39</time>
      </trkpt>
      <trkpt lat="45.07864" lon="5.62548">
        <ele>1040.2</ele>
        <time>2026-02-05T12:07:40</time>
      </trkpt>
      <trkpt lat="45.07863" lon="5.62548">
        <ele>1040.2</ele>
        <time>2026-02-05T12:07:41</time>
      </trkpt>
      <trkpt lat="45.07863" lon="5.62548">
        <ele>1040.2</ele>
        <time>2026-02-05T12:07:43</time>
      </trkpt>
      <trkpt lat="45.07863" lon="5.62548">
        <ele>1043</ele>
        <time>2026-02-05T12:07:43</time>
      </trkpt>
      <trkpt lat="45.07863" lon="5.62548">
        <ele>1043</ele>
        <time>2026-02-05T12:07:46</time>
      </trkpt>
      <trkpt lat="45.07863" lon="5.62548">
        <ele>1043</ele>
        <time>2026-02-05T12:07:48</time>
      </trkpt>
      <trkpt lat="45.07863" lon="5.62548">
        <ele>1043</ele>
        <time>2026-02-05T12:07:48</time>
      </trkpt>
      <trkpt lat="45.07863" lon="5.62548">
        <ele>1043</ele>
        <time>2026-02-05T12:07:49</time>
      </trkpt>
      <trkpt lat="45.07863" lon="5.62548">
        <ele>1043</ele>
        <time>2026-02-05T12:07:50</time>
      </trkpt>
      <trkpt lat="45.07862" lon="5.62548">
        <ele>1043</ele>
        <time>2026-02-05T12:07:51</time>
      </trkpt>
      <trkpt lat="45.07862" lon="5.62548">
        <ele>1045.3</ele>
        <time>2026-02-05T12:07:57</time>
      </trkpt>
      <trkpt lat="45.07863" lon="5.62548">
        <ele>1045.3</ele>
        <time>2026-02-05T12:08:00</time>
      </trkpt>
      <trkpt lat="45.07863" lon="5.62548">
        <ele>1045.3</ele>
        <time>2026-02-05T12:08:01</time>
      </trkpt>
      <trkpt lat="45.07863" lon="5.62548">
        <ele>1045.3</ele>
        <time>2026-02-05T12:08:02</time>
      </trkpt>
      <trkpt lat="45.07863" lon="5.62548">
        <ele>1045.3</ele>
        <time>2026-02-05T12:08:03</time>
      </trkpt>
      <trkpt lat="45.07861" lon="5.62555">
        <ele>1045.3</ele>
        <time>2026-02-05T12:08:05</time>
      </trkpt>
      <trkpt lat="45.0786" lon="5.62558">
        <ele>1045.3</ele>
        <time>2026-02-05T12:08:06</time>
      </trkpt>
      <trkpt lat="45.07861" lon="5.6256">
        <ele>1045.3</ele>
        <time>2026-02-05T12:08:08</time>
      </trkpt>
      <trkpt lat="45.07861" lon="5.6256">
        <ele>1048.9</ele>
        <time>2026-02-05T12:08:09</time>
      </trkpt>
      <trkpt lat="45.07862" lon="5.6256">
        <ele>1048.9</ele>
        <time>2026-02-05T12:08:10</time>
      </trkpt>
      <trkpt lat="45.07863" lon="5.6256">
        <ele>1048.9</ele>
        <time>2026-02-05T12:08:11</time>
      </trkpt>
      <trkpt lat="45.07863" lon="5.62561">
        <ele>1048.9</ele>
        <time>2026-02-05T12:08:12</time>
      </trkpt>
      <trkpt lat="45.07865" lon="5.62562">
        <ele>1048.9</ele>
        <time>2026-02-05T12:08:15</time>
      </trkpt>
      <trkpt lat="45.07866" lon="5.62563">
        <ele>1048.9</ele>
        <time>2026-02-05T12:08:16</time>
      </trkpt>
      <trkpt lat="45.07867" lon="5.62565">
        <ele>1048.9</ele>
        <time>2026-02-05T12:08:18</time>
      </trkpt>
      <trkpt lat="45.07867" lon="5.62566">
        <ele>1052.9667</ele>
        <time>2026-02-05T12:08:19</time>
      </trkpt>
      <trkpt lat="45.07868" lon="5.62566">
        <ele>1052.9667</ele>
        <time>2026-02-05T12:08:20</time>
      </trkpt>
      <trkpt lat="45.07867" lon="5.62567">
        <ele>1052.9667</ele>
        <time>2026-02-05T12:08:21</time>
      </trkpt>
      <trkpt lat="45.07867" lon="5.62567">
        <ele>1052.9667</ele>
        <time>2026-02-05T12:08:22</time>
      </trkpt>
      <trkpt lat="45.07867" lon="5.62567">
        <ele>1052.9667</ele>
        <time>2026-02-05T12:08:24</time>
      </trkpt>
      <trkpt lat="45.07867" lon="5.62568">
        <ele>1052.9667</ele>
        <time>2026-02-05T12:08:25</time>
      </trkpt>
      <trkpt lat="45.07867" lon="5.62568">
        <ele>1054.8667</ele>
        <time>2026-02-05T12:08:31</time>
      </trkpt>
      <trkpt lat="45.07867" lon="5.62568">
        <ele>1054.8667</ele>
        <time>2026-02-05T12:08:33</time>
      </trkpt>
      <trkpt lat="45.07867" lon="5.62568">
        <ele>1054.8667</ele>
        <time>2026-02-05T12:08:35</time>
      </trkpt>
      <trkpt lat="45.07867" lon="5.62568">
        <ele>1054.9</ele>
        <time>2026-02-05T12:08:50</time>
      </trkpt>
      <trkpt lat="45.07861" lon="5.62565">
        <ele>1054.9</ele>
        <time>2026-02-05T12:08:52</time>
      </trkpt>
      <trkpt lat="45.07857" lon="5.62563">
        <ele>1054.9</ele>
        <time>2026-02-05T12:08:55</time>
      </trkpt>
      <trkpt lat="45.07857" lon="5.62563">
        <ele>1054.9</ele>
        <time>2026-02-05T12:08:57</time>
      </trkpt>
      <trkpt lat="45.07856" lon="5.62563">
        <ele>1054.9</ele>
        <time>2026-02-05T12:08:58</time>
      </trkpt>
      <trkpt lat="45.07856" lon="5.62562">
        <ele>1054.9</ele>
        <time>2026-02-05T12:08:59</time>
      </trkpt>
      <trkpt lat="45.07856" lon="5.62563">
        <ele>1054.9</ele>
        <time>2026-02-05T12:09:00</time>
      </trkpt>
      <trkpt lat="45.07856" lon="5.62563">
        <ele>1054.9</ele>
        <time>2026-02-05T12:09:01</time>
      </trkpt>
      <trkpt lat="45.07856" lon="5.62563">
        <ele>1054.9</ele>
        <time>2026-02-05T12:09:02</time>
      </trkpt>
      <trkpt lat="45.07856" lon="5.62563">
        <ele>1054.9</ele>
        <time>2026-02-05T12:09:03</time>
      </trkpt>
      <trkpt lat="45.07856" lon="5.62564">
        <ele>1063.8</ele>
        <time>2026-02-05T12:09:04</time>
      </trkpt>
      <trkpt lat="45.07857" lon="5.62567">
        <ele>1063.8</ele>
        <time>2026-02-05T12:09:07</time>
      </trkpt>
      <trkpt lat="45.07857" lon="5.62567">
        <ele>1063.8</ele>
        <time>2026-02-05T12:09:09</time>
      </trkpt>
      <trkpt lat="45.07857" lon="5.62567">
        <ele>1063.8</ele>
        <time>2026-02-05T12:09:09</time>
      </trkpt>
      <trkpt lat="45.07858" lon="5.62568">
        <ele>1064</ele>
        <time>2026-02-05T12:09:11</time>
      </trkpt>
      <trkpt lat="45.07858" lon="5.62569">
        <ele>1064</ele>
        <time>2026-02-05T12:09:12</time>
      </trkpt>
      <trkpt lat="45.07857" lon="5.62571">
        <ele>1064</ele>
        <time>2026-02-05T12:09:14</time>
      </trkpt>
      <trkpt lat="45.07857" lon="5.62572">
        <ele>1064</ele>
        <time>2026-02-05T12:09:15</time>
      </trkpt>
      <trkpt lat="45.07857" lon="5.62572">
        <ele>1064</ele>
        <time>2026-02-05T12:09:16</time>
      </trkpt>
      <trkpt lat="45.07857" lon="5.62572">
        <ele>1064</ele>
        <time>2026-02-05T12:09:18</time>
      </trkpt>
      <trkpt lat="45.07857" lon="5.62573">
        <ele>1065.7</ele>
        <time>2026-02-05T12:09:20</time>
      </trkpt>
      <trkpt lat="45.07856" lon="5.62573">
        <ele>1065.7</ele>
        <time>2026-02-05T12:09:21</time>
      </trkpt>
      <trkpt lat="45.07856" lon="5.62574">
        <ele>1065.7</ele>
        <time>2026-02-05T12:09:22</time>
      </trkpt>
      <trkpt lat="45.07855" lon="5.62574">
        <ele>1065.7</ele>
        <time>2026-02-05T12:09:23</time>
      </trkpt>
      <trkpt lat="45.07855" lon="5.62575">
        <ele>1065.7</ele>
        <time>2026-02-05T12:09:24</time>
      </trkpt>
      <trkpt lat="45.07855" lon="5.62575">
        <ele>1065.7</ele>
        <time>2026-02-05T12:09:26</time>
      </trkpt>
      <trkpt lat="45.07855" lon="5.62575">
        <ele>1065.7</ele>
        <time>2026-02-05T12:09:27</time>
      </trkpt>
      <trkpt lat="45.07855" lon="5.62575">
        <ele>1065.7</ele>
        <time>2026-02-05T12:09:28</time>
      </trkpt>
      <trkpt lat="45.07855" lon="5.62575">
        <ele>1069.7</ele>
        <time>2026-02-05T12:09:29</time>
      </trkpt>
      <trkpt lat="45.07856" lon="5.62577">
        <ele>1069.7</ele>
        <time>2026-02-05T12:09:32</time>
      </trkpt>
      <trkpt lat="45.07857" lon="5.62577">
        <ele>1069.7</ele>
        <time>2026-02-05T12:09:33</time>
      </trkpt>
      <trkpt lat="45.07857" lon="5.62578">
        <ele>1069.7</ele>
        <time>2026-02-05T12:09:34</time>
      </trkpt>
      <trkpt lat="45.07858" lon="5.62578">
        <ele>1069.7</ele>
        <time>2026-02-05T12:09:36</time>
      </trkpt>
      <trkpt lat="45.07858" lon="5.62579">
        <ele>1069.7</ele>
        <time>2026-02-05T12:09:39</time>
      </trkpt>
      <trkpt lat="45.07858" lon="5.62579">
        <ele>1070.3334</ele>
        <time>2026-02-05T12:09:41</time>
      </trkpt>
      <trkpt lat="45.07859" lon="5.62579">
        <ele>1070.3334</ele>
        <time>2026-02-05T12:09:42</time>
      </trkpt>
      <trkpt lat="45.0786" lon="5.62581">
        <ele>1070.3334</ele>
        <time>2026-02-05T12:09:44</time>
      </trkpt>
      <trkpt lat="45.07862" lon="5.62584">
        <ele>1071</ele>
        <time>2026-02-05T12:09:48</time>
      </trkpt>
      <trkpt lat="45.07862" lon="5.62585">
        <ele>1071</ele>
        <time>2026-02-05T12:09:51</time>
      </trkpt>
      <trkpt lat="45.07862" lon="5.62586">
        <ele>1071</ele>
        <time>2026-02-05T12:09:53</time>
      </trkpt>
      <trkpt lat="45.07863" lon="5.62588">
        <ele>1071</ele>
        <time>2026-02-05T12:09:54</time>
      </trkpt>
      <trkpt lat="45.07864" lon="5.62589">
        <ele>1071</ele>
        <time>2026-02-05T12:09:55</time>
      </trkpt>
      <trkpt lat="45.07865" lon="5.62592">
        <ele>1070.8</ele>
        <time>2026-02-05T12:09:57</time>
      </trkpt>
      <trkpt lat="45.07865" lon="5.62594">
        <ele>1070.8</ele>
        <time>2026-02-05T12:09:58</time>
      </trkpt>
      <trkpt lat="45.07865" lon="5.62595">
        <ele>1070.8</ele>
        <time>2026-02-05T12:09:59</time>
      </trkpt>
      <trkpt lat="45.07864" lon="5.626">
        <ele>1070.8</ele>
        <time>2026-02-05T12:10:02</time>
      </trkpt>
      <trkpt lat="45.07863" lon="5.62602">
        <ele>1070.8</ele>
        <time>2026-02-05T12:10:02</time>
      </trkpt>
      <trkpt lat="45.07862" lon="5.62605">
        <ele>1070.8</ele>
        <time>2026-02-05T12:10:04</time>
      </trkpt>
      <trkpt lat="45.07862" lon="5.62606">
        <ele>1071.1</ele>
        <time>2026-02-05T12:10:05</time>
      </trkpt>
      <trkpt lat="45.07862" lon="5.62607">
        <ele>1071.1</ele>
        <time>2026-02-05T12:10:06</time>
      </trkpt>
      <trkpt lat="45.07862" lon="5.62608">
        <ele>1071.1</ele>
        <time>2026-02-05T12:10:07</time>
      </trkpt>
      <trkpt lat="45.07862" lon="5.62609">
        <ele>1071.1</ele>
        <time>2026-02-05T12:10:08</time>
      </trkpt>
      <trkpt lat="45.07861" lon="5.6261">
        <ele>1071.1</ele>
        <time>2026-02-05T12:10:10</time>
      </trkpt>
      <trkpt lat="45.07861" lon="5.62611">
        <ele>1071.1</ele>
        <time>2026-02-05T12:10:12</time>
      </trkpt>
      <trkpt lat="45.0786" lon="5.62612">
        <ele>1071.1</ele>
        <time>2026-02-05T12:10:13</time>
      </trkpt>
      <trkpt lat="45.0786" lon="5.62612">
        <ele>1071</ele>
        <time>2026-02-05T12:10:15</time>
      </trkpt>
      <trkpt lat="45.07859" lon="5.62613">
        <ele>1071</ele>
        <time>2026-02-05T12:10:17</time>
      </trkpt>
      <trkpt lat="45.07859" lon="5.62613">
        <ele>1071</ele>
        <time>2026-02-05T12:10:18</time>
      </trkpt>
      <trkpt lat="45.07859" lon="5.62612">
        <ele>1071</ele>
        <time>2026-02-05T12:10:19</time>
      </trkpt>
      <trkpt lat="45.0786" lon="5.62612">
        <ele>1071</ele>
        <time>2026-02-05T12:10:22</time>
      </trkpt>
      <trkpt lat="45.0786" lon="5.62612">
        <ele>1070.8334</ele>
        <time>2026-02-05T12:10:23</time>
      </trkpt>
      <trkpt lat="45.0786" lon="5.62612">
        <ele>1070.8334</ele>
        <time>2026-02-05T12:10:24</time>
      </trkpt>
      <trkpt lat="45.0786" lon="5.62612">
        <ele>1070.8334</ele>
        <time>2026-02-05T12:10:25</time>
      </trkpt>
      <trkpt lat="45.0786" lon="5.62612">
        <ele>1070.8334</ele>
        <time>2026-02-05T12:10:27</time>
      </trkpt>
      <trkpt lat="45.0786" lon="5.62612">
        <ele>1070.8334</ele>
        <time>2026-02-05T12:10:28</time>
      </trkpt>
      <trkpt lat="45.0786" lon="5.62612">
        <ele>1070.8334</ele>
        <time>2026-02-05T12:10:30</time>
      </trkpt>
      <trkpt lat="45.0786" lon="5.62612">
        <ele>1070.8</ele>
        <time>2026-02-05T12:10:31</time>
      </trkpt>
      <trkpt lat="45.0786" lon="5.62612">
        <ele>1070.8</ele>
        <time>2026-02-05T12:10:32</time>
      </trkpt>
      <trkpt lat="45.0786" lon="5.62612">
        <ele>1070.8</ele>
        <time>2026-02-05T12:10:34</time>
      </trkpt>
      <trkpt lat="45.0786" lon="5.62612">
        <ele>1070.8</ele>
        <time>2026-02-05T12:10:34</time>
      </trkpt>
      <trkpt lat="45.0786" lon="5.62612">
        <ele>1070.8</ele>
        <time>2026-02-05T12:10:35</time>
      </trkpt>
      <trkpt lat="45.0786" lon="5.62612">
        <ele>1070.8</ele>
        <time>2026-02-05T12:10:36</time>
      </trkpt>
      <trkpt lat="45.0786" lon="5.62612">
        <ele>1070.8</ele>
        <time>2026-02-05T12:10:37</time>
      </trkpt>
      <trkpt lat="45.0786" lon="5.62612">
        <ele>1070.8</ele>
        <time>2026-02-05T12:10:38</time>
      </trkpt>
      <trkpt lat="45.0786" lon="5.62612">
        <ele>1070.8</ele>
        <time>2026-02-05T12:10:39</time>
      </trkpt>
      <trkpt lat="45.07865" lon="5.62618">
        <ele>1070.8</ele>
        <time>2026-02-05T12:10:44</time>
      </trkpt>
      <trkpt lat="45.07868" lon="5.62621">
        <ele>1070.8</ele>
        <time>2026-02-05T12:10:45</time>
      </trkpt>
      <trkpt lat="45.07869" lon="5.62622">
        <ele>1070.8</ele>
        <time>2026-02-05T12:10:46</time>
      </trkpt>
      <trkpt lat="45.0787" lon="5.62622">
        <ele>1070.8</ele>
        <time>2026-02-05T12:10:47</time>
      </trkpt>
      <trkpt lat="45.07871" lon="5.62623">
        <ele>1070.8</ele>
        <time>2026-02-05T12:10:48</time>
      </trkpt>
      <trkpt lat="45.07871" lon="5.62623">
        <ele>1070.8</ele>
        <time>2026-02-05T12:10:49</time>
      </trkpt>
      <trkpt lat="45.07872" lon="5.62623">
        <ele>1070.8</ele>
        <time>2026-02-05T12:10:50</time>
      </trkpt>
      <trkpt lat="45.07873" lon="5.62629">
        <ele>1071.7</ele>
        <time>2026-02-05T12:10:57</time>
      </trkpt>
      <trkpt lat="45.07872" lon="5.62631">
        <ele>1071.7</ele>
        <time>2026-02-05T12:11:00</time>
      </trkpt>
      <trkpt lat="45.0787" lon="5.62631">
        <ele>1071.8</ele>
        <time>2026-02-05T12:11:07</time>
      </trkpt>
      <trkpt lat="45.0787" lon="5.62631">
        <ele>1071.8</ele>
        <time>2026-02-05T12:11:07</time>
      </trkpt>
      <trkpt lat="45.0787" lon="5.62631">
        <ele>1071.8</ele>
        <time>2026-02-05T12:11:09</time>
      </trkpt>
      <trkpt lat="45.0787" lon="5.62631">
        <ele>1071.8</ele>
        <time>2026-02-05T12:11:11</time>
      </trkpt>
      <trkpt lat="45.0787" lon="5.62631">
        <ele>1071.8</ele>
        <time>2026-02-05T12:11:12</time>
      </trkpt>
      <trkpt lat="45.0787" lon="5.62631">
        <ele>1071.3</ele>
        <time>2026-02-05T12:11:13</time>
      </trkpt>
      <trkpt lat="45.0787" lon="5.62631">
        <ele>1071.3</ele>
        <time>2026-02-05T12:11:14</time>
      </trkpt>
      <trkpt lat="45.0787" lon="5.62631">
        <ele>1071.3</ele>
        <time>2026-02-05T12:11:15</time>
      </trkpt>
      <trkpt lat="45.0787" lon="5.62631">
        <ele>1071.3</ele>
        <time>2026-02-05T12:11:15</time>
      </trkpt>
      <trkpt lat="45.0787" lon="5.62631">
        <ele>1071.3</ele>
        <time>2026-02-05T12:11:16</time>
      </trkpt>
      <trkpt lat="45.0787" lon="5.62632">
        <ele>1071.3</ele>
        <time>2026-02-05T12:11:16</time>
      </trkpt>
      <trkpt lat="45.0787" lon="5.62632">
        <ele>1071.3</ele>
        <time>2026-02-05T12:11:17</time>
      </trkpt>
      <trkpt lat="45.0787" lon="5.62632">
        <ele>1071.3</ele>
        <time>2026-02-05T12:11:18</time>
      </trkpt>
      <trkpt lat="45.0787" lon="5.62631">
        <ele>1071.3</ele>
        <time>2026-02-05T12:11:19</time>
      </trkpt>
      <trkpt lat="45.0787" lon="5.62631">
        <ele>1071.3</ele>
        <time>2026-02-05T12:11:20</time>
      </trkpt>
      <trkpt lat="45.0787" lon="5.62631">
        <ele>1071.3</ele>
        <time>2026-02-05T12:11:21</time>
      </trkpt>
      <trkpt lat="45.0787" lon="5.62631">
        <ele>1071.3</ele>
        <time>2026-02-05T12:11:23</time>
      </trkpt>
      <trkpt lat="45.0787" lon="5.62631">
        <ele>1071.3</ele>
        <time>2026-02-05T12:11:25</time>
      </trkpt>
      <trkpt lat="45.0787" lon="5.62631">
        <ele>1071.3</ele>
        <time>2026-02-05T12:11:27</time>
      </trkpt>
      <trkpt lat="45.07869" lon="5.62631">
        <ele>1071.3</ele>
        <time>2026-02-05T12:11:29</time>
      </trkpt>
      <trkpt lat="45.07869" lon="5.6263">
        <ele>1071.3</ele>
        <time>2026-02-05T12:11:30</time>
      </trkpt>
      <trkpt lat="45.07868" lon="5.6263">
        <ele>1071.3</ele>
        <time>2026-02-05T12:11:31</time>
      </trkpt>
      <trkpt lat="45.07867" lon="5.62629">
        <ele>1071.3</ele>
        <time>2026-02-05T12:11:32</time>
      </trkpt>
      <trkpt lat="45.07866" lon="5.62629">
        <ele>1071.3</ele>
        <time>2026-02-05T12:11:33</time>
      </trkpt>
      <trkpt lat="45.07866" lon="5.6263">
        <ele>1071.3</ele>
        <time>2026-02-05T12:11:34</time>
      </trkpt>
      <trkpt lat="45.07866" lon="5.6263">
        <ele>1071.3</ele>
        <time>2026-02-05T12:11:35</time>
      </trkpt>
      <trkpt lat="45.07865" lon="5.6263">
        <ele>1071.3</ele>
        <time>2026-02-05T12:11:36</time>
      </trkpt>
      <trkpt lat="45.07865" lon="5.6263">
        <ele>1071.3</ele>
        <time>2026-02-05T12:11:37</time>
      </trkpt>
      <trkpt lat="45.07865" lon="5.6263">
        <ele>1073.1</ele>
        <time>2026-02-05T12:11:39</time>
      </trkpt>
      <trkpt lat="45.07866" lon="5.6263">
        <ele>1073.1</ele>
        <time>2026-02-05T12:11:41</time>
      </trkpt>
      <trkpt lat="45.07866" lon="5.6263">
        <ele>1073.1</ele>
        <time>2026-02-05T12:11:41</time>
      </trkpt>
      <trkpt lat="45.07866" lon="5.6263">
        <ele>1073.1</ele>
        <time>2026-02-05T12:11:43</time>
      </trkpt>
      <trkpt lat="45.07866" lon="5.6263">
        <ele>1073.1</ele>
        <time>2026-02-05T12:11:45</time>
      </trkpt>
      <trkpt lat="45.07866" lon="5.62632">
        <ele>1073.6</ele>
        <time>2026-02-05T12:11:47</time>
      </trkpt>
      <trkpt lat="45.07866" lon="5.62636">
        <ele>1073.6</ele>
        <time>2026-02-05T12:11:47</time>
      </trkpt>
      <trkpt lat="45.07866" lon="5.6264">
        <ele>1073.6</ele>
        <time>2026-02-05T12:11:49</time>
      </trkpt>
      <trkpt lat="45.07867" lon="5.62641">
        <ele>1073.6</ele>
        <time>2026-02-05T12:11:50</time>
      </trkpt>
      <trkpt lat="45.07869" lon="5.62642">
        <ele>1077.8</ele>
        <time>2026-02-05T12:11:54</time>
      </trkpt>
      <trkpt lat="45.0787" lon="5.62643">
        <ele>1077.8</ele>
        <time>2026-02-05T12:11:55</time>
      </trkpt>
      <trkpt lat="45.07871" lon="5.62643">
        <ele>1077.8</ele>
        <time>2026-02-05T12:11:56</time>
      </trkpt>
      <trkpt lat="45.07871" lon="5.62643">
        <ele>1077.8</ele>
        <time>2026-02-05T12:11:56</time>
      </trkpt>
      <trkpt lat="45.07872" lon="5.62642">
        <ele>1077.8</ele>
        <time>2026-02-05T12:11:57</time>
      </trkpt>
      <trkpt lat="45.07873" lon="5.62642">
        <ele>1077.8</ele>
        <time>2026-02-05T12:11:58</time>
      </trkpt>
      <trkpt lat="45.07874" lon="5.62642">
        <ele>1077.8</ele>
        <time>2026-02-05T12:12:00</time>
      </trkpt>
      <trkpt lat="45.07875" lon="5.62642">
        <ele>1077.8</ele>
        <time>2026-02-05T12:12:01</time>
      </trkpt>
      <trkpt lat="45.07876" lon="5.62643">
        <ele>1078.3</ele>
        <time>2026-02-05T12:12:04</time>
      </trkpt>
      <trkpt lat="45.07876" lon="5.62643">
        <ele>1078.3</ele>
        <time>2026-02-05T12:12:05</time>
      </trkpt>
      <trkpt lat="45.07876" lon="5.62643">
        <ele>1078.3</ele>
        <time>2026-02-05T12:12:06</time>
      </trkpt>
      <trkpt lat="45.07877" lon="5.62643">
        <ele>1078.3</ele>
        <time>2026-02-05T12:12:06</time>
      </trkpt>
      <trkpt lat="45.07876" lon="5.62643">
        <ele>1078.3</ele>
        <time>2026-02-05T12:12:07</time>
      </trkpt>
      <trkpt lat="45.07875" lon="5.62644">
        <ele>1078.3</ele>
        <time>2026-02-05T12:12:10</time>
      </trkpt>
      <trkpt lat="45.07874" lon="5.62645">
        <ele>1076.2333</ele>
        <time>2026-02-05T12:12:11</time>
      </trkpt>
      <trkpt lat="45.07874" lon="5.62645">
        <ele>1076.2333</ele>
        <time>2026-02-05T12:12:11</time>
      </trkpt>
      <trkpt lat="45.07873" lon="5.62647">
        <ele>1076.2333</ele>
        <time>2026-02-05T12:12:13</time>
      </trkpt>
      <trkpt lat="45.07872" lon="5.6265">
        <ele>1076.2333</ele>
        <time>2026-02-05T12:12:14</time>
      </trkpt>
      <trkpt lat="45.0787" lon="5.62657">
        <ele>1076</ele>
        <time>2026-02-05T12:12:22</time>
      </trkpt>
      <trkpt lat="45.07869" lon="5.62657">
        <ele>1076</ele>
        <time>2026-02-05T12:12:23</time>
      </trkpt>
      <trkpt lat="45.07868" lon="5.62659">
        <ele>1076.6333</ele>
        <time>2026-02-05T12:12:26</time>
      </trkpt>
      <trkpt lat="45.07868" lon="5.62659">
        <ele>1076.6333</ele>
        <time>2026-02-05T12:12:27</time>
      </trkpt>
      <trkpt lat="45.07868" lon="5.6266">
        <ele>1076.6333</ele>
        <time>2026-02-05T12:12:28</time>
      </trkpt>
      <trkpt lat="45.07868" lon="5.62661">
        <ele>1076.6333</ele>
        <time>2026-02-05T12:12:29</time>
      </trkpt>
      <trkpt lat="45.07869" lon="5.62662">
        <ele>1077.8</ele>
        <time>2026-02-05T12:12:34</time>
      </trkpt>
      <trkpt lat="45.07869" lon="5.62663">
        <ele>1077.8</ele>
        <time>2026-02-05T12:12:35</time>
      </trkpt>
      <trkpt lat="45.0787" lon="5.62663">
        <ele>1077.8</ele>
        <time>2026-02-05T12:12:36</time>
      </trkpt>
      <trkpt lat="45.07871" lon="5.62663">
        <ele>1077.8</ele>
        <time>2026-02-05T12:12:37</time>
      </trkpt>
      <trkpt lat="45.07873" lon="5.62663">
        <ele>1077.8</ele>
        <time>2026-02-05T12:12:41</time>
      </trkpt>
      <trkpt lat="45.07875" lon="5.62664">
        <ele>1078.4</ele>
        <time>2026-02-05T12:12:43</time>
      </trkpt>
      <trkpt lat="45.07875" lon="5.62664">
        <ele>1078.4</ele>
        <time>2026-02-05T12:12:44</time>
      </trkpt>
      <trkpt lat="45.07877" lon="5.62665">
        <ele>1078.4</ele>
        <time>2026-02-05T12:12:47</time>
      </trkpt>
      <trkpt lat="45.07878" lon="5.62666">
        <ele>1078.4</ele>
        <time>2026-02-05T12:12:48</time>
      </trkpt>
      <trkpt lat="45.07878" lon="5.62667">
        <ele>1078.4</ele>
        <time>2026-02-05T12:12:48</time>
      </trkpt>
      <trkpt lat="45.07879" lon="5.62668">
        <ele>1078.4</ele>
        <time>2026-02-05T12:12:49</time>
      </trkpt>
      <trkpt lat="45.07879" lon="5.62668">
        <ele>1078.4</ele>
        <time>2026-02-05T12:12:50</time>
      </trkpt>
      <trkpt lat="45.0788" lon="5.62669">
        <ele>1082.7</ele>
        <time>2026-02-05T12:12:51</time>
      </trkpt>
      <trkpt lat="45.07881" lon="5.62669">
        <ele>1082.7</ele>
        <time>2026-02-05T12:12:54</time>
      </trkpt>
      <trkpt lat="45.07881" lon="5.6267">
        <ele>1082.7</ele>
        <time>2026-02-05T12:12:56</time>
      </trkpt>
      <trkpt lat="45.07881" lon="5.6267">
        <ele>1082.7</ele>
        <time>2026-02-05T12:12:57</time>
      </trkpt>
      <trkpt lat="45.0788" lon="5.62673">
        <ele>1085.3</ele>
        <time>2026-02-05T12:13:01</time>
      </trkpt>
      <trkpt lat="45.07879" lon="5.62674">
        <ele>1085.3</ele>
        <time>2026-02-05T12:13:03</time>
      </trkpt>
      <trkpt lat="45.07879" lon="5.62675">
        <ele>1085.3</ele>
        <time>2026-02-05T12:13:04</time>
      </trkpt>
      <trkpt lat="45.07877" lon="5.62675">
        <ele>1085.3</ele>
        <time>2026-02-05T12:13:07</time>
      </trkpt>
      <trkpt lat="45.07877" lon="5.62675">
        <ele>1088</ele>
        <time>2026-02-05T12:13:10</time>
      </trkpt>
      <trkpt lat="45.07877" lon="5.62677">
        <ele>1088</ele>
        <time>2026-02-05T12:13:15</time>
      </trkpt>
      <trkpt lat="45.07877" lon="5.62677">
        <ele>1088</ele>
        <time>2026-02-05T12:13:15</time>
      </trkpt>
      <trkpt lat="45.07876" lon="5.62676">
        <ele>1091.2</ele>
        <time>2026-02-05T12:13:20</time>
      </trkpt>
      <trkpt lat="45.07875" lon="5.62676">
        <ele>1091.2</ele>
        <time>2026-02-05T12:13:21</time>
      </trkpt>
      <trkpt lat="45.07874" lon="5.62675">
        <ele>1091.2</ele>
        <time>2026-02-05T12:13:22</time>
      </trkpt>
      <trkpt lat="45.07869" lon="5.62674">
        <ele>1094.7</ele>
        <time>2026-02-05T12:13:28</time>
      </trkpt>
      <trkpt lat="45.07868" lon="5.62674">
        <ele>1094.7</ele>
        <time>2026-02-05T12:13:31</time>
      </trkpt>
      <trkpt lat="45.07867" lon="5.62674">
        <ele>1094.7</ele>
        <time>2026-02-05T12:13:32</time>
      </trkpt>
      <trkpt lat="45.07868" lon="5.62675">
        <ele>1094.7</ele>
        <time>2026-02-05T12:13:32</time>
      </trkpt>
      <trkpt lat="45.07867" lon="5.62675">
        <ele>1094.7</ele>
        <time>2026-02-05T12:13:33</time>
      </trkpt>
      <trkpt lat="45.07868" lon="5.62675">
        <ele>1094.7</ele>
        <time>2026-02-05T12:13:33</time>
      </trkpt>
      <trkpt lat="45.07868" lon="5.62676">
        <ele>1097.3</ele>
        <time>2026-02-05T12:13:34</time>
      </trkpt>
      <trkpt lat="45.07868" lon="5.62677">
        <ele>1097.3</ele>
        <time>2026-02-05T12:13:34</time>
      </trkpt>
      <trkpt lat="45.07868" lon="5.62677">
        <ele>1097.3</ele>
        <time>2026-02-05T12:13:35</time>
      </trkpt>
      <trkpt lat="45.07869" lon="5.62678">
        <ele>1097.3</ele>
        <time>2026-02-05T12:13:36</time>
      </trkpt>
      <trkpt lat="45.07869" lon="5.6268">
        <ele>1097.3</ele>
        <time>2026-02-05T12:13:38</time>
      </trkpt>
      <trkpt lat="45.0787" lon="5.62682">
        <ele>1097.3</ele>
        <time>2026-02-05T12:13:40</time>
      </trkpt>
      <trkpt lat="45.0787" lon="5.62682">
        <ele>1097.3</ele>
        <time>2026-02-05T12:13:40</time>
      </trkpt>
      <trkpt lat="45.0787" lon="5.62684">
        <ele>1096.9</ele>
        <time>2026-02-05T12:13:41</time>
      </trkpt>
      <trkpt lat="45.07869" lon="5.62686">
        <ele>1096.9</ele>
        <time>2026-02-05T12:13:43</time>
      </trkpt>
      <trkpt lat="45.07869" lon="5.62688">
        <ele>1096.9</ele>
        <time>2026-02-05T12:13:44</time>
      </trkpt>
      <trkpt lat="45.07869" lon="5.62689">
        <ele>1096.9</ele>
        <time>2026-02-05T12:13:45</time>
      </trkpt>
      <trkpt lat="45.07869" lon="5.6269">
        <ele>1096.9</ele>
        <time>2026-02-05T12:13:46</time>
      </trkpt>
      <trkpt lat="45.07868" lon="5.62691">
        <ele>1096.9</ele>
        <time>2026-02-05T12:13:47</time>
      </trkpt>
      <trkpt lat="45.07869" lon="5.62691">
        <ele>1096.9</ele>
        <time>2026-02-05T12:13:49</time>
      </trkpt>
      <trkpt lat="45.07868" lon="5.62691">
        <ele>1098</ele>
        <time>2026-02-05T12:13:51</time>
      </trkpt>
      <trkpt lat="45.07867" lon="5.6269">
        <ele>1098</ele>
        <time>2026-02-05T12:13:57</time>
      </trkpt>
      <trkpt lat="45.07867" lon="5.6269">
        <ele>1098</ele>
        <time>2026-02-05T12:13:57</time>
      </trkpt>
      <trkpt lat="45.07867" lon="5.62689">
        <ele>1098</ele>
        <time>2026-02-05T12:13:58</time>
      </trkpt>
      <trkpt lat="45.07867" lon="5.62689">
        <ele>1097.6</ele>
        <time>2026-02-05T12:13:59</time>
      </trkpt>
      <trkpt lat="45.07867" lon="5.62688">
        <ele>1097.6</ele>
        <time>2026-02-05T12:14:02</time>
      </trkpt>
      <trkpt lat="45.07867" lon="5.62688">
        <ele>1097.6</ele>
        <time>2026-02-05T12:14:03</time>
      </trkpt>
      <trkpt lat="45.07867" lon="5.62688">
        <ele>1097.6</ele>
        <time>2026-02-05T12:14:05</time>
      </trkpt>
      <trkpt lat="45.07866" lon="5.62688">
        <ele>1097.6</ele>
        <time>2026-02-05T12:14:06</time>
      </trkpt>
      <trkpt lat="45.07865" lon="5.6269">
        <ele>1099.3334</ele>
        <time>2026-02-05T12:14:09</time>
      </trkpt>
      <trkpt lat="45.07864" lon="5.62691">
        <ele>1099.3334</ele>
        <time>2026-02-05T12:14:12</time>
      </trkpt>
      <trkpt lat="45.07864" lon="5.62692">
        <ele>1099.3334</ele>
        <time>2026-02-05T12:14:13</time>
      </trkpt>
      <trkpt lat="45.07864" lon="5.62692">
        <ele>1099.3334</ele>
        <time>2026-02-05T12:14:15</time>
      </trkpt>
      <trkpt lat="45.07864" lon="5.62692">
        <ele>1102.3</ele>
        <time>2026-02-05T12:14:16</time>
      </trkpt>
      <trkpt lat="45.07864" lon="5.62694">
        <ele>1102.3</ele>
        <time>2026-02-05T12:14:18</time>
      </trkpt>
      <trkpt lat="45.07864" lon="5.62696">
        <ele>1102.3</ele>
        <time>2026-02-05T12:14:19</time>
      </trkpt>
      <trkpt lat="45.07865" lon="5.62698">
        <ele>1102.3</ele>
        <time>2026-02-05T12:14:20</time>
      </trkpt>
      <trkpt lat="45.07865" lon="5.62699">
        <ele>1102.3</ele>
        <time>2026-02-05T12:14:21</time>
      </trkpt>
      <trkpt lat="45.07867" lon="5.62701">
        <ele>1102.3</ele>
        <time>2026-02-05T12:14:24</time>
      </trkpt>
      <trkpt lat="45.07867" lon="5.62701">
        <ele>1104.9667</ele>
        <time>2026-02-05T12:14:26</time>
      </trkpt>
      <trkpt lat="45.07868" lon="5.62701">
        <ele>1104.9667</ele>
        <time>2026-02-05T12:14:27</time>
      </trkpt>
      <trkpt lat="45.07868" lon="5.627">
        <ele>1104.9667</ele>
        <time>2026-02-05T12:14:30</time>
      </trkpt>
      <trkpt lat="45.07869" lon="5.627">
        <ele>1106.9</ele>
        <time>2026-02-05T12:14:35</time>
      </trkpt>
      <trkpt lat="45.07869" lon="5.627">
        <ele>1106.9</ele>
        <time>2026-02-05T12:14:36</time>
      </trkpt>
      <trkpt lat="45.07869" lon="5.627">
        <ele>1106.9</ele>
        <time>2026-02-05T12:14:37</time>
      </trkpt>
      <trkpt lat="45.07869" lon="5.62701">
        <ele>1106.9</ele>
        <time>2026-02-05T12:14:38</time>
      </trkpt>
      <trkpt lat="45.07866" lon="5.62699">
        <ele>1107.6</ele>
        <time>2026-02-05T12:14:50</time>
      </trkpt>
      <trkpt lat="45.07864" lon="5.62695">
        <ele>1107.9</ele>
        <time>2026-02-05T12:17:55</time>
      </trkpt>
      <trkpt lat="45.07865" lon="5.62699">
        <ele>1107.9</ele>
        <time>2026-02-05T12:17:58</time>
      </trkpt>
      <trkpt lat="45.07865" lon="5.62699">
        <ele>1107.9</ele>
        <time>2026-02-05T12:18:00</time>
      </trkpt>
      <trkpt lat="45.07865" lon="5.62699">
        <ele>1107.9</ele>
        <time>2026-02-05T12:18:01</time>
      </trkpt>
      <trkpt lat="45.07866" lon="5.62701">
        <ele>1107.9</ele>
        <time>2026-02-05T12:18:02</time>
      </trkpt>
      <trkpt lat="45.07867" lon="5.62703">
        <ele>1105.3667</ele>
        <time>2026-02-05T12:18:02</time>
      </trkpt>
      <trkpt lat="45.07868" lon="5.62704">
        <ele>1105.3667</ele>
        <time>2026-02-05T12:18:03</time>
      </trkpt>
      <trkpt lat="45.07872" lon="5.62709">
        <ele>1105.3667</ele>
        <time>2026-02-05T12:18:08</time>
      </trkpt>
      <trkpt lat="45.07873" lon="5.62709">
        <ele>1105.3667</ele>
        <time>2026-02-05T12:18:08</time>
      </trkpt>
      <trkpt lat="45.07876" lon="5.62711">
        <ele>1104.3</ele>
        <time>2026-02-05T12:18:11</time>
      </trkpt>
      <trkpt lat="45.07881" lon="5.62713">
        <ele>1104.3</ele>
        <time>2026-02-05T12:18:15</time>
      </trkpt>
      <trkpt lat="45.07887" lon="5.62712">
        <ele>1104</ele>
        <time>2026-02-05T12:18:21</time>
      </trkpt>
      <trkpt lat="45.0789" lon="5.62711">
        <ele>1103.5</ele>
        <time>2026-02-05T12:18:25</time>
      </trkpt>
      <trkpt lat="45.07891" lon="5.62711">
        <ele>1103.5</ele>
        <time>2026-02-05T12:18:26</time>
      </trkpt>
      <trkpt lat="45.07892" lon="5.6271">
        <ele>1103.5</ele>
        <time>2026-02-05T12:18:27</time>
      </trkpt>
      <trkpt lat="45.07893" lon="5.6271">
        <ele>1103.5</ele>
        <time>2026-02-05T12:18:29</time>
      </trkpt>
      <trkpt lat="45.07894" lon="5.62709">
        <ele>1103.5</ele>
        <time>2026-02-05T12:18:30</time>
      </trkpt>
      <trkpt lat="45.07895" lon="5.62709">
        <ele>1103.5</ele>
        <time>2026-02-05T12:18:31</time>
      </trkpt>
      <trkpt lat="45.07896" lon="5.62709">
        <ele>1104.3</ele>
        <time>2026-02-05T12:18:33</time>
      </trkpt>
      <trkpt lat="45.07896" lon="5.62708">
        <ele>1104.3</ele>
        <time>2026-02-05T12:18:34</time>
      </trkpt>
      <trkpt lat="45.07896" lon="5.62707">
        <ele>1104.3</ele>
        <time>2026-02-05T12:18:36</time>
      </trkpt>
      <trkpt lat="45.079" lon="5.62703">
        <ele>1103.9</ele>
        <time>2026-02-05T12:18:42</time>
      </trkpt>
      <trkpt lat="45.07903" lon="5.627">
        <ele>1103.9</ele>
        <time>2026-02-05T12:18:45</time>
      </trkpt>
      <trkpt lat="45.07904" lon="5.62699">
        <ele>1103.9</ele>
        <time>2026-02-05T12:18:47</time>
      </trkpt>
      <trkpt lat="45.07907" lon="5.62696">
        <ele>1104.3</ele>
        <time>2026-02-05T12:18:52</time>
      </trkpt>
      <trkpt lat="45.07908" lon="5.62695">
        <ele>1104.3</ele>
        <time>2026-02-05T12:18:52</time>
      </trkpt>
      <trkpt lat="45.07908" lon="5.62694">
        <ele>1104.3</ele>
        <time>2026-02-05T12:18:55</time>
      </trkpt>
      <trkpt lat="45.07909" lon="5.62693">
        <ele>1107.2</ele>
        <time>2026-02-05T12:18:56</time>
      </trkpt>
      <trkpt lat="45.07909" lon="5.62693">
        <ele>1107.2</ele>
        <time>2026-02-05T12:18:57</time>
      </trkpt>
      <trkpt lat="45.0791" lon="5.62692">
        <ele>1107.2</ele>
        <time>2026-02-05T12:18:58</time>
      </trkpt>
      <trkpt lat="45.0791" lon="5.62691">
        <ele>1107.2</ele>
        <time>2026-02-05T12:19:00</time>
      </trkpt>
      <trkpt lat="45.0791" lon="5.6269">
        <ele>1107.2</ele>
        <time>2026-02-05T12:19:03</time>
      </trkpt>
      <trkpt lat="45.07911" lon="5.62688">
        <ele>1110.7333</ele>
        <time>2026-02-05T12:19:05</time>
      </trkpt>
      <trkpt lat="45.07912" lon="5.62686">
        <ele>1110.7333</ele>
        <time>2026-02-05T12:19:06</time>
      </trkpt>
      <trkpt lat="45.07913" lon="5.62686">
        <ele>1110.7333</ele>
        <time>2026-02-05T12:19:07</time>
      </trkpt>
      <trkpt lat="45.07913" lon="5.62686">
        <ele>1110.7333</ele>
        <time>2026-02-05T12:19:08</time>
      </trkpt>
      <trkpt lat="45.07913" lon="5.62686">
        <ele>1110.7333</ele>
        <time>2026-02-05T12:19:09</time>
      </trkpt>
      <trkpt lat="45.07913" lon="5.62686">
        <ele>1110.7333</ele>
        <time>2026-02-05T12:19:10</time>
      </trkpt>
      <trkpt lat="45.07913" lon="5.62686">
        <ele>1110.7333</ele>
        <time>2026-02-05T12:19:11</time>
      </trkpt>
      <trkpt lat="45.07913" lon="5.62686">
        <ele>1112.7333</ele>
        <time>2026-02-05T12:19:12</time>
      </trkpt>
      <trkpt lat="45.07912" lon="5.62686">
        <ele>1112.7333</ele>
        <time>2026-02-05T12:19:13</time>
      </trkpt>
      <trkpt lat="45.07912" lon="5.62686">
        <ele>1112.7333</ele>
        <time>2026-02-05T12:19:14</time>
      </trkpt>
      <trkpt lat="45.07912" lon="5.62686">
        <ele>1112.7333</ele>
        <time>2026-02-05T12:19:15</time>
      </trkpt>
      <trkpt lat="45.07912" lon="5.62685">
        <ele>1112.7333</ele>
        <time>2026-02-05T12:19:17</time>
      </trkpt>
      <trkpt lat="45.07912" lon="5.62685">
        <ele>1112.7333</ele>
        <time>2026-02-05T12:19:20</time>
      </trkpt>
      <trkpt lat="45.07912" lon="5.62685">
        <ele>1114.2667</ele>
        <time>2026-02-05T12:19:21</time>
      </trkpt>
      <trkpt lat="45.07912" lon="5.62685">
        <ele>1114.2667</ele>
        <time>2026-02-05T12:19:22</time>
      </trkpt>
      <trkpt lat="45.07912" lon="5.62685">
        <ele>1114.2667</ele>
        <time>2026-02-05T12:19:24</time>
      </trkpt>
      <trkpt lat="45.07912" lon="5.62685">
        <ele>1115</ele>
        <time>2026-02-05T12:19:29</time>
      </trkpt>
      <trkpt lat="45.07912" lon="5.62685">
        <ele>1115</ele>
        <time>2026-02-05T12:19:30</time>
      </trkpt>
      <trkpt lat="45.07912" lon="5.62685">
        <ele>1115</ele>
        <time>2026-02-05T12:19:31</time>
      </trkpt>
      <trkpt lat="45.07912" lon="5.62685">
        <ele>1115</ele>
        <time>2026-02-05T12:19:33</time>
      </trkpt>
      <trkpt lat="45.07912" lon="5.62685">
        <ele>1115</ele>
        <time>2026-02-05T12:19:34</time>
      </trkpt>
      <trkpt lat="45.07912" lon="5.62685">
        <ele>1115</ele>
        <time>2026-02-05T12:19:35</time>
      </trkpt>
      <trkpt lat="45.07912" lon="5.62685">
        <ele>1115</ele>
        <time>2026-02-05T12:19:38</time>
      </trkpt>
      <trkpt lat="45.07912" lon="5.62685">
        <ele>1115</ele>
        <time>2026-02-05T12:19:39</time>
      </trkpt>
      <trkpt lat="45.07912" lon="5.62685">
        <ele>1115</ele>
        <time>2026-02-05T12:19:42</time>
      </trkpt>
      <trkpt lat="45.07912" lon="5.62685">
        <ele>1115</ele>
        <time>2026-02-05T12:19:45</time>
      </trkpt>
      <trkpt lat="45.07913" lon="5.62685">
        <ele>1115</ele>
        <time>2026-02-05T12:19:46</time>
      </trkpt>
      <trkpt lat="45.07914" lon="5.62684">
        <ele>1115</ele>
        <time>2026-02-05T12:19:47</time>
      </trkpt>
      <trkpt lat="45.07914" lon="5.62684">
        <ele>1115</ele>
        <time>2026-02-05T12:19:48</time>
      </trkpt>
      <trkpt lat="45.07915" lon="5.62683">
        <ele>1115</ele>
        <time>2026-02-05T12:19:50</time>
      </trkpt>
      <trkpt lat="45.07916" lon="5.62683">
        <ele>1115</ele>
        <time>2026-02-05T12:19:51</time>
      </trkpt>
      <trkpt lat="45.07917" lon="5.62683">
        <ele>1115</ele>
        <time>2026-02-05T12:19:53</time>
      </trkpt>
      <trkpt lat="45.07919" lon="5.62682">
        <ele>1115</ele>
        <time>2026-02-05T12:19:55</time>
      </trkpt>
      <trkpt lat="45.0792" lon="5.62682">
        <ele>1115</ele>
        <time>2026-02-05T12:19:55</time>
      </trkpt>
      <trkpt lat="45.07921" lon="5.62681">
        <ele>1123.2</ele>
        <time>2026-02-05T12:19:56</time>
      </trkpt>
      <trkpt lat="45.07922" lon="5.62681">
        <ele>1123.2</ele>
        <time>2026-02-05T12:19:58</time>
      </trkpt>
      <trkpt lat="45.07923" lon="5.62681">
        <ele>1123.2</ele>
        <time>2026-02-05T12:19:59</time>
      </trkpt>
      <trkpt lat="45.07923" lon="5.62681">
        <ele>1123.2</ele>
        <time>2026-02-05T12:20:00</time>
      </trkpt>
      <trkpt lat="45.07924" lon="5.62681">
        <ele>1123.2</ele>
        <time>2026-02-05T12:20:01</time>
      </trkpt>
      <trkpt lat="45.07926" lon="5.62682">
        <ele>1123.2</ele>
        <time>2026-02-05T12:20:04</time>
      </trkpt>
      <trkpt lat="45.07926" lon="5.62682">
        <ele>1127.2</ele>
        <time>2026-02-05T12:20:05</time>
      </trkpt>
      <trkpt lat="45.07926" lon="5.62682">
        <ele>1127.2</ele>
        <time>2026-02-05T12:20:06</time>
      </trkpt>
      <trkpt lat="45.07927" lon="5.62682">
        <ele>1127.2</ele>
        <time>2026-02-05T12:20:07</time>
      </trkpt>
      <trkpt lat="45.07927" lon="5.62682">
        <ele>1127.2</ele>
        <time>2026-02-05T12:20:09</time>
      </trkpt>
      <trkpt lat="45.07927" lon="5.62682">
        <ele>1127.2</ele>
        <time>2026-02-05T12:20:10</time>
      </trkpt>
      <trkpt lat="45.07927" lon="5.62683">
        <ele>1127.6</ele>
        <time>2026-02-05T12:20:12</time>
      </trkpt>
      <trkpt lat="45.07927" lon="5.62683">
        <ele>1127.6</ele>
        <time>2026-02-05T12:20:13</time>
      </trkpt>
      <trkpt lat="45.07927" lon="5.62683">
        <ele>1127.6</ele>
        <time>2026-02-05T12:20:15</time>
      </trkpt>
      <trkpt lat="45.07927" lon="5.62683">
        <ele>1127.6</ele>
        <time>2026-02-05T12:20:19</time>
      </trkpt>
      <trkpt lat="45.07927" lon="5.62683">
        <ele>1129.3</ele>
        <time>2026-02-05T12:20:20</time>
      </trkpt>
      <trkpt lat="45.07927" lon="5.62683">
        <ele>1129.3</ele>
        <time>2026-02-05T12:20:21</time>
      </trkpt>
      <trkpt lat="45.07927" lon="5.62683">
        <ele>1129.3</ele>
        <time>2026-02-05T12:20:22</time>
      </trkpt>
      <trkpt lat="45.07927" lon="5.62683">
        <ele>1129.3</ele>
        <time>2026-02-05T12:20:23</time>
      </trkpt>
      <trkpt lat="45.07927" lon="5.62683">
        <ele>1129.3</ele>
        <time>2026-02-05T12:20:24</time>
      </trkpt>
      <trkpt lat="45.07927" lon="5.62683">
        <ele>1129.3</ele>
        <time>2026-02-05T12:20:25</time>
      </trkpt>
      <trkpt lat="45.07927" lon="5.62683">
        <ele>1129.3</ele>
        <time>2026-02-05T12:20:26</time>
      </trkpt>
      <trkpt lat="45.07927" lon="5.62683">
        <ele>1129.3</ele>
        <time>2026-02-05T12:20:27</time>
      </trkpt>
      <trkpt lat="45.07927" lon="5.62682">
        <ele>1129.3</ele>
        <time>2026-02-05T12:20:28</time>
      </trkpt>
      <trkpt lat="45.07927" lon="5.62682">
        <ele>1129.3</ele>
        <time>2026-02-05T12:20:33</time>
      </trkpt>
      <trkpt lat="45.07927" lon="5.62682">
        <ele>1129.3</ele>
        <time>2026-02-05T12:20:33</time>
      </trkpt>
      <trkpt lat="45.07927" lon="5.62682">
        <ele>1129.3</ele>
        <time>2026-02-05T12:20:35</time>
      </trkpt>
      <trkpt lat="45.07927" lon="5.62682">
        <ele>1129.3</ele>
        <time>2026-02-05T12:20:38</time>
      </trkpt>
      <trkpt lat="45.07927" lon="5.62682">
        <ele>1129.3</ele>
        <time>2026-02-05T12:20:39</time>
      </trkpt>
      <trkpt lat="45.07927" lon="5.62682">
        <ele>1129.3</ele>
        <time>2026-02-05T12:20:40</time>
      </trkpt>
      <trkpt lat="45.07927" lon="5.62683">
        <ele>1129.3</ele>
        <time>2026-02-05T12:20:52</time>
      </trkpt>
      <trkpt lat="45.07927" lon="5.62682">
        <ele>1129.3</ele>
        <time>2026-02-05T12:20:55</time>
      </trkpt>
      <trkpt lat="45.07927" lon="5.62682">
        <ele>1129.3</ele>
        <time>2026-02-05T12:20:55</time>
      </trkpt>
      <trkpt lat="45.07927" lon="5.62682">
        <ele>1129.3</ele>
        <time>2026-02-05T12:20:57</time>
      </trkpt>
      <trkpt lat="45.07927" lon="5.62682">
        <ele>1129.3</ele>
        <time>2026-02-05T12:20:58</time>
      </trkpt>
      <trkpt lat="45.07927" lon="5.62682">
        <ele>1129.3</ele>
        <time>2026-02-05T12:20:59</time>
      </trkpt>
      <trkpt lat="45.07929" lon="5.62681">
        <ele>1129.3</ele>
        <time>2026-02-05T12:21:00</time>
      </trkpt>
      <trkpt lat="45.07931" lon="5.62679">
        <ele>1129.3</ele>
        <time>2026-02-05T12:21:01</time>
      </trkpt>
      <trkpt lat="45.07932" lon="5.62678">
        <ele>1129.3</ele>
        <time>2026-02-05T12:21:02</time>
      </trkpt>
      <trkpt lat="45.07932" lon="5.62677">
        <ele>1129.3</ele>
        <time>2026-02-05T12:21:02</time>
      </trkpt>
      <trkpt lat="45.07932" lon="5.62677">
        <ele>1129.3</ele>
        <time>2026-02-05T12:21:03</time>
      </trkpt>
      <trkpt lat="45.07933" lon="5.62676">
        <ele>1129.3</ele>
        <time>2026-02-05T12:21:04</time>
      </trkpt>
      <trkpt lat="45.07933" lon="5.62676">
        <ele>1129.3</ele>
        <time>2026-02-05T12:21:04</time>
      </trkpt>
      <trkpt lat="45.07933" lon="5.62676">
        <ele>1129.3</ele>
        <time>2026-02-05T12:21:05</time>
      </trkpt>
      <trkpt lat="45.07935" lon="5.62676">
        <ele>1128.5</ele>
        <time>2026-02-05T12:21:08</time>
      </trkpt>
      <trkpt lat="45.07936" lon="5.62676">
        <ele>1128.5</ele>
        <time>2026-02-05T12:21:09</time>
      </trkpt>
      <trkpt lat="45.07938" lon="5.62676">
        <ele>1128.5</ele>
        <time>2026-02-05T12:21:09</time>
      </trkpt>
      <trkpt lat="45.07939" lon="5.62676">
        <ele>1128.5</ele>
        <time>2026-02-05T12:21:10</time>
      </trkpt>
      <trkpt lat="45.0794" lon="5.62675">
        <ele>1128.5</ele>
        <time>2026-02-05T12:21:11</time>
      </trkpt>
      <trkpt lat="45.07944" lon="5.62673">
        <ele>1128.4</ele>
        <time>2026-02-05T12:21:18</time>
      </trkpt>
      <trkpt lat="45.07946" lon="5.62672">
        <ele>1128.4</ele>
        <time>2026-02-05T12:21:21</time>
      </trkpt>
      <trkpt lat="45.07947" lon="5.62672">
        <ele>1128.4</ele>
        <time>2026-02-05T12:21:22</time>
      </trkpt>
      <trkpt lat="45.07947" lon="5.62672">
        <ele>1128.4</ele>
        <time>2026-02-05T12:21:23</time>
      </trkpt>
      <trkpt lat="45.07948" lon="5.62672">
        <ele>1128.4</ele>
        <time>2026-02-05T12:21:24</time>
      </trkpt>
      <trkpt lat="45.0795" lon="5.62672">
        <ele>1130.5</ele>
        <time>2026-02-05T12:21:28</time>
      </trkpt>
      <trkpt lat="45.07953" lon="5.62669">
        <ele>1132.3</ele>
        <time>2026-02-05T12:21:33</time>
      </trkpt>
      <trkpt lat="45.07953" lon="5.62669">
        <ele>1132.3</ele>
        <time>2026-02-05T12:21:35</time>
      </trkpt>
      <trkpt lat="45.07954" lon="5.62669">
        <ele>1132.3</ele>
        <time>2026-02-05T12:21:36</time>
      </trkpt>
      <trkpt lat="45.07954" lon="5.62669">
        <ele>1132.3</ele>
        <time>2026-02-05T12:21:37</time>
      </trkpt>
      <trkpt lat="45.07954" lon="5.62668">
        <ele>1132.3</ele>
        <time>2026-02-05T12:21:38</time>
      </trkpt>
      <trkpt lat="45.07954" lon="5.62668">
        <ele>1132.3</ele>
        <time>2026-02-05T12:21:38</time>
      </trkpt>
      <trkpt lat="45.07954" lon="5.62668">
        <ele>1132.3</ele>
        <time>2026-02-05T12:21:39</time>
      </trkpt>
      <trkpt lat="45.07954" lon="5.62668">
        <ele>1132.3</ele>
        <time>2026-02-05T12:21:40</time>
      </trkpt>
      <trkpt lat="45.07954" lon="5.62668">
        <ele>1132.7</ele>
        <time>2026-02-05T12:21:41</time>
      </trkpt>
      <trkpt lat="45.07954" lon="5.62668">
        <ele>1132.7</ele>
        <time>2026-02-05T12:22:11</time>
      </trkpt>
      <trkpt lat="45.0795" lon="5.62665">
        <ele>1132.7</ele>
        <time>2026-02-05T12:22:12</time>
      </trkpt>
      <trkpt lat="45.07949" lon="5.62663">
        <ele>1132.7</ele>
        <time>2026-02-05T12:22:17</time>
      </trkpt>
      <trkpt lat="45.0795" lon="5.62664">
        <ele>1132.7</ele>
        <time>2026-02-05T12:22:19</time>
      </trkpt>
      <trkpt lat="45.0795" lon="5.62664">
        <ele>1132.7</ele>
        <time>2026-02-05T12:22:19</time>
      </trkpt>
      <trkpt lat="45.07951" lon="5.62664">
        <ele>1132.7</ele>
        <time>2026-02-05T12:22:20</time>
      </trkpt>
      <trkpt lat="45.07956" lon="5.62664">
        <ele>1136.3334</ele>
        <time>2026-02-05T12:22:27</time>
      </trkpt>
      <trkpt lat="45.07958" lon="5.62664">
        <ele>1136.3334</ele>
        <time>2026-02-05T12:22:29</time>
      </trkpt>
      <trkpt lat="45.07959" lon="5.62663">
        <ele>1135.7667</ele>
        <time>2026-02-05T12:22:31</time>
      </trkpt>
      <trkpt lat="45.07962" lon="5.62663">
        <ele>1135.7667</ele>
        <time>2026-02-05T12:22:34</time>
      </trkpt>
      <trkpt lat="45.07964" lon="5.62665">
        <ele>1135.5</ele>
        <time>2026-02-05T12:22:40</time>
      </trkpt>
      <trkpt lat="45.07965" lon="5.62666">
        <ele>1135.5</ele>
        <time>2026-02-05T12:22:42</time>
      </trkpt>
      <trkpt lat="45.07966" lon="5.62667">
        <ele>1135.5</ele>
        <time>2026-02-05T12:22:43</time>
      </trkpt>
      <trkpt lat="45.07966" lon="5.62667">
        <ele>1135.5</ele>
        <time>2026-02-05T12:22:45</time>
      </trkpt>
      <trkpt lat="45.07967" lon="5.62667">
        <ele>1135.5</ele>
        <time>2026-02-05T12:22:46</time>
      </trkpt>
      <trkpt lat="45.07967" lon="5.62667">
        <ele>1136.7</ele>
        <time>2026-02-05T12:22:48</time>
      </trkpt>
      <trkpt lat="45.07967" lon="5.62667">
        <ele>1136.7</ele>
        <time>2026-02-05T12:22:50</time>
      </trkpt>
      <trkpt lat="45.07968" lon="5.62668">
        <ele>1136.7</ele>
        <time>2026-02-05T12:22:52</time>
      </trkpt>
      <trkpt lat="45.07969" lon="5.62668">
        <ele>1136.7</ele>
        <time>2026-02-05T12:22:53</time>
      </trkpt>
      <trkpt lat="45.0797" lon="5.62669">
        <ele>1136.7</ele>
        <time>2026-02-05T12:22:54</time>
      </trkpt>
      <trkpt lat="45.0797" lon="5.62669">
        <ele>1136.7</ele>
        <time>2026-02-05T12:22:54</time>
      </trkpt>
      <trkpt lat="45.07972" lon="5.6267">
        <ele>1136.7</ele>
        <time>2026-02-05T12:22:56</time>
      </trkpt>
      <trkpt lat="45.07973" lon="5.6267">
        <ele>1139.7</ele>
        <time>2026-02-05T12:22:57</time>
      </trkpt>
      <trkpt lat="45.07973" lon="5.62671">
        <ele>1139.7</ele>
        <time>2026-02-05T12:22:59</time>
      </trkpt>
      <trkpt lat="45.07973" lon="5.62671">
        <ele>1139.7</ele>
        <time>2026-02-05T12:23:00</time>
      </trkpt>
      <trkpt lat="45.07974" lon="5.62671">
        <ele>1139.7</ele>
        <time>2026-02-05T12:23:02</time>
      </trkpt>
      <trkpt lat="45.07975" lon="5.62671">
        <ele>1139.7</ele>
        <time>2026-02-05T12:23:03</time>
      </trkpt>
      <trkpt lat="45.07975" lon="5.62671">
        <ele>1139.7</ele>
        <time>2026-02-05T12:23:04</time>
      </trkpt>
      <trkpt lat="45.07976" lon="5.62671">
        <ele>1139.7</ele>
        <time>2026-02-05T12:23:05</time>
      </trkpt>
      <trkpt lat="45.07977" lon="5.62671">
        <ele>1140.4</ele>
        <time>2026-02-05T12:23:05</time>
      </trkpt>
      <trkpt lat="45.07978" lon="5.6267">
        <ele>1140.4</ele>
        <time>2026-02-05T12:23:07</time>
      </trkpt>
      <trkpt lat="45.07978" lon="5.6267">
        <ele>1140.4</ele>
        <time>2026-02-05T12:23:07</time>
      </trkpt>
      <trkpt lat="45.07979" lon="5.62669">
        <ele>1140.4</ele>
        <time>2026-02-05T12:23:08</time>
      </trkpt>
      <trkpt lat="45.07979" lon="5.62669">
        <ele>1140.4</ele>
        <time>2026-02-05T12:23:09</time>
      </trkpt>
      <trkpt lat="45.07979" lon="5.62668">
        <ele>1140.4</ele>
        <time>2026-02-05T12:23:10</time>
      </trkpt>
      <trkpt lat="45.0798" lon="5.62667">
        <ele>1140.4</ele>
        <time>2026-02-05T12:23:12</time>
      </trkpt>
      <trkpt lat="45.0798" lon="5.62666">
        <ele>1140.4</ele>
        <time>2026-02-05T12:23:13</time>
      </trkpt>
      <trkpt lat="45.07981" lon="5.62666">
        <ele>1140.4</ele>
        <time>2026-02-05T12:23:14</time>
      </trkpt>
      <trkpt lat="45.07981" lon="5.62666">
        <ele>1142.2</ele>
        <time>2026-02-05T12:23:15</time>
      </trkpt>
      <trkpt lat="45.07981" lon="5.62666">
        <ele>1142.2</ele>
        <time>2026-02-05T12:23:16</time>
      </trkpt>
      <trkpt lat="45.07982" lon="5.62665">
        <ele>1142.2</ele>
        <time>2026-02-05T12:23:17</time>
      </trkpt>
      <trkpt lat="45.07982" lon="5.62665">
        <ele>1142.2</ele>
        <time>2026-02-05T12:23:18</time>
      </trkpt>
      <trkpt lat="45.07982" lon="5.62665">
        <ele>1142.2</ele>
        <time>2026-02-05T12:23:19</time>
      </trkpt>
      <trkpt lat="45.07983" lon="5.62665">
        <ele>1142.2</ele>
        <time>2026-02-05T12:23:20</time>
      </trkpt>
      <trkpt lat="45.07983" lon="5.62665">
        <ele>1142.2</ele>
        <time>2026-02-05T12:23:20</time>
      </trkpt>
      <trkpt lat="45.07983" lon="5.62663">
        <ele>1141.6</ele>
        <time>2026-02-05T12:23:24</time>
      </trkpt>
      <trkpt lat="45.07983" lon="5.62662">
        <ele>1141.6</ele>
        <time>2026-02-05T12:23:25</time>
      </trkpt>
      <trkpt lat="45.07983" lon="5.62661">
        <ele>1141.6</ele>
        <time>2026-02-05T12:23:26</time>
      </trkpt>
      <trkpt lat="45.07983" lon="5.6266">
        <ele>1141.6</ele>
        <time>2026-02-05T12:23:27</time>
      </trkpt>
      <trkpt lat="45.07983" lon="5.62659">
        <ele>1141.6</ele>
        <time>2026-02-05T12:23:28</time>
      </trkpt>
      <trkpt lat="45.07984" lon="5.62658">
        <ele>1141.6</ele>
        <time>2026-02-05T12:23:29</time>
      </trkpt>
      <trkpt lat="45.07983" lon="5.62657">
        <ele>1141.6</ele>
        <time>2026-02-05T12:23:31</time>
      </trkpt>
      <trkpt lat="45.07984" lon="5.62657">
        <ele>1141.6</ele>
        <time>2026-02-05T12:23:32</time>
      </trkpt>
      <trkpt lat="45.07984" lon="5.62658">
        <ele>1141.6</ele>
        <time>2026-02-05T12:23:33</time>
      </trkpt>
      <trkpt lat="45.07984" lon="5.62658">
        <ele>1138.1666</ele>
        <time>2026-02-05T12:23:34</time>
      </trkpt>
      <trkpt lat="45.07985" lon="5.62659">
        <ele>1138.1666</ele>
        <time>2026-02-05T12:23:35</time>
      </trkpt>
      <trkpt lat="45.07985" lon="5.62659">
        <ele>1138.1666</ele>
        <time>2026-02-05T12:23:35</time>
      </trkpt>
      <trkpt lat="45.07985" lon="5.62659">
        <ele>1138.1666</ele>
        <time>2026-02-05T12:23:36</time>
      </trkpt>
      <trkpt lat="45.07985" lon="5.62659">
        <ele>1138.1666</ele>
        <time>2026-02-05T12:23:37</time>
      </trkpt>
      <trkpt lat="45.07985" lon="5.62659">
        <ele>1138.1666</ele>
        <time>2026-02-05T12:23:40</time>
      </trkpt>
      <trkpt lat="45.07986" lon="5.62659">
        <ele>1138.1666</ele>
        <time>2026-02-05T12:23:42</time>
      </trkpt>
      <trkpt lat="45.07986" lon="5.62658">
        <ele>1140.3</ele>
        <time>2026-02-05T12:23:43</time>
      </trkpt>
      <trkpt lat="45.07986" lon="5.62657">
        <ele>1140.3</ele>
        <time>2026-02-05T12:23:44</time>
      </trkpt>
      <trkpt lat="45.07987" lon="5.62656">
        <ele>1140.3</ele>
        <time>2026-02-05T12:23:46</time>
      </trkpt>
      <trkpt lat="45.07987" lon="5.62655">
        <ele>1140.3</ele>
        <time>2026-02-05T12:23:47</time>
      </trkpt>
      <trkpt lat="45.07987" lon="5.62654">
        <ele>1140.3</ele>
        <time>2026-02-05T12:23:48</time>
      </trkpt>
      <trkpt lat="45.07987" lon="5.62654">
        <ele>1140.3</ele>
        <time>2026-02-05T12:23:49</time>
      </trkpt>
      <trkpt lat="45.07988" lon="5.62653">
        <ele>1140.3</ele>
        <time>2026-02-05T12:23:49</time>
      </trkpt>
      <trkpt lat="45.07988" lon="5.62653">
        <ele>1140.3</ele>
        <time>2026-02-05T12:23:51</time>
      </trkpt>
      <trkpt lat="45.0799" lon="5.62651">
        <ele>1144.1</ele>
        <time>2026-02-05T12:24:54</time>
      </trkpt>
      <trkpt lat="45.0799" lon="5.62651">
        <ele>1144.1</ele>
        <time>2026-02-05T12:24:54</time>
      </trkpt>
      <trkpt lat="45.0799" lon="5.62651">
        <ele>1144.1</ele>
        <time>2026-02-05T12:24:55</time>
      </trkpt>
      <trkpt lat="45.07992" lon="5.6265">
        <ele>1154.6</ele>
        <time>2026-02-05T12:24:57</time>
      </trkpt>
      <trkpt lat="45.07995" lon="5.62651">
        <ele>1154.6</ele>
        <time>2026-02-05T12:24:59</time>
      </trkpt>
      <trkpt lat="45.08" lon="5.62653">
        <ele>1154.6</ele>
        <time>2026-02-05T12:25:02</time>
      </trkpt>
      <trkpt lat="45.08006" lon="5.62656">
        <ele>1154.8</ele>
        <time>2026-02-05T12:25:08</time>
      </trkpt>
      <trkpt lat="45.08006" lon="5.62656">
        <ele>1154.8</ele>
        <time>2026-02-05T12:25:08</time>
      </trkpt>
      <trkpt lat="45.08007" lon="5.62655">
        <ele>1154.8</ele>
        <time>2026-02-05T12:25:09</time>
      </trkpt>
      <trkpt lat="45.08008" lon="5.62655">
        <ele>1154.8</ele>
        <time>2026-02-05T12:25:10</time>
      </trkpt>
      <trkpt lat="45.08009" lon="5.62655">
        <ele>1155</ele>
        <time>2026-02-05T12:25:13</time>
      </trkpt>
      <trkpt lat="45.08011" lon="5.62655">
        <ele>1155</ele>
        <time>2026-02-05T12:25:14</time>
      </trkpt>
      <trkpt lat="45.08012" lon="5.62655">
        <ele>1155</ele>
        <time>2026-02-05T12:25:15</time>
      </trkpt>
      <trkpt lat="45.08013" lon="5.62655">
        <ele>1155</ele>
        <time>2026-02-05T12:25:16</time>
      </trkpt>
      <trkpt lat="45.08013" lon="5.62655">
        <ele>1155</ele>
        <time>2026-02-05T12:25:17</time>
      </trkpt>
      <trkpt lat="45.08015" lon="5.62655">
        <ele>1155</ele>
        <time>2026-02-05T12:25:19</time>
      </trkpt>
      <trkpt lat="45.08016" lon="5.62655">
        <ele>1155</ele>
        <time>2026-02-05T12:25:21</time>
      </trkpt>
      <trkpt lat="45.08018" lon="5.62656">
        <ele>1155</ele>
        <time>2026-02-05T12:25:23</time>
      </trkpt>
      <trkpt lat="45.08022" lon="5.62658">
        <ele>1155.1</ele>
        <time>2026-02-05T12:25:27</time>
      </trkpt>
      <trkpt lat="45.08022" lon="5.6266">
        <ele>1156.2667</ele>
        <time>2026-02-05T12:25:34</time>
      </trkpt>
      <trkpt lat="45.08023" lon="5.62661">
        <ele>1156.2667</ele>
        <time>2026-02-05T12:25:35</time>
      </trkpt>
      <trkpt lat="45.08023" lon="5.62661">
        <ele>1156.2667</ele>
        <time>2026-02-05T12:25:36</time>
      </trkpt>
      <trkpt lat="45.08026" lon="5.62661">
        <ele>1157</ele>
        <time>2026-02-05T12:25:40</time>
      </trkpt>
      <trkpt lat="45.08027" lon="5.62661">
        <ele>1157</ele>
        <time>2026-02-05T12:25:41</time>
      </trkpt>
      <trkpt lat="45.08029" lon="5.62662">
        <ele>1157</ele>
        <time>2026-02-05T12:25:44</time>
      </trkpt>
      <trkpt lat="45.0803" lon="5.62663">
        <ele>1155.4</ele>
        <time>2026-02-05T12:25:49</time>
      </trkpt>
      <trkpt lat="45.0803" lon="5.62663">
        <ele>1155.4</ele>
        <time>2026-02-05T12:25:51</time>
      </trkpt>
      <trkpt lat="45.08031" lon="5.62664">
        <ele>1155.4</ele>
        <time>2026-02-05T12:25:54</time>
      </trkpt>
      <trkpt lat="45.08031" lon="5.62665">
        <ele>1155.7</ele>
        <time>2026-02-05T12:25:55</time>
      </trkpt>
      <trkpt lat="45.08031" lon="5.62666">
        <ele>1155.7</ele>
        <time>2026-02-05T12:25:57</time>
      </trkpt>
      <trkpt lat="45.08032" lon="5.62668">
        <ele>1155.7</ele>
        <time>2026-02-05T12:25:58</time>
      </trkpt>
      <trkpt lat="45.08035" lon="5.62674">
        <ele>1158.3</ele>
        <time>2026-02-05T12:26:07</time>
      </trkpt>
      <trkpt lat="45.08036" lon="5.62676">
        <ele>1158.3</ele>
        <time>2026-02-05T12:26:09</time>
      </trkpt>
      <trkpt lat="45.08037" lon="5.62676">
        <ele>1158.3</ele>
        <time>2026-02-05T12:26:10</time>
      </trkpt>
      <trkpt lat="45.08037" lon="5.62676">
        <ele>1158.5</ele>
        <time>2026-02-05T12:26:11</time>
      </trkpt>
      <trkpt lat="45.08038" lon="5.62678">
        <ele>1158.5</ele>
        <time>2026-02-05T12:26:15</time>
      </trkpt>
      <trkpt lat="45.08039" lon="5.62679">
        <ele>1158.5</ele>
        <time>2026-02-05T12:26:17</time>
      </trkpt>
      <trkpt lat="45.0804" lon="5.62682">
        <ele>1160.8</ele>
        <time>2026-02-05T12:26:20</time>
      </trkpt>
      <trkpt lat="45.08041" lon="5.62683">
        <ele>1160.8</ele>
        <time>2026-02-05T12:26:24</time>
      </trkpt>
      <trkpt lat="45.08041" lon="5.62683">
        <ele>1160.8</ele>
        <time>2026-02-05T12:26:25</time>
      </trkpt>
      <trkpt lat="45.08042" lon="5.62684">
        <ele>1160.8</ele>
        <time>2026-02-05T12:26:25</time>
      </trkpt>
      <trkpt lat="45.08043" lon="5.62684">
        <ele>1160.8</ele>
        <time>2026-02-05T12:26:26</time>
      </trkpt>
      <trkpt lat="45.08044" lon="5.62684">
        <ele>1163.4667</ele>
        <time>2026-02-05T12:26:28</time>
      </trkpt>
      <trkpt lat="45.08046" lon="5.62685">
        <ele>1163.4667</ele>
        <time>2026-02-05T12:26:29</time>
      </trkpt>
      <trkpt lat="45.08052" lon="5.62688">
        <ele>1165.8334</ele>
        <time>2026-02-05T12:26:38</time>
      </trkpt>
      <trkpt lat="45.08053" lon="5.62687">
        <ele>1165.8334</ele>
        <time>2026-02-05T12:26:43</time>
      </trkpt>
      <trkpt lat="45.08053" lon="5.62687">
        <ele>1168.3</ele>
        <time>2026-02-05T12:26:45</time>
      </trkpt>
      <trkpt lat="45.08063" lon="5.62683">
        <ele>1168.3</ele>
        <time>2026-02-05T12:26:47</time>
      </trkpt>
      <trkpt lat="45.08063" lon="5.62683">
        <ele>1168.3</ele>
        <time>2026-02-05T12:26:51</time>
      </trkpt>
      <trkpt lat="45.08063" lon="5.62683">
        <ele>1168.3</ele>
        <time>2026-02-05T12:26:52</time>
      </trkpt>
      <trkpt lat="45.08063" lon="5.62682">
        <ele>1173</ele>
        <time>2026-02-05T12:26:55</time>
      </trkpt>
      <trkpt lat="45.08063" lon="5.62682">
        <ele>1173</ele>
        <time>2026-02-05T12:26:57</time>
      </trkpt>
      <trkpt lat="45.08063" lon="5.62682">
        <ele>1173</ele>
        <time>2026-02-05T12:26:58</time>
      </trkpt>
      <trkpt lat="45.08063" lon="5.62682">
        <ele>1173</ele>
        <time>2026-02-05T12:26:59</time>
      </trkpt>
      <trkpt lat="45.08063" lon="5.62682">
        <ele>1173</ele>
        <time>2026-02-05T12:27:01</time>
      </trkpt>
      <trkpt lat="45.08063" lon="5.62682">
        <ele>1176.9</ele>
        <time>2026-02-05T12:27:01</time>
      </trkpt>
      <trkpt lat="45.08063" lon="5.62682">
        <ele>1176.9</ele>
        <time>2026-02-05T12:27:02</time>
      </trkpt>
      <trkpt lat="45.08064" lon="5.62682">
        <ele>1176.9</ele>
        <time>2026-02-05T12:27:03</time>
      </trkpt>
      <trkpt lat="45.08064" lon="5.62682">
        <ele>1176.9</ele>
        <time>2026-02-05T12:27:04</time>
      </trkpt>
      <trkpt lat="45.08065" lon="5.62682">
        <ele>1176.9</ele>
        <time>2026-02-05T12:27:05</time>
      </trkpt>
      <trkpt lat="45.08065" lon="5.62682">
        <ele>1176.9</ele>
        <time>2026-02-05T12:27:06</time>
      </trkpt>
      <trkpt lat="45.08066" lon="5.62682">
        <ele>1176.9</ele>
        <time>2026-02-05T12:27:07</time>
      </trkpt>
      <trkpt lat="45.08067" lon="5.62683">
        <ele>1176.9</ele>
        <time>2026-02-05T12:27:08</time>
      </trkpt>
      <trkpt lat="45.08067" lon="5.62682">
        <ele>1176.6</ele>
        <time>2026-02-05T12:27:21</time>
      </trkpt>
      <trkpt lat="45.08065" lon="5.62683">
        <ele>1176.6</ele>
        <time>2026-02-05T12:27:26</time>
      </trkpt>
      <trkpt lat="45.08065" lon="5.62684">
        <ele>1176.8</ele>
        <time>2026-02-05T12:27:31</time>
      </trkpt>
      <trkpt lat="45.08065" lon="5.62684">
        <ele>1176.8</ele>
        <time>2026-02-05T12:27:32</time>
      </trkpt>
      <trkpt lat="45.08064" lon="5.62684">
        <ele>1176.8</ele>
        <time>2026-02-05T12:27:32</time>
      </trkpt>
      <trkpt lat="45.08064" lon="5.62684">
        <ele>1176.8</ele>
        <time>2026-02-05T12:27:34</time>
      </trkpt>
      <trkpt lat="45.08064" lon="5.62684">
        <ele>1176.8</ele>
        <time>2026-02-05T12:27:34</time>
      </trkpt>
      <trkpt lat="45.08064" lon="5.62685">
        <ele>1176.8</ele>
        <time>2026-02-05T12:27:35</time>
      </trkpt>
      <trkpt lat="45.08065" lon="5.62684">
        <ele>1176.8</ele>
        <time>2026-02-05T12:27:37</time>
      </trkpt>
      <trkpt lat="45.08065" lon="5.62683">
        <ele>1176.8</ele>
        <time>2026-02-05T12:27:38</time>
      </trkpt>
      <trkpt lat="45.08066" lon="5.62683">
        <ele>1176.6666</ele>
        <time>2026-02-05T12:27:39</time>
      </trkpt>
      <trkpt lat="45.08066" lon="5.62682">
        <ele>1176.6666</ele>
        <time>2026-02-05T12:27:39</time>
      </trkpt>
      <trkpt lat="45.08068" lon="5.6268">
        <ele>1176.6666</ele>
        <time>2026-02-05T12:27:43</time>
      </trkpt>
      <trkpt lat="45.0807" lon="5.62678">
        <ele>1176.6666</ele>
        <time>2026-02-05T12:27:47</time>
      </trkpt>
      <trkpt lat="45.08071" lon="5.62676">
        <ele>1176.6666</ele>
        <time>2026-02-05T12:27:49</time>
      </trkpt>
      <trkpt lat="45.08071" lon="5.62676">
        <ele>1176.6666</ele>
        <time>2026-02-05T12:27:49</time>
      </trkpt>
      <trkpt lat="45.08071" lon="5.62675">
        <ele>1176.6666</ele>
        <time>2026-02-05T12:27:51</time>
      </trkpt>
      <trkpt lat="45.08072" lon="5.62674">
        <ele>1176.6666</ele>
        <time>2026-02-05T12:27:53</time>
      </trkpt>
      <trkpt lat="45.08073" lon="5.62673">
        <ele>1176.5</ele>
        <time>2026-02-05T12:27:55</time>
      </trkpt>
      <trkpt lat="45.08073" lon="5.62673">
        <ele>1176.5</ele>
        <time>2026-02-05T12:27:56</time>
      </trkpt>
      <trkpt lat="45.08073" lon="5.62672">
        <ele>1176.5</ele>
        <time>2026-02-05T12:27:59</time>
      </trkpt>
      <trkpt lat="45.08076" lon="5.6267">
        <ele>1176.5</ele>
        <time>2026-02-05T12:28:03</time>
      </trkpt>
      <trkpt lat="45.08077" lon="5.6267">
        <ele>1176.5</ele>
        <time>2026-02-05T12:28:04</time>
      </trkpt>
      <trkpt lat="45.08078" lon="5.62669">
        <ele>1176.5</ele>
        <time>2026-02-05T12:28:06</time>
      </trkpt>
      <trkpt lat="45.0808" lon="5.62669">
        <ele>1176.5</ele>
        <time>2026-02-05T12:28:08</time>
      </trkpt>
      <trkpt lat="45.08081" lon="5.62668">
        <ele>1176.5</ele>
        <time>2026-02-05T12:28:09</time>
      </trkpt>
      <trkpt lat="45.08083" lon="5.62664">
        <ele>1176.5</ele>
        <time>2026-02-05T12:28:12</time>
      </trkpt>
      <trkpt lat="45.08084" lon="5.62661">
        <ele>1175.4</ele>
        <time>2026-02-05T12:28:14</time>
      </trkpt>
      <trkpt lat="45.08085" lon="5.62661">
        <ele>1175.4</ele>
        <time>2026-02-05T12:28:15</time>
      </trkpt>
      <trkpt lat="45.08085" lon="5.6266">
        <ele>1175.4</ele>
        <time>2026-02-05T12:28:18</time>
      </trkpt>
      <trkpt lat="45.08084" lon="5.6266">
        <ele>1175.4</ele>
        <time>2026-02-05T12:28:19</time>
      </trkpt>
      <trkpt lat="45.08084" lon="5.62659">
        <ele>1175.4</ele>
        <time>2026-02-05T12:28:21</time>
      </trkpt>
      <trkpt lat="45.08084" lon="5.62658">
        <ele>1177.2</ele>
        <time>2026-02-05T12:28:22</time>
      </trkpt>
      <trkpt lat="45.08083" lon="5.62658">
        <ele>1177.2</ele>
        <time>2026-02-05T12:28:23</time>
      </trkpt>
      <trkpt lat="45.08083" lon="5.62657">
        <ele>1177.2</ele>
        <time>2026-02-05T12:28:24</time>
      </trkpt>
      <trkpt lat="45.08083" lon="5.62657">
        <ele>1177.2</ele>
        <time>2026-02-05T12:28:24</time>
      </trkpt>
      <trkpt lat="45.08083" lon="5.62656">
        <ele>1177.2</ele>
        <time>2026-02-05T12:28:28</time>
      </trkpt>
      <trkpt lat="45.08084" lon="5.62655">
        <ele>1177.2</ele>
        <time>2026-02-05T12:28:29</time>
      </trkpt>
      <trkpt lat="45.08084" lon="5.62655">
        <ele>1177.5</ele>
        <time>2026-02-05T12:28:30</time>
      </trkpt>
      <trkpt lat="45.08086" lon="5.6265">
        <ele>1177.5</ele>
        <time>2026-02-05T12:28:36</time>
      </trkpt>
      <trkpt lat="45.08085" lon="5.62648">
        <ele>1178.5</ele>
        <time>2026-02-05T12:28:40</time>
      </trkpt>
      <trkpt lat="45.08084" lon="5.62647">
        <ele>1178.5</ele>
        <time>2026-02-05T12:28:43</time>
      </trkpt>
      <trkpt lat="45.08083" lon="5.62647">
        <ele>1178.5</ele>
        <time>2026-02-05T12:28:44</time>
      </trkpt>
      <trkpt lat="45.08083" lon="5.62648">
        <ele>1178.5</ele>
        <time>2026-02-05T12:28:44</time>
      </trkpt>
      <trkpt lat="45.08083" lon="5.62648">
        <ele>1178.5</ele>
        <time>2026-02-05T12:28:45</time>
      </trkpt>
      <trkpt lat="45.08083" lon="5.62648">
        <ele>1178.5</ele>
        <time>2026-02-05T12:28:45</time>
      </trkpt>
      <trkpt lat="45.08083" lon="5.62649">
        <ele>1182.9</ele>
        <time>2026-02-05T12:28:46</time>
      </trkpt>
      <trkpt lat="45.08083" lon="5.62652">
        <ele>1182.9</ele>
        <time>2026-02-05T12:28:50</time>
      </trkpt>
      <trkpt lat="45.08083" lon="5.62654">
        <ele>1182.9</ele>
        <time>2026-02-05T12:28:52</time>
      </trkpt>
      <trkpt lat="45.08083" lon="5.62655">
        <ele>1182.9</ele>
        <time>2026-02-05T12:28:53</time>
      </trkpt>
      <trkpt lat="45.08083" lon="5.62656">
        <ele>1184.3</ele>
        <time>2026-02-05T12:28:55</time>
      </trkpt>
      <trkpt lat="45.08082" lon="5.62656">
        <ele>1184.3</ele>
        <time>2026-02-05T12:28:55</time>
      </trkpt>
      <trkpt lat="45.08082" lon="5.62656">
        <ele>1184.3</ele>
        <time>2026-02-05T12:28:56</time>
      </trkpt>
      <trkpt lat="45.08082" lon="5.62656">
        <ele>1184.3</ele>
        <time>2026-02-05T12:28:57</time>
      </trkpt>
      <trkpt lat="45.08082" lon="5.62656">
        <ele>1184.3</ele>
        <time>2026-02-05T12:29:00</time>
      </trkpt>
      <trkpt lat="45.08082" lon="5.62656">
        <ele>1184.3</ele>
        <time>2026-02-05T12:29:01</time>
      </trkpt>
      <trkpt lat="45.08083" lon="5.62656">
        <ele>1186.6</ele>
        <time>2026-02-05T12:29:04</time>
      </trkpt>
      <trkpt lat="45.08084" lon="5.62656">
        <ele>1186.6</ele>
        <time>2026-02-05T12:29:05</time>
      </trkpt>
      <trkpt lat="45.08085" lon="5.62656">
        <ele>1186.6</ele>
        <time>2026-02-05T12:29:06</time>
      </trkpt>
      <trkpt lat="45.08086" lon="5.62657">
        <ele>1186.6</ele>
        <time>2026-02-05T12:29:07</time>
      </trkpt>
      <trkpt lat="45.08087" lon="5.62658">
        <ele>1186.6</ele>
        <time>2026-02-05T12:29:09</time>
      </trkpt>
      <trkpt lat="45.08088" lon="5.6266">
        <ele>1188.9333</ele>
        <time>2026-02-05T12:29:11</time>
      </trkpt>
      <trkpt lat="45.08089" lon="5.62661">
        <ele>1188.9333</ele>
        <time>2026-02-05T12:29:13</time>
      </trkpt>
      <trkpt lat="45.08088" lon="5.62662">
        <ele>1188.9333</ele>
        <time>2026-02-05T12:29:15</time>
      </trkpt>
      <trkpt lat="45.08088" lon="5.62662">
        <ele>1188.9333</ele>
        <time>2026-02-05T12:29:17</time>
      </trkpt>
      <trkpt lat="45.08087" lon="5.62663">
        <ele>1188.9333</ele>
        <time>2026-02-05T12:29:18</time>
      </trkpt>
      <trkpt lat="45.08087" lon="5.62663">
        <ele>1188.9333</ele>
        <time>2026-02-05T12:29:19</time>
      </trkpt>
      <trkpt lat="45.08087" lon="5.62664">
        <ele>1195.2333</ele>
        <time>2026-02-05T12:29:20</time>
      </trkpt>
      <trkpt lat="45.08088" lon="5.62664">
        <ele>1195.2333</ele>
        <time>2026-02-05T12:29:21</time>
      </trkpt>
      <trkpt lat="45.08088" lon="5.62664">
        <ele>1195.2333</ele>
        <time>2026-02-05T12:29:21</time>
      </trkpt>
      <trkpt lat="45.08089" lon="5.62664">
        <ele>1195.2333</ele>
        <time>2026-02-05T12:29:22</time>
      </trkpt>
      <trkpt lat="45.0809" lon="5.62664">
        <ele>1195.2333</ele>
        <time>2026-02-05T12:29:23</time>
      </trkpt>
      <trkpt lat="45.08091" lon="5.62664">
        <ele>1195.2333</ele>
        <time>2026-02-05T12:29:24</time>
      </trkpt>
      <trkpt lat="45.08091" lon="5.62663">
        <ele>1195.2333</ele>
        <time>2026-02-05T12:29:24</time>
      </trkpt>
      <trkpt lat="45.08092" lon="5.62663">
        <ele>1195.2333</ele>
        <time>2026-02-05T12:29:25</time>
      </trkpt>
      <trkpt lat="45.08093" lon="5.62662">
        <ele>1195.2333</ele>
        <time>2026-02-05T12:29:26</time>
      </trkpt>
      <trkpt lat="45.08094" lon="5.62662">
        <ele>1196.9</ele>
        <time>2026-02-05T12:29:28</time>
      </trkpt>
      <trkpt lat="45.08093" lon="5.62663">
        <ele>1196.9</ele>
        <time>2026-02-05T12:29:29</time>
      </trkpt>
      <trkpt lat="45.08093" lon="5.62663">
        <ele>1196.9</ele>
        <time>2026-02-05T12:29:30</time>
      </trkpt>
      <trkpt lat="45.08093" lon="5.62663">
        <ele>1196.9</ele>
        <time>2026-02-05T12:29:31</time>
      </trkpt>
      <trkpt lat="45.08092" lon="5.62663">
        <ele>1196.9</ele>
        <time>2026-02-05T12:29:31</time>
      </trkpt>
      <trkpt lat="45.0809" lon="5.62662">
        <ele>1196.9</ele>
        <time>2026-02-05T12:29:33</time>
      </trkpt>
      <trkpt lat="45.08088" lon="5.6266">
        <ele>1198</ele>
        <time>2026-02-05T12:29:37</time>
      </trkpt>
      <trkpt lat="45.08086" lon="5.6266">
        <ele>1198</ele>
        <time>2026-02-05T12:29:39</time>
      </trkpt>
      <trkpt lat="45.08084" lon="5.62659">
        <ele>1198</ele>
        <time>2026-02-05T12:29:42</time>
      </trkpt>
      <trkpt lat="45.08084" lon="5.62659">
        <ele>1198</ele>
        <time>2026-02-05T12:29:45</time>
      </trkpt>
      <trkpt lat="45.08084" lon="5.62659">
        <ele>1200.1666</ele>
        <time>2026-02-05T12:29:46</time>
      </trkpt>
      <trkpt lat="45.08084" lon="5.62659">
        <ele>1200.1666</ele>
        <time>2026-02-05T12:29:47</time>
      </trkpt>
      <trkpt lat="45.08078" lon="5.62663">
        <ele>1200.1666</ele>
        <time>2026-02-05T12:29:48</time>
      </trkpt>
      <trkpt lat="45.08076" lon="5.62665">
        <ele>1200.1666</ele>
        <time>2026-02-05T12:29:49</time>
      </trkpt>
      <trkpt lat="45.08076" lon="5.6267">
        <ele>1200.1666</ele>
        <time>2026-02-05T12:29:51</time>
      </trkpt>
      <trkpt lat="45.08077" lon="5.62674">
        <ele>1201.3667</ele>
        <time>2026-02-05T12:29:54</time>
      </trkpt>
      <trkpt lat="45.08078" lon="5.62678">
        <ele>1201.3667</ele>
        <time>2026-02-05T12:29:57</time>
      </trkpt>
      <trkpt lat="45.08079" lon="5.62679">
        <ele>1201.3667</ele>
        <time>2026-02-05T12:29:58</time>
      </trkpt>
      <trkpt lat="45.0808" lon="5.6268">
        <ele>1201.3667</ele>
        <time>2026-02-05T12:29:59</time>
      </trkpt>
      <trkpt lat="45.08081" lon="5.62682">
        <ele>1201.3667</ele>
        <time>2026-02-05T12:30:02</time>
      </trkpt>
      <trkpt lat="45.08082" lon="5.62684">
        <ele>1202.2</ele>
        <time>2026-02-05T12:30:03</time>
      </trkpt>
      <trkpt lat="45.08083" lon="5.62686">
        <ele>1202.2</ele>
        <time>2026-02-05T12:30:04</time>
      </trkpt>
      <trkpt lat="45.08084" lon="5.62688">
        <ele>1202.2</ele>
        <time>2026-02-05T12:30:08</time>
      </trkpt>
      <trkpt lat="45.08085" lon="5.62689">
        <ele>1202.2</ele>
        <time>2026-02-05T12:30:09</time>
      </trkpt>
      <trkpt lat="45.08087" lon="5.62692">
        <ele>1205.1</ele>
        <time>2026-02-05T12:30:18</time>
      </trkpt>
      <trkpt lat="45.08087" lon="5.62692">
        <ele>1205.1</ele>
        <time>2026-02-05T12:30:20</time>
      </trkpt>
      <trkpt lat="45.08087" lon="5.62692">
        <ele>1205.6</ele>
        <time>2026-02-05T12:30:21</time>
      </trkpt>
      <trkpt lat="45.08087" lon="5.62692">
        <ele>1205.6</ele>
        <time>2026-02-05T12:30:23</time>
      </trkpt>
      <trkpt lat="45.08087" lon="5.62692">
        <ele>1205.6</ele>
        <time>2026-02-05T12:30:24</time>
      </trkpt>
      <trkpt lat="45.08088" lon="5.62694">
        <ele>1205.6</ele>
        <time>2026-02-05T12:30:26</time>
      </trkpt>
      <trkpt lat="45.08088" lon="5.62695">
        <ele>1205.6</ele>
        <time>2026-02-05T12:30:27</time>
      </trkpt>
      <trkpt lat="45.08088" lon="5.62695">
        <ele>1205.6</ele>
        <time>2026-02-05T12:30:28</time>
      </trkpt>
      <trkpt lat="45.08087" lon="5.62696">
        <ele>1206.9</ele>
        <time>2026-02-05T12:30:30</time>
      </trkpt>
      <trkpt lat="45.08087" lon="5.62696">
        <ele>1206.9</ele>
        <time>2026-02-05T12:30:32</time>
      </trkpt>
      <trkpt lat="45.08087" lon="5.62696">
        <ele>1206.9</ele>
        <time>2026-02-05T12:30:33</time>
      </trkpt>
      <trkpt lat="45.08087" lon="5.62696">
        <ele>1206.9</ele>
        <time>2026-02-05T12:30:33</time>
      </trkpt>
      <trkpt lat="45.08087" lon="5.62696">
        <ele>1206.9</ele>
        <time>2026-02-05T12:30:34</time>
      </trkpt>
      <trkpt lat="45.08088" lon="5.62697">
        <ele>1206.9</ele>
        <time>2026-02-05T12:30:36</time>
      </trkpt>
      <trkpt lat="45.0809" lon="5.62703">
        <ele>1209.3</ele>
        <time>2026-02-05T12:30:41</time>
      </trkpt>
      <trkpt lat="45.08091" lon="5.62704">
        <ele>1209.3</ele>
        <time>2026-02-05T12:30:42</time>
      </trkpt>
      <trkpt lat="45.08091" lon="5.62705">
        <ele>1209.3</ele>
        <time>2026-02-05T12:30:43</time>
      </trkpt>
      <trkpt lat="45.08092" lon="5.62706">
        <ele>1209.3</ele>
        <time>2026-02-05T12:30:44</time>
      </trkpt>
      <trkpt lat="45.08093" lon="5.62707">
        <ele>1209.3</ele>
        <time>2026-02-05T12:30:45</time>
      </trkpt>
      <trkpt lat="45.08093" lon="5.62707">
        <ele>1209.3</ele>
        <time>2026-02-05T12:30:45</time>
      </trkpt>
      <trkpt lat="45.08093" lon="5.62708">
        <ele>1208.4333</ele>
        <time>2026-02-05T12:30:47</time>
      </trkpt>
      <trkpt lat="45.08094" lon="5.62708">
        <ele>1208.4333</ele>
        <time>2026-02-05T12:30:47</time>
      </trkpt>
      <trkpt lat="45.08095" lon="5.62708">
        <ele>1208.4333</ele>
        <time>2026-02-05T12:30:48</time>
      </trkpt>
      <trkpt lat="45.08097" lon="5.62707">
        <ele>1208.4333</ele>
        <time>2026-02-05T12:30:51</time>
      </trkpt>
      <trkpt lat="45.081" lon="5.62704">
        <ele>1207.5</ele>
        <time>2026-02-05T12:30:55</time>
      </trkpt>
      <trkpt lat="45.08101" lon="5.62703">
        <ele>1207.5</ele>
        <time>2026-02-05T12:30:58</time>
      </trkpt>
      <trkpt lat="45.08101" lon="5.62703">
        <ele>1207.5</ele>
        <time>2026-02-05T12:30:59</time>
      </trkpt>
      <trkpt lat="45.08101" lon="5.62703">
        <ele>1207.5</ele>
        <time>2026-02-05T12:31:00</time>
      </trkpt>
      <trkpt lat="45.08102" lon="5.62703">
        <ele>1207.5</ele>
        <time>2026-02-05T12:31:02</time>
      </trkpt>
      <trkpt lat="45.08101" lon="5.62703">
        <ele>1207.5</ele>
        <time>2026-02-05T12:31:05</time>
      </trkpt>
      <trkpt lat="45.0811" lon="5.62699">
        <ele>1210.2</ele>
        <time>2026-02-05T12:31:16</time>
      </trkpt>
      <trkpt lat="45.0811" lon="5.62699">
        <ele>1210.2</ele>
        <time>2026-02-05T12:31:17</time>
      </trkpt>
      <trkpt lat="45.0811" lon="5.62699">
        <ele>1210.2</ele>
        <time>2026-02-05T12:31:18</time>
      </trkpt>
      <trkpt lat="45.0811" lon="5.62699">
        <ele>1210.2</ele>
        <time>2026-02-05T12:31:19</time>
      </trkpt>
      <trkpt lat="45.0811" lon="5.62699">
        <ele>1210.2</ele>
        <time>2026-02-05T12:31:21</time>
      </trkpt>
      <trkpt lat="45.0811" lon="5.62699">
        <ele>1210.2</ele>
        <time>2026-02-05T12:31:22</time>
      </trkpt>
      <trkpt lat="45.0811" lon="5.62699">
        <ele>1210.2</ele>
        <time>2026-02-05T12:31:26</time>
      </trkpt>
      <trkpt lat="45.08103" lon="5.62703">
        <ele>1213.6</ele>
        <time>2026-02-05T12:31:48</time>
      </trkpt>
      <trkpt lat="45.08103" lon="5.62703">
        <ele>1213.6</ele>
        <time>2026-02-05T12:31:49</time>
      </trkpt>
      <trkpt lat="45.08102" lon="5.62702">
        <ele>1213.6</ele>
        <time>2026-02-05T12:31:51</time>
      </trkpt>
      <trkpt lat="45.08101" lon="5.62702">
        <ele>1213</ele>
        <time>2026-02-05T12:31:53</time>
      </trkpt>
      <trkpt lat="45.08102" lon="5.62703">
        <ele>1213</ele>
        <time>2026-02-05T12:31:54</time>
      </trkpt>
      <trkpt lat="45.08101" lon="5.62704">
        <ele>1213</ele>
        <time>2026-02-05T12:31:57</time>
      </trkpt>
      <trkpt lat="45.081" lon="5.62704">
        <ele>1213</ele>
        <time>2026-02-05T12:31:58</time>
      </trkpt>
      <trkpt lat="45.081" lon="5.62705">
        <ele>1213</ele>
        <time>2026-02-05T12:32:00</time>
      </trkpt>
      <trkpt lat="45.081" lon="5.62705">
        <ele>1212.9</ele>
        <time>2026-02-05T12:32:00</time>
      </trkpt>
      <trkpt lat="45.08099" lon="5.62705">
        <ele>1212.9</ele>
        <time>2026-02-05T12:32:01</time>
      </trkpt>
      <trkpt lat="45.08099" lon="5.62706">
        <ele>1212.9</ele>
        <time>2026-02-05T12:32:02</time>
      </trkpt>
      <trkpt lat="45.08099" lon="5.62706">
        <ele>1212.9</ele>
        <time>2026-02-05T12:32:02</time>
      </trkpt>
      <trkpt lat="45.08099" lon="5.62706">
        <ele>1212.9</ele>
        <time>2026-02-05T12:32:03</time>
      </trkpt>
      <trkpt lat="45.08098" lon="5.62707">
        <ele>1212.9</ele>
        <time>2026-02-05T12:32:05</time>
      </trkpt>
      <trkpt lat="45.08098" lon="5.62707">
        <ele>1212.9</ele>
        <time>2026-02-05T12:32:07</time>
      </trkpt>
      <trkpt lat="45.08097" lon="5.62707">
        <ele>1212.7</ele>
        <time>2026-02-05T12:32:11</time>
      </trkpt>
      <trkpt lat="45.08097" lon="5.62706">
        <ele>1212</ele>
        <time>2026-02-05T12:32:55</time>
      </trkpt>
      <trkpt lat="45.08097" lon="5.62706">
        <ele>1212</ele>
        <time>2026-02-05T12:32:56</time>
      </trkpt>
      <trkpt lat="45.08097" lon="5.62706">
        <ele>1212</ele>
        <time>2026-02-05T12:32:57</time>
      </trkpt>
      <trkpt lat="45.08097" lon="5.62705">
        <ele>1212</ele>
        <time>2026-02-05T12:32:57</time>
      </trkpt>
      <trkpt lat="45.08097" lon="5.62704">
        <ele>1212</ele>
        <time>2026-02-05T12:32:59</time>
      </trkpt>
      <trkpt lat="45.08097" lon="5.62704">
        <ele>1212</ele>
        <time>2026-02-05T12:32:59</time>
      </trkpt>
      <trkpt lat="45.08097" lon="5.62704">
        <ele>1212</ele>
        <time>2026-02-05T12:33:00</time>
      </trkpt>
      <trkpt lat="45.08097" lon="5.62704">
        <ele>1212</ele>
        <time>2026-02-05T12:33:01</time>
      </trkpt>
      <trkpt lat="45.08097" lon="5.62704">
        <ele>1212</ele>
        <time>2026-02-05T12:33:01</time>
      </trkpt>
      <trkpt lat="45.08097" lon="5.62704">
        <ele>1212</ele>
        <time>2026-02-05T12:33:02</time>
      </trkpt>
      <trkpt lat="45.08098" lon="5.62704">
        <ele>1212</ele>
        <time>2026-02-05T12:33:03</time>
      </trkpt>
      <trkpt lat="45.08098" lon="5.62704">
        <ele>1212</ele>
        <time>2026-02-05T12:33:04</time>
      </trkpt>
      <trkpt lat="45.08098" lon="5.62705">
        <ele>1209.1</ele>
        <time>2026-02-05T12:33:04</time>
      </trkpt>
      <trkpt lat="45.08099" lon="5.62706">
        <ele>1209.1</ele>
        <time>2026-02-05T12:33:06</time>
      </trkpt>
      <trkpt lat="45.08099" lon="5.62707">
        <ele>1209.1</ele>
        <time>2026-02-05T12:33:07</time>
      </trkpt>
      <trkpt lat="45.08101" lon="5.62716">
        <ele>1209.1</ele>
        <time>2026-02-05T12:33:11</time>
      </trkpt>
      <trkpt lat="45.08099" lon="5.62719">
        <ele>1208.9</ele>
        <time>2026-02-05T12:33:13</time>
      </trkpt>
      <trkpt lat="45.08097" lon="5.62727">
        <ele>1208.9</ele>
        <time>2026-02-05T12:33:15</time>
      </trkpt>
      <trkpt lat="45.08098" lon="5.62731">
        <ele>1208.9</ele>
        <time>2026-02-05T12:33:16</time>
      </trkpt>
      <trkpt lat="45.08098" lon="5.62733">
        <ele>1208.9</ele>
        <time>2026-02-05T12:33:17</time>
      </trkpt>
      <trkpt lat="45.08098" lon="5.62735">
        <ele>1208.9</ele>
        <time>2026-02-05T12:33:20</time>
      </trkpt>
      <trkpt lat="45.08099" lon="5.62736">
        <ele>1209.6</ele>
        <time>2026-02-05T12:33:23</time>
      </trkpt>
      <trkpt lat="45.08101" lon="5.62739">
        <ele>1209.6</ele>
        <time>2026-02-05T12:33:29</time>
      </trkpt>
      <trkpt lat="45.08102" lon="5.6274">
        <ele>1209.6</ele>
        <time>2026-02-05T12:33:30</time>
      </trkpt>
      <trkpt lat="45.08103" lon="5.62741">
        <ele>1209.8</ele>
        <time>2026-02-05T12:33:32</time>
      </trkpt>
      <trkpt lat="45.08106" lon="5.62743">
        <ele>1209.8</ele>
        <time>2026-02-05T12:33:37</time>
      </trkpt>
      <trkpt lat="45.08108" lon="5.62744">
        <ele>1210.4</ele>
        <time>2026-02-05T12:33:39</time>
      </trkpt>
      <trkpt lat="45.08109" lon="5.62744">
        <ele>1210.4</ele>
        <time>2026-02-05T12:33:41</time>
      </trkpt>
      <trkpt lat="45.08109" lon="5.62744">
        <ele>1210.4</ele>
        <time>2026-02-05T12:33:42</time>
      </trkpt>
      <trkpt lat="45.08109" lon="5.62744">
        <ele>1210.4</ele>
        <time>2026-02-05T12:33:43</time>
      </trkpt>
      <trkpt lat="45.08109" lon="5.62745">
        <ele>1210.4</ele>
        <time>2026-02-05T12:33:44</time>
      </trkpt>
      <trkpt lat="45.0811" lon="5.62746">
        <ele>1211.5</ele>
        <time>2026-02-05T12:33:46</time>
      </trkpt>
      <trkpt lat="45.0811" lon="5.62746">
        <ele>1211.5</ele>
        <time>2026-02-05T12:33:47</time>
      </trkpt>
      <trkpt lat="45.08111" lon="5.62746">
        <ele>1211.5</ele>
        <time>2026-02-05T12:33:48</time>
      </trkpt>
      <trkpt lat="45.08113" lon="5.62747">
        <ele>1211.5</ele>
        <time>2026-02-05T12:33:51</time>
      </trkpt>
      <trkpt lat="45.08114" lon="5.62748">
        <ele>1211.5</ele>
        <time>2026-02-05T12:33:52</time>
      </trkpt>
      <trkpt lat="45.08115" lon="5.62748">
        <ele>1211.5</ele>
        <time>2026-02-05T12:33:52</time>
      </trkpt>
      <trkpt lat="45.08116" lon="5.62748">
        <ele>1211.5</ele>
        <time>2026-02-05T12:33:53</time>
      </trkpt>
      <trkpt lat="45.08116" lon="5.62749">
        <ele>1211.5</ele>
        <time>2026-02-05T12:33:54</time>
      </trkpt>
      <trkpt lat="45.08117" lon="5.6275">
        <ele>1212.2</ele>
        <time>2026-02-05T12:33:56</time>
      </trkpt>
      <trkpt lat="45.08118" lon="5.62751">
        <ele>1212.2</ele>
        <time>2026-02-05T12:33:58</time>
      </trkpt>
      <trkpt lat="45.08118" lon="5.62751">
        <ele>1213.9667</ele>
        <time>2026-02-05T12:34:05</time>
      </trkpt>
      <trkpt lat="45.08118" lon="5.62751">
        <ele>1213.9667</ele>
        <time>2026-02-05T12:34:06</time>
      </trkpt>
      <trkpt lat="45.08118" lon="5.62751">
        <ele>1213.9667</ele>
        <time>2026-02-05T12:34:07</time>
      </trkpt>
      <trkpt lat="45.08119" lon="5.62751">
        <ele>1213.9667</ele>
        <time>2026-02-05T12:34:08</time>
      </trkpt>
      <trkpt lat="45.08119" lon="5.62751">
        <ele>1213.9667</ele>
        <time>2026-02-05T12:34:10</time>
      </trkpt>
      <trkpt lat="45.0812" lon="5.62752">
        <ele>1213.9667</ele>
        <time>2026-02-05T12:34:11</time>
      </trkpt>
      <trkpt lat="45.08122" lon="5.62755">
        <ele>1215.8</ele>
        <time>2026-02-05T12:34:14</time>
      </trkpt>
      <trkpt lat="45.08123" lon="5.62755">
        <ele>1215.8</ele>
        <time>2026-02-05T12:34:15</time>
      </trkpt>
      <trkpt lat="45.08123" lon="5.62756">
        <ele>1215.8</ele>
        <time>2026-02-05T12:34:16</time>
      </trkpt>
      <trkpt lat="45.08123" lon="5.62756">
        <ele>1215.8</ele>
        <time>2026-02-05T12:34:20</time>
      </trkpt>
      <trkpt lat="45.08123" lon="5.62756">
        <ele>1215.8</ele>
        <time>2026-02-05T12:34:20</time>
      </trkpt>
      <trkpt lat="45.08123" lon="5.62756">
        <ele>1219</ele>
        <time>2026-02-05T12:34:23</time>
      </trkpt>
      <trkpt lat="45.08123" lon="5.62756">
        <ele>1219</ele>
        <time>2026-02-05T12:34:24</time>
      </trkpt>
      <trkpt lat="45.08123" lon="5.62756">
        <ele>1219</ele>
        <time>2026-02-05T12:34:25</time>
      </trkpt>
      <trkpt lat="45.08123" lon="5.62756">
        <ele>1219</ele>
        <time>2026-02-05T12:34:26</time>
      </trkpt>
      <trkpt lat="45.08123" lon="5.62756">
        <ele>1219</ele>
        <time>2026-02-05T12:34:29</time>
      </trkpt>
      <trkpt lat="45.08123" lon="5.62756">
        <ele>1219</ele>
        <time>2026-02-05T12:34:29</time>
      </trkpt>
      <trkpt lat="45.08123" lon="5.62756">
        <ele>1219</ele>
        <time>2026-02-05T12:34:30</time>
      </trkpt>
      <trkpt lat="45.08123" lon="5.62756">
        <ele>1219</ele>
        <time>2026-02-05T12:34:32</time>
      </trkpt>
      <trkpt lat="45.08124" lon="5.62756">
        <ele>1219</ele>
        <time>2026-02-05T12:34:38</time>
      </trkpt>
      <trkpt lat="45.08124" lon="5.62756">
        <ele>1219</ele>
        <time>2026-02-05T12:34:39</time>
      </trkpt>
      <trkpt lat="45.08124" lon="5.62759">
        <ele>1219</ele>
        <time>2026-02-05T12:34:40</time>
      </trkpt>
      <trkpt lat="45.08123" lon="5.62762">
        <ele>1219</ele>
        <time>2026-02-05T12:34:41</time>
      </trkpt>
      <trkpt lat="45.08123" lon="5.62764">
        <ele>1219</ele>
        <time>2026-02-05T12:34:43</time>
      </trkpt>
      <trkpt lat="45.08123" lon="5.62765">
        <ele>1219</ele>
        <time>2026-02-05T12:34:44</time>
      </trkpt>
      <trkpt lat="45.08123" lon="5.62765">
        <ele>1219</ele>
        <time>2026-02-05T12:34:45</time>
      </trkpt>
      <trkpt lat="45.08123" lon="5.62765">
        <ele>1219</ele>
        <time>2026-02-05T12:34:45</time>
      </trkpt>
      <trkpt lat="45.08123" lon="5.62764">
        <ele>1229.5</ele>
        <time>2026-02-05T12:34:48</time>
      </trkpt>
      <trkpt lat="45.08123" lon="5.62765">
        <ele>1231.7</ele>
        <time>2026-02-05T12:34:59</time>
      </trkpt>
      <trkpt lat="45.08122" lon="5.62778">
        <ele>1231.7</ele>
        <time>2026-02-05T12:35:06</time>
      </trkpt>
      <trkpt lat="45.08123" lon="5.62779">
        <ele>1231.7</ele>
        <time>2026-02-05T12:35:09</time>
      </trkpt>
      <trkpt lat="45.08123" lon="5.62779">
        <ele>1231.7</ele>
        <time>2026-02-05T12:35:11</time>
      </trkpt>
      <trkpt lat="45.08123" lon="5.6278">
        <ele>1231.7</ele>
        <time>2026-02-05T12:35:17</time>
      </trkpt>
      <trkpt lat="45.08123" lon="5.62779">
        <ele>1229.7</ele>
        <time>2026-02-05T12:35:20</time>
      </trkpt>
      <trkpt lat="45.08123" lon="5.62779">
        <ele>1229.7</ele>
        <time>2026-02-05T12:35:21</time>
      </trkpt>
      <trkpt lat="45.08123" lon="5.62779">
        <ele>1229.7</ele>
        <time>2026-02-05T12:35:22</time>
      </trkpt>
      <trkpt lat="45.08123" lon="5.62779">
        <ele>1229.7</ele>
        <time>2026-02-05T12:35:23</time>
      </trkpt>
      <trkpt lat="45.08123" lon="5.62779">
        <ele>1229.7</ele>
        <time>2026-02-05T12:35:24</time>
      </trkpt>
      <trkpt lat="45.08123" lon="5.62779">
        <ele>1229.7</ele>
        <time>2026-02-05T12:35:25</time>
      </trkpt>
      <trkpt lat="45.08123" lon="5.62779">
        <ele>1229.7</ele>
        <time>2026-02-05T12:35:26</time>
      </trkpt>
      <trkpt lat="45.08123" lon="5.62779">
        <ele>1229.7</ele>
        <time>2026-02-05T12:35:27</time>
      </trkpt>
      <trkpt lat="45.08123" lon="5.62779">
        <ele>1229.7</ele>
        <time>2026-02-05T12:35:28</time>
      </trkpt>
      <trkpt lat="45.08123" lon="5.62779">
        <ele>1229.7</ele>
        <time>2026-02-05T12:35:30</time>
      </trkpt>
      <trkpt lat="45.08133" lon="5.62782">
        <ele>1228.5</ele>
        <time>2026-02-05T12:35:40</time>
      </trkpt>
      <trkpt lat="45.08133" lon="5.62782">
        <ele>1228.5</ele>
        <time>2026-02-05T12:35:41</time>
      </trkpt>
      <trkpt lat="45.08133" lon="5.62782">
        <ele>1228.5</ele>
        <time>2026-02-05T12:35:42</time>
      </trkpt>
      <trkpt lat="45.08133" lon="5.62782">
        <ele>1228.5</ele>
        <time>2026-02-05T12:35:43</time>
      </trkpt>
      <trkpt lat="45.08133" lon="5.62782">
        <ele>1228.5</ele>
        <time>2026-02-05T12:35:44</time>
      </trkpt>
      <trkpt lat="45.08133" lon="5.62782">
        <ele>1227.8</ele>
        <time>2026-02-05T12:35:46</time>
      </trkpt>
      <trkpt lat="45.08133" lon="5.62782">
        <ele>1227.8</ele>
        <time>2026-02-05T12:35:47</time>
      </trkpt>
      <trkpt lat="45.08133" lon="5.62782">
        <ele>1227.8</ele>
        <time>2026-02-05T12:35:49</time>
      </trkpt>
      <trkpt lat="45.08133" lon="5.62782">
        <ele>1227.8</ele>
        <time>2026-02-05T12:35:51</time>
      </trkpt>
      <trkpt lat="45.08133" lon="5.62782">
        <ele>1227.8</ele>
        <time>2026-02-05T12:35:53</time>
      </trkpt>
      <trkpt lat="45.08133" lon="5.62782">
        <ele>1227.8</ele>
        <time>2026-02-05T12:35:54</time>
      </trkpt>
      <trkpt lat="45.08133" lon="5.62782">
        <ele>1227.8</ele>
        <time>2026-02-05T12:35:55</time>
      </trkpt>
      <trkpt lat="45.08133" lon="5.62783">
        <ele>1227.8</ele>
        <time>2026-02-05T12:35:56</time>
      </trkpt>
      <trkpt lat="45.08134" lon="5.62784">
        <ele>1227.8</ele>
        <time>2026-02-05T12:35:57</time>
      </trkpt>
      <trkpt lat="45.08134" lon="5.62786">
        <ele>1227.8</ele>
        <time>2026-02-05T12:35:58</time>
      </trkpt>
      <trkpt lat="45.08134" lon="5.62786">
        <ele>1227.8</ele>
        <time>2026-02-05T12:35:59</time>
      </trkpt>
      <trkpt lat="45.08135" lon="5.62787">
        <ele>1227.8</ele>
        <time>2026-02-05T12:36:00</time>
      </trkpt>
      <trkpt lat="45.08135" lon="5.62787">
        <ele>1227.8</ele>
        <time>2026-02-05T12:36:01</time>
      </trkpt>
      <trkpt lat="45.08135" lon="5.62787">
        <ele>1224.9</ele>
        <time>2026-02-05T12:36:02</time>
      </trkpt>
      <trkpt lat="45.08136" lon="5.62788">
        <ele>1224.9</ele>
        <time>2026-02-05T12:36:05</time>
      </trkpt>
      <trkpt lat="45.08138" lon="5.62789">
        <ele>1224.9</ele>
        <time>2026-02-05T12:36:07</time>
      </trkpt>
      <trkpt lat="45.08139" lon="5.6279">
        <ele>1224.9</ele>
        <time>2026-02-05T12:36:08</time>
      </trkpt>
      <trkpt lat="45.0814" lon="5.62791">
        <ele>1224.9</ele>
        <time>2026-02-05T12:36:12</time>
      </trkpt>
      <trkpt lat="45.08141" lon="5.62792">
        <ele>1224.9</ele>
        <time>2026-02-05T12:36:14</time>
      </trkpt>
      <trkpt lat="45.08141" lon="5.62792">
        <ele>1224.9</ele>
        <time>2026-02-05T12:36:14</time>
      </trkpt>
      <trkpt lat="45.08141" lon="5.62794">
        <ele>1224.9</ele>
        <time>2026-02-05T12:36:15</time>
      </trkpt>
      <trkpt lat="45.08142" lon="5.62799">
        <ele>1224.8</ele>
        <time>2026-02-05T12:36:18</time>
      </trkpt>
      <trkpt lat="45.08142" lon="5.628">
        <ele>1224.8</ele>
        <time>2026-02-05T12:36:19</time>
      </trkpt>
      <trkpt lat="45.08143" lon="5.62802">
        <ele>1224.8</ele>
        <time>2026-02-05T12:36:20</time>
      </trkpt>
      <trkpt lat="45.08144" lon="5.62804">
        <ele>1224.8</ele>
        <time>2026-02-05T12:36:22</time>
      </trkpt>
      <trkpt lat="45.08145" lon="5.62806">
        <ele>1224.8</ele>
        <time>2026-02-05T12:36:23</time>
      </trkpt>
      <trkpt lat="45.08145" lon="5.62807">
        <ele>1224.8</ele>
        <time>2026-02-05T12:36:25</time>
      </trkpt>
      <trkpt lat="45.08146" lon="5.62809">
        <ele>1224.8</ele>
        <time>2026-02-05T12:36:27</time>
      </trkpt>
      <trkpt lat="45.08146" lon="5.62809">
        <ele>1224.8</ele>
        <time>2026-02-05T12:36:29</time>
      </trkpt>
      <trkpt lat="45.08146" lon="5.6281">
        <ele>1224.8</ele>
        <time>2026-02-05T12:36:30</time>
      </trkpt>
      <trkpt lat="45.08146" lon="5.62811">
        <ele>1224.8</ele>
        <time>2026-02-05T12:36:33</time>
      </trkpt>
      <trkpt lat="45.08146" lon="5.62812">
        <ele>1224.8</ele>
        <time>2026-02-05T12:36:34</time>
      </trkpt>
      <trkpt lat="45.08146" lon="5.62812">
        <ele>1224.9</ele>
        <time>2026-02-05T12:36:34</time>
      </trkpt>
      <trkpt lat="45.08146" lon="5.62812">
        <ele>1224.9</ele>
        <time>2026-02-05T12:36:35</time>
      </trkpt>
      <trkpt lat="45.08146" lon="5.62813">
        <ele>1224.9</ele>
        <time>2026-02-05T12:36:39</time>
      </trkpt>
      <trkpt lat="45.08146" lon="5.62812">
        <ele>1224.9</ele>
        <time>2026-02-05T12:36:40</time>
      </trkpt>
      <trkpt lat="45.08146" lon="5.62813">
        <ele>1224.9</ele>
        <time>2026-02-05T12:36:41</time>
      </trkpt>
      <trkpt lat="45.08146" lon="5.62813">
        <ele>1224.9</ele>
        <time>2026-02-05T12:36:42</time>
      </trkpt>
      <trkpt lat="45.08146" lon="5.62813">
        <ele>1224.9</ele>
        <time>2026-02-05T12:36:43</time>
      </trkpt>
      <trkpt lat="45.08146" lon="5.62813">
        <ele>1224.9</ele>
        <time>2026-02-05T12:36:43</time>
      </trkpt>
      <trkpt lat="45.08146" lon="5.62813">
        <ele>1224.9</ele>
        <time>2026-02-05T12:36:44</time>
      </trkpt>
      <trkpt lat="45.08146" lon="5.62813">
        <ele>1224.9</ele>
        <time>2026-02-05T12:36:46</time>
      </trkpt>
      <trkpt lat="45.08146" lon="5.62813">
        <ele>1224.9</ele>
        <time>2026-02-05T12:36:48</time>
      </trkpt>
      <trkpt lat="45.08146" lon="5.62812">
        <ele>1224.9</ele>
        <time>2026-02-05T12:36:49</time>
      </trkpt>
      <trkpt lat="45.08146" lon="5.62812">
        <ele>1224.9</ele>
        <time>2026-02-05T12:36:50</time>
      </trkpt>
      <trkpt lat="45.08146" lon="5.62813">
        <ele>1224.9</ele>
        <time>2026-02-05T12:36:54</time>
      </trkpt>
      <trkpt lat="45.08146" lon="5.62812">
        <ele>1224.9</ele>
        <time>2026-02-05T12:36:57</time>
      </trkpt>
      <trkpt lat="45.08146" lon="5.62812">
        <ele>1224.9</ele>
        <time>2026-02-05T12:36:58</time>
      </trkpt>
      <trkpt lat="45.08146" lon="5.62812">
        <ele>1224.9</ele>
        <time>2026-02-05T12:36:59</time>
      </trkpt>
      <trkpt lat="45.08146" lon="5.62812">
        <ele>1224.9</ele>
        <time>2026-02-05T12:37:02</time>
      </trkpt>
      <trkpt lat="45.0814" lon="5.62824">
        <ele>1233.6</ele>
        <time>2026-02-05T12:37:17</time>
      </trkpt>
      <trkpt lat="45.0814" lon="5.62824">
        <ele>1233.6</ele>
        <time>2026-02-05T12:37:19</time>
      </trkpt>
      <trkpt lat="45.0814" lon="5.62824">
        <ele>1233.6</ele>
        <time>2026-02-05T12:37:19</time>
      </trkpt>
      <trkpt lat="45.0814" lon="5.62824">
        <ele>1233.6</ele>
        <time>2026-02-05T12:37:20</time>
      </trkpt>
      <trkpt lat="45.08139" lon="5.62824">
        <ele>1233.6</ele>
        <time>2026-02-05T12:37:32</time>
      </trkpt>
      <trkpt lat="45.0814" lon="5.62824">
        <ele>1233.6</ele>
        <time>2026-02-05T12:37:34</time>
      </trkpt>
      <trkpt lat="45.0814" lon="5.62824">
        <ele>1233.6</ele>
        <time>2026-02-05T12:37:35</time>
      </trkpt>
      <trkpt lat="45.08142" lon="5.62825">
        <ele>1233.6</ele>
        <time>2026-02-05T12:37:36</time>
      </trkpt>
      <trkpt lat="45.08143" lon="5.62825">
        <ele>1233.6</ele>
        <time>2026-02-05T12:37:37</time>
      </trkpt>
      <trkpt lat="45.08145" lon="5.62825">
        <ele>1233.6</ele>
        <time>2026-02-05T12:37:39</time>
      </trkpt>
      <trkpt lat="45.08146" lon="5.62826">
        <ele>1233.6</ele>
        <time>2026-02-05T12:37:42</time>
      </trkpt>
      <trkpt lat="45.08146" lon="5.62826">
        <ele>1233.6</ele>
        <time>2026-02-05T12:37:43</time>
      </trkpt>
      <trkpt lat="45.08146" lon="5.62826">
        <ele>1233.6</ele>
        <time>2026-02-05T12:37:44</time>
      </trkpt>
      <trkpt lat="45.08145" lon="5.62828">
        <ele>1240.4333</ele>
        <time>2026-02-05T12:37:46</time>
      </trkpt>
      <trkpt lat="45.08145" lon="5.62828">
        <ele>1240.4333</ele>
        <time>2026-02-05T12:37:47</time>
      </trkpt>
      <trkpt lat="45.08145" lon="5.62828">
        <ele>1240.4333</ele>
        <time>2026-02-05T12:37:48</time>
      </trkpt>
      <trkpt lat="45.08145" lon="5.62828">
        <ele>1240.4333</ele>
        <time>2026-02-05T12:37:49</time>
      </trkpt>
      <trkpt lat="45.08145" lon="5.62829">
        <ele>1240.4333</ele>
        <time>2026-02-05T12:37:51</time>
      </trkpt>
      <trkpt lat="45.08145" lon="5.62829">
        <ele>1240.4333</ele>
        <time>2026-02-05T12:37:51</time>
      </trkpt>
      <trkpt lat="45.08145" lon="5.62829">
        <ele>1240.4333</ele>
        <time>2026-02-05T12:37:52</time>
      </trkpt>
      <trkpt lat="45.08145" lon="5.6283">
        <ele>1240.4333</ele>
        <time>2026-02-05T12:37:53</time>
      </trkpt>
      <trkpt lat="45.08145" lon="5.6283">
        <ele>1240.3</ele>
        <time>2026-02-05T12:37:53</time>
      </trkpt>
      <trkpt lat="45.08145" lon="5.6283">
        <ele>1240.3</ele>
        <time>2026-02-05T12:37:54</time>
      </trkpt>
      <trkpt lat="45.08144" lon="5.6283">
        <ele>1240.3</ele>
        <time>2026-02-05T12:37:57</time>
      </trkpt>
      <trkpt lat="45.08144" lon="5.6283">
        <ele>1240.3</ele>
        <time>2026-02-05T12:37:58</time>
      </trkpt>
      <trkpt lat="45.08143" lon="5.6283">
        <ele>1240.3</ele>
        <time>2026-02-05T12:37:59</time>
      </trkpt>
      <trkpt lat="45.08143" lon="5.6283">
        <ele>1240.3</ele>
        <time>2026-02-05T12:38:00</time>
      </trkpt>
      <trkpt lat="45.08143" lon="5.62831">
        <ele>1240.3</ele>
        <time>2026-02-05T12:38:00</time>
      </trkpt>
      <trkpt lat="45.08142" lon="5.62832">
        <ele>1240.2</ele>
        <time>2026-02-05T12:38:03</time>
      </trkpt>
      <trkpt lat="45.08142" lon="5.62833">
        <ele>1240.2</ele>
        <time>2026-02-05T12:38:04</time>
      </trkpt>
      <trkpt lat="45.08141" lon="5.62834">
        <ele>1240.2</ele>
        <time>2026-02-05T12:38:07</time>
      </trkpt>
      <trkpt lat="45.0814" lon="5.62835">
        <ele>1240</ele>
        <time>2026-02-05T12:38:09</time>
      </trkpt>
      <trkpt lat="45.08139" lon="5.62835">
        <ele>1240</ele>
        <time>2026-02-05T12:38:12</time>
      </trkpt>
      <trkpt lat="45.08139" lon="5.62835">
        <ele>1240</ele>
        <time>2026-02-05T12:38:15</time>
      </trkpt>
      <trkpt lat="45.08139" lon="5.62835">
        <ele>1240</ele>
        <time>2026-02-05T12:38:16</time>
      </trkpt>
      <trkpt lat="45.08139" lon="5.62835">
        <ele>1240</ele>
        <time>2026-02-05T12:38:16</time>
      </trkpt>
      <trkpt lat="45.08139" lon="5.62835">
        <ele>1239.6</ele>
        <time>2026-02-05T12:38:20</time>
      </trkpt>
      <trkpt lat="45.08139" lon="5.62835">
        <ele>1239.6</ele>
        <time>2026-02-05T12:38:20</time>
      </trkpt>
      <trkpt lat="45.08139" lon="5.62835">
        <ele>1239.6</ele>
        <time>2026-02-05T12:38:21</time>
      </trkpt>
      <trkpt lat="45.08139" lon="5.62835">
        <ele>1239.6</ele>
        <time>2026-02-05T12:38:24</time>
      </trkpt>
      <trkpt lat="45.08139" lon="5.62835">
        <ele>1239.6</ele>
        <time>2026-02-05T12:38:26</time>
      </trkpt>
      <trkpt lat="45.08139" lon="5.62835">
        <ele>1239.6</ele>
        <time>2026-02-05T12:38:27</time>
      </trkpt>
      <trkpt lat="45.08139" lon="5.62846">
        <ele>1239.6</ele>
        <time>2026-02-05T12:38:29</time>
      </trkpt>
      <trkpt lat="45.08139" lon="5.62848">
        <ele>1239.6</ele>
        <time>2026-02-05T12:38:30</time>
      </trkpt>
      <trkpt lat="45.0814" lon="5.62852">
        <ele>1239.6</ele>
        <time>2026-02-05T12:38:33</time>
      </trkpt>
      <trkpt lat="45.0814" lon="5.62853">
        <ele>1238.8</ele>
        <time>2026-02-05T12:38:35</time>
      </trkpt>
      <trkpt lat="45.0814" lon="5.62853">
        <ele>1238.8</ele>
        <time>2026-02-05T12:38:36</time>
      </trkpt>
      <trkpt lat="45.0814" lon="5.62853">
        <ele>1238.8</ele>
        <time>2026-02-05T12:38:37</time>
      </trkpt>
      <trkpt lat="45.0814" lon="5.62854">
        <ele>1238.8</ele>
        <time>2026-02-05T12:38:40</time>
      </trkpt>
      <trkpt lat="45.0814" lon="5.62854">
        <ele>1239</ele>
        <time>2026-02-05T12:38:42</time>
      </trkpt>
      <trkpt lat="45.0814" lon="5.62854">
        <ele>1239</ele>
        <time>2026-02-05T12:38:43</time>
      </trkpt>
      <trkpt lat="45.0814" lon="5.62854">
        <ele>1239</ele>
        <time>2026-02-05T12:38:44</time>
      </trkpt>
      <trkpt lat="45.0814" lon="5.62854">
        <ele>1239</ele>
        <time>2026-02-05T12:38:44</time>
      </trkpt>
      <trkpt lat="45.08141" lon="5.62854">
        <ele>1239</ele>
        <time>2026-02-05T12:38:46</time>
      </trkpt>
      <trkpt lat="45.08141" lon="5.62856">
        <ele>1239</ele>
        <time>2026-02-05T12:38:48</time>
      </trkpt>
      <trkpt lat="45.08142" lon="5.62858">
        <ele>1239</ele>
        <time>2026-02-05T12:38:49</time>
      </trkpt>
      <trkpt lat="45.08144" lon="5.62861">
        <ele>1239</ele>
        <time>2026-02-05T12:38:52</time>
      </trkpt>
      <trkpt lat="45.08144" lon="5.62862">
        <ele>1239</ele>
        <time>2026-02-05T12:38:56</time>
      </trkpt>
      <trkpt lat="45.08144" lon="5.62862">
        <ele>1239</ele>
        <time>2026-02-05T12:38:59</time>
      </trkpt>
      <trkpt lat="45.08144" lon="5.62862">
        <ele>1241.6</ele>
        <time>2026-02-05T12:39:06</time>
      </trkpt>
      <trkpt lat="45.08145" lon="5.62862">
        <ele>1241.6</ele>
        <time>2026-02-05T12:39:08</time>
      </trkpt>
      <trkpt lat="45.08148" lon="5.62865">
        <ele>1241.6</ele>
        <time>2026-02-05T12:39:09</time>
      </trkpt>
      <trkpt lat="45.0815" lon="5.62867">
        <ele>1241.6</ele>
        <time>2026-02-05T12:39:11</time>
      </trkpt>
      <trkpt lat="45.08151" lon="5.62867">
        <ele>1241.6</ele>
        <time>2026-02-05T12:39:13</time>
      </trkpt>
      <trkpt lat="45.08151" lon="5.62867">
        <ele>1241.6</ele>
        <time>2026-02-05T12:39:15</time>
      </trkpt>
      <trkpt lat="45.08151" lon="5.62868">
        <ele>1243.4</ele>
        <time>2026-02-05T12:39:17</time>
      </trkpt>
      <trkpt lat="45.08151" lon="5.62868">
        <ele>1243.4</ele>
        <time>2026-02-05T12:39:18</time>
      </trkpt>
      <trkpt lat="45.08151" lon="5.62868">
        <ele>1243.4</ele>
        <time>2026-02-05T12:39:20</time>
      </trkpt>
      <trkpt lat="45.08151" lon="5.62868">
        <ele>1243.4</ele>
        <time>2026-02-05T12:39:21</time>
      </trkpt>
      <trkpt lat="45.08151" lon="5.62868">
        <ele>1243.4</ele>
        <time>2026-02-05T12:39:22</time>
      </trkpt>
      <trkpt lat="45.08151" lon="5.62868">
        <ele>1243.4</ele>
        <time>2026-02-05T12:39:24</time>
      </trkpt>
      <trkpt lat="45.08151" lon="5.62868">
        <ele>1243.4</ele>
        <time>2026-02-05T12:39:24</time>
      </trkpt>
      <trkpt lat="45.08151" lon="5.62868">
        <ele>1243.4</ele>
        <time>2026-02-05T12:39:26</time>
      </trkpt>
      <trkpt lat="45.08151" lon="5.62868">
        <ele>1243.4</ele>
        <time>2026-02-05T12:39:27</time>
      </trkpt>
      <trkpt lat="45.08151" lon="5.62868">
        <ele>1243.4</ele>
        <time>2026-02-05T12:39:28</time>
      </trkpt>
      <trkpt lat="45.08151" lon="5.62868">
        <ele>1243.4</ele>
        <time>2026-02-05T12:39:29</time>
      </trkpt>
      <trkpt lat="45.08151" lon="5.62868">
        <ele>1243.4</ele>
        <time>2026-02-05T12:39:30</time>
      </trkpt>
      <trkpt lat="45.08152" lon="5.62868">
        <ele>1243.4</ele>
        <time>2026-02-05T12:39:33</time>
      </trkpt>
      <trkpt lat="45.08152" lon="5.62868">
        <ele>1245.8</ele>
        <time>2026-02-05T12:39:34</time>
      </trkpt>
      <trkpt lat="45.08152" lon="5.62868">
        <ele>1245.8</ele>
        <time>2026-02-05T12:39:35</time>
      </trkpt>
      <trkpt lat="45.08152" lon="5.62868">
        <ele>1245.8</ele>
        <time>2026-02-05T12:39:35</time>
      </trkpt>
      <trkpt lat="45.08152" lon="5.62868">
        <ele>1245.8</ele>
        <time>2026-02-05T12:39:37</time>
      </trkpt>
      <trkpt lat="45.08152" lon="5.62868">
        <ele>1245.8</ele>
        <time>2026-02-05T12:39:38</time>
      </trkpt>
      <trkpt lat="45.08152" lon="5.62868">
        <ele>1245.8</ele>
        <time>2026-02-05T12:39:39</time>
      </trkpt>
      <trkpt lat="45.08156" lon="5.62874">
        <ele>1245.8</ele>
        <time>2026-02-05T12:39:41</time>
      </trkpt>
      <trkpt lat="45.08156" lon="5.62875">
        <ele>1245.8</ele>
        <time>2026-02-05T12:39:41</time>
      </trkpt>
      <trkpt lat="45.08157" lon="5.62876">
        <ele>1250.6</ele>
        <time>2026-02-05T12:39:44</time>
      </trkpt>
      <trkpt lat="45.08158" lon="5.62876">
        <ele>1250.6</ele>
        <time>2026-02-05T12:39:53</time>
      </trkpt>
      <trkpt lat="45.08159" lon="5.62876">
        <ele>1250.6</ele>
        <time>2026-02-05T12:39:56</time>
      </trkpt>
      <trkpt lat="45.0816" lon="5.62876">
        <ele>1250.6</ele>
        <time>2026-02-05T12:39:57</time>
      </trkpt>
      <trkpt lat="45.0816" lon="5.62876">
        <ele>1250.6</ele>
        <time>2026-02-05T12:39:58</time>
      </trkpt>
      <trkpt lat="45.0816" lon="5.62876">
        <ele>1250.6</ele>
        <time>2026-02-05T12:39:59</time>
      </trkpt>
      <trkpt lat="45.0816" lon="5.62876">
        <ele>1250.6</ele>
        <time>2026-02-05T12:40:00</time>
      </trkpt>
      <trkpt lat="45.0816" lon="5.62876">
        <ele>1250.6</ele>
        <time>2026-02-05T12:40:01</time>
      </trkpt>
      <trkpt lat="45.08161" lon="5.62876">
        <ele>1250.6</ele>
        <time>2026-02-05T12:40:02</time>
      </trkpt>
      <trkpt lat="45.08161" lon="5.62877">
        <ele>1251.4</ele>
        <time>2026-02-05T12:40:02</time>
      </trkpt>
      <trkpt lat="45.08161" lon="5.62878">
        <ele>1251.4</ele>
        <time>2026-02-05T12:40:05</time>
      </trkpt>
      <trkpt lat="45.08162" lon="5.62879">
        <ele>1251.4</ele>
        <time>2026-02-05T12:40:06</time>
      </trkpt>
      <trkpt lat="45.08162" lon="5.62879">
        <ele>1251.4</ele>
        <time>2026-02-05T12:40:08</time>
      </trkpt>
      <trkpt lat="45.08163" lon="5.6288">
        <ele>1251.4</ele>
        <time>2026-02-05T12:40:10</time>
      </trkpt>
      <trkpt lat="45.08163" lon="5.6288">
        <ele>1251.5</ele>
        <time>2026-02-05T12:40:11</time>
      </trkpt>
      <trkpt lat="45.08163" lon="5.6288">
        <ele>1251.5</ele>
        <time>2026-02-05T12:40:11</time>
      </trkpt>
      <trkpt lat="45.08163" lon="5.6288">
        <ele>1251.5</ele>
        <time>2026-02-05T12:40:12</time>
      </trkpt>
      <trkpt lat="45.08163" lon="5.62881">
        <ele>1251.5</ele>
        <time>2026-02-05T12:40:14</time>
      </trkpt>
      <trkpt lat="45.08163" lon="5.62881">
        <ele>1251.5</ele>
        <time>2026-02-05T12:40:15</time>
      </trkpt>
      <trkpt lat="45.08163" lon="5.62882">
        <ele>1251.3</ele>
        <time>2026-02-05T12:40:17</time>
      </trkpt>
      <trkpt lat="45.08163" lon="5.62883">
        <ele>1251.3</ele>
        <time>2026-02-05T12:40:18</time>
      </trkpt>
      <trkpt lat="45.08163" lon="5.62883">
        <ele>1251.3</ele>
        <time>2026-02-05T12:40:19</time>
      </trkpt>
      <trkpt lat="45.08163" lon="5.62883">
        <ele>1251.3</ele>
        <time>2026-02-05T12:40:20</time>
      </trkpt>
      <trkpt lat="45.08164" lon="5.62883">
        <ele>1251.3</ele>
        <time>2026-02-05T12:40:21</time>
      </trkpt>
      <trkpt lat="45.08164" lon="5.62884">
        <ele>1251.3</ele>
        <time>2026-02-05T12:40:22</time>
      </trkpt>
      <trkpt lat="45.08164" lon="5.62884">
        <ele>1251.3</ele>
        <time>2026-02-05T12:40:22</time>
      </trkpt>
      <trkpt lat="45.08164" lon="5.62884">
        <ele>1251.3</ele>
        <time>2026-02-05T12:40:23</time>
      </trkpt>
      <trkpt lat="45.08166" lon="5.62886">
        <ele>1251.4</ele>
        <time>2026-02-05T12:40:25</time>
      </trkpt>
      <trkpt lat="45.08166" lon="5.62887">
        <ele>1251.4</ele>
        <time>2026-02-05T12:40:26</time>
      </trkpt>
      <trkpt lat="45.08167" lon="5.62887">
        <ele>1251.4</ele>
        <time>2026-02-05T12:40:28</time>
      </trkpt>
      <trkpt lat="45.08167" lon="5.62888">
        <ele>1251.4</ele>
        <time>2026-02-05T12:40:29</time>
      </trkpt>
      <trkpt lat="45.08167" lon="5.62888">
        <ele>1251.3</ele>
        <time>2026-02-05T12:40:35</time>
      </trkpt>
      <trkpt lat="45.08167" lon="5.62889">
        <ele>1251.3</ele>
        <time>2026-02-05T12:40:36</time>
      </trkpt>
      <trkpt lat="45.08167" lon="5.62889">
        <ele>1251.3</ele>
        <time>2026-02-05T12:40:37</time>
      </trkpt>
      <trkpt lat="45.08167" lon="5.62889">
        <ele>1251.3</ele>
        <time>2026-02-05T12:40:39</time>
      </trkpt>
      <trkpt lat="45.08167" lon="5.62889">
        <ele>1252</ele>
        <time>2026-02-05T12:40:41</time>
      </trkpt>
      <trkpt lat="45.08167" lon="5.62889">
        <ele>1252</ele>
        <time>2026-02-05T12:40:42</time>
      </trkpt>
      <trkpt lat="45.0817" lon="5.6289">
        <ele>1252</ele>
        <time>2026-02-05T12:40:45</time>
      </trkpt>
      <trkpt lat="45.08172" lon="5.62891">
        <ele>1252</ele>
        <time>2026-02-05T12:40:49</time>
      </trkpt>
      <trkpt lat="45.08174" lon="5.62891">
        <ele>1252</ele>
        <time>2026-02-05T12:40:52</time>
      </trkpt>
      <trkpt lat="45.08177" lon="5.62893">
        <ele>1252</ele>
        <time>2026-02-05T12:40:55</time>
      </trkpt>
      <trkpt lat="45.08179" lon="5.62895">
        <ele>1253.6</ele>
        <time>2026-02-05T12:41:00</time>
      </trkpt>
      <trkpt lat="45.0818" lon="5.62896">
        <ele>1253.6</ele>
        <time>2026-02-05T12:41:01</time>
      </trkpt>
      <trkpt lat="45.08181" lon="5.62898">
        <ele>1253.6</ele>
        <time>2026-02-05T12:41:04</time>
      </trkpt>
      <trkpt lat="45.08181" lon="5.62898">
        <ele>1253.6</ele>
        <time>2026-02-05T12:41:04</time>
      </trkpt>
      <trkpt lat="45.08181" lon="5.62898">
        <ele>1253.6</ele>
        <time>2026-02-05T12:41:06</time>
      </trkpt>
      <trkpt lat="45.08181" lon="5.62898">
        <ele>1256.4333</ele>
        <time>2026-02-05T12:41:07</time>
      </trkpt>
      <trkpt lat="45.08181" lon="5.62898">
        <ele>1256.4333</ele>
        <time>2026-02-05T12:41:07</time>
      </trkpt>
      <trkpt lat="45.08181" lon="5.62899">
        <ele>1256.4333</ele>
        <time>2026-02-05T12:41:08</time>
      </trkpt>
      <trkpt lat="45.08181" lon="5.62899">
        <ele>1256.4333</ele>
        <time>2026-02-05T12:41:09</time>
      </trkpt>
      <trkpt lat="45.08181" lon="5.629">
        <ele>1256.4333</ele>
        <time>2026-02-05T12:41:11</time>
      </trkpt>
      <trkpt lat="45.08181" lon="5.62901">
        <ele>1259.7</ele>
        <time>2026-02-05T12:41:14</time>
      </trkpt>
      <trkpt lat="45.08181" lon="5.62901">
        <ele>1259.7</ele>
        <time>2026-02-05T12:41:15</time>
      </trkpt>
      <trkpt lat="45.08181" lon="5.62901">
        <ele>1259.7</ele>
        <time>2026-02-05T12:41:16</time>
      </trkpt>
      <trkpt lat="45.08181" lon="5.62902">
        <ele>1259.7</ele>
        <time>2026-02-05T12:41:20</time>
      </trkpt>
      <trkpt lat="45.08181" lon="5.62902">
        <ele>1259.7</ele>
        <time>2026-02-05T12:41:21</time>
      </trkpt>
      <trkpt lat="45.0818" lon="5.62902">
        <ele>1260.7</ele>
        <time>2026-02-05T12:41:24</time>
      </trkpt>
      <trkpt lat="45.0818" lon="5.62902">
        <ele>1260.7</ele>
        <time>2026-02-05T12:41:25</time>
      </trkpt>
      <trkpt lat="45.08181" lon="5.62901">
        <ele>1260.7</ele>
        <time>2026-02-05T12:41:26</time>
      </trkpt>
      <trkpt lat="45.08181" lon="5.62901">
        <ele>1260.7</ele>
        <time>2026-02-05T12:41:45</time>
      </trkpt>
      <trkpt lat="45.08181" lon="5.62902">
        <ele>1260.7</ele>
        <time>2026-02-05T12:41:45</time>
      </trkpt>
      <trkpt lat="45.08182" lon="5.62904">
        <ele>1260.7</ele>
        <time>2026-02-05T12:41:47</time>
      </trkpt>
      <trkpt lat="45.08183" lon="5.62905">
        <ele>1260.7</ele>
        <time>2026-02-05T12:41:47</time>
      </trkpt>
      <trkpt lat="45.08184" lon="5.62906">
        <ele>1260.7</ele>
        <time>2026-02-05T12:41:48</time>
      </trkpt>
      <trkpt lat="45.08184" lon="5.62907">
        <ele>1260.7</ele>
        <time>2026-02-05T12:41:49</time>
      </trkpt>
      <trkpt lat="45.08185" lon="5.62908">
        <ele>1260.7</ele>
        <time>2026-02-05T12:41:50</time>
      </trkpt>
      <trkpt lat="45.08185" lon="5.6291">
        <ele>1260.7</ele>
        <time>2026-02-05T12:41:51</time>
      </trkpt>
      <trkpt lat="45.08186" lon="5.62911">
        <ele>1260.7</ele>
        <time>2026-02-05T12:41:52</time>
      </trkpt>
      <trkpt lat="45.08185" lon="5.62911">
        <ele>1260.7</ele>
        <time>2026-02-05T12:41:52</time>
      </trkpt>
      <trkpt lat="45.08185" lon="5.62912">
        <ele>1260.7</ele>
        <time>2026-02-05T12:41:54</time>
      </trkpt>
      <trkpt lat="45.08184" lon="5.62912">
        <ele>1260.7</ele>
        <time>2026-02-05T12:41:54</time>
      </trkpt>
      <trkpt lat="45.08184" lon="5.62912">
        <ele>1260.7</ele>
        <time>2026-02-05T12:41:55</time>
      </trkpt>
      <trkpt lat="45.08178" lon="5.62911">
        <ele>1267.3</ele>
        <time>2026-02-05T12:42:06</time>
      </trkpt>
      <trkpt lat="45.08177" lon="5.62911">
        <ele>1267.3</ele>
        <time>2026-02-05T12:42:10</time>
      </trkpt>
      <trkpt lat="45.08178" lon="5.62911">
        <ele>1267.3</ele>
        <time>2026-02-05T12:42:12</time>
      </trkpt>
      <trkpt lat="45.0818" lon="5.62911">
        <ele>1267.3</ele>
        <time>2026-02-05T12:42:14</time>
      </trkpt>
      <trkpt lat="45.08182" lon="5.62911">
        <ele>1267.3</ele>
        <time>2026-02-05T12:42:18</time>
      </trkpt>
      <trkpt lat="45.08183" lon="5.62911">
        <ele>1267.3</ele>
        <time>2026-02-05T12:42:20</time>
      </trkpt>
      <trkpt lat="45.08184" lon="5.62911">
        <ele>1265.9</ele>
        <time>2026-02-05T12:42:22</time>
      </trkpt>
      <trkpt lat="45.08186" lon="5.62912">
        <ele>1265.9</ele>
        <time>2026-02-05T12:42:24</time>
      </trkpt>
      <trkpt lat="45.08186" lon="5.62913">
        <ele>1265.9</ele>
        <time>2026-02-05T12:42:25</time>
      </trkpt>
      <trkpt lat="45.08187" lon="5.62914">
        <ele>1265.9</ele>
        <time>2026-02-05T12:42:26</time>
      </trkpt>
      <trkpt lat="45.08187" lon="5.62914">
        <ele>1265.9</ele>
        <time>2026-02-05T12:42:26</time>
      </trkpt>
      <trkpt lat="45.08187" lon="5.62914">
        <ele>1267.6</ele>
        <time>2026-02-05T12:42:33</time>
      </trkpt>
      <trkpt lat="45.08187" lon="5.62914">
        <ele>1267.6</ele>
        <time>2026-02-05T12:42:34</time>
      </trkpt>
      <trkpt lat="45.08187" lon="5.62914">
        <ele>1267.6</ele>
        <time>2026-02-05T12:42:36</time>
      </trkpt>
      <trkpt lat="45.08187" lon="5.62914">
        <ele>1267.6</ele>
        <time>2026-02-05T12:42:37</time>
      </trkpt>
      <trkpt lat="45.08187" lon="5.62914">
        <ele>1267.6</ele>
        <time>2026-02-05T12:42:59</time>
      </trkpt>
      <trkpt lat="45.08187" lon="5.62914">
        <ele>1267.6</ele>
        <time>2026-02-05T12:43:00</time>
      </trkpt>
      <trkpt lat="45.08187" lon="5.62914">
        <ele>1267.6</ele>
        <time>2026-02-05T12:43:02</time>
      </trkpt>
      <trkpt lat="45.08187" lon="5.62914">
        <ele>1267.6</ele>
        <time>2026-02-05T12:43:03</time>
      </trkpt>
      <trkpt lat="45.08187" lon="5.62914">
        <ele>1267.6</ele>
        <time>2026-02-05T12:43:05</time>
      </trkpt>
      <trkpt lat="45.08187" lon="5.62914">
        <ele>1267.6</ele>
        <time>2026-02-05T12:43:06</time>
      </trkpt>
      <trkpt lat="45.08193" lon="5.62908">
        <ele>1266.5</ele>
        <time>2026-02-05T12:43:24</time>
      </trkpt>
      <trkpt lat="45.08193" lon="5.62907">
        <ele>1266.5</ele>
        <time>2026-02-05T12:43:25</time>
      </trkpt>
      <trkpt lat="45.08192" lon="5.62905">
        <ele>1266.5</ele>
        <time>2026-02-05T12:43:27</time>
      </trkpt>
      <trkpt lat="45.0819" lon="5.62905">
        <ele>1266.5</ele>
        <time>2026-02-05T12:43:31</time>
      </trkpt>
      <trkpt lat="45.08188" lon="5.62908">
        <ele>1266.5</ele>
        <time>2026-02-05T12:43:33</time>
      </trkpt>
      <trkpt lat="45.08185" lon="5.62908">
        <ele>1266.5</ele>
        <time>2026-02-05T12:43:36</time>
      </trkpt>
      <trkpt lat="45.0818" lon="5.62909">
        <ele>1265.8</ele>
        <time>2026-02-05T12:43:44</time>
      </trkpt>
      <trkpt lat="45.08181" lon="5.62908">
        <ele>1265.8</ele>
        <time>2026-02-05T12:43:46</time>
      </trkpt>
      <trkpt lat="45.08181" lon="5.62907">
        <ele>1265.8</ele>
        <time>2026-02-05T12:43:47</time>
      </trkpt>
      <trkpt lat="45.08186" lon="5.62905">
        <ele>1266.6</ele>
        <time>2026-02-05T12:44:19</time>
      </trkpt>
      <trkpt lat="45.08186" lon="5.62906">
        <ele>1266.6</ele>
        <time>2026-02-05T12:44:20</time>
      </trkpt>
      <trkpt lat="45.08187" lon="5.6291">
        <ele>1267.5</ele>
        <time>2026-02-05T12:44:44</time>
      </trkpt>
      <trkpt lat="45.08186" lon="5.62917">
        <ele>1267.5</ele>
        <time>2026-02-05T12:44:49</time>
      </trkpt>
      <trkpt lat="45.08186" lon="5.62919">
        <ele>1267.5</ele>
        <time>2026-02-05T12:44:49</time>
      </trkpt>
      <trkpt lat="45.08186" lon="5.6292">
        <ele>1267.5</ele>
        <time>2026-02-05T12:44:50</time>
      </trkpt>
      <trkpt lat="45.08186" lon="5.62921">
        <ele>1267.5</ele>
        <time>2026-02-05T12:44:51</time>
      </trkpt>
      <trkpt lat="45.08186" lon="5.62923">
        <ele>1267.5</ele>
        <time>2026-02-05T12:44:52</time>
      </trkpt>
      <trkpt lat="45.08187" lon="5.62926">
        <ele>1267.5</ele>
        <time>2026-02-05T12:44:54</time>
      </trkpt>
      <trkpt lat="45.08191" lon="5.62927">
        <ele>1270.1</ele>
        <time>2026-02-05T12:44:58</time>
      </trkpt>
      <trkpt lat="45.08192" lon="5.62928">
        <ele>1270.1</ele>
        <time>2026-02-05T12:44:59</time>
      </trkpt>
      <trkpt lat="45.08201" lon="5.62931">
        <ele>1268.6</ele>
        <time>2026-02-05T12:45:09</time>
      </trkpt>
      <trkpt lat="45.08203" lon="5.62932">
        <ele>1268.6</ele>
        <time>2026-02-05T12:45:11</time>
      </trkpt>
      <trkpt lat="45.08204" lon="5.62932">
        <ele>1268.6</ele>
        <time>2026-02-05T12:45:12</time>
      </trkpt>
      <trkpt lat="45.08204" lon="5.62934">
        <ele>1268.6</ele>
        <time>2026-02-05T12:45:13</time>
      </trkpt>
      <trkpt lat="45.08206" lon="5.62935">
        <ele>1268.6</ele>
        <time>2026-02-05T12:45:16</time>
      </trkpt>
      <trkpt lat="45.08207" lon="5.62941">
        <ele>1270.8</ele>
        <time>2026-02-05T12:45:23</time>
      </trkpt>
      <trkpt lat="45.08212" lon="5.62949">
        <ele>1271.6333</ele>
        <time>2026-02-05T12:45:32</time>
      </trkpt>
      <trkpt lat="45.08216" lon="5.62951">
        <ele>1271.6333</ele>
        <time>2026-02-05T12:45:36</time>
      </trkpt>
      <trkpt lat="45.08218" lon="5.62951">
        <ele>1271.7</ele>
        <time>2026-02-05T12:45:38</time>
      </trkpt>
      <trkpt lat="45.08223" lon="5.62953">
        <ele>1268.9</ele>
        <time>2026-02-05T12:45:43</time>
      </trkpt>
      <trkpt lat="45.08225" lon="5.62956">
        <ele>1268.9</ele>
        <time>2026-02-05T12:45:47</time>
      </trkpt>
      <trkpt lat="45.08226" lon="5.62957">
        <ele>1268.9</ele>
        <time>2026-02-05T12:45:48</time>
      </trkpt>
      <trkpt lat="45.08227" lon="5.62958">
        <ele>1268.8</ele>
        <time>2026-02-05T12:45:50</time>
      </trkpt>
      <trkpt lat="45.08228" lon="5.62959">
        <ele>1268.8</ele>
        <time>2026-02-05T12:45:51</time>
      </trkpt>
      <trkpt lat="45.0823" lon="5.62961">
        <ele>1268.8</ele>
        <time>2026-02-05T12:45:55</time>
      </trkpt>
      <trkpt lat="45.08231" lon="5.62961">
        <ele>1268.8</ele>
        <time>2026-02-05T12:45:56</time>
      </trkpt>
      <trkpt lat="45.08231" lon="5.62962">
        <ele>1268</ele>
        <time>2026-02-05T12:45:56</time>
      </trkpt>
      <trkpt lat="45.08237" lon="5.62969">
        <ele>1267.8334</ele>
        <time>2026-02-05T12:46:02</time>
      </trkpt>
      <trkpt lat="45.08238" lon="5.6297">
        <ele>1267.8334</ele>
        <time>2026-02-05T12:46:03</time>
      </trkpt>
      <trkpt lat="45.08238" lon="5.6297">
        <ele>1267.8334</ele>
        <time>2026-02-05T12:46:03</time>
      </trkpt>
      <trkpt lat="45.08239" lon="5.62971">
        <ele>1267.8334</ele>
        <time>2026-02-05T12:46:04</time>
      </trkpt>
      <trkpt lat="45.08239" lon="5.62971">
        <ele>1267.8334</ele>
        <time>2026-02-05T12:46:05</time>
      </trkpt>
      <trkpt lat="45.0824" lon="5.62972">
        <ele>1267.8334</ele>
        <time>2026-02-05T12:46:05</time>
      </trkpt>
      <trkpt lat="45.08249" lon="5.62976">
        <ele>1266.7</ele>
        <time>2026-02-05T12:46:13</time>
      </trkpt>
      <trkpt lat="45.08255" lon="5.62981">
        <ele>1266.4</ele>
        <time>2026-02-05T12:46:19</time>
      </trkpt>
      <trkpt lat="45.08256" lon="5.62981">
        <ele>1266.4</ele>
        <time>2026-02-05T12:46:19</time>
      </trkpt>
      <trkpt lat="45.08255" lon="5.6298">
        <ele>1264</ele>
        <time>2026-02-05T12:46:21</time>
      </trkpt>
      <trkpt lat="45.08255" lon="5.62979">
        <ele>1264</ele>
        <time>2026-02-05T12:46:21</time>
      </trkpt>
      <trkpt lat="45.08255" lon="5.62979">
        <ele>1264</ele>
        <time>2026-02-05T12:46:22</time>
      </trkpt>
      <trkpt lat="45.08255" lon="5.62979">
        <ele>1264</ele>
        <time>2026-02-05T12:46:22</time>
      </trkpt>
      <trkpt lat="45.08256" lon="5.62979">
        <ele>1264</ele>
        <time>2026-02-05T12:46:23</time>
      </trkpt>
      <trkpt lat="45.08257" lon="5.6298">
        <ele>1264</ele>
        <time>2026-02-05T12:46:24</time>
      </trkpt>
      <trkpt lat="45.08258" lon="5.62982">
        <ele>1264</ele>
        <time>2026-02-05T12:46:25</time>
      </trkpt>
      <trkpt lat="45.08259" lon="5.62986">
        <ele>1261.9</ele>
        <time>2026-02-05T12:46:27</time>
      </trkpt>
      <trkpt lat="45.08261" lon="5.6299">
        <ele>1261.9</ele>
        <time>2026-02-05T12:46:31</time>
      </trkpt>
      <trkpt lat="45.08262" lon="5.62994">
        <ele>1261.5</ele>
        <time>2026-02-05T12:46:34</time>
      </trkpt>
      <trkpt lat="45.08264" lon="5.63002">
        <ele>1261.5</ele>
        <time>2026-02-05T12:46:40</time>
      </trkpt>
      <trkpt lat="45.08267" lon="5.63015">
        <ele>1260.4</ele>
        <time>2026-02-05T12:46:48</time>
      </trkpt>
      <trkpt lat="45.08269" lon="5.63019">
        <ele>1260.4</ele>
        <time>2026-02-05T12:46:53</time>
      </trkpt>
      <trkpt lat="45.0827" lon="5.63022">
        <ele>1260.1</ele>
        <time>2026-02-05T12:46:57</time>
      </trkpt>
      <trkpt lat="45.08272" lon="5.63023">
        <ele>1260.1</ele>
        <time>2026-02-05T12:47:01</time>
      </trkpt>
      <trkpt lat="45.08278" lon="5.6303">
        <ele>1259.3</ele>
        <time>2026-02-05T12:47:10</time>
      </trkpt>
      <trkpt lat="45.08281" lon="5.63035">
        <ele>1259.3</ele>
        <time>2026-02-05T12:47:15</time>
      </trkpt>
      <trkpt lat="45.08282" lon="5.63036">
        <ele>1262.6666</ele>
        <time>2026-02-05T12:47:16</time>
      </trkpt>
      <trkpt lat="45.08282" lon="5.63038">
        <ele>1262.6666</ele>
        <time>2026-02-05T12:47:17</time>
      </trkpt>
      <trkpt lat="45.08281" lon="5.63041">
        <ele>1262.6666</ele>
        <time>2026-02-05T12:47:20</time>
      </trkpt>
      <trkpt lat="45.0828" lon="5.63042">
        <ele>1262.6666</ele>
        <time>2026-02-05T12:47:21</time>
      </trkpt>
      <trkpt lat="45.0828" lon="5.63043">
        <ele>1262.6666</ele>
        <time>2026-02-05T12:47:23</time>
      </trkpt>
      <trkpt lat="45.08279" lon="5.63045">
        <ele>1263.1</ele>
        <time>2026-02-05T12:47:25</time>
      </trkpt>
      <trkpt lat="45.08276" lon="5.63062">
        <ele>1266.9667</ele>
        <time>2026-02-05T12:47:41</time>
      </trkpt>
      <trkpt lat="45.08274" lon="5.63063">
        <ele>1269.3</ele>
        <time>2026-02-05T12:47:48</time>
      </trkpt>
      <trkpt lat="45.08271" lon="5.6307">
        <ele>1269</ele>
        <time>2026-02-05T12:47:55</time>
      </trkpt>
      <trkpt lat="45.08271" lon="5.63073">
        <ele>1269</ele>
        <time>2026-02-05T12:47:58</time>
      </trkpt>
      <trkpt lat="45.08271" lon="5.63074">
        <ele>1269</ele>
        <time>2026-02-05T12:47:59</time>
      </trkpt>
      <trkpt lat="45.08272" lon="5.63078">
        <ele>1269</ele>
        <time>2026-02-05T12:48:02</time>
      </trkpt>
      <trkpt lat="45.08272" lon="5.63081">
        <ele>1267.5</ele>
        <time>2026-02-05T12:48:05</time>
      </trkpt>
      <trkpt lat="45.08272" lon="5.63094">
        <ele>1265.4</ele>
        <time>2026-02-05T12:48:14</time>
      </trkpt>
      <trkpt lat="45.08272" lon="5.63096">
        <ele>1265.4</ele>
        <time>2026-02-05T12:48:16</time>
      </trkpt>
      <trkpt lat="45.08272" lon="5.63097">
        <ele>1265.4</ele>
        <time>2026-02-05T12:48:17</time>
      </trkpt>
      <trkpt lat="45.08271" lon="5.63097">
        <ele>1265.4</ele>
        <time>2026-02-05T12:48:17</time>
      </trkpt>
      <trkpt lat="45.08271" lon="5.63099">
        <ele>1265.4</ele>
        <time>2026-02-05T12:48:18</time>
      </trkpt>
      <trkpt lat="45.08271" lon="5.631">
        <ele>1264</ele>
        <time>2026-02-05T12:48:19</time>
      </trkpt>
      <trkpt lat="45.08271" lon="5.63101">
        <ele>1264</ele>
        <time>2026-02-05T12:48:19</time>
      </trkpt>
      <trkpt lat="45.08272" lon="5.63103">
        <ele>1264</ele>
        <time>2026-02-05T12:48:20</time>
      </trkpt>
      <trkpt lat="45.08272" lon="5.63106">
        <ele>1264</ele>
        <time>2026-02-05T12:48:22</time>
      </trkpt>
      <trkpt lat="45.08274" lon="5.63114">
        <ele>1261.9</ele>
        <time>2026-02-05T12:48:29</time>
      </trkpt>
      <trkpt lat="45.08275" lon="5.63116">
        <ele>1261.9</ele>
        <time>2026-02-05T12:48:31</time>
      </trkpt>
      <trkpt lat="45.08275" lon="5.63117">
        <ele>1261.9</ele>
        <time>2026-02-05T12:48:31</time>
      </trkpt>
      <trkpt lat="45.08274" lon="5.63119">
        <ele>1261.5</ele>
        <time>2026-02-05T12:48:34</time>
      </trkpt>
      <trkpt lat="45.08274" lon="5.63124">
        <ele>1263.4667</ele>
        <time>2026-02-05T12:48:40</time>
      </trkpt>
      <trkpt lat="45.08274" lon="5.63124">
        <ele>1263.4667</ele>
        <time>2026-02-05T12:48:41</time>
      </trkpt>
      <trkpt lat="45.08274" lon="5.63124">
        <ele>1263.4667</ele>
        <time>2026-02-05T12:48:42</time>
      </trkpt>
      <trkpt lat="45.08274" lon="5.63124">
        <ele>1263.4667</ele>
        <time>2026-02-05T12:48:42</time>
      </trkpt>
      <trkpt lat="45.08274" lon="5.63125">
        <ele>1263.4667</ele>
        <time>2026-02-05T12:48:43</time>
      </trkpt>
      <trkpt lat="45.08274" lon="5.63125">
        <ele>1263.4667</ele>
        <time>2026-02-05T12:48:43</time>
      </trkpt>
      <trkpt lat="45.08273" lon="5.63129">
        <ele>1264.2</ele>
        <time>2026-02-05T12:48:47</time>
      </trkpt>
      <trkpt lat="45.08272" lon="5.6313">
        <ele>1264.2</ele>
        <time>2026-02-05T12:48:47</time>
      </trkpt>
      <trkpt lat="45.08271" lon="5.63131">
        <ele>1264.2</ele>
        <time>2026-02-05T12:48:48</time>
      </trkpt>
      <trkpt lat="45.08271" lon="5.63131">
        <ele>1264.2</ele>
        <time>2026-02-05T12:48:49</time>
      </trkpt>
      <trkpt lat="45.08271" lon="5.63128">
        <ele>1264.2</ele>
        <time>2026-02-05T12:48:52</time>
      </trkpt>
      <trkpt lat="45.08271" lon="5.63128">
        <ele>1264.2</ele>
        <time>2026-02-05T12:48:53</time>
      </trkpt>
      <trkpt lat="45.08271" lon="5.63128">
        <ele>1264.3</ele>
        <time>2026-02-05T12:48:56</time>
      </trkpt>
      <trkpt lat="45.08271" lon="5.63128">
        <ele>1264.3</ele>
        <time>2026-02-05T12:48:57</time>
      </trkpt>
      <trkpt lat="45.08271" lon="5.63128">
        <ele>1264.3</ele>
        <time>2026-02-05T12:48:58</time>
      </trkpt>
      <trkpt lat="45.08271" lon="5.63128">
        <ele>1264.3</ele>
        <time>2026-02-05T12:48:59</time>
      </trkpt>
      <trkpt lat="45.0827" lon="5.63134">
        <ele>1264</ele>
        <time>2026-02-05T12:49:02</time>
      </trkpt>
      <trkpt lat="45.08266" lon="5.63148">
        <ele>1263.6</ele>
        <time>2026-02-05T12:49:09</time>
      </trkpt>
      <trkpt lat="45.08264" lon="5.63174">
        <ele>1263.8</ele>
        <time>2026-02-05T12:49:24</time>
      </trkpt>
      <trkpt lat="45.08264" lon="5.63176">
        <ele>1263.8</ele>
        <time>2026-02-05T12:49:26</time>
      </trkpt>
      <trkpt lat="45.08264" lon="5.63182">
        <ele>1263.9</ele>
        <time>2026-02-05T12:49:30</time>
      </trkpt>
      <trkpt lat="45.08264" lon="5.63186">
        <ele>1263.9</ele>
        <time>2026-02-05T12:49:33</time>
      </trkpt>
      <trkpt lat="45.08264" lon="5.63211">
        <ele>1259.2</ele>
        <time>2026-02-05T12:49:47</time>
      </trkpt>
      <trkpt lat="45.08263" lon="5.63222">
        <ele>1259.3</ele>
        <time>2026-02-05T12:49:53</time>
      </trkpt>
      <trkpt lat="45.08264" lon="5.63227">
        <ele>1259.3</ele>
        <time>2026-02-05T12:49:56</time>
      </trkpt>
      <trkpt lat="45.08265" lon="5.63237">
        <ele>1260.1</ele>
        <time>2026-02-05T12:50:04</time>
      </trkpt>
      <trkpt lat="45.08265" lon="5.63238">
        <ele>1259.8</ele>
        <time>2026-02-05T12:50:05</time>
      </trkpt>
      <trkpt lat="45.08265" lon="5.63239">
        <ele>1259.8</ele>
        <time>2026-02-05T12:50:05</time>
      </trkpt>
      <trkpt lat="45.08264" lon="5.63242">
        <ele>1259.8</ele>
        <time>2026-02-05T12:50:08</time>
      </trkpt>
      <trkpt lat="45.08264" lon="5.63243">
        <ele>1259.8</ele>
        <time>2026-02-05T12:50:08</time>
      </trkpt>
      <trkpt lat="45.08265" lon="5.63244">
        <ele>1259.8</ele>
        <time>2026-02-05T12:50:09</time>
      </trkpt>
      <trkpt lat="45.08269" lon="5.63261">
        <ele>1260.6</ele>
        <time>2026-02-05T12:50:20</time>
      </trkpt>
      <trkpt lat="45.08271" lon="5.63265">
        <ele>1260.6</ele>
        <time>2026-02-05T12:50:23</time>
      </trkpt>
      <trkpt lat="45.08277" lon="5.63281">
        <ele>1262.1</ele>
        <time>2026-02-05T12:50:35</time>
      </trkpt>
      <trkpt lat="45.08277" lon="5.63284">
        <ele>1262.1</ele>
        <time>2026-02-05T12:50:37</time>
      </trkpt>
      <trkpt lat="45.08281" lon="5.63295">
        <ele>1262.1</ele>
        <time>2026-02-05T12:50:46</time>
      </trkpt>
      <trkpt lat="45.08282" lon="5.63299">
        <ele>1262.1</ele>
        <time>2026-02-05T12:50:50</time>
      </trkpt>
      <trkpt lat="45.08282" lon="5.63302">
        <ele>1262.1</ele>
        <time>2026-02-05T12:50:52</time>
      </trkpt>
      <trkpt lat="45.08283" lon="5.6331">
        <ele>1262.6</ele>
        <time>2026-02-05T12:50:59</time>
      </trkpt>
      <trkpt lat="45.08284" lon="5.63317">
        <ele>1262.9</ele>
        <time>2026-02-05T12:51:04</time>
      </trkpt>
      <trkpt lat="45.08283" lon="5.63323">
        <ele>1264.4</ele>
        <time>2026-02-05T12:51:11</time>
      </trkpt>
      <trkpt lat="45.08283" lon="5.63326">
        <ele>1264.4</ele>
        <time>2026-02-05T12:51:13</time>
      </trkpt>
      <trkpt lat="45.08283" lon="5.63327">
        <ele>1264.4</ele>
        <time>2026-02-05T12:51:14</time>
      </trkpt>
      <trkpt lat="45.08282" lon="5.63329">
        <ele>1267.3334</ele>
        <time>2026-02-05T12:51:16</time>
      </trkpt>
      <trkpt lat="45.08282" lon="5.63332">
        <ele>1267.3334</ele>
        <time>2026-02-05T12:51:18</time>
      </trkpt>
      <trkpt lat="45.08282" lon="5.63333">
        <ele>1267.3334</ele>
        <time>2026-02-05T12:51:20</time>
      </trkpt>
      <trkpt lat="45.08281" lon="5.63336">
        <ele>1269</ele>
        <time>2026-02-05T12:51:25</time>
      </trkpt>
      <trkpt lat="45.08281" lon="5.63337">
        <ele>1269</ele>
        <time>2026-02-05T12:51:26</time>
      </trkpt>
      <trkpt lat="45.08281" lon="5.63337">
        <ele>1269</ele>
        <time>2026-02-05T12:51:26</time>
      </trkpt>
      <trkpt lat="45.0828" lon="5.63337">
        <ele>1269</ele>
        <time>2026-02-05T12:51:27</time>
      </trkpt>
      <trkpt lat="45.0828" lon="5.63337">
        <ele>1269</ele>
        <time>2026-02-05T12:51:28</time>
      </trkpt>
      <trkpt lat="45.08279" lon="5.63338">
        <ele>1269</ele>
        <time>2026-02-05T12:51:29</time>
      </trkpt>
      <trkpt lat="45.08279" lon="5.63339">
        <ele>1270.6</ele>
        <time>2026-02-05T12:51:29</time>
      </trkpt>
      <trkpt lat="45.08279" lon="5.63339">
        <ele>1270.6</ele>
        <time>2026-02-05T12:51:30</time>
      </trkpt>
      <trkpt lat="45.08279" lon="5.63339">
        <ele>1270.6</ele>
        <time>2026-02-05T12:51:32</time>
      </trkpt>
      <trkpt lat="45.0828" lon="5.6334">
        <ele>1270.6</ele>
        <time>2026-02-05T12:51:34</time>
      </trkpt>
      <trkpt lat="45.0828" lon="5.6334">
        <ele>1270.6</ele>
        <time>2026-02-05T12:51:35</time>
      </trkpt>
      <trkpt lat="45.0828" lon="5.63341">
        <ele>1270.6</ele>
        <time>2026-02-05T12:51:36</time>
      </trkpt>
      <trkpt lat="45.0828" lon="5.63341">
        <ele>1270.6</ele>
        <time>2026-02-05T12:51:36</time>
      </trkpt>
      <trkpt lat="45.0828" lon="5.63342">
        <ele>1270.6</ele>
        <time>2026-02-05T12:51:37</time>
      </trkpt>
      <trkpt lat="45.08279" lon="5.63349">
        <ele>1272.9</ele>
        <time>2026-02-05T12:51:41</time>
      </trkpt>
      <trkpt lat="45.08278" lon="5.63351">
        <ele>1272.9</ele>
        <time>2026-02-05T12:51:43</time>
      </trkpt>
      <trkpt lat="45.08278" lon="5.63352">
        <ele>1274.3</ele>
        <time>2026-02-05T12:51:45</time>
      </trkpt>
      <trkpt lat="45.08279" lon="5.63352">
        <ele>1274.3</ele>
        <time>2026-02-05T12:51:48</time>
      </trkpt>
      <trkpt lat="45.08279" lon="5.63353">
        <ele>1274.3</ele>
        <time>2026-02-05T12:51:49</time>
      </trkpt>
      <trkpt lat="45.08279" lon="5.63355">
        <ele>1274.3</ele>
        <time>2026-02-05T12:51:49</time>
      </trkpt>
      <trkpt lat="45.08279" lon="5.63357">
        <ele>1274.3</ele>
        <time>2026-02-05T12:51:50</time>
      </trkpt>
      <trkpt lat="45.08279" lon="5.6336">
        <ele>1275.3334</ele>
        <time>2026-02-05T12:51:51</time>
      </trkpt>
      <trkpt lat="45.08279" lon="5.63362">
        <ele>1275.3334</ele>
        <time>2026-02-05T12:51:52</time>
      </trkpt>
      <trkpt lat="45.08277" lon="5.63366">
        <ele>1275.3334</ele>
        <time>2026-02-05T12:51:54</time>
      </trkpt>
      <trkpt lat="45.08276" lon="5.63367">
        <ele>1275.3334</ele>
        <time>2026-02-05T12:51:55</time>
      </trkpt>
      <trkpt lat="45.08275" lon="5.63369">
        <ele>1275.3334</ele>
        <time>2026-02-05T12:51:57</time>
      </trkpt>
      <trkpt lat="45.08275" lon="5.63371">
        <ele>1274.3334</ele>
        <time>2026-02-05T12:51:59</time>
      </trkpt>
      <trkpt lat="45.08274" lon="5.63372">
        <ele>1274.3334</ele>
        <time>2026-02-05T12:52:01</time>
      </trkpt>
      <trkpt lat="45.08274" lon="5.63373">
        <ele>1274.3334</ele>
        <time>2026-02-05T12:52:02</time>
      </trkpt>
      <trkpt lat="45.08274" lon="5.63373">
        <ele>1274.3334</ele>
        <time>2026-02-05T12:52:04</time>
      </trkpt>
      <trkpt lat="45.08274" lon="5.63372">
        <ele>1274.3334</ele>
        <time>2026-02-05T12:52:05</time>
      </trkpt>
      <trkpt lat="45.08274" lon="5.63373">
        <ele>1273.7</ele>
        <time>2026-02-05T12:52:06</time>
      </trkpt>
      <trkpt lat="45.08274" lon="5.63373">
        <ele>1273.7</ele>
        <time>2026-02-05T12:52:07</time>
      </trkpt>
      <trkpt lat="45.08274" lon="5.63373">
        <ele>1273.7</ele>
        <time>2026-02-05T12:52:08</time>
      </trkpt>
      <trkpt lat="45.08274" lon="5.63376">
        <ele>1273.7</ele>
        <time>2026-02-05T12:52:12</time>
      </trkpt>
      <trkpt lat="45.08274" lon="5.63377">
        <ele>1273.7</ele>
        <time>2026-02-05T12:52:13</time>
      </trkpt>
      <trkpt lat="45.08274" lon="5.63376">
        <ele>1273.7</ele>
        <time>2026-02-05T12:52:14</time>
      </trkpt>
      <trkpt lat="45.08274" lon="5.63376">
        <ele>1273.7</ele>
        <time>2026-02-05T12:52:15</time>
      </trkpt>
      <trkpt lat="45.08274" lon="5.63376">
        <ele>1273.7</ele>
        <time>2026-02-05T12:52:16</time>
      </trkpt>
      <trkpt lat="45.08274" lon="5.63377">
        <ele>1273.1</ele>
        <time>2026-02-05T12:52:24</time>
      </trkpt>
      <trkpt lat="45.08277" lon="5.63379">
        <ele>1273.1</ele>
        <time>2026-02-05T12:52:34</time>
      </trkpt>
      <trkpt lat="45.08279" lon="5.63381">
        <ele>1273.1</ele>
        <time>2026-02-05T12:52:42</time>
      </trkpt>
      <trkpt lat="45.08279" lon="5.63381">
        <ele>1273.1</ele>
        <time>2026-02-05T12:52:43</time>
      </trkpt>
      <trkpt lat="45.0828" lon="5.6338">
        <ele>1269.1</ele>
        <time>2026-02-05T12:52:49</time>
      </trkpt>
      <trkpt lat="45.0828" lon="5.63381">
        <ele>1269.1</ele>
        <time>2026-02-05T12:52:50</time>
      </trkpt>
      <trkpt lat="45.0828" lon="5.63381">
        <ele>1269.1</ele>
        <time>2026-02-05T12:52:51</time>
      </trkpt>
      <trkpt lat="45.0828" lon="5.63381">
        <ele>1269.1</ele>
        <time>2026-02-05T12:52:52</time>
      </trkpt>
      <trkpt lat="45.0828" lon="5.6338">
        <ele>1269.1333</ele>
        <time>2026-02-05T12:52:52</time>
      </trkpt>
      <trkpt lat="45.08279" lon="5.63381">
        <ele>1269.1333</ele>
        <time>2026-02-05T12:52:53</time>
      </trkpt>
      <trkpt lat="45.08279" lon="5.6338">
        <ele>1269.1333</ele>
        <time>2026-02-05T12:52:53</time>
      </trkpt>
      <trkpt lat="45.08279" lon="5.6338">
        <ele>1269.1333</ele>
        <time>2026-02-05T12:52:54</time>
      </trkpt>
      <trkpt lat="45.08277" lon="5.6338">
        <ele>1269.1333</ele>
        <time>2026-02-05T12:52:55</time>
      </trkpt>
      <trkpt lat="45.08276" lon="5.63379">
        <ele>1269.1333</ele>
        <time>2026-02-05T12:52:56</time>
      </trkpt>
      <trkpt lat="45.08272" lon="5.63373">
        <ele>1269.2</ele>
        <time>2026-02-05T12:53:00</time>
      </trkpt>
      <trkpt lat="45.08272" lon="5.6337">
        <ele>1269.2</ele>
        <time>2026-02-05T12:53:02</time>
      </trkpt>
      <trkpt lat="45.0827" lon="5.63365">
        <ele>1269.2</ele>
        <time>2026-02-05T12:53:05</time>
      </trkpt>
      <trkpt lat="45.0827" lon="5.63364">
        <ele>1269.2</ele>
        <time>2026-02-05T12:53:05</time>
      </trkpt>
      <trkpt lat="45.0827" lon="5.63362">
        <ele>1269.1</ele>
        <time>2026-02-05T12:53:08</time>
      </trkpt>
      <trkpt lat="45.0827" lon="5.63361">
        <ele>1269.1</ele>
        <time>2026-02-05T12:53:09</time>
      </trkpt>
      <trkpt lat="45.08269" lon="5.6336">
        <ele>1269.1</ele>
        <time>2026-02-05T12:53:09</time>
      </trkpt>
      <trkpt lat="45.08268" lon="5.63359">
        <ele>1269.1</ele>
        <time>2026-02-05T12:53:11</time>
      </trkpt>
      <trkpt lat="45.08268" lon="5.63358">
        <ele>1269.1</ele>
        <time>2026-02-05T12:53:11</time>
      </trkpt>
      <trkpt lat="45.08267" lon="5.63358">
        <ele>1269.1</ele>
        <time>2026-02-05T12:53:12</time>
      </trkpt>
      <trkpt lat="45.08267" lon="5.63357">
        <ele>1268.5</ele>
        <time>2026-02-05T12:53:12</time>
      </trkpt>
      <trkpt lat="45.08266" lon="5.63357">
        <ele>1268.5</ele>
        <time>2026-02-05T12:53:13</time>
      </trkpt>
      <trkpt lat="45.08266" lon="5.63358">
        <ele>1268.5</ele>
        <time>2026-02-05T12:53:14</time>
      </trkpt>
      <trkpt lat="45.08266" lon="5.63358">
        <ele>1268.5</ele>
        <time>2026-02-05T12:53:14</time>
      </trkpt>
      <trkpt lat="45.08264" lon="5.63358">
        <ele>1268.5</ele>
        <time>2026-02-05T12:53:16</time>
      </trkpt>
      <trkpt lat="45.08264" lon="5.63358">
        <ele>1268.5</ele>
        <time>2026-02-05T12:53:16</time>
      </trkpt>
      <trkpt lat="45.08263" lon="5.63358">
        <ele>1268.5</ele>
        <time>2026-02-05T12:53:17</time>
      </trkpt>
      <trkpt lat="45.08262" lon="5.63358">
        <ele>1268.5</ele>
        <time>2026-02-05T12:53:18</time>
      </trkpt>
      <trkpt lat="45.08262" lon="5.63358">
        <ele>1268.4</ele>
        <time>2026-02-05T12:53:19</time>
      </trkpt>
      <trkpt lat="45.08261" lon="5.63358">
        <ele>1268.4</ele>
        <time>2026-02-05T12:53:20</time>
      </trkpt>
      <trkpt lat="45.0826" lon="5.63359">
        <ele>1268.4</ele>
        <time>2026-02-05T12:53:21</time>
      </trkpt>
      <trkpt lat="45.0826" lon="5.63359">
        <ele>1268.4</ele>
        <time>2026-02-05T12:53:22</time>
      </trkpt>
      <trkpt lat="45.08259" lon="5.6336">
        <ele>1268.4</ele>
        <time>2026-02-05T12:53:23</time>
      </trkpt>
      <trkpt lat="45.08259" lon="5.6336">
        <ele>1268.4</ele>
        <time>2026-02-05T12:53:24</time>
      </trkpt>
      <trkpt lat="45.08258" lon="5.6336">
        <ele>1268.4</ele>
        <time>2026-02-05T12:53:24</time>
      </trkpt>
      <trkpt lat="45.08257" lon="5.6336">
        <ele>1268.3</ele>
        <time>2026-02-05T12:53:25</time>
      </trkpt>
      <trkpt lat="45.08257" lon="5.6336">
        <ele>1268.3</ele>
        <time>2026-02-05T12:53:26</time>
      </trkpt>
      <trkpt lat="45.08257" lon="5.6336">
        <ele>1268.3</ele>
        <time>2026-02-05T12:53:26</time>
      </trkpt>
      <trkpt lat="45.08256" lon="5.63361">
        <ele>1268.3</ele>
        <time>2026-02-05T12:53:27</time>
      </trkpt>
      <trkpt lat="45.08256" lon="5.63361">
        <ele>1268.3</ele>
        <time>2026-02-05T12:53:28</time>
      </trkpt>
      <trkpt lat="45.08255" lon="5.63362">
        <ele>1268.3</ele>
        <time>2026-02-05T12:53:28</time>
      </trkpt>
      <trkpt lat="45.08255" lon="5.63363">
        <ele>1268.3</ele>
        <time>2026-02-05T12:53:29</time>
      </trkpt>
      <trkpt lat="45.08255" lon="5.63364">
        <ele>1268.3</ele>
        <time>2026-02-05T12:53:29</time>
      </trkpt>
      <trkpt lat="45.08255" lon="5.6337">
        <ele>1265.3</ele>
        <time>2026-02-05T12:53:33</time>
      </trkpt>
      <trkpt lat="45.08255" lon="5.63371">
        <ele>1265.3</ele>
        <time>2026-02-05T12:53:35</time>
      </trkpt>
      <trkpt lat="45.08255" lon="5.63372">
        <ele>1265.3</ele>
        <time>2026-02-05T12:53:36</time>
      </trkpt>
      <trkpt lat="45.08255" lon="5.63372">
        <ele>1265.3</ele>
        <time>2026-02-05T12:53:37</time>
      </trkpt>
      <trkpt lat="45.08254" lon="5.63372">
        <ele>1265.3</ele>
        <time>2026-02-05T12:53:38</time>
      </trkpt>
      <trkpt lat="45.08253" lon="5.63373">
        <ele>1265.3</ele>
        <time>2026-02-05T12:53:39</time>
      </trkpt>
      <trkpt lat="45.08252" lon="5.63373">
        <ele>1263.5667</ele>
        <time>2026-02-05T12:53:40</time>
      </trkpt>
      <trkpt lat="45.08252" lon="5.63374">
        <ele>1263.5667</ele>
        <time>2026-02-05T12:53:40</time>
      </trkpt>
      <trkpt lat="45.0825" lon="5.63376">
        <ele>1263.5667</ele>
        <time>2026-02-05T12:53:43</time>
      </trkpt>
      <trkpt lat="45.08248" lon="5.63377">
        <ele>1263.5667</ele>
        <time>2026-02-05T12:53:45</time>
      </trkpt>
      <trkpt lat="45.08248" lon="5.63377">
        <ele>1263.5667</ele>
        <time>2026-02-05T12:53:46</time>
      </trkpt>
      <trkpt lat="45.08248" lon="5.63377">
        <ele>1262.1</ele>
        <time>2026-02-05T12:53:46</time>
      </trkpt>
      <trkpt lat="45.08248" lon="5.63377">
        <ele>1262.1</ele>
        <time>2026-02-05T12:53:47</time>
      </trkpt>
      <trkpt lat="45.08248" lon="5.63378">
        <ele>1262.1</ele>
        <time>2026-02-05T12:53:48</time>
      </trkpt>
      <trkpt lat="45.08247" lon="5.63378">
        <ele>1262.1</ele>
        <time>2026-02-05T12:53:49</time>
      </trkpt>
      <trkpt lat="45.08247" lon="5.63378">
        <ele>1262.1</ele>
        <time>2026-02-05T12:53:49</time>
      </trkpt>
      <trkpt lat="45.08246" lon="5.63378">
        <ele>1262.1</ele>
        <time>2026-02-05T12:53:50</time>
      </trkpt>
      <trkpt lat="45.08245" lon="5.63378">
        <ele>1262.1</ele>
        <time>2026-02-05T12:53:52</time>
      </trkpt>
      <trkpt lat="45.08245" lon="5.63378">
        <ele>1260.8</ele>
        <time>2026-02-05T12:53:52</time>
      </trkpt>
      <trkpt lat="45.08244" lon="5.63378">
        <ele>1260.8</ele>
        <time>2026-02-05T12:53:53</time>
      </trkpt>
      <trkpt lat="45.08244" lon="5.63378">
        <ele>1260.8</ele>
        <time>2026-02-05T12:53:54</time>
      </trkpt>
      <trkpt lat="45.08244" lon="5.63378">
        <ele>1260.8</ele>
        <time>2026-02-05T12:53:55</time>
      </trkpt>
      <trkpt lat="45.08244" lon="5.63378">
        <ele>1260.8</ele>
        <time>2026-02-05T12:53:56</time>
      </trkpt>
      <trkpt lat="45.08243" lon="5.63378">
        <ele>1260.8</ele>
        <time>2026-02-05T12:53:56</time>
      </trkpt>
      <trkpt lat="45.08243" lon="5.63377">
        <ele>1260.8</ele>
        <time>2026-02-05T12:53:57</time>
      </trkpt>
      <trkpt lat="45.08243" lon="5.63377">
        <ele>1260.8</ele>
        <time>2026-02-05T12:53:58</time>
      </trkpt>
      <trkpt lat="45.08243" lon="5.63377">
        <ele>1258.9</ele>
        <time>2026-02-05T12:54:01</time>
      </trkpt>
      <trkpt lat="45.08243" lon="5.63377">
        <ele>1258.9</ele>
        <time>2026-02-05T12:54:03</time>
      </trkpt>
      <trkpt lat="45.08243" lon="5.63377">
        <ele>1258.9</ele>
        <time>2026-02-05T12:54:04</time>
      </trkpt>
      <trkpt lat="45.08242" lon="5.63377">
        <ele>1258.9</ele>
        <time>2026-02-05T12:54:04</time>
      </trkpt>
      <trkpt lat="45.08242" lon="5.63377">
        <ele>1258.9</ele>
        <time>2026-02-05T12:54:06</time>
      </trkpt>
      <trkpt lat="45.08242" lon="5.63377">
        <ele>1258.3</ele>
        <time>2026-02-05T12:54:06</time>
      </trkpt>
      <trkpt lat="45.08242" lon="5.63377">
        <ele>1258.3</ele>
        <time>2026-02-05T12:54:08</time>
      </trkpt>
      <trkpt lat="45.08243" lon="5.63376">
        <ele>1258.3</ele>
        <time>2026-02-05T12:54:09</time>
      </trkpt>
      <trkpt lat="45.08243" lon="5.63376">
        <ele>1258.3</ele>
        <time>2026-02-05T12:54:09</time>
      </trkpt>
      <trkpt lat="45.08243" lon="5.63375">
        <ele>1258.3</ele>
        <time>2026-02-05T12:54:10</time>
      </trkpt>
      <trkpt lat="45.08242" lon="5.63374">
        <ele>1258.3</ele>
        <time>2026-02-05T12:54:13</time>
      </trkpt>
      <trkpt lat="45.08242" lon="5.63373">
        <ele>1258.3</ele>
        <time>2026-02-05T12:54:14</time>
      </trkpt>
      <trkpt lat="45.08242" lon="5.63372">
        <ele>1258.3</ele>
        <time>2026-02-05T12:54:15</time>
      </trkpt>
      <trkpt lat="45.08241" lon="5.6337">
        <ele>1258.4</ele>
        <time>2026-02-05T12:54:15</time>
      </trkpt>
      <trkpt lat="45.0824" lon="5.63367">
        <ele>1258.4</ele>
        <time>2026-02-05T12:54:17</time>
      </trkpt>
      <trkpt lat="45.08238" lon="5.63364">
        <ele>1258.4</ele>
        <time>2026-02-05T12:54:19</time>
      </trkpt>
      <trkpt lat="45.08236" lon="5.63359">
        <ele>1257.9</ele>
        <time>2026-02-05T12:54:22</time>
      </trkpt>
      <trkpt lat="45.08236" lon="5.63359">
        <ele>1257.9</ele>
        <time>2026-02-05T12:54:23</time>
      </trkpt>
      <trkpt lat="45.08235" lon="5.63358">
        <ele>1257.9</ele>
        <time>2026-02-05T12:54:23</time>
      </trkpt>
      <trkpt lat="45.08235" lon="5.63357">
        <ele>1257.9</ele>
        <time>2026-02-05T12:54:25</time>
      </trkpt>
      <trkpt lat="45.08235" lon="5.63357">
        <ele>1257.9</ele>
        <time>2026-02-05T12:54:25</time>
      </trkpt>
      <trkpt lat="45.08235" lon="5.63357">
        <ele>1257.9</ele>
        <time>2026-02-05T12:54:27</time>
      </trkpt>
      <trkpt lat="45.08236" lon="5.63358">
        <ele>1257.9</ele>
        <time>2026-02-05T12:54:29</time>
      </trkpt>
      <trkpt lat="45.08236" lon="5.63358">
        <ele>1257.9</ele>
        <time>2026-02-05T12:54:29</time>
      </trkpt>
      <trkpt lat="45.08236" lon="5.63358">
        <ele>1257.9</ele>
        <time>2026-02-05T12:54:30</time>
      </trkpt>
      <trkpt lat="45.08236" lon="5.63359">
        <ele>1257.9</ele>
        <time>2026-02-05T12:54:31</time>
      </trkpt>
      <trkpt lat="45.08236" lon="5.6336">
        <ele>1257.9</ele>
        <time>2026-02-05T12:54:33</time>
      </trkpt>
      <trkpt lat="45.08236" lon="5.6336">
        <ele>1257.9</ele>
        <time>2026-02-05T12:54:34</time>
      </trkpt>
      <trkpt lat="45.08236" lon="5.63359">
        <ele>1258</ele>
        <time>2026-02-05T12:54:37</time>
      </trkpt>
      <trkpt lat="45.08236" lon="5.63358">
        <ele>1258</ele>
        <time>2026-02-05T12:54:38</time>
      </trkpt>
      <trkpt lat="45.08236" lon="5.63358">
        <ele>1258</ele>
        <time>2026-02-05T12:54:40</time>
      </trkpt>
      <trkpt lat="45.08235" lon="5.63356">
        <ele>1258</ele>
        <time>2026-02-05T12:54:41</time>
      </trkpt>
      <trkpt lat="45.08234" lon="5.63355">
        <ele>1258</ele>
        <time>2026-02-05T12:54:41</time>
      </trkpt>
      <trkpt lat="45.08234" lon="5.63353">
        <ele>1256.3</ele>
        <time>2026-02-05T12:54:43</time>
      </trkpt>
      <trkpt lat="45.08233" lon="5.63351">
        <ele>1256.3</ele>
        <time>2026-02-05T12:54:43</time>
      </trkpt>
      <trkpt lat="45.08232" lon="5.63349">
        <ele>1256.3</ele>
        <time>2026-02-05T12:54:45</time>
      </trkpt>
      <trkpt lat="45.08231" lon="5.63348">
        <ele>1256.3</ele>
        <time>2026-02-05T12:54:45</time>
      </trkpt>
      <trkpt lat="45.0823" lon="5.63346">
        <ele>1256.3</ele>
        <time>2026-02-05T12:54:47</time>
      </trkpt>
      <trkpt lat="45.08227" lon="5.63339">
        <ele>1256.3334</ele>
        <time>2026-02-05T12:54:52</time>
      </trkpt>
      <trkpt lat="45.08227" lon="5.63339">
        <ele>1256.3334</ele>
        <time>2026-02-05T12:54:52</time>
      </trkpt>
      <trkpt lat="45.08226" lon="5.63337">
        <ele>1256.3334</ele>
        <time>2026-02-05T12:54:54</time>
      </trkpt>
      <trkpt lat="45.08225" lon="5.63336">
        <ele>1256.3334</ele>
        <time>2026-02-05T12:54:55</time>
      </trkpt>
      <trkpt lat="45.08225" lon="5.63336">
        <ele>1256.3334</ele>
        <time>2026-02-05T12:54:55</time>
      </trkpt>
      <trkpt lat="45.08224" lon="5.63335">
        <ele>1256.3334</ele>
        <time>2026-02-05T12:54:57</time>
      </trkpt>
      <trkpt lat="45.08223" lon="5.63334">
        <ele>1256.2</ele>
        <time>2026-02-05T12:54:59</time>
      </trkpt>
      <trkpt lat="45.08222" lon="5.63332">
        <ele>1256.2</ele>
        <time>2026-02-05T12:55:00</time>
      </trkpt>
      <trkpt lat="45.08221" lon="5.6333">
        <ele>1256.2</ele>
        <time>2026-02-05T12:55:02</time>
      </trkpt>
      <trkpt lat="45.08221" lon="5.63329">
        <ele>1256.2</ele>
        <time>2026-02-05T12:55:03</time>
      </trkpt>
      <trkpt lat="45.08221" lon="5.63328">
        <ele>1256.2</ele>
        <time>2026-02-05T12:55:04</time>
      </trkpt>
      <trkpt lat="45.08221" lon="5.63327">
        <ele>1254.1</ele>
        <time>2026-02-05T12:55:06</time>
      </trkpt>
      <trkpt lat="45.0822" lon="5.63327">
        <ele>1254.1</ele>
        <time>2026-02-05T12:55:07</time>
      </trkpt>
      <trkpt lat="45.0822" lon="5.63327">
        <ele>1254.1</ele>
        <time>2026-02-05T12:55:07</time>
      </trkpt>
      <trkpt lat="45.08219" lon="5.63326">
        <ele>1254.1</ele>
        <time>2026-02-05T12:55:08</time>
      </trkpt>
      <trkpt lat="45.08217" lon="5.63325">
        <ele>1254.1</ele>
        <time>2026-02-05T12:55:10</time>
      </trkpt>
      <trkpt lat="45.08216" lon="5.63325">
        <ele>1251.5</ele>
        <time>2026-02-05T12:55:11</time>
      </trkpt>
      <trkpt lat="45.08215" lon="5.63324">
        <ele>1251.5</ele>
        <time>2026-02-05T12:55:12</time>
      </trkpt>
      <trkpt lat="45.08214" lon="5.63322">
        <ele>1251.5</ele>
        <time>2026-02-05T12:55:14</time>
      </trkpt>
      <trkpt lat="45.08212" lon="5.63321">
        <ele>1251.5</ele>
        <time>2026-02-05T12:55:16</time>
      </trkpt>
      <trkpt lat="45.08211" lon="5.63319">
        <ele>1249.8</ele>
        <time>2026-02-05T12:55:17</time>
      </trkpt>
      <trkpt lat="45.0821" lon="5.63318">
        <ele>1249.8</ele>
        <time>2026-02-05T12:55:18</time>
      </trkpt>
      <trkpt lat="45.08209" lon="5.63318">
        <ele>1249.8</ele>
        <time>2026-02-05T12:55:19</time>
      </trkpt>
      <trkpt lat="45.08207" lon="5.63315">
        <ele>1249.8</ele>
        <time>2026-02-05T12:55:23</time>
      </trkpt>
      <trkpt lat="45.08207" lon="5.63315">
        <ele>1249.8</ele>
        <time>2026-02-05T12:55:24</time>
      </trkpt>
      <trkpt lat="45.08207" lon="5.63314">
        <ele>1247.2</ele>
        <time>2026-02-05T12:55:24</time>
      </trkpt>
      <trkpt lat="45.08206" lon="5.63313">
        <ele>1247.2</ele>
        <time>2026-02-05T12:55:26</time>
      </trkpt>
      <trkpt lat="45.08206" lon="5.63313">
        <ele>1247.2</ele>
        <time>2026-02-05T12:55:26</time>
      </trkpt>
      <trkpt lat="45.08205" lon="5.63312">
        <ele>1247.2</ele>
        <time>2026-02-05T12:55:27</time>
      </trkpt>
      <trkpt lat="45.08205" lon="5.63312">
        <ele>1247.2</ele>
        <time>2026-02-05T12:55:28</time>
      </trkpt>
      <trkpt lat="45.08205" lon="5.63312">
        <ele>1247.2</ele>
        <time>2026-02-05T12:55:29</time>
      </trkpt>
      <trkpt lat="45.08204" lon="5.63312">
        <ele>1247.2</ele>
        <time>2026-02-05T12:55:29</time>
      </trkpt>
      <trkpt lat="45.08204" lon="5.63311">
        <ele>1245.4</ele>
        <time>2026-02-05T12:55:30</time>
      </trkpt>
      <trkpt lat="45.08204" lon="5.63311">
        <ele>1245.4</ele>
        <time>2026-02-05T12:55:31</time>
      </trkpt>
      <trkpt lat="45.08204" lon="5.6331">
        <ele>1245.4</ele>
        <time>2026-02-05T12:55:32</time>
      </trkpt>
      <trkpt lat="45.08204" lon="5.6331">
        <ele>1245.4</ele>
        <time>2026-02-05T12:55:32</time>
      </trkpt>
      <trkpt lat="45.08204" lon="5.63309">
        <ele>1245.4</ele>
        <time>2026-02-05T12:55:35</time>
      </trkpt>
      <trkpt lat="45.08204" lon="5.63308">
        <ele>1245.4</ele>
        <time>2026-02-05T12:55:36</time>
      </trkpt>
      <trkpt lat="45.08204" lon="5.63308">
        <ele>1245.4</ele>
        <time>2026-02-05T12:55:36</time>
      </trkpt>
      <trkpt lat="45.08203" lon="5.63307">
        <ele>1245.4</ele>
        <time>2026-02-05T12:55:37</time>
      </trkpt>
      <trkpt lat="45.08202" lon="5.63305">
        <ele>1243.8</ele>
        <time>2026-02-05T12:55:39</time>
      </trkpt>
      <trkpt lat="45.082" lon="5.63303">
        <ele>1243.8</ele>
        <time>2026-02-05T12:55:42</time>
      </trkpt>
      <trkpt lat="45.08199" lon="5.63302">
        <ele>1243.1</ele>
        <time>2026-02-05T12:55:44</time>
      </trkpt>
      <trkpt lat="45.08198" lon="5.63302">
        <ele>1243.1</ele>
        <time>2026-02-05T12:55:45</time>
      </trkpt>
      <trkpt lat="45.08197" lon="5.63301">
        <ele>1243.1</ele>
        <time>2026-02-05T12:55:47</time>
      </trkpt>
      <trkpt lat="45.08196" lon="5.63299">
        <ele>1243.1</ele>
        <time>2026-02-05T12:55:49</time>
      </trkpt>
      <trkpt lat="45.08196" lon="5.63299">
        <ele>1243.1</ele>
        <time>2026-02-05T12:55:50</time>
      </trkpt>
      <trkpt lat="45.08195" lon="5.63298">
        <ele>1243.1</ele>
        <time>2026-02-05T12:55:51</time>
      </trkpt>
      <trkpt lat="45.08192" lon="5.63294">
        <ele>1241.2</ele>
        <time>2026-02-05T12:55:55</time>
      </trkpt>
      <trkpt lat="45.08189" lon="5.63292">
        <ele>1239.8</ele>
        <time>2026-02-05T12:55:59</time>
      </trkpt>
      <trkpt lat="45.08188" lon="5.6329">
        <ele>1239.8</ele>
        <time>2026-02-05T12:56:01</time>
      </trkpt>
      <trkpt lat="45.08187" lon="5.63289">
        <ele>1239.8</ele>
        <time>2026-02-05T12:56:01</time>
      </trkpt>
      <trkpt lat="45.08185" lon="5.63288">
        <ele>1239.8</ele>
        <time>2026-02-05T12:56:04</time>
      </trkpt>
      <trkpt lat="45.08183" lon="5.63286">
        <ele>1238.6</ele>
        <time>2026-02-05T12:56:06</time>
      </trkpt>
      <trkpt lat="45.08181" lon="5.63285">
        <ele>1238.6</ele>
        <time>2026-02-05T12:56:10</time>
      </trkpt>
      <trkpt lat="45.08179" lon="5.63284">
        <ele>1238.7</ele>
        <time>2026-02-05T12:56:11</time>
      </trkpt>
      <trkpt lat="45.08177" lon="5.63283">
        <ele>1238.7</ele>
        <time>2026-02-05T12:56:14</time>
      </trkpt>
      <trkpt lat="45.08176" lon="5.63282">
        <ele>1238.7</ele>
        <time>2026-02-05T12:56:17</time>
      </trkpt>
      <trkpt lat="45.08176" lon="5.63282">
        <ele>1237.6</ele>
        <time>2026-02-05T12:56:18</time>
      </trkpt>
      <trkpt lat="45.08176" lon="5.63281">
        <ele>1237.6</ele>
        <time>2026-02-05T12:56:19</time>
      </trkpt>
      <trkpt lat="45.08176" lon="5.63281">
        <ele>1237.6</ele>
        <time>2026-02-05T12:56:21</time>
      </trkpt>
      <trkpt lat="45.08176" lon="5.63281">
        <ele>1237.6</ele>
        <time>2026-02-05T12:56:22</time>
      </trkpt>
      <trkpt lat="45.08176" lon="5.63282">
        <ele>1237.6</ele>
        <time>2026-02-05T12:56:24</time>
      </trkpt>
    </trkseg>
  </trk>
</gpx>